<?xml version="1.0" encoding="UTF-8" standalone="no" ?>
<gpx xmlns="http://www.topografix.com/GPX/1/1" xmlns:xsi="http://www.w3.org/2001/XMLSchema-instance" xsi:schemaLocation="http://www.topografix.com/GPX/1/1 http://www.topografix.com/GPX/1/1/gpx.xsd" version="1.1" creator="VisuGPX - https://www.visugpx.com">
  <metadata>
    <name>105SG72-7397317-</name>
    <desc><![CDATA[12-19
]]></desc>
  </metadata>
  <trk>
    <name><![CDATA[105SG72-7397317-]]></name>
    <trkseg>
      <trkpt lat="46.69962" lon="-1.93364">
        <ele>4</ele>
        <time>2018-04-20T14:48:17Z</time>
      </trkpt>
      <trkpt lat="46.69962" lon="-1.93368">
        <ele>4</ele>
        <time>2018-04-20T14:49:17Z</time>
      </trkpt>
      <trkpt lat="46.69963" lon="-1.93373">
        <ele>4</ele>
        <time>2018-04-20T14:50:17Z</time>
      </trkpt>
      <trkpt lat="46.69963" lon="-1.93373">
        <ele>4</ele>
        <time>2018-04-20T14:51:17Z</time>
      </trkpt>
      <trkpt lat="46.69958" lon="-1.93375">
        <ele>4</ele>
        <time>2018-04-20T14:52:17Z</time>
      </trkpt>
      <trkpt lat="46.69953" lon="-1.93377">
        <ele>4</ele>
        <time>2018-04-20T14:53:17Z</time>
      </trkpt>
      <trkpt lat="46.69949" lon="-1.93379">
        <ele>4</ele>
        <time>2018-04-20T14:54:17Z</time>
      </trkpt>
      <trkpt lat="46.69944" lon="-1.93381">
        <ele>4</ele>
        <time>2018-04-20T14:55:17Z</time>
      </trkpt>
      <trkpt lat="46.69935" lon="-1.93382">
        <ele>4</ele>
        <time>2018-04-20T14:56:17Z</time>
      </trkpt>
      <trkpt lat="46.69925" lon="-1.93383">
        <ele>4</ele>
        <time>2018-04-20T14:57:17Z</time>
      </trkpt>
      <trkpt lat="46.69922" lon="-1.93383">
        <ele>4</ele>
        <time>2018-04-20T14:58:17Z</time>
      </trkpt>
      <trkpt lat="46.69915" lon="-1.93383">
        <ele>4</ele>
        <time>2018-04-20T14:59:17Z</time>
      </trkpt>
      <trkpt lat="46.69915" lon="-1.93384">
        <ele>4</ele>
        <time>2018-04-20T15:00:17Z</time>
      </trkpt>
      <trkpt lat="46.69913" lon="-1.93385">
        <ele>4</ele>
        <time>2018-04-20T15:01:17Z</time>
      </trkpt>
      <trkpt lat="46.69912" lon="-1.93386">
        <ele>4</ele>
        <time>2018-04-20T15:02:17Z</time>
      </trkpt>
      <trkpt lat="46.69911" lon="-1.93386">
        <ele>4</ele>
        <time>2018-04-20T15:03:17Z</time>
      </trkpt>
      <trkpt lat="46.69909" lon="-1.93385">
        <ele>4</ele>
        <time>2018-04-20T15:04:17Z</time>
      </trkpt>
      <trkpt lat="46.69908" lon="-1.93383">
        <ele>4</ele>
        <time>2018-04-20T15:05:17Z</time>
      </trkpt>
      <trkpt lat="46.69901" lon="-1.93383">
        <ele>5</ele>
        <time>2018-04-20T15:06:17Z</time>
      </trkpt>
      <trkpt lat="46.69898" lon="-1.93383">
        <ele>5</ele>
        <time>2018-04-20T15:07:17Z</time>
      </trkpt>
      <trkpt lat="46.69892" lon="-1.93385">
        <ele>5</ele>
        <time>2018-04-20T15:08:17Z</time>
      </trkpt>
      <trkpt lat="46.69824" lon="-1.93411">
        <ele>5</ele>
        <time>2018-04-20T15:09:17Z</time>
      </trkpt>
      <trkpt lat="46.69806" lon="-1.93419">
        <ele>5</ele>
        <time>2018-04-20T15:10:17Z</time>
      </trkpt>
      <trkpt lat="46.69798" lon="-1.93421">
        <ele>5</ele>
        <time>2018-04-20T15:11:17Z</time>
      </trkpt>
      <trkpt lat="46.69797" lon="-1.93421">
        <ele>5</ele>
        <time>2018-04-20T15:12:17Z</time>
      </trkpt>
      <trkpt lat="46.69793" lon="-1.9342">
        <ele>5</ele>
        <time>2018-04-20T15:13:17Z</time>
      </trkpt>
      <trkpt lat="46.69793" lon="-1.93421">
        <ele>5</ele>
        <time>2018-04-20T15:14:17Z</time>
      </trkpt>
      <trkpt lat="46.69793" lon="-1.93422">
        <ele>5</ele>
        <time>2018-04-20T15:15:17Z</time>
      </trkpt>
      <trkpt lat="46.69793" lon="-1.93423">
        <ele>5</ele>
        <time>2018-04-20T15:16:17Z</time>
      </trkpt>
      <trkpt lat="46.69793" lon="-1.93424">
        <ele>5</ele>
        <time>2018-04-20T15:17:17Z</time>
      </trkpt>
      <trkpt lat="46.69792" lon="-1.93425">
        <ele>5</ele>
        <time>2018-04-20T15:18:17Z</time>
      </trkpt>
      <trkpt lat="46.69792" lon="-1.93426">
        <ele>5</ele>
        <time>2018-04-20T15:19:17Z</time>
      </trkpt>
      <trkpt lat="46.69791" lon="-1.93426">
        <ele>5</ele>
        <time>2018-04-20T15:20:17Z</time>
      </trkpt>
      <trkpt lat="46.69791" lon="-1.93427">
        <ele>5</ele>
        <time>2018-04-20T15:21:17Z</time>
      </trkpt>
      <trkpt lat="46.6979" lon="-1.93427">
        <ele>5</ele>
        <time>2018-04-20T15:22:17Z</time>
      </trkpt>
      <trkpt lat="46.6979" lon="-1.93428">
        <ele>5</ele>
        <time>2018-04-20T15:23:17Z</time>
      </trkpt>
      <trkpt lat="46.69789" lon="-1.93428">
        <ele>5</ele>
        <time>2018-04-20T15:24:17Z</time>
      </trkpt>
      <trkpt lat="46.69788" lon="-1.93428">
        <ele>5</ele>
        <time>2018-04-20T15:25:17Z</time>
      </trkpt>
      <trkpt lat="46.69788" lon="-1.93427">
        <ele>5</ele>
        <time>2018-04-20T15:26:17Z</time>
      </trkpt>
      <trkpt lat="46.69787" lon="-1.93427">
        <ele>5</ele>
        <time>2018-04-20T15:27:17Z</time>
      </trkpt>
      <trkpt lat="46.69787" lon="-1.93426">
        <ele>5</ele>
        <time>2018-04-20T15:28:17Z</time>
      </trkpt>
      <trkpt lat="46.69786" lon="-1.93426">
        <ele>5</ele>
        <time>2018-04-20T15:29:17Z</time>
      </trkpt>
      <trkpt lat="46.69786" lon="-1.93425">
        <ele>5</ele>
        <time>2018-04-20T15:30:17Z</time>
      </trkpt>
      <trkpt lat="46.69786" lon="-1.93424">
        <ele>5</ele>
        <time>2018-04-20T15:31:17Z</time>
      </trkpt>
      <trkpt lat="46.69785" lon="-1.93424">
        <ele>5</ele>
        <time>2018-04-20T15:32:17Z</time>
      </trkpt>
      <trkpt lat="46.69785" lon="-1.93423">
        <ele>5</ele>
        <time>2018-04-20T15:33:17Z</time>
      </trkpt>
      <trkpt lat="46.69785" lon="-1.93422">
        <ele>5</ele>
        <time>2018-04-20T15:34:17Z</time>
      </trkpt>
      <trkpt lat="46.69779" lon="-1.9342">
        <ele>5</ele>
        <time>2018-04-20T15:35:17Z</time>
      </trkpt>
      <trkpt lat="46.69776" lon="-1.9342">
        <ele>5</ele>
        <time>2018-04-20T15:36:17Z</time>
      </trkpt>
      <trkpt lat="46.69772" lon="-1.9342">
        <ele>5</ele>
        <time>2018-04-20T15:37:17Z</time>
      </trkpt>
      <trkpt lat="46.69762" lon="-1.93423">
        <ele>5</ele>
        <time>2018-04-20T15:38:17Z</time>
      </trkpt>
      <trkpt lat="46.69759" lon="-1.93424">
        <ele>5</ele>
        <time>2018-04-20T15:39:17Z</time>
      </trkpt>
      <trkpt lat="46.69721" lon="-1.93434">
        <ele>5</ele>
        <time>2018-04-20T15:40:17Z</time>
      </trkpt>
      <trkpt lat="46.69714" lon="-1.93435">
        <ele>5</ele>
        <time>2018-04-20T15:41:17Z</time>
      </trkpt>
      <trkpt lat="46.69697" lon="-1.93436">
        <ele>5</ele>
        <time>2018-04-20T15:42:17Z</time>
      </trkpt>
      <trkpt lat="46.69685" lon="-1.93435">
        <ele>5</ele>
        <time>2018-04-20T15:43:17Z</time>
      </trkpt>
      <trkpt lat="46.69633" lon="-1.93423">
        <ele>5</ele>
        <time>2018-04-20T15:44:17Z</time>
      </trkpt>
      <trkpt lat="46.69633" lon="-1.93423">
        <ele>5</ele>
        <time>2018-04-20T15:45:17Z</time>
      </trkpt>
      <trkpt lat="46.69633" lon="-1.93424">
        <ele>4</ele>
        <time>2018-04-20T15:46:17Z</time>
      </trkpt>
      <trkpt lat="46.69633" lon="-1.93425">
        <ele>4</ele>
        <time>2018-04-20T15:47:17Z</time>
      </trkpt>
      <trkpt lat="46.69633" lon="-1.93426">
        <ele>4</ele>
        <time>2018-04-20T15:48:17Z</time>
      </trkpt>
      <trkpt lat="46.69633" lon="-1.93427">
        <ele>4</ele>
        <time>2018-04-20T15:49:17Z</time>
      </trkpt>
      <trkpt lat="46.69633" lon="-1.93428">
        <ele>4</ele>
        <time>2018-04-20T15:50:17Z</time>
      </trkpt>
      <trkpt lat="46.69633" lon="-1.93429">
        <ele>4</ele>
        <time>2018-04-20T15:51:17Z</time>
      </trkpt>
      <trkpt lat="46.69633" lon="-1.9343">
        <ele>4</ele>
        <time>2018-04-20T15:52:17Z</time>
      </trkpt>
      <trkpt lat="46.69632" lon="-1.9343">
        <ele>4</ele>
        <time>2018-04-20T15:53:17Z</time>
      </trkpt>
      <trkpt lat="46.69632" lon="-1.93431">
        <ele>4</ele>
        <time>2018-04-20T15:54:17Z</time>
      </trkpt>
      <trkpt lat="46.69632" lon="-1.93432">
        <ele>4</ele>
        <time>2018-04-20T15:55:17Z</time>
      </trkpt>
      <trkpt lat="46.69631" lon="-1.93432">
        <ele>4</ele>
        <time>2018-04-20T15:56:17Z</time>
      </trkpt>
      <trkpt lat="46.69631" lon="-1.93433">
        <ele>4</ele>
        <time>2018-04-20T15:57:17Z</time>
      </trkpt>
      <trkpt lat="46.69631" lon="-1.93434">
        <ele>4</ele>
        <time>2018-04-20T15:58:17Z</time>
      </trkpt>
      <trkpt lat="46.6963" lon="-1.93434">
        <ele>4</ele>
        <time>2018-04-20T15:59:17Z</time>
      </trkpt>
      <trkpt lat="46.6963" lon="-1.93435">
        <ele>4</ele>
        <time>2018-04-20T16:00:17Z</time>
      </trkpt>
      <trkpt lat="46.69629" lon="-1.93435">
        <ele>4</ele>
        <time>2018-04-20T16:01:17Z</time>
      </trkpt>
      <trkpt lat="46.69629" lon="-1.93436">
        <ele>4</ele>
        <time>2018-04-20T16:02:17Z</time>
      </trkpt>
      <trkpt lat="46.69628" lon="-1.93436">
        <ele>4</ele>
        <time>2018-04-20T16:03:17Z</time>
      </trkpt>
      <trkpt lat="46.69627" lon="-1.93436">
        <ele>4</ele>
        <time>2018-04-20T16:04:17Z</time>
      </trkpt>
      <trkpt lat="46.69627" lon="-1.93437">
        <ele>4</ele>
        <time>2018-04-20T16:05:17Z</time>
      </trkpt>
      <trkpt lat="46.69626" lon="-1.93437">
        <ele>4</ele>
        <time>2018-04-20T16:06:17Z</time>
      </trkpt>
      <trkpt lat="46.69625" lon="-1.93437">
        <ele>4</ele>
        <time>2018-04-20T16:07:17Z</time>
      </trkpt>
      <trkpt lat="46.69624" lon="-1.93437">
        <ele>4</ele>
        <time>2018-04-20T16:08:17Z</time>
      </trkpt>
      <trkpt lat="46.69623" lon="-1.93437">
        <ele>4</ele>
        <time>2018-04-20T16:09:17Z</time>
      </trkpt>
      <trkpt lat="46.69622" lon="-1.93436">
        <ele>4</ele>
        <time>2018-04-20T16:10:17Z</time>
      </trkpt>
      <trkpt lat="46.69621" lon="-1.93436">
        <ele>4</ele>
        <time>2018-04-20T16:11:17Z</time>
      </trkpt>
      <trkpt lat="46.6962" lon="-1.93435">
        <ele>4</ele>
        <time>2018-04-20T16:12:17Z</time>
      </trkpt>
      <trkpt lat="46.69619" lon="-1.93434">
        <ele>4</ele>
        <time>2018-04-20T16:13:17Z</time>
      </trkpt>
      <trkpt lat="46.69619" lon="-1.93433">
        <ele>4</ele>
        <time>2018-04-20T16:14:17Z</time>
      </trkpt>
      <trkpt lat="46.69618" lon="-1.93433">
        <ele>4</ele>
        <time>2018-04-20T16:15:17Z</time>
      </trkpt>
      <trkpt lat="46.69618" lon="-1.93432">
        <ele>4</ele>
        <time>2018-04-20T16:16:17Z</time>
      </trkpt>
      <trkpt lat="46.69618" lon="-1.93431">
        <ele>4</ele>
        <time>2018-04-20T16:17:17Z</time>
      </trkpt>
      <trkpt lat="46.69617" lon="-1.93431">
        <ele>4</ele>
        <time>2018-04-20T16:18:17Z</time>
      </trkpt>
      <trkpt lat="46.69617" lon="-1.9343">
        <ele>4</ele>
        <time>2018-04-20T16:19:17Z</time>
      </trkpt>
      <trkpt lat="46.69617" lon="-1.93429">
        <ele>4</ele>
        <time>2018-04-20T16:20:17Z</time>
      </trkpt>
      <trkpt lat="46.69617" lon="-1.93428">
        <ele>4</ele>
        <time>2018-04-20T16:21:17Z</time>
      </trkpt>
      <trkpt lat="46.69616" lon="-1.93428">
        <ele>4</ele>
        <time>2018-04-20T16:22:17Z</time>
      </trkpt>
      <trkpt lat="46.69616" lon="-1.93427">
        <ele>4</ele>
        <time>2018-04-20T16:23:17Z</time>
      </trkpt>
      <trkpt lat="46.69616" lon="-1.93426">
        <ele>4</ele>
        <time>2018-04-20T16:24:17Z</time>
      </trkpt>
      <trkpt lat="46.69616" lon="-1.93425">
        <ele>4</ele>
        <time>2018-04-20T16:25:17Z</time>
      </trkpt>
      <trkpt lat="46.69616" lon="-1.93424">
        <ele>4</ele>
        <time>2018-04-20T16:26:17Z</time>
      </trkpt>
      <trkpt lat="46.69616" lon="-1.93423">
        <ele>4</ele>
        <time>2018-04-20T16:27:17Z</time>
      </trkpt>
      <trkpt lat="46.69616" lon="-1.93422">
        <ele>4</ele>
        <time>2018-04-20T16:28:17Z</time>
      </trkpt>
      <trkpt lat="46.69616" lon="-1.93421">
        <ele>4</ele>
        <time>2018-04-20T16:29:17Z</time>
      </trkpt>
      <trkpt lat="46.69617" lon="-1.93421">
        <ele>4</ele>
        <time>2018-04-20T16:30:17Z</time>
      </trkpt>
      <trkpt lat="46.69617" lon="-1.9342">
        <ele>4</ele>
        <time>2018-04-20T16:31:17Z</time>
      </trkpt>
      <trkpt lat="46.69607" lon="-1.93416">
        <ele>4</ele>
        <time>2018-04-20T16:32:17Z</time>
      </trkpt>
      <trkpt lat="46.69587" lon="-1.93404">
        <ele>4</ele>
        <time>2018-04-20T16:33:17Z</time>
      </trkpt>
      <trkpt lat="46.69551" lon="-1.93388">
        <ele>4</ele>
        <time>2018-04-20T16:34:17Z</time>
      </trkpt>
      <trkpt lat="46.69518" lon="-1.93374">
        <ele>4</ele>
        <time>2018-04-20T16:35:17Z</time>
      </trkpt>
      <trkpt lat="46.69507" lon="-1.9337">
        <ele>4</ele>
        <time>2018-04-20T16:36:17Z</time>
      </trkpt>
      <trkpt lat="46.69503" lon="-1.93368">
        <ele>4</ele>
        <time>2018-04-20T16:37:17Z</time>
      </trkpt>
      <trkpt lat="46.69498" lon="-1.93366">
        <ele>4</ele>
        <time>2018-04-20T16:38:17Z</time>
      </trkpt>
      <trkpt lat="46.6946" lon="-1.93349">
        <ele>4</ele>
        <time>2018-04-20T16:39:17Z</time>
      </trkpt>
      <trkpt lat="46.69431" lon="-1.93336">
        <ele>4</ele>
        <time>2018-04-20T16:40:17Z</time>
      </trkpt>
      <trkpt lat="46.69426" lon="-1.93334">
        <ele>4</ele>
        <time>2018-04-20T16:41:17Z</time>
      </trkpt>
      <trkpt lat="46.69421" lon="-1.93333">
        <ele>4</ele>
        <time>2018-04-20T16:42:17Z</time>
      </trkpt>
      <trkpt lat="46.69416" lon="-1.93331">
        <ele>4</ele>
        <time>2018-04-20T16:43:17Z</time>
      </trkpt>
      <trkpt lat="46.69405" lon="-1.9333">
        <ele>4</ele>
        <time>2018-04-20T16:44:17Z</time>
      </trkpt>
      <trkpt lat="46.69394" lon="-1.93333">
        <ele>4</ele>
        <time>2018-04-20T16:45:17Z</time>
      </trkpt>
      <trkpt lat="46.69394" lon="-1.93333">
        <ele>4</ele>
        <time>2018-04-20T16:46:17Z</time>
      </trkpt>
      <trkpt lat="46.69394" lon="-1.93334">
        <ele>4</ele>
        <time>2018-04-20T16:47:17Z</time>
      </trkpt>
      <trkpt lat="46.69394" lon="-1.93335">
        <ele>4</ele>
        <time>2018-04-20T16:48:17Z</time>
      </trkpt>
      <trkpt lat="46.69393" lon="-1.93335">
        <ele>4</ele>
        <time>2018-04-20T16:49:17Z</time>
      </trkpt>
      <trkpt lat="46.69393" lon="-1.93336">
        <ele>4</ele>
        <time>2018-04-20T16:50:17Z</time>
      </trkpt>
      <trkpt lat="46.69392" lon="-1.93336">
        <ele>4</ele>
        <time>2018-04-20T16:51:17Z</time>
      </trkpt>
      <trkpt lat="46.69392" lon="-1.93337">
        <ele>4</ele>
        <time>2018-04-20T16:52:17Z</time>
      </trkpt>
      <trkpt lat="46.69391" lon="-1.93337">
        <ele>4</ele>
        <time>2018-04-20T16:53:17Z</time>
      </trkpt>
      <trkpt lat="46.6939" lon="-1.93338">
        <ele>4</ele>
        <time>2018-04-20T16:54:17Z</time>
      </trkpt>
      <trkpt lat="46.69389" lon="-1.93338">
        <ele>4</ele>
        <time>2018-04-20T16:55:17Z</time>
      </trkpt>
      <trkpt lat="46.69388" lon="-1.93338">
        <ele>4</ele>
        <time>2018-04-20T16:56:17Z</time>
      </trkpt>
      <trkpt lat="46.69387" lon="-1.93338">
        <ele>4</ele>
        <time>2018-04-20T16:57:17Z</time>
      </trkpt>
      <trkpt lat="46.69386" lon="-1.93338">
        <ele>4</ele>
        <time>2018-04-20T16:58:17Z</time>
      </trkpt>
      <trkpt lat="46.69385" lon="-1.93338">
        <ele>4</ele>
        <time>2018-04-20T16:59:17Z</time>
      </trkpt>
      <trkpt lat="46.69384" lon="-1.93338">
        <ele>4</ele>
        <time>2018-04-20T17:00:17Z</time>
      </trkpt>
      <trkpt lat="46.69384" lon="-1.93337">
        <ele>4</ele>
        <time>2018-04-20T17:01:17Z</time>
      </trkpt>
      <trkpt lat="46.69383" lon="-1.93337">
        <ele>4</ele>
        <time>2018-04-20T17:02:17Z</time>
      </trkpt>
      <trkpt lat="46.69383" lon="-1.93336">
        <ele>4</ele>
        <time>2018-04-20T17:03:17Z</time>
      </trkpt>
      <trkpt lat="46.69382" lon="-1.93336">
        <ele>4</ele>
        <time>2018-04-20T17:04:17Z</time>
      </trkpt>
      <trkpt lat="46.69382" lon="-1.93335">
        <ele>4</ele>
        <time>2018-04-20T17:05:17Z</time>
      </trkpt>
      <trkpt lat="46.69381" lon="-1.93335">
        <ele>4</ele>
        <time>2018-04-20T17:06:17Z</time>
      </trkpt>
      <trkpt lat="46.69381" lon="-1.93334">
        <ele>4</ele>
        <time>2018-04-20T17:07:17Z</time>
      </trkpt>
      <trkpt lat="46.6938" lon="-1.93333">
        <ele>4</ele>
        <time>2018-04-20T17:08:17Z</time>
      </trkpt>
      <trkpt lat="46.6938" lon="-1.93332">
        <ele>4</ele>
        <time>2018-04-20T17:09:17Z</time>
      </trkpt>
      <trkpt lat="46.69379" lon="-1.93332">
        <ele>4</ele>
        <time>2018-04-20T17:10:17Z</time>
      </trkpt>
      <trkpt lat="46.69379" lon="-1.93331">
        <ele>4</ele>
        <time>2018-04-20T17:11:17Z</time>
      </trkpt>
      <trkpt lat="46.69379" lon="-1.9333">
        <ele>4</ele>
        <time>2018-04-20T17:12:17Z</time>
      </trkpt>
      <trkpt lat="46.69379" lon="-1.93329">
        <ele>4</ele>
        <time>2018-04-20T17:13:17Z</time>
      </trkpt>
      <trkpt lat="46.69376" lon="-1.93327">
        <ele>4</ele>
        <time>2018-04-20T17:14:17Z</time>
      </trkpt>
      <trkpt lat="46.69367" lon="-1.93325">
        <ele>4</ele>
        <time>2018-04-20T17:15:17Z</time>
      </trkpt>
      <trkpt lat="46.69363" lon="-1.93325">
        <ele>4</ele>
        <time>2018-04-20T17:16:17Z</time>
      </trkpt>
      <trkpt lat="46.69356" lon="-1.93325">
        <ele>4</ele>
        <time>2018-04-20T17:17:17Z</time>
      </trkpt>
      <trkpt lat="46.69353" lon="-1.93324">
        <ele>4</ele>
        <time>2018-04-20T17:18:17Z</time>
      </trkpt>
      <trkpt lat="46.69315" lon="-1.93317">
        <ele>4</ele>
        <time>2018-04-20T17:19:17Z</time>
      </trkpt>
      <trkpt lat="46.69286" lon="-1.93313">
        <ele>4</ele>
        <time>2018-04-20T17:20:17Z</time>
      </trkpt>
      <trkpt lat="46.6924" lon="-1.93303">
        <ele>3</ele>
        <time>2018-04-20T17:21:17Z</time>
      </trkpt>
      <trkpt lat="46.69218" lon="-1.933">
        <ele>3</ele>
        <time>2018-04-20T17:22:17Z</time>
      </trkpt>
      <trkpt lat="46.69217" lon="-1.933">
        <ele>3</ele>
        <time>2018-04-20T17:23:17Z</time>
      </trkpt>
      <trkpt lat="46.69209" lon="-1.93298">
        <ele>3</ele>
        <time>2018-04-20T17:24:17Z</time>
      </trkpt>
      <trkpt lat="46.69203" lon="-1.93298">
        <ele>3</ele>
        <time>2018-04-20T17:25:17Z</time>
      </trkpt>
      <trkpt lat="46.69197" lon="-1.93299">
        <ele>3</ele>
        <time>2018-04-20T17:26:17Z</time>
      </trkpt>
      <trkpt lat="46.69182" lon="-1.93301">
        <ele>3</ele>
        <time>2018-04-20T17:27:17Z</time>
      </trkpt>
      <trkpt lat="46.69182" lon="-1.93301">
        <ele>3</ele>
        <time>2018-04-20T17:28:17Z</time>
      </trkpt>
      <trkpt lat="46.6918" lon="-1.93305">
        <ele>3</ele>
        <time>2018-04-20T17:29:17Z</time>
      </trkpt>
      <trkpt lat="46.69177" lon="-1.93307">
        <ele>3</ele>
        <time>2018-04-20T17:30:17Z</time>
      </trkpt>
      <trkpt lat="46.69173" lon="-1.93307">
        <ele>3</ele>
        <time>2018-04-20T17:31:17Z</time>
      </trkpt>
      <trkpt lat="46.69169" lon="-1.93306">
        <ele>3</ele>
        <time>2018-04-20T17:32:17Z</time>
      </trkpt>
      <trkpt lat="46.69167" lon="-1.93304">
        <ele>3</ele>
        <time>2018-04-20T17:33:17Z</time>
      </trkpt>
      <trkpt lat="46.69165" lon="-1.93301">
        <ele>3</ele>
        <time>2018-04-20T17:34:17Z</time>
      </trkpt>
      <trkpt lat="46.69164" lon="-1.93298">
        <ele>3</ele>
        <time>2018-04-20T17:35:17Z</time>
      </trkpt>
      <trkpt lat="46.69163" lon="-1.93296">
        <ele>3</ele>
        <time>2018-04-20T17:36:17Z</time>
      </trkpt>
      <trkpt lat="46.69163" lon="-1.93293">
        <ele>2</ele>
        <time>2018-04-20T17:37:17Z</time>
      </trkpt>
      <trkpt lat="46.69163" lon="-1.93289">
        <ele>2</ele>
        <time>2018-04-20T17:38:17Z</time>
      </trkpt>
      <trkpt lat="46.69165" lon="-1.93285">
        <ele>2</ele>
        <time>2018-04-20T17:39:17Z</time>
      </trkpt>
      <trkpt lat="46.69169" lon="-1.9328">
        <ele>2</ele>
        <time>2018-04-20T17:40:17Z</time>
      </trkpt>
      <trkpt lat="46.69166" lon="-1.93273">
        <ele>2</ele>
        <time>2018-04-20T17:41:17Z</time>
      </trkpt>
      <trkpt lat="46.69166" lon="-1.93263">
        <ele>2</ele>
        <time>2018-04-20T17:42:17Z</time>
      </trkpt>
      <trkpt lat="46.69167" lon="-1.93252">
        <ele>2</ele>
        <time>2018-04-20T17:43:17Z</time>
      </trkpt>
      <trkpt lat="46.69169" lon="-1.93244">
        <ele>2</ele>
        <time>2018-04-20T17:44:17Z</time>
      </trkpt>
      <trkpt lat="46.69177" lon="-1.93193">
        <ele>4</ele>
        <time>2018-04-20T17:45:17Z</time>
      </trkpt>
      <trkpt lat="46.69179" lon="-1.9318">
        <ele>4</ele>
        <time>2018-04-20T17:46:17Z</time>
      </trkpt>
      <trkpt lat="46.69182" lon="-1.93159">
        <ele>4</ele>
        <time>2018-04-20T17:47:17Z</time>
      </trkpt>
      <trkpt lat="46.69183" lon="-1.9315">
        <ele>4</ele>
        <time>2018-04-20T17:48:17Z</time>
      </trkpt>
      <trkpt lat="46.69186" lon="-1.93138">
        <ele>4</ele>
        <time>2018-04-20T17:49:17Z</time>
      </trkpt>
      <trkpt lat="46.69187" lon="-1.93134">
        <ele>4</ele>
        <time>2018-04-20T17:50:17Z</time>
      </trkpt>
      <trkpt lat="46.6919" lon="-1.93125">
        <ele>4</ele>
        <time>2018-04-20T17:51:17Z</time>
      </trkpt>
      <trkpt lat="46.69194" lon="-1.93117">
        <ele>4</ele>
        <time>2018-04-20T17:52:17Z</time>
      </trkpt>
      <trkpt lat="46.69201" lon="-1.93103">
        <ele>4</ele>
        <time>2018-04-20T17:53:17Z</time>
      </trkpt>
      <trkpt lat="46.6921" lon="-1.93085">
        <ele>5</ele>
        <time>2018-04-20T17:54:17Z</time>
      </trkpt>
      <trkpt lat="46.69219" lon="-1.93065">
        <ele>5</ele>
        <time>2018-04-20T17:55:17Z</time>
      </trkpt>
      <trkpt lat="46.69224" lon="-1.93053">
        <ele>5</ele>
        <time>2018-04-20T17:56:17Z</time>
      </trkpt>
      <trkpt lat="46.69224" lon="-1.93053">
        <ele>5</ele>
        <time>2018-04-20T17:57:17Z</time>
      </trkpt>
      <trkpt lat="46.69217" lon="-1.93046">
        <ele>5</ele>
        <time>2018-04-20T17:58:17Z</time>
      </trkpt>
      <trkpt lat="46.69194" lon="-1.93026">
        <ele>5</ele>
        <time>2018-04-20T17:59:17Z</time>
      </trkpt>
      <trkpt lat="46.69175" lon="-1.93009">
        <ele>4</ele>
        <time>2018-04-20T18:00:17Z</time>
      </trkpt>
      <trkpt lat="46.6917" lon="-1.93005">
        <ele>4</ele>
        <time>2018-04-20T18:01:17Z</time>
      </trkpt>
      <trkpt lat="46.69154" lon="-1.92991">
        <ele>4</ele>
        <time>2018-04-20T18:02:17Z</time>
      </trkpt>
      <trkpt lat="46.69133" lon="-1.92971">
        <ele>4</ele>
        <time>2018-04-20T18:03:17Z</time>
      </trkpt>
      <trkpt lat="46.69107" lon="-1.92948">
        <ele>4</ele>
        <time>2018-04-20T18:04:17Z</time>
      </trkpt>
      <trkpt lat="46.69095" lon="-1.92938">
        <ele>4</ele>
        <time>2018-04-20T18:05:17Z</time>
      </trkpt>
      <trkpt lat="46.69068" lon="-1.92907">
        <ele>4</ele>
        <time>2018-04-20T18:06:17Z</time>
      </trkpt>
      <trkpt lat="46.69055" lon="-1.9289">
        <ele>4</ele>
        <time>2018-04-20T18:07:17Z</time>
      </trkpt>
      <trkpt lat="46.69038" lon="-1.92867">
        <ele>4</ele>
        <time>2018-04-20T18:08:17Z</time>
      </trkpt>
      <trkpt lat="46.69014" lon="-1.92836">
        <ele>4</ele>
        <time>2018-04-20T18:09:17Z</time>
      </trkpt>
      <trkpt lat="46.68993" lon="-1.92806">
        <ele>4</ele>
        <time>2018-04-20T18:10:17Z</time>
      </trkpt>
      <trkpt lat="46.68992" lon="-1.92805">
        <ele>4</ele>
        <time>2018-04-20T18:11:17Z</time>
      </trkpt>
      <trkpt lat="46.68977" lon="-1.92784">
        <ele>4</ele>
        <time>2018-04-20T18:12:17Z</time>
      </trkpt>
      <trkpt lat="46.68969" lon="-1.92774">
        <ele>4</ele>
        <time>2018-04-20T18:13:17Z</time>
      </trkpt>
      <trkpt lat="46.68965" lon="-1.92769">
        <ele>4</ele>
        <time>2018-04-20T18:14:17Z</time>
      </trkpt>
      <trkpt lat="46.68955" lon="-1.92755">
        <ele>4</ele>
        <time>2018-04-20T18:15:17Z</time>
      </trkpt>
      <trkpt lat="46.68947" lon="-1.92747">
        <ele>4</ele>
        <time>2018-04-20T18:16:17Z</time>
      </trkpt>
      <trkpt lat="46.68936" lon="-1.92737">
        <ele>4</ele>
        <time>2018-04-20T18:17:17Z</time>
      </trkpt>
      <trkpt lat="46.68926" lon="-1.9273">
        <ele>4</ele>
        <time>2018-04-20T18:18:17Z</time>
      </trkpt>
      <trkpt lat="46.68913" lon="-1.92723">
        <ele>4</ele>
        <time>2018-04-20T18:19:17Z</time>
      </trkpt>
      <trkpt lat="46.68897" lon="-1.92716">
        <ele>4</ele>
        <time>2018-04-20T18:20:17Z</time>
      </trkpt>
      <trkpt lat="46.68881" lon="-1.92711">
        <ele>5</ele>
        <time>2018-04-20T18:21:17Z</time>
      </trkpt>
      <trkpt lat="46.68869" lon="-1.92706">
        <ele>5</ele>
        <time>2018-04-20T18:22:17Z</time>
      </trkpt>
      <trkpt lat="46.6886" lon="-1.92704">
        <ele>6</ele>
        <time>2018-04-20T18:23:17Z</time>
      </trkpt>
      <trkpt lat="46.68859" lon="-1.92704">
        <ele>6</ele>
        <time>2018-04-20T18:24:17Z</time>
      </trkpt>
      <trkpt lat="46.68851" lon="-1.92698">
        <ele>6</ele>
        <time>2018-04-20T18:25:17Z</time>
      </trkpt>
      <trkpt lat="46.68851" lon="-1.92698">
        <ele>6</ele>
        <time>2018-04-20T18:26:17Z</time>
      </trkpt>
      <trkpt lat="46.68851" lon="-1.92699">
        <ele>6</ele>
        <time>2018-04-20T18:27:17Z</time>
      </trkpt>
      <trkpt lat="46.6885" lon="-1.92699">
        <ele>6</ele>
        <time>2018-04-20T18:28:17Z</time>
      </trkpt>
      <trkpt lat="46.68849" lon="-1.927">
        <ele>6</ele>
        <time>2018-04-20T18:29:17Z</time>
      </trkpt>
      <trkpt lat="46.68848" lon="-1.927">
        <ele>6</ele>
        <time>2018-04-20T18:30:17Z</time>
      </trkpt>
      <trkpt lat="46.68848" lon="-1.92701">
        <ele>6</ele>
        <time>2018-04-20T18:31:17Z</time>
      </trkpt>
      <trkpt lat="46.68847" lon="-1.92701">
        <ele>6</ele>
        <time>2018-04-20T18:32:17Z</time>
      </trkpt>
      <trkpt lat="46.68846" lon="-1.92701">
        <ele>6</ele>
        <time>2018-04-20T18:33:17Z</time>
      </trkpt>
      <trkpt lat="46.68845" lon="-1.92701">
        <ele>6</ele>
        <time>2018-04-20T18:34:17Z</time>
      </trkpt>
      <trkpt lat="46.68844" lon="-1.92701">
        <ele>7</ele>
        <time>2018-04-20T18:35:17Z</time>
      </trkpt>
      <trkpt lat="46.68844" lon="-1.927">
        <ele>7</ele>
        <time>2018-04-20T18:36:17Z</time>
      </trkpt>
      <trkpt lat="46.68843" lon="-1.927">
        <ele>7</ele>
        <time>2018-04-20T18:37:17Z</time>
      </trkpt>
      <trkpt lat="46.68842" lon="-1.92699">
        <ele>7</ele>
        <time>2018-04-20T18:38:17Z</time>
      </trkpt>
      <trkpt lat="46.68837" lon="-1.927">
        <ele>7</ele>
        <time>2018-04-20T18:39:17Z</time>
      </trkpt>
      <trkpt lat="46.68833" lon="-1.92701">
        <ele>7</ele>
        <time>2018-04-20T18:40:17Z</time>
      </trkpt>
      <trkpt lat="46.68828" lon="-1.927">
        <ele>7</ele>
        <time>2018-04-20T18:41:17Z</time>
      </trkpt>
      <trkpt lat="46.68827" lon="-1.927">
        <ele>7</ele>
        <time>2018-04-20T18:42:17Z</time>
      </trkpt>
      <trkpt lat="46.68827" lon="-1.92701">
        <ele>7</ele>
        <time>2018-04-20T18:43:17Z</time>
      </trkpt>
      <trkpt lat="46.68826" lon="-1.92701">
        <ele>7</ele>
        <time>2018-04-20T18:44:17Z</time>
      </trkpt>
      <trkpt lat="46.68826" lon="-1.92702">
        <ele>7</ele>
        <time>2018-04-20T18:45:17Z</time>
      </trkpt>
      <trkpt lat="46.68825" lon="-1.92702">
        <ele>7</ele>
        <time>2018-04-20T18:46:17Z</time>
      </trkpt>
      <trkpt lat="46.68825" lon="-1.92703">
        <ele>7</ele>
        <time>2018-04-20T18:47:17Z</time>
      </trkpt>
      <trkpt lat="46.68824" lon="-1.92703">
        <ele>7</ele>
        <time>2018-04-20T18:48:17Z</time>
      </trkpt>
      <trkpt lat="46.68823" lon="-1.92703">
        <ele>7</ele>
        <time>2018-04-20T18:49:17Z</time>
      </trkpt>
      <trkpt lat="46.68822" lon="-1.92703">
        <ele>7</ele>
        <time>2018-04-20T18:50:17Z</time>
      </trkpt>
      <trkpt lat="46.68821" lon="-1.92703">
        <ele>7</ele>
        <time>2018-04-20T18:51:17Z</time>
      </trkpt>
      <trkpt lat="46.68821" lon="-1.92702">
        <ele>7</ele>
        <time>2018-04-20T18:52:17Z</time>
      </trkpt>
      <trkpt lat="46.6882" lon="-1.92702">
        <ele>7</ele>
        <time>2018-04-20T18:53:17Z</time>
      </trkpt>
      <trkpt lat="46.6882" lon="-1.92701">
        <ele>7</ele>
        <time>2018-04-20T18:54:17Z</time>
      </trkpt>
      <trkpt lat="46.68819" lon="-1.92701">
        <ele>7</ele>
        <time>2018-04-20T18:55:17Z</time>
      </trkpt>
      <trkpt lat="46.68819" lon="-1.927">
        <ele>7</ele>
        <time>2018-04-20T18:56:17Z</time>
      </trkpt>
      <trkpt lat="46.68818" lon="-1.927">
        <ele>7</ele>
        <time>2018-04-20T18:57:17Z</time>
      </trkpt>
      <trkpt lat="46.68818" lon="-1.92699">
        <ele>7</ele>
        <time>2018-04-20T18:58:17Z</time>
      </trkpt>
      <trkpt lat="46.68818" lon="-1.92698">
        <ele>7</ele>
        <time>2018-04-20T18:59:17Z</time>
      </trkpt>
      <trkpt lat="46.68817" lon="-1.92698">
        <ele>7</ele>
        <time>2018-04-20T19:00:17Z</time>
      </trkpt>
      <trkpt lat="46.68817" lon="-1.92697">
        <ele>7</ele>
        <time>2018-04-20T19:01:17Z</time>
      </trkpt>
      <trkpt lat="46.68817" lon="-1.92696">
        <ele>7</ele>
        <time>2018-04-20T19:02:17Z</time>
      </trkpt>
      <trkpt lat="46.68817" lon="-1.92695">
        <ele>7</ele>
        <time>2018-04-20T19:03:17Z</time>
      </trkpt>
      <trkpt lat="46.68817" lon="-1.92694">
        <ele>7</ele>
        <time>2018-04-20T19:04:17Z</time>
      </trkpt>
      <trkpt lat="46.68817" lon="-1.92693">
        <ele>7</ele>
        <time>2018-04-20T19:05:17Z</time>
      </trkpt>
      <trkpt lat="46.68817" lon="-1.92692">
        <ele>7</ele>
        <time>2018-04-20T19:06:17Z</time>
      </trkpt>
      <trkpt lat="46.68817" lon="-1.92691">
        <ele>7</ele>
        <time>2018-04-20T19:07:17Z</time>
      </trkpt>
      <trkpt lat="46.68817" lon="-1.9269">
        <ele>7</ele>
        <time>2018-04-20T19:08:17Z</time>
      </trkpt>
      <trkpt lat="46.68804" lon="-1.92685">
        <ele>7</ele>
        <time>2018-04-20T19:09:17Z</time>
      </trkpt>
      <trkpt lat="46.68787" lon="-1.9268">
        <ele>8</ele>
        <time>2018-04-20T19:10:17Z</time>
      </trkpt>
      <trkpt lat="46.68776" lon="-1.92676">
        <ele>8</ele>
        <time>2018-04-20T19:11:17Z</time>
      </trkpt>
      <trkpt lat="46.6876" lon="-1.92669">
        <ele>8</ele>
        <time>2018-04-20T19:12:17Z</time>
      </trkpt>
      <trkpt lat="46.68759" lon="-1.92668">
        <ele>8</ele>
        <time>2018-04-20T19:13:17Z</time>
      </trkpt>
      <trkpt lat="46.68733" lon="-1.92654">
        <ele>8</ele>
        <time>2018-04-20T19:14:17Z</time>
      </trkpt>
      <trkpt lat="46.68732" lon="-1.92654">
        <ele>8</ele>
        <time>2018-04-20T19:15:17Z</time>
      </trkpt>
      <trkpt lat="46.68707" lon="-1.92638">
        <ele>9</ele>
        <time>2018-04-20T19:16:17Z</time>
      </trkpt>
      <trkpt lat="46.68669" lon="-1.92615">
        <ele>10</ele>
        <time>2018-04-20T19:17:17Z</time>
      </trkpt>
      <trkpt lat="46.68651" lon="-1.92602">
        <ele>10</ele>
        <time>2018-04-20T19:18:17Z</time>
      </trkpt>
      <trkpt lat="46.68644" lon="-1.92596">
        <ele>10</ele>
        <time>2018-04-20T19:19:17Z</time>
      </trkpt>
      <trkpt lat="46.68635" lon="-1.92588">
        <ele>10</ele>
        <time>2018-04-20T19:20:17Z</time>
      </trkpt>
      <trkpt lat="46.68634" lon="-1.92586">
        <ele>10</ele>
        <time>2018-04-20T19:21:17Z</time>
      </trkpt>
      <trkpt lat="46.68629" lon="-1.9258">
        <ele>10</ele>
        <time>2018-04-20T19:22:17Z</time>
      </trkpt>
      <trkpt lat="46.68625" lon="-1.92575">
        <ele>10</ele>
        <time>2018-04-20T19:23:17Z</time>
      </trkpt>
      <trkpt lat="46.68616" lon="-1.92563">
        <ele>10</ele>
        <time>2018-04-20T19:24:17Z</time>
      </trkpt>
      <trkpt lat="46.68605" lon="-1.92548">
        <ele>10</ele>
        <time>2018-04-20T19:25:17Z</time>
      </trkpt>
      <trkpt lat="46.68594" lon="-1.92534">
        <ele>10</ele>
        <time>2018-04-20T19:26:17Z</time>
      </trkpt>
      <trkpt lat="46.68589" lon="-1.92528">
        <ele>10</ele>
        <time>2018-04-20T19:27:17Z</time>
      </trkpt>
      <trkpt lat="46.68567" lon="-1.925">
        <ele>10</ele>
        <time>2018-04-20T19:28:17Z</time>
      </trkpt>
      <trkpt lat="46.68549" lon="-1.92476">
        <ele>10</ele>
        <time>2018-04-20T19:29:17Z</time>
      </trkpt>
      <trkpt lat="46.68538" lon="-1.92464">
        <ele>10</ele>
        <time>2018-04-20T19:30:17Z</time>
      </trkpt>
      <trkpt lat="46.68532" lon="-1.92456">
        <ele>10</ele>
        <time>2018-04-20T19:31:17Z</time>
      </trkpt>
      <trkpt lat="46.68528" lon="-1.9245">
        <ele>10</ele>
        <time>2018-04-20T19:32:17Z</time>
      </trkpt>
      <trkpt lat="46.68514" lon="-1.92436">
        <ele>10</ele>
        <time>2018-04-20T19:33:17Z</time>
      </trkpt>
      <trkpt lat="46.68505" lon="-1.92428">
        <ele>10</ele>
        <time>2018-04-20T19:34:17Z</time>
      </trkpt>
      <trkpt lat="46.68495" lon="-1.9242">
        <ele>10</ele>
        <time>2018-04-20T19:35:17Z</time>
      </trkpt>
      <trkpt lat="46.68487" lon="-1.92415">
        <ele>10</ele>
        <time>2018-04-20T19:36:17Z</time>
      </trkpt>
      <trkpt lat="46.68481" lon="-1.92411">
        <ele>10</ele>
        <time>2018-04-20T19:37:17Z</time>
      </trkpt>
      <trkpt lat="46.68472" lon="-1.92408">
        <ele>10</ele>
        <time>2018-04-20T19:38:17Z</time>
      </trkpt>
      <trkpt lat="46.68463" lon="-1.92406">
        <ele>10</ele>
        <time>2018-04-20T19:39:17Z</time>
      </trkpt>
      <trkpt lat="46.68454" lon="-1.92404">
        <ele>10</ele>
        <time>2018-04-20T19:40:17Z</time>
      </trkpt>
      <trkpt lat="46.68447" lon="-1.92403">
        <ele>10</ele>
        <time>2018-04-20T19:41:17Z</time>
      </trkpt>
      <trkpt lat="46.68435" lon="-1.924">
        <ele>10</ele>
        <time>2018-04-20T19:42:17Z</time>
      </trkpt>
      <trkpt lat="46.68426" lon="-1.92396">
        <ele>10</ele>
        <time>2018-04-20T19:43:17Z</time>
      </trkpt>
      <trkpt lat="46.68413" lon="-1.92388">
        <ele>10</ele>
        <time>2018-04-20T19:44:17Z</time>
      </trkpt>
      <trkpt lat="46.68403" lon="-1.9238">
        <ele>10</ele>
        <time>2018-04-20T19:45:17Z</time>
      </trkpt>
      <trkpt lat="46.68389" lon="-1.92363">
        <ele>10</ele>
        <time>2018-04-20T19:46:17Z</time>
      </trkpt>
      <trkpt lat="46.6838" lon="-1.92351">
        <ele>10</ele>
        <time>2018-04-20T19:47:17Z</time>
      </trkpt>
      <trkpt lat="46.68377" lon="-1.92346">
        <ele>10</ele>
        <time>2018-04-20T19:48:17Z</time>
      </trkpt>
      <trkpt lat="46.6837" lon="-1.92334">
        <ele>10</ele>
        <time>2018-04-20T19:49:17Z</time>
      </trkpt>
      <trkpt lat="46.68355" lon="-1.92305">
        <ele>10</ele>
        <time>2018-04-20T19:50:17Z</time>
      </trkpt>
      <trkpt lat="46.6833" lon="-1.92261">
        <ele>9</ele>
        <time>2018-04-20T19:51:17Z</time>
      </trkpt>
      <trkpt lat="46.6832" lon="-1.92245">
        <ele>9</ele>
        <time>2018-04-20T19:52:17Z</time>
      </trkpt>
      <trkpt lat="46.68306" lon="-1.92219">
        <ele>9</ele>
        <time>2018-04-20T19:53:17Z</time>
      </trkpt>
      <trkpt lat="46.68291" lon="-1.92193">
        <ele>8</ele>
        <time>2018-04-20T19:54:17Z</time>
      </trkpt>
      <trkpt lat="46.68286" lon="-1.92186">
        <ele>8</ele>
        <time>2018-04-20T19:55:17Z</time>
      </trkpt>
      <trkpt lat="46.68277" lon="-1.92172">
        <ele>8</ele>
        <time>2018-04-20T19:56:17Z</time>
      </trkpt>
      <trkpt lat="46.68267" lon="-1.92157">
        <ele>7</ele>
        <time>2018-04-20T19:57:17Z</time>
      </trkpt>
      <trkpt lat="46.68255" lon="-1.9214">
        <ele>7</ele>
        <time>2018-04-20T19:58:17Z</time>
      </trkpt>
      <trkpt lat="46.6823" lon="-1.92107">
        <ele>7</ele>
        <time>2018-04-20T19:59:17Z</time>
      </trkpt>
      <trkpt lat="46.68227" lon="-1.92103">
        <ele>7</ele>
        <time>2018-04-20T20:00:17Z</time>
      </trkpt>
      <trkpt lat="46.68224" lon="-1.92098">
        <ele>7</ele>
        <time>2018-04-20T20:01:17Z</time>
      </trkpt>
      <trkpt lat="46.68224" lon="-1.92097">
        <ele>7</ele>
        <time>2018-04-20T20:02:17Z</time>
      </trkpt>
      <trkpt lat="46.6822" lon="-1.92091">
        <ele>7</ele>
        <time>2018-04-20T20:03:17Z</time>
      </trkpt>
      <trkpt lat="46.68208" lon="-1.92073">
        <ele>7</ele>
        <time>2018-04-20T20:04:17Z</time>
      </trkpt>
      <trkpt lat="46.68198" lon="-1.92057">
        <ele>7</ele>
        <time>2018-04-20T20:05:17Z</time>
      </trkpt>
      <trkpt lat="46.68174" lon="-1.92025">
        <ele>8</ele>
        <time>2018-04-20T20:06:17Z</time>
      </trkpt>
      <trkpt lat="46.68158" lon="-1.92003">
        <ele>8</ele>
        <time>2018-04-20T20:07:17Z</time>
      </trkpt>
      <trkpt lat="46.68115" lon="-1.91941">
        <ele>8</ele>
        <time>2018-04-20T20:08:17Z</time>
      </trkpt>
      <trkpt lat="46.68083" lon="-1.91897">
        <ele>8</ele>
        <time>2018-04-20T20:09:17Z</time>
      </trkpt>
      <trkpt lat="46.68057" lon="-1.91858">
        <ele>8</ele>
        <time>2018-04-20T20:10:17Z</time>
      </trkpt>
      <trkpt lat="46.68041" lon="-1.91836">
        <ele>8</ele>
        <time>2018-04-20T20:11:17Z</time>
      </trkpt>
      <trkpt lat="46.68033" lon="-1.91825">
        <ele>8</ele>
        <time>2018-04-20T20:12:17Z</time>
      </trkpt>
      <trkpt lat="46.68022" lon="-1.91808">
        <ele>8</ele>
        <time>2018-04-20T20:13:17Z</time>
      </trkpt>
      <trkpt lat="46.68" lon="-1.91776">
        <ele>8</ele>
        <time>2018-04-20T20:14:17Z</time>
      </trkpt>
      <trkpt lat="46.67972" lon="-1.91737">
        <ele>7</ele>
        <time>2018-04-20T20:15:17Z</time>
      </trkpt>
      <trkpt lat="46.67947" lon="-1.91703">
        <ele>7</ele>
        <time>2018-04-20T20:16:17Z</time>
      </trkpt>
      <trkpt lat="46.67928" lon="-1.91675">
        <ele>7</ele>
        <time>2018-04-20T20:17:17Z</time>
      </trkpt>
      <trkpt lat="46.67898" lon="-1.91633">
        <ele>7</ele>
        <time>2018-04-20T20:18:17Z</time>
      </trkpt>
      <trkpt lat="46.67883" lon="-1.91611">
        <ele>6</ele>
        <time>2018-04-20T20:19:17Z</time>
      </trkpt>
      <trkpt lat="46.67864" lon="-1.91583">
        <ele>6</ele>
        <time>2018-04-20T20:20:17Z</time>
      </trkpt>
      <trkpt lat="46.6784" lon="-1.91552">
        <ele>6</ele>
        <time>2018-04-20T20:21:17Z</time>
      </trkpt>
      <trkpt lat="46.67831" lon="-1.91538">
        <ele>6</ele>
        <time>2018-04-20T20:22:17Z</time>
      </trkpt>
      <trkpt lat="46.67783" lon="-1.91471">
        <ele>6</ele>
        <time>2018-04-20T20:23:17Z</time>
      </trkpt>
      <trkpt lat="46.67747" lon="-1.9142">
        <ele>6</ele>
        <time>2018-04-20T20:24:17Z</time>
      </trkpt>
      <trkpt lat="46.67743" lon="-1.91414">
        <ele>6</ele>
        <time>2018-04-20T20:25:17Z</time>
      </trkpt>
      <trkpt lat="46.67704" lon="-1.91358">
        <ele>5</ele>
        <time>2018-04-20T20:26:17Z</time>
      </trkpt>
      <trkpt lat="46.67662" lon="-1.91298">
        <ele>5</ele>
        <time>2018-04-20T20:27:17Z</time>
      </trkpt>
      <trkpt lat="46.67634" lon="-1.91261">
        <ele>5</ele>
        <time>2018-04-20T20:28:17Z</time>
      </trkpt>
      <trkpt lat="46.67612" lon="-1.91228">
        <ele>5</ele>
        <time>2018-04-20T20:29:17Z</time>
      </trkpt>
      <trkpt lat="46.67587" lon="-1.91194">
        <ele>6</ele>
        <time>2018-04-20T20:30:17Z</time>
      </trkpt>
      <trkpt lat="46.67578" lon="-1.91181">
        <ele>6</ele>
        <time>2018-04-20T20:31:17Z</time>
      </trkpt>
      <trkpt lat="46.67546" lon="-1.91137">
        <ele>5</ele>
        <time>2018-04-20T20:32:17Z</time>
      </trkpt>
      <trkpt lat="46.67518" lon="-1.91097">
        <ele>5</ele>
        <time>2018-04-20T20:33:17Z</time>
      </trkpt>
      <trkpt lat="46.6749" lon="-1.9106">
        <ele>5</ele>
        <time>2018-04-20T20:34:17Z</time>
      </trkpt>
      <trkpt lat="46.67469" lon="-1.9103">
        <ele>4</ele>
        <time>2018-04-20T20:35:17Z</time>
      </trkpt>
      <trkpt lat="46.67456" lon="-1.9101">
        <ele>4</ele>
        <time>2018-04-20T20:36:17Z</time>
      </trkpt>
      <trkpt lat="46.67452" lon="-1.91005">
        <ele>4</ele>
        <time>2018-04-20T20:37:17Z</time>
      </trkpt>
      <trkpt lat="46.67446" lon="-1.90996">
        <ele>4</ele>
        <time>2018-04-20T20:38:17Z</time>
      </trkpt>
      <trkpt lat="46.6744" lon="-1.90984">
        <ele>4</ele>
        <time>2018-04-20T20:39:17Z</time>
      </trkpt>
      <trkpt lat="46.67435" lon="-1.90971">
        <ele>3</ele>
        <time>2018-04-20T20:40:17Z</time>
      </trkpt>
      <trkpt lat="46.67435" lon="-1.90971">
        <ele>3</ele>
        <time>2018-04-20T20:41:17Z</time>
      </trkpt>
      <trkpt lat="46.67432" lon="-1.90969">
        <ele>3</ele>
        <time>2018-04-20T20:42:17Z</time>
      </trkpt>
      <trkpt lat="46.6743" lon="-1.90968">
        <ele>3</ele>
        <time>2018-04-20T20:43:17Z</time>
      </trkpt>
      <trkpt lat="46.67429" lon="-1.90967">
        <ele>3</ele>
        <time>2018-04-20T20:44:17Z</time>
      </trkpt>
      <trkpt lat="46.67427" lon="-1.90965">
        <ele>3</ele>
        <time>2018-04-20T20:45:17Z</time>
      </trkpt>
      <trkpt lat="46.67426" lon="-1.90964">
        <ele>3</ele>
        <time>2018-04-20T20:46:17Z</time>
      </trkpt>
      <trkpt lat="46.67424" lon="-1.90962">
        <ele>3</ele>
        <time>2018-04-20T20:47:17Z</time>
      </trkpt>
      <trkpt lat="46.67423" lon="-1.9096">
        <ele>3</ele>
        <time>2018-04-20T20:48:17Z</time>
      </trkpt>
      <trkpt lat="46.67422" lon="-1.90958">
        <ele>3</ele>
        <time>2018-04-20T20:49:17Z</time>
      </trkpt>
      <trkpt lat="46.67421" lon="-1.90956">
        <ele>3</ele>
        <time>2018-04-20T20:50:17Z</time>
      </trkpt>
      <trkpt lat="46.6742" lon="-1.90953">
        <ele>3</ele>
        <time>2018-04-20T20:51:17Z</time>
      </trkpt>
      <trkpt lat="46.6742" lon="-1.90951">
        <ele>3</ele>
        <time>2018-04-20T20:52:17Z</time>
      </trkpt>
      <trkpt lat="46.6742" lon="-1.9095">
        <ele>3</ele>
        <time>2018-04-20T20:53:17Z</time>
      </trkpt>
      <trkpt lat="46.67419" lon="-1.9095">
        <ele>3</ele>
        <time>2018-04-20T20:54:17Z</time>
      </trkpt>
      <trkpt lat="46.67419" lon="-1.90949">
        <ele>3</ele>
        <time>2018-04-20T20:55:17Z</time>
      </trkpt>
      <trkpt lat="46.67419" lon="-1.90948">
        <ele>3</ele>
        <time>2018-04-20T20:56:17Z</time>
      </trkpt>
      <trkpt lat="46.67419" lon="-1.90947">
        <ele>3</ele>
        <time>2018-04-20T20:57:17Z</time>
      </trkpt>
      <trkpt lat="46.67419" lon="-1.90946">
        <ele>3</ele>
        <time>2018-04-20T20:58:17Z</time>
      </trkpt>
      <trkpt lat="46.67414" lon="-1.90938">
        <ele>3</ele>
        <time>2018-04-20T20:59:17Z</time>
      </trkpt>
      <trkpt lat="46.67409" lon="-1.90932">
        <ele>3</ele>
        <time>2018-04-20T21:00:17Z</time>
      </trkpt>
      <trkpt lat="46.67407" lon="-1.90929">
        <ele>3</ele>
        <time>2018-04-20T21:01:17Z</time>
      </trkpt>
      <trkpt lat="46.67405" lon="-1.90925">
        <ele>3</ele>
        <time>2018-04-20T21:02:17Z</time>
      </trkpt>
      <trkpt lat="46.67398" lon="-1.90917">
        <ele>3</ele>
        <time>2018-04-20T21:03:17Z</time>
      </trkpt>
      <trkpt lat="46.67384" lon="-1.90901">
        <ele>3</ele>
        <time>2018-04-20T21:04:17Z</time>
      </trkpt>
      <trkpt lat="46.67344" lon="-1.90854">
        <ele>2</ele>
        <time>2018-04-20T21:05:17Z</time>
      </trkpt>
      <trkpt lat="46.67339" lon="-1.90844">
        <ele>2</ele>
        <time>2018-04-20T21:06:17Z</time>
      </trkpt>
      <trkpt lat="46.67336" lon="-1.9084">
        <ele>2</ele>
        <time>2018-04-20T21:07:17Z</time>
      </trkpt>
      <trkpt lat="46.67333" lon="-1.90837">
        <ele>2</ele>
        <time>2018-04-20T21:08:17Z</time>
      </trkpt>
      <trkpt lat="46.6733" lon="-1.90833">
        <ele>2</ele>
        <time>2018-04-20T21:09:17Z</time>
      </trkpt>
      <trkpt lat="46.67327" lon="-1.90829">
        <ele>2</ele>
        <time>2018-04-20T21:10:17Z</time>
      </trkpt>
      <trkpt lat="46.67323" lon="-1.90824">
        <ele>2</ele>
        <time>2018-04-20T21:11:17Z</time>
      </trkpt>
      <trkpt lat="46.6732" lon="-1.90819">
        <ele>2</ele>
        <time>2018-04-20T21:12:17Z</time>
      </trkpt>
      <trkpt lat="46.67313" lon="-1.9081">
        <ele>2</ele>
        <time>2018-04-20T21:13:17Z</time>
      </trkpt>
      <trkpt lat="46.67301" lon="-1.90794">
        <ele>2</ele>
        <time>2018-04-20T21:14:17Z</time>
      </trkpt>
      <trkpt lat="46.67282" lon="-1.90767">
        <ele>3</ele>
        <time>2018-04-20T21:15:17Z</time>
      </trkpt>
      <trkpt lat="46.67255" lon="-1.90729">
        <ele>3</ele>
        <time>2018-04-20T21:16:17Z</time>
      </trkpt>
      <trkpt lat="46.67226" lon="-1.90688">
        <ele>4</ele>
        <time>2018-04-20T21:17:17Z</time>
      </trkpt>
      <trkpt lat="46.67205" lon="-1.90658">
        <ele>4</ele>
        <time>2018-04-20T21:18:17Z</time>
      </trkpt>
      <trkpt lat="46.67166" lon="-1.90604">
        <ele>5</ele>
        <time>2018-04-20T21:19:17Z</time>
      </trkpt>
      <trkpt lat="46.67105" lon="-1.90518">
        <ele>5</ele>
        <time>2018-04-20T21:20:17Z</time>
      </trkpt>
      <trkpt lat="46.67097" lon="-1.90511">
        <ele>5</ele>
        <time>2018-04-20T21:21:17Z</time>
      </trkpt>
      <trkpt lat="46.67055" lon="-1.90456">
        <ele>5</ele>
        <time>2018-04-20T21:22:17Z</time>
      </trkpt>
      <trkpt lat="46.67046" lon="-1.90444">
        <ele>5</ele>
        <time>2018-04-20T21:23:17Z</time>
      </trkpt>
      <trkpt lat="46.67037" lon="-1.9043">
        <ele>5</ele>
        <time>2018-04-20T21:24:17Z</time>
      </trkpt>
      <trkpt lat="46.67034" lon="-1.90427">
        <ele>5</ele>
        <time>2018-04-20T21:25:17Z</time>
      </trkpt>
      <trkpt lat="46.67019" lon="-1.90408">
        <ele>5</ele>
        <time>2018-04-20T21:26:17Z</time>
      </trkpt>
      <trkpt lat="46.67018" lon="-1.90407">
        <ele>5</ele>
        <time>2018-04-20T21:27:17Z</time>
      </trkpt>
      <trkpt lat="46.67017" lon="-1.90406">
        <ele>5</ele>
        <time>2018-04-20T21:28:17Z</time>
      </trkpt>
      <trkpt lat="46.67016" lon="-1.90404">
        <ele>5</ele>
        <time>2018-04-20T21:29:17Z</time>
      </trkpt>
      <trkpt lat="46.67014" lon="-1.90402">
        <ele>5</ele>
        <time>2018-04-20T21:30:17Z</time>
      </trkpt>
      <trkpt lat="46.67012" lon="-1.90399">
        <ele>5</ele>
        <time>2018-04-20T21:31:17Z</time>
      </trkpt>
      <trkpt lat="46.66999" lon="-1.9038">
        <ele>5</ele>
        <time>2018-04-20T21:32:17Z</time>
      </trkpt>
      <trkpt lat="46.66997" lon="-1.90377">
        <ele>5</ele>
        <time>2018-04-20T21:33:17Z</time>
      </trkpt>
      <trkpt lat="46.66995" lon="-1.90374">
        <ele>5</ele>
        <time>2018-04-20T21:34:17Z</time>
      </trkpt>
      <trkpt lat="46.66993" lon="-1.90372">
        <ele>5</ele>
        <time>2018-04-20T21:35:17Z</time>
      </trkpt>
      <trkpt lat="46.66982" lon="-1.90356">
        <ele>5</ele>
        <time>2018-04-20T21:36:17Z</time>
      </trkpt>
      <trkpt lat="46.66982" lon="-1.90356">
        <ele>5</ele>
        <time>2018-04-20T21:37:17Z</time>
      </trkpt>
      <trkpt lat="46.66981" lon="-1.90356">
        <ele>5</ele>
        <time>2018-04-20T21:38:17Z</time>
      </trkpt>
      <trkpt lat="46.66979" lon="-1.90355">
        <ele>5</ele>
        <time>2018-04-20T21:39:17Z</time>
      </trkpt>
      <trkpt lat="46.66978" lon="-1.90355">
        <ele>5</ele>
        <time>2018-04-20T21:40:17Z</time>
      </trkpt>
      <trkpt lat="46.66977" lon="-1.90354">
        <ele>5</ele>
        <time>2018-04-20T21:41:17Z</time>
      </trkpt>
      <trkpt lat="46.66976" lon="-1.90353">
        <ele>5</ele>
        <time>2018-04-20T21:42:17Z</time>
      </trkpt>
      <trkpt lat="46.66975" lon="-1.90352">
        <ele>5</ele>
        <time>2018-04-20T21:43:17Z</time>
      </trkpt>
      <trkpt lat="46.66974" lon="-1.90351">
        <ele>5</ele>
        <time>2018-04-20T21:44:17Z</time>
      </trkpt>
      <trkpt lat="46.66973" lon="-1.9035">
        <ele>5</ele>
        <time>2018-04-20T21:45:17Z</time>
      </trkpt>
      <trkpt lat="46.66972" lon="-1.90349">
        <ele>5</ele>
        <time>2018-04-20T21:46:17Z</time>
      </trkpt>
      <trkpt lat="46.66971" lon="-1.90348">
        <ele>5</ele>
        <time>2018-04-20T21:47:17Z</time>
      </trkpt>
      <trkpt lat="46.6697" lon="-1.90346">
        <ele>5</ele>
        <time>2018-04-20T21:48:17Z</time>
      </trkpt>
      <trkpt lat="46.66969" lon="-1.90345">
        <ele>5</ele>
        <time>2018-04-20T21:49:17Z</time>
      </trkpt>
      <trkpt lat="46.66969" lon="-1.90343">
        <ele>5</ele>
        <time>2018-04-20T21:50:17Z</time>
      </trkpt>
      <trkpt lat="46.66968" lon="-1.90341">
        <ele>5</ele>
        <time>2018-04-20T21:51:17Z</time>
      </trkpt>
      <trkpt lat="46.66968" lon="-1.9034">
        <ele>5</ele>
        <time>2018-04-20T21:52:17Z</time>
      </trkpt>
      <trkpt lat="46.66967" lon="-1.90338">
        <ele>5</ele>
        <time>2018-04-20T21:53:17Z</time>
      </trkpt>
      <trkpt lat="46.66967" lon="-1.90335">
        <ele>5</ele>
        <time>2018-04-20T21:54:17Z</time>
      </trkpt>
      <trkpt lat="46.66963" lon="-1.90329">
        <ele>5</ele>
        <time>2018-04-20T21:55:17Z</time>
      </trkpt>
      <trkpt lat="46.66956" lon="-1.90318">
        <ele>5</ele>
        <time>2018-04-20T21:56:17Z</time>
      </trkpt>
      <trkpt lat="46.66936" lon="-1.90291">
        <ele>5</ele>
        <time>2018-04-20T21:57:17Z</time>
      </trkpt>
      <trkpt lat="46.66926" lon="-1.90283">
        <ele>5</ele>
        <time>2018-04-20T21:58:17Z</time>
      </trkpt>
      <trkpt lat="46.66922" lon="-1.90279">
        <ele>5</ele>
        <time>2018-04-20T21:59:17Z</time>
      </trkpt>
      <trkpt lat="46.66917" lon="-1.90275">
        <ele>5</ele>
        <time>2018-04-20T22:00:17Z</time>
      </trkpt>
      <trkpt lat="46.66913" lon="-1.90272">
        <ele>5</ele>
        <time>2018-04-20T22:01:17Z</time>
      </trkpt>
      <trkpt lat="46.66908" lon="-1.90269">
        <ele>5</ele>
        <time>2018-04-20T22:02:17Z</time>
      </trkpt>
      <trkpt lat="46.66902" lon="-1.90265">
        <ele>5</ele>
        <time>2018-04-20T22:03:17Z</time>
      </trkpt>
      <trkpt lat="46.66895" lon="-1.90261">
        <ele>5</ele>
        <time>2018-04-20T22:04:17Z</time>
      </trkpt>
      <trkpt lat="46.66891" lon="-1.90258">
        <ele>5</ele>
        <time>2018-04-20T22:05:17Z</time>
      </trkpt>
      <trkpt lat="46.66887" lon="-1.90256">
        <ele>5</ele>
        <time>2018-04-20T22:06:17Z</time>
      </trkpt>
      <trkpt lat="46.66883" lon="-1.90253">
        <ele>5</ele>
        <time>2018-04-20T22:07:17Z</time>
      </trkpt>
      <trkpt lat="46.66878" lon="-1.90251">
        <ele>5</ele>
        <time>2018-04-20T22:08:17Z</time>
      </trkpt>
      <trkpt lat="46.66874" lon="-1.90248">
        <ele>5</ele>
        <time>2018-04-20T22:09:17Z</time>
      </trkpt>
      <trkpt lat="46.66868" lon="-1.90245">
        <ele>5</ele>
        <time>2018-04-20T22:10:17Z</time>
      </trkpt>
      <trkpt lat="46.66863" lon="-1.90243">
        <ele>5</ele>
        <time>2018-04-20T22:11:17Z</time>
      </trkpt>
      <trkpt lat="46.66848" lon="-1.90237">
        <ele>5</ele>
        <time>2018-04-20T22:12:17Z</time>
      </trkpt>
      <trkpt lat="46.66842" lon="-1.90237">
        <ele>5</ele>
        <time>2018-04-20T22:13:17Z</time>
      </trkpt>
      <trkpt lat="46.66834" lon="-1.90235">
        <ele>5</ele>
        <time>2018-04-20T22:14:17Z</time>
      </trkpt>
      <trkpt lat="46.66812" lon="-1.9023">
        <ele>5</ele>
        <time>2018-04-20T22:15:17Z</time>
      </trkpt>
      <trkpt lat="46.66774" lon="-1.90221">
        <ele>5</ele>
        <time>2018-04-20T22:16:17Z</time>
      </trkpt>
      <trkpt lat="46.66754" lon="-1.90216">
        <ele>5</ele>
        <time>2018-04-20T22:17:17Z</time>
      </trkpt>
      <trkpt lat="46.66747" lon="-1.90214">
        <ele>5</ele>
        <time>2018-04-20T22:18:17Z</time>
      </trkpt>
      <trkpt lat="46.66649" lon="-1.9019">
        <ele>5</ele>
        <time>2018-04-20T22:19:17Z</time>
      </trkpt>
      <trkpt lat="46.66644" lon="-1.90186">
        <ele>5</ele>
        <time>2018-04-20T22:20:17Z</time>
      </trkpt>
      <trkpt lat="46.66598" lon="-1.90175">
        <ele>4</ele>
        <time>2018-04-20T22:21:17Z</time>
      </trkpt>
      <trkpt lat="46.66556" lon="-1.90164">
        <ele>3</ele>
        <time>2018-04-20T22:22:17Z</time>
      </trkpt>
      <trkpt lat="46.66457" lon="-1.90141">
        <ele>3</ele>
        <time>2018-04-20T22:23:17Z</time>
      </trkpt>
      <trkpt lat="46.66365" lon="-1.90118">
        <ele>1</ele>
        <time>2018-04-20T22:24:17Z</time>
      </trkpt>
      <trkpt lat="46.6636" lon="-1.90117">
        <ele>1</ele>
        <time>2018-04-20T22:25:17Z</time>
      </trkpt>
      <trkpt lat="46.66354" lon="-1.90116">
        <ele>1</ele>
        <time>2018-04-20T22:26:17Z</time>
      </trkpt>
      <trkpt lat="46.66342" lon="-1.90113">
        <ele>1</ele>
        <time>2018-04-20T22:27:17Z</time>
      </trkpt>
      <trkpt lat="46.66335" lon="-1.90111">
        <ele>1</ele>
        <time>2018-04-20T22:28:17Z</time>
      </trkpt>
      <trkpt lat="46.66328" lon="-1.90109">
        <ele>1</ele>
        <time>2018-04-20T22:29:17Z</time>
      </trkpt>
      <trkpt lat="46.66301" lon="-1.90103">
        <ele>1</ele>
        <time>2018-04-20T22:30:17Z</time>
      </trkpt>
      <trkpt lat="46.66278" lon="-1.90097">
        <ele>2</ele>
        <time>2018-04-20T22:31:17Z</time>
      </trkpt>
      <trkpt lat="46.66265" lon="-1.90094">
        <ele>2</ele>
        <time>2018-04-20T22:32:17Z</time>
      </trkpt>
      <trkpt lat="46.66258" lon="-1.90092">
        <ele>2</ele>
        <time>2018-04-20T22:33:17Z</time>
      </trkpt>
      <trkpt lat="46.66254" lon="-1.90091">
        <ele>2</ele>
        <time>2018-04-20T22:34:17Z</time>
      </trkpt>
      <trkpt lat="46.66251" lon="-1.90089">
        <ele>2</ele>
        <time>2018-04-20T22:35:17Z</time>
      </trkpt>
      <trkpt lat="46.66244" lon="-1.90087">
        <ele>2</ele>
        <time>2018-04-20T22:36:17Z</time>
      </trkpt>
      <trkpt lat="46.66237" lon="-1.90084">
        <ele>2</ele>
        <time>2018-04-20T22:37:17Z</time>
      </trkpt>
      <trkpt lat="46.66229" lon="-1.9008">
        <ele>3</ele>
        <time>2018-04-20T22:38:17Z</time>
      </trkpt>
      <trkpt lat="46.66223" lon="-1.90077">
        <ele>3</ele>
        <time>2018-04-20T22:39:17Z</time>
      </trkpt>
      <trkpt lat="46.66216" lon="-1.90073">
        <ele>3</ele>
        <time>2018-04-20T22:40:17Z</time>
      </trkpt>
      <trkpt lat="46.66205" lon="-1.90067">
        <ele>3</ele>
        <time>2018-04-20T22:41:17Z</time>
      </trkpt>
      <trkpt lat="46.66183" lon="-1.90053">
        <ele>4</ele>
        <time>2018-04-20T22:42:17Z</time>
      </trkpt>
      <trkpt lat="46.6615" lon="-1.90033">
        <ele>5</ele>
        <time>2018-04-20T22:43:17Z</time>
      </trkpt>
      <trkpt lat="46.66116" lon="-1.90011">
        <ele>6</ele>
        <time>2018-04-20T22:44:17Z</time>
      </trkpt>
      <trkpt lat="46.6609" lon="-1.89996">
        <ele>7</ele>
        <time>2018-04-20T22:45:17Z</time>
      </trkpt>
      <trkpt lat="46.66074" lon="-1.89986">
        <ele>7</ele>
        <time>2018-04-20T22:46:17Z</time>
      </trkpt>
      <trkpt lat="46.66028" lon="-1.89956">
        <ele>8</ele>
        <time>2018-04-20T22:47:17Z</time>
      </trkpt>
      <trkpt lat="46.65975" lon="-1.89922">
        <ele>7</ele>
        <time>2018-04-20T22:48:17Z</time>
      </trkpt>
      <trkpt lat="46.65958" lon="-1.89911">
        <ele>6</ele>
        <time>2018-04-20T22:49:17Z</time>
      </trkpt>
      <trkpt lat="46.65944" lon="-1.89901">
        <ele>7</ele>
        <time>2018-04-20T22:50:17Z</time>
      </trkpt>
      <trkpt lat="46.65878" lon="-1.8986">
        <ele>7</ele>
        <time>2018-04-20T22:51:17Z</time>
      </trkpt>
      <trkpt lat="46.65759" lon="-1.89784">
        <ele>8</ele>
        <time>2018-04-20T22:52:17Z</time>
      </trkpt>
      <trkpt lat="46.65631" lon="-1.89698">
        <ele>8</ele>
        <time>2018-04-20T22:53:17Z</time>
      </trkpt>
      <trkpt lat="46.65546" lon="-1.89643">
        <ele>7</ele>
        <time>2018-04-20T22:54:17Z</time>
      </trkpt>
      <trkpt lat="46.65541" lon="-1.89641">
        <ele>7</ele>
        <time>2018-04-20T22:55:17Z</time>
      </trkpt>
      <trkpt lat="46.65489" lon="-1.89605">
        <ele>7</ele>
        <time>2018-04-20T22:56:17Z</time>
      </trkpt>
      <trkpt lat="46.65461" lon="-1.89586">
        <ele>8</ele>
        <time>2018-04-20T22:57:17Z</time>
      </trkpt>
      <trkpt lat="46.65438" lon="-1.89566">
        <ele>7</ele>
        <time>2018-04-20T22:58:17Z</time>
      </trkpt>
      <trkpt lat="46.65434" lon="-1.89563">
        <ele>7</ele>
        <time>2018-04-20T22:59:17Z</time>
      </trkpt>
      <trkpt lat="46.65366" lon="-1.89503">
        <ele>6</ele>
        <time>2018-04-20T23:00:17Z</time>
      </trkpt>
      <trkpt lat="46.65366" lon="-1.89503">
        <ele>6</ele>
        <time>2018-04-20T23:01:17Z</time>
      </trkpt>
      <trkpt lat="46.65369" lon="-1.89496">
        <ele>6</ele>
        <time>2018-04-20T23:02:17Z</time>
      </trkpt>
      <trkpt lat="46.65366" lon="-1.89476">
        <ele>6</ele>
        <time>2018-04-20T23:03:17Z</time>
      </trkpt>
      <trkpt lat="46.65354" lon="-1.894">
        <ele>5</ele>
        <time>2018-04-20T23:04:17Z</time>
      </trkpt>
      <trkpt lat="46.65344" lon="-1.89332">
        <ele>5</ele>
        <time>2018-04-20T23:05:17Z</time>
      </trkpt>
      <trkpt lat="46.65335" lon="-1.89273">
        <ele>5</ele>
        <time>2018-04-20T23:06:17Z</time>
      </trkpt>
      <trkpt lat="46.65331" lon="-1.89246">
        <ele>5</ele>
        <time>2018-04-20T23:07:17Z</time>
      </trkpt>
      <trkpt lat="46.65321" lon="-1.89187">
        <ele>5</ele>
        <time>2018-04-20T23:08:17Z</time>
      </trkpt>
      <trkpt lat="46.65308" lon="-1.89096">
        <ele>6</ele>
        <time>2018-04-20T23:09:17Z</time>
      </trkpt>
      <trkpt lat="46.65298" lon="-1.89032">
        <ele>7</ele>
        <time>2018-04-20T23:10:17Z</time>
      </trkpt>
      <trkpt lat="46.65287" lon="-1.88968">
        <ele>8</ele>
        <time>2018-04-20T23:11:17Z</time>
      </trkpt>
      <trkpt lat="46.65283" lon="-1.88941">
        <ele>8</ele>
        <time>2018-04-20T23:12:17Z</time>
      </trkpt>
      <trkpt lat="46.65275" lon="-1.88888">
        <ele>8</ele>
        <time>2018-04-20T23:13:17Z</time>
      </trkpt>
      <trkpt lat="46.65267" lon="-1.88835">
        <ele>7</ele>
        <time>2018-04-20T23:14:17Z</time>
      </trkpt>
      <trkpt lat="46.65261" lon="-1.888">
        <ele>7</ele>
        <time>2018-04-20T23:15:17Z</time>
      </trkpt>
      <trkpt lat="46.65257" lon="-1.88772">
        <ele>8</ele>
        <time>2018-04-20T23:16:17Z</time>
      </trkpt>
      <trkpt lat="46.65254" lon="-1.88736">
        <ele>7</ele>
        <time>2018-04-20T23:17:17Z</time>
      </trkpt>
      <trkpt lat="46.65248" lon="-1.88687">
        <ele>7</ele>
        <time>2018-04-20T23:18:17Z</time>
      </trkpt>
      <trkpt lat="46.65243" lon="-1.88632">
        <ele>6</ele>
        <time>2018-04-20T23:19:17Z</time>
      </trkpt>
      <trkpt lat="46.65239" lon="-1.88591">
        <ele>5</ele>
        <time>2018-04-20T23:20:17Z</time>
      </trkpt>
      <trkpt lat="46.65235" lon="-1.88551">
        <ele>6</ele>
        <time>2018-04-20T23:21:17Z</time>
      </trkpt>
      <trkpt lat="46.65235" lon="-1.8855">
        <ele>6</ele>
        <time>2018-04-20T23:22:17Z</time>
      </trkpt>
      <trkpt lat="46.65229" lon="-1.88491">
        <ele>6</ele>
        <time>2018-04-20T23:23:17Z</time>
      </trkpt>
      <trkpt lat="46.65226" lon="-1.88446">
        <ele>5</ele>
        <time>2018-04-20T23:24:17Z</time>
      </trkpt>
      <trkpt lat="46.6522" lon="-1.88391">
        <ele>5</ele>
        <time>2018-04-20T23:25:17Z</time>
      </trkpt>
      <trkpt lat="46.65215" lon="-1.8834">
        <ele>6</ele>
        <time>2018-04-20T23:26:17Z</time>
      </trkpt>
      <trkpt lat="46.65211" lon="-1.88306">
        <ele>7</ele>
        <time>2018-04-20T23:27:17Z</time>
      </trkpt>
      <trkpt lat="46.65208" lon="-1.88282">
        <ele>7</ele>
        <time>2018-04-20T23:28:17Z</time>
      </trkpt>
      <trkpt lat="46.65207" lon="-1.88274">
        <ele>7</ele>
        <time>2018-04-20T23:29:17Z</time>
      </trkpt>
      <trkpt lat="46.65202" lon="-1.88244">
        <ele>8</ele>
        <time>2018-04-20T23:30:17Z</time>
      </trkpt>
      <trkpt lat="46.65195" lon="-1.8821">
        <ele>8</ele>
        <time>2018-04-20T23:31:17Z</time>
      </trkpt>
      <trkpt lat="46.65186" lon="-1.88173">
        <ele>9</ele>
        <time>2018-04-20T23:32:17Z</time>
      </trkpt>
      <trkpt lat="46.65171" lon="-1.88116">
        <ele>10</ele>
        <time>2018-04-20T23:33:17Z</time>
      </trkpt>
      <trkpt lat="46.65158" lon="-1.88068">
        <ele>10</ele>
        <time>2018-04-20T23:34:17Z</time>
      </trkpt>
      <trkpt lat="46.65151" lon="-1.8804">
        <ele>10</ele>
        <time>2018-04-20T23:35:17Z</time>
      </trkpt>
      <trkpt lat="46.65145" lon="-1.88021">
        <ele>11</ele>
        <time>2018-04-20T23:36:17Z</time>
      </trkpt>
      <trkpt lat="46.65137" lon="-1.87988">
        <ele>11</ele>
        <time>2018-04-20T23:37:17Z</time>
      </trkpt>
      <trkpt lat="46.65133" lon="-1.87974">
        <ele>11</ele>
        <time>2018-04-20T23:38:17Z</time>
      </trkpt>
      <trkpt lat="46.65133" lon="-1.87972">
        <ele>11</ele>
        <time>2018-04-20T23:39:17Z</time>
      </trkpt>
      <trkpt lat="46.65124" lon="-1.87945">
        <ele>11</ele>
        <time>2018-04-20T23:40:17Z</time>
      </trkpt>
      <trkpt lat="46.65116" lon="-1.87918">
        <ele>11</ele>
        <time>2018-04-20T23:41:17Z</time>
      </trkpt>
      <trkpt lat="46.65109" lon="-1.87885">
        <ele>11</ele>
        <time>2018-04-20T23:42:17Z</time>
      </trkpt>
      <trkpt lat="46.65105" lon="-1.87853">
        <ele>11</ele>
        <time>2018-04-20T23:43:17Z</time>
      </trkpt>
      <trkpt lat="46.65101" lon="-1.87824">
        <ele>11</ele>
        <time>2018-04-20T23:44:17Z</time>
      </trkpt>
      <trkpt lat="46.651" lon="-1.87802">
        <ele>10</ele>
        <time>2018-04-20T23:45:17Z</time>
      </trkpt>
      <trkpt lat="46.65099" lon="-1.87787">
        <ele>10</ele>
        <time>2018-04-20T23:46:17Z</time>
      </trkpt>
      <trkpt lat="46.65097" lon="-1.87734">
        <ele>9</ele>
        <time>2018-04-20T23:47:17Z</time>
      </trkpt>
      <trkpt lat="46.65096" lon="-1.87689">
        <ele>9</ele>
        <time>2018-04-20T23:48:17Z</time>
      </trkpt>
      <trkpt lat="46.65095" lon="-1.87668">
        <ele>9</ele>
        <time>2018-04-20T23:49:17Z</time>
      </trkpt>
      <trkpt lat="46.65094" lon="-1.87638">
        <ele>10</ele>
        <time>2018-04-20T23:50:17Z</time>
      </trkpt>
      <trkpt lat="46.65091" lon="-1.87603">
        <ele>10</ele>
        <time>2018-04-20T23:51:17Z</time>
      </trkpt>
      <trkpt lat="46.65088" lon="-1.87575">
        <ele>11</ele>
        <time>2018-04-20T23:52:17Z</time>
      </trkpt>
      <trkpt lat="46.65086" lon="-1.87557">
        <ele>11</ele>
        <time>2018-04-20T23:53:17Z</time>
      </trkpt>
      <trkpt lat="46.65082" lon="-1.87529">
        <ele>10</ele>
        <time>2018-04-20T23:54:17Z</time>
      </trkpt>
      <trkpt lat="46.65079" lon="-1.87507">
        <ele>10</ele>
        <time>2018-04-20T23:55:17Z</time>
      </trkpt>
      <trkpt lat="46.65071" lon="-1.87461">
        <ele>10</ele>
        <time>2018-04-20T23:56:17Z</time>
      </trkpt>
      <trkpt lat="46.65059" lon="-1.87392">
        <ele>10</ele>
        <time>2018-04-20T23:57:17Z</time>
      </trkpt>
      <trkpt lat="46.65055" lon="-1.87369">
        <ele>10</ele>
        <time>2018-04-20T23:58:17Z</time>
      </trkpt>
      <trkpt lat="46.65046" lon="-1.87318">
        <ele>11</ele>
        <time>2018-04-20T23:59:17Z</time>
      </trkpt>
      <trkpt lat="46.65042" lon="-1.8729">
        <ele>10</ele>
        <time>2018-04-21T00:00:17Z</time>
      </trkpt>
      <trkpt lat="46.65039" lon="-1.87258">
        <ele>10</ele>
        <time>2018-04-21T00:01:17Z</time>
      </trkpt>
      <trkpt lat="46.65036" lon="-1.87224">
        <ele>10</ele>
        <time>2018-04-21T00:02:17Z</time>
      </trkpt>
      <trkpt lat="46.65033" lon="-1.8719">
        <ele>11</ele>
        <time>2018-04-21T00:03:17Z</time>
      </trkpt>
      <trkpt lat="46.6503" lon="-1.87136">
        <ele>11</ele>
        <time>2018-04-21T00:04:17Z</time>
      </trkpt>
      <trkpt lat="46.65026" lon="-1.87069">
        <ele>12</ele>
        <time>2018-04-21T00:05:17Z</time>
      </trkpt>
      <trkpt lat="46.65019" lon="-1.86982">
        <ele>12</ele>
        <time>2018-04-21T00:06:17Z</time>
      </trkpt>
      <trkpt lat="46.65015" lon="-1.86918">
        <ele>12</ele>
        <time>2018-04-21T00:07:17Z</time>
      </trkpt>
      <trkpt lat="46.6501" lon="-1.86857">
        <ele>9</ele>
        <time>2018-04-21T00:08:17Z</time>
      </trkpt>
      <trkpt lat="46.65007" lon="-1.86796">
        <ele>8</ele>
        <time>2018-04-21T00:09:17Z</time>
      </trkpt>
      <trkpt lat="46.65005" lon="-1.86741">
        <ele>7</ele>
        <time>2018-04-21T00:10:17Z</time>
      </trkpt>
      <trkpt lat="46.65004" lon="-1.86709">
        <ele>7</ele>
        <time>2018-04-21T00:11:17Z</time>
      </trkpt>
      <trkpt lat="46.65004" lon="-1.86682">
        <ele>7</ele>
        <time>2018-04-21T00:12:17Z</time>
      </trkpt>
      <trkpt lat="46.65003" lon="-1.86633">
        <ele>8</ele>
        <time>2018-04-21T00:13:17Z</time>
      </trkpt>
      <trkpt lat="46.65001" lon="-1.86559">
        <ele>10</ele>
        <time>2018-04-21T00:14:17Z</time>
      </trkpt>
      <trkpt lat="46.64999" lon="-1.86515">
        <ele>12</ele>
        <time>2018-04-21T00:15:17Z</time>
      </trkpt>
      <trkpt lat="46.64998" lon="-1.86496">
        <ele>12</ele>
        <time>2018-04-21T00:16:17Z</time>
      </trkpt>
      <trkpt lat="46.64996" lon="-1.86474">
        <ele>13</ele>
        <time>2018-04-21T00:17:17Z</time>
      </trkpt>
      <trkpt lat="46.64991" lon="-1.86428">
        <ele>14</ele>
        <time>2018-04-21T00:18:17Z</time>
      </trkpt>
      <trkpt lat="46.64987" lon="-1.8638">
        <ele>14</ele>
        <time>2018-04-21T00:19:17Z</time>
      </trkpt>
      <trkpt lat="46.64981" lon="-1.86324">
        <ele>14</ele>
        <time>2018-04-21T00:20:17Z</time>
      </trkpt>
      <trkpt lat="46.64975" lon="-1.86256">
        <ele>16</ele>
        <time>2018-04-21T00:21:17Z</time>
      </trkpt>
      <trkpt lat="46.64968" lon="-1.86171">
        <ele>18</ele>
        <time>2018-04-21T00:22:17Z</time>
      </trkpt>
      <trkpt lat="46.6496" lon="-1.86087">
        <ele>20</ele>
        <time>2018-04-21T00:23:17Z</time>
      </trkpt>
      <trkpt lat="46.64952" lon="-1.86">
        <ele>20</ele>
        <time>2018-04-21T00:24:17Z</time>
      </trkpt>
      <trkpt lat="46.64945" lon="-1.85915">
        <ele>20</ele>
        <time>2018-04-21T00:25:17Z</time>
      </trkpt>
      <trkpt lat="46.64942" lon="-1.85886">
        <ele>20</ele>
        <time>2018-04-21T00:26:17Z</time>
      </trkpt>
      <trkpt lat="46.64938" lon="-1.85845">
        <ele>21</ele>
        <time>2018-04-21T00:27:17Z</time>
      </trkpt>
      <trkpt lat="46.64937" lon="-1.85835">
        <ele>21</ele>
        <time>2018-04-21T00:28:17Z</time>
      </trkpt>
      <trkpt lat="46.64934" lon="-1.85805">
        <ele>20</ele>
        <time>2018-04-21T00:29:17Z</time>
      </trkpt>
      <trkpt lat="46.64929" lon="-1.85757">
        <ele>19</ele>
        <time>2018-04-21T00:30:17Z</time>
      </trkpt>
      <trkpt lat="46.64925" lon="-1.85725">
        <ele>18</ele>
        <time>2018-04-21T00:31:17Z</time>
      </trkpt>
      <trkpt lat="46.6492" lon="-1.85676">
        <ele>17</ele>
        <time>2018-04-21T00:32:17Z</time>
      </trkpt>
      <trkpt lat="46.64915" lon="-1.85626">
        <ele>17</ele>
        <time>2018-04-21T00:33:17Z</time>
      </trkpt>
      <trkpt lat="46.64909" lon="-1.85574">
        <ele>17</ele>
        <time>2018-04-21T00:34:17Z</time>
      </trkpt>
      <trkpt lat="46.64901" lon="-1.85506">
        <ele>17</ele>
        <time>2018-04-21T00:35:17Z</time>
      </trkpt>
      <trkpt lat="46.64893" lon="-1.85436">
        <ele>19</ele>
        <time>2018-04-21T00:36:17Z</time>
      </trkpt>
      <trkpt lat="46.64889" lon="-1.85398">
        <ele>19</ele>
        <time>2018-04-21T00:37:17Z</time>
      </trkpt>
      <trkpt lat="46.64883" lon="-1.85341">
        <ele>19</ele>
        <time>2018-04-21T00:38:17Z</time>
      </trkpt>
      <trkpt lat="46.64876" lon="-1.85276">
        <ele>18</ele>
        <time>2018-04-21T00:39:17Z</time>
      </trkpt>
      <trkpt lat="46.64868" lon="-1.85198">
        <ele>18</ele>
        <time>2018-04-21T00:40:17Z</time>
      </trkpt>
      <trkpt lat="46.64863" lon="-1.85146">
        <ele>19</ele>
        <time>2018-04-21T00:41:17Z</time>
      </trkpt>
      <trkpt lat="46.6486" lon="-1.85108">
        <ele>18</ele>
        <time>2018-04-21T00:42:17Z</time>
      </trkpt>
      <trkpt lat="46.64858" lon="-1.85092">
        <ele>18</ele>
        <time>2018-04-21T00:43:17Z</time>
      </trkpt>
      <trkpt lat="46.64857" lon="-1.85077">
        <ele>18</ele>
        <time>2018-04-21T00:44:17Z</time>
      </trkpt>
      <trkpt lat="46.64856" lon="-1.85061">
        <ele>18</ele>
        <time>2018-04-21T00:45:17Z</time>
      </trkpt>
      <trkpt lat="46.64855" lon="-1.85046">
        <ele>18</ele>
        <time>2018-04-21T00:46:17Z</time>
      </trkpt>
      <trkpt lat="46.64853" lon="-1.8503">
        <ele>19</ele>
        <time>2018-04-21T00:47:17Z</time>
      </trkpt>
      <trkpt lat="46.64852" lon="-1.85014">
        <ele>19</ele>
        <time>2018-04-21T00:48:17Z</time>
      </trkpt>
      <trkpt lat="46.64851" lon="-1.84998">
        <ele>19</ele>
        <time>2018-04-21T00:49:17Z</time>
      </trkpt>
      <trkpt lat="46.64847" lon="-1.84949">
        <ele>19</ele>
        <time>2018-04-21T00:50:17Z</time>
      </trkpt>
      <trkpt lat="46.6484" lon="-1.84872">
        <ele>18</ele>
        <time>2018-04-21T00:51:17Z</time>
      </trkpt>
      <trkpt lat="46.64839" lon="-1.84856">
        <ele>18</ele>
        <time>2018-04-21T00:52:17Z</time>
      </trkpt>
      <trkpt lat="46.64838" lon="-1.8484">
        <ele>18</ele>
        <time>2018-04-21T00:53:17Z</time>
      </trkpt>
      <trkpt lat="46.64837" lon="-1.84824">
        <ele>18</ele>
        <time>2018-04-21T00:54:17Z</time>
      </trkpt>
      <trkpt lat="46.64835" lon="-1.84806">
        <ele>18</ele>
        <time>2018-04-21T00:55:17Z</time>
      </trkpt>
      <trkpt lat="46.64834" lon="-1.84791">
        <ele>18</ele>
        <time>2018-04-21T00:56:17Z</time>
      </trkpt>
      <trkpt lat="46.64833" lon="-1.84774">
        <ele>18</ele>
        <time>2018-04-21T00:57:17Z</time>
      </trkpt>
      <trkpt lat="46.64832" lon="-1.84758">
        <ele>18</ele>
        <time>2018-04-21T00:58:17Z</time>
      </trkpt>
      <trkpt lat="46.6483" lon="-1.84741">
        <ele>18</ele>
        <time>2018-04-21T00:59:17Z</time>
      </trkpt>
      <trkpt lat="46.64829" lon="-1.84724">
        <ele>18</ele>
        <time>2018-04-21T01:00:17Z</time>
      </trkpt>
      <trkpt lat="46.64827" lon="-1.84708">
        <ele>18</ele>
        <time>2018-04-21T01:01:17Z</time>
      </trkpt>
      <trkpt lat="46.64826" lon="-1.84691">
        <ele>17</ele>
        <time>2018-04-21T01:02:17Z</time>
      </trkpt>
      <trkpt lat="46.64825" lon="-1.84675">
        <ele>17</ele>
        <time>2018-04-21T01:03:17Z</time>
      </trkpt>
      <trkpt lat="46.64824" lon="-1.84658">
        <ele>17</ele>
        <time>2018-04-21T01:04:17Z</time>
      </trkpt>
      <trkpt lat="46.64823" lon="-1.84642">
        <ele>18</ele>
        <time>2018-04-21T01:05:17Z</time>
      </trkpt>
      <trkpt lat="46.64822" lon="-1.84625">
        <ele>18</ele>
        <time>2018-04-21T01:06:17Z</time>
      </trkpt>
      <trkpt lat="46.6482" lon="-1.84609">
        <ele>18</ele>
        <time>2018-04-21T01:07:17Z</time>
      </trkpt>
      <trkpt lat="46.64819" lon="-1.84593">
        <ele>19</ele>
        <time>2018-04-21T01:08:17Z</time>
      </trkpt>
      <trkpt lat="46.64818" lon="-1.84577">
        <ele>19</ele>
        <time>2018-04-21T01:09:17Z</time>
      </trkpt>
      <trkpt lat="46.64816" lon="-1.84561">
        <ele>19</ele>
        <time>2018-04-21T01:10:17Z</time>
      </trkpt>
      <trkpt lat="46.64815" lon="-1.84544">
        <ele>19</ele>
        <time>2018-04-21T01:11:17Z</time>
      </trkpt>
      <trkpt lat="46.64814" lon="-1.84528">
        <ele>18</ele>
        <time>2018-04-21T01:12:17Z</time>
      </trkpt>
      <trkpt lat="46.64812" lon="-1.84512">
        <ele>18</ele>
        <time>2018-04-21T01:13:17Z</time>
      </trkpt>
      <trkpt lat="46.6481" lon="-1.84496">
        <ele>18</ele>
        <time>2018-04-21T01:14:17Z</time>
      </trkpt>
      <trkpt lat="46.64808" lon="-1.84479">
        <ele>18</ele>
        <time>2018-04-21T01:15:17Z</time>
      </trkpt>
      <trkpt lat="46.64806" lon="-1.84463">
        <ele>18</ele>
        <time>2018-04-21T01:16:17Z</time>
      </trkpt>
      <trkpt lat="46.64804" lon="-1.84448">
        <ele>18</ele>
        <time>2018-04-21T01:17:17Z</time>
      </trkpt>
      <trkpt lat="46.64802" lon="-1.84431">
        <ele>17</ele>
        <time>2018-04-21T01:18:17Z</time>
      </trkpt>
      <trkpt lat="46.64799" lon="-1.84416">
        <ele>17</ele>
        <time>2018-04-21T01:19:17Z</time>
      </trkpt>
      <trkpt lat="46.64797" lon="-1.844">
        <ele>18</ele>
        <time>2018-04-21T01:20:17Z</time>
      </trkpt>
      <trkpt lat="46.64794" lon="-1.84384">
        <ele>18</ele>
        <time>2018-04-21T01:21:17Z</time>
      </trkpt>
      <trkpt lat="46.64792" lon="-1.84368">
        <ele>18</ele>
        <time>2018-04-21T01:22:17Z</time>
      </trkpt>
      <trkpt lat="46.64789" lon="-1.84353">
        <ele>18</ele>
        <time>2018-04-21T01:23:17Z</time>
      </trkpt>
      <trkpt lat="46.64787" lon="-1.84338">
        <ele>19</ele>
        <time>2018-04-21T01:24:17Z</time>
      </trkpt>
      <trkpt lat="46.64784" lon="-1.84322">
        <ele>19</ele>
        <time>2018-04-21T01:25:17Z</time>
      </trkpt>
      <trkpt lat="46.64782" lon="-1.84306">
        <ele>19</ele>
        <time>2018-04-21T01:26:17Z</time>
      </trkpt>
      <trkpt lat="46.64779" lon="-1.84291">
        <ele>19</ele>
        <time>2018-04-21T01:27:17Z</time>
      </trkpt>
      <trkpt lat="46.64777" lon="-1.84276">
        <ele>20</ele>
        <time>2018-04-21T01:28:17Z</time>
      </trkpt>
      <trkpt lat="46.64775" lon="-1.84261">
        <ele>20</ele>
        <time>2018-04-21T01:29:17Z</time>
      </trkpt>
      <trkpt lat="46.64772" lon="-1.84247">
        <ele>20</ele>
        <time>2018-04-21T01:30:17Z</time>
      </trkpt>
      <trkpt lat="46.6477" lon="-1.84232">
        <ele>21</ele>
        <time>2018-04-21T01:31:17Z</time>
      </trkpt>
      <trkpt lat="46.64768" lon="-1.84218">
        <ele>21</ele>
        <time>2018-04-21T01:32:17Z</time>
      </trkpt>
      <trkpt lat="46.64766" lon="-1.84204">
        <ele>21</ele>
        <time>2018-04-21T01:33:17Z</time>
      </trkpt>
      <trkpt lat="46.64763" lon="-1.8419">
        <ele>21</ele>
        <time>2018-04-21T01:34:17Z</time>
      </trkpt>
      <trkpt lat="46.64761" lon="-1.84175">
        <ele>22</ele>
        <time>2018-04-21T01:35:17Z</time>
      </trkpt>
      <trkpt lat="46.64759" lon="-1.84161">
        <ele>22</ele>
        <time>2018-04-21T01:36:17Z</time>
      </trkpt>
      <trkpt lat="46.64757" lon="-1.84147">
        <ele>22</ele>
        <time>2018-04-21T01:37:17Z</time>
      </trkpt>
      <trkpt lat="46.64755" lon="-1.84133">
        <ele>22</ele>
        <time>2018-04-21T01:38:17Z</time>
      </trkpt>
      <trkpt lat="46.64752" lon="-1.84118">
        <ele>22</ele>
        <time>2018-04-21T01:39:17Z</time>
      </trkpt>
      <trkpt lat="46.64748" lon="-1.84087">
        <ele>22</ele>
        <time>2018-04-21T01:40:17Z</time>
      </trkpt>
      <trkpt lat="46.64746" lon="-1.84077">
        <ele>22</ele>
        <time>2018-04-21T01:41:17Z</time>
      </trkpt>
      <trkpt lat="46.64744" lon="-1.84064">
        <ele>22</ele>
        <time>2018-04-21T01:42:17Z</time>
      </trkpt>
      <trkpt lat="46.64742" lon="-1.8405">
        <ele>22</ele>
        <time>2018-04-21T01:43:17Z</time>
      </trkpt>
      <trkpt lat="46.6474" lon="-1.84036">
        <ele>22</ele>
        <time>2018-04-21T01:44:17Z</time>
      </trkpt>
      <trkpt lat="46.64738" lon="-1.84022">
        <ele>22</ele>
        <time>2018-04-21T01:45:17Z</time>
      </trkpt>
      <trkpt lat="46.64736" lon="-1.84008">
        <ele>22</ele>
        <time>2018-04-21T01:46:17Z</time>
      </trkpt>
      <trkpt lat="46.64734" lon="-1.83994">
        <ele>22</ele>
        <time>2018-04-21T01:47:17Z</time>
      </trkpt>
      <trkpt lat="46.64732" lon="-1.8398">
        <ele>22</ele>
        <time>2018-04-21T01:48:17Z</time>
      </trkpt>
      <trkpt lat="46.64731" lon="-1.83965">
        <ele>22</ele>
        <time>2018-04-21T01:49:17Z</time>
      </trkpt>
      <trkpt lat="46.64729" lon="-1.83951">
        <ele>22</ele>
        <time>2018-04-21T01:50:17Z</time>
      </trkpt>
      <trkpt lat="46.64728" lon="-1.83937">
        <ele>22</ele>
        <time>2018-04-21T01:51:17Z</time>
      </trkpt>
      <trkpt lat="46.64728" lon="-1.83924">
        <ele>22</ele>
        <time>2018-04-21T01:52:17Z</time>
      </trkpt>
      <trkpt lat="46.64728" lon="-1.8391">
        <ele>22</ele>
        <time>2018-04-21T01:53:17Z</time>
      </trkpt>
      <trkpt lat="46.64728" lon="-1.83896">
        <ele>23</ele>
        <time>2018-04-21T01:54:17Z</time>
      </trkpt>
      <trkpt lat="46.64729" lon="-1.83883">
        <ele>23</ele>
        <time>2018-04-21T01:55:17Z</time>
      </trkpt>
      <trkpt lat="46.6473" lon="-1.8387">
        <ele>23</ele>
        <time>2018-04-21T01:56:17Z</time>
      </trkpt>
      <trkpt lat="46.64732" lon="-1.83857">
        <ele>23</ele>
        <time>2018-04-21T01:57:17Z</time>
      </trkpt>
      <trkpt lat="46.64736" lon="-1.83833">
        <ele>24</ele>
        <time>2018-04-21T01:58:17Z</time>
      </trkpt>
      <trkpt lat="46.64738" lon="-1.83821">
        <ele>24</ele>
        <time>2018-04-21T01:59:17Z</time>
      </trkpt>
      <trkpt lat="46.6474" lon="-1.83809">
        <ele>25</ele>
        <time>2018-04-21T02:00:17Z</time>
      </trkpt>
      <trkpt lat="46.64743" lon="-1.83796">
        <ele>25</ele>
        <time>2018-04-21T02:01:17Z</time>
      </trkpt>
      <trkpt lat="46.64745" lon="-1.83784">
        <ele>26</ele>
        <time>2018-04-21T02:02:17Z</time>
      </trkpt>
      <trkpt lat="46.64747" lon="-1.83771">
        <ele>26</ele>
        <time>2018-04-21T02:03:17Z</time>
      </trkpt>
      <trkpt lat="46.6475" lon="-1.83758">
        <ele>27</ele>
        <time>2018-04-21T02:04:17Z</time>
      </trkpt>
      <trkpt lat="46.64752" lon="-1.83746">
        <ele>27</ele>
        <time>2018-04-21T02:05:17Z</time>
      </trkpt>
      <trkpt lat="46.64754" lon="-1.83733">
        <ele>27</ele>
        <time>2018-04-21T02:06:17Z</time>
      </trkpt>
      <trkpt lat="46.64757" lon="-1.83721">
        <ele>26</ele>
        <time>2018-04-21T02:07:17Z</time>
      </trkpt>
      <trkpt lat="46.64759" lon="-1.83709">
        <ele>26</ele>
        <time>2018-04-21T02:08:17Z</time>
      </trkpt>
      <trkpt lat="46.64761" lon="-1.83695">
        <ele>26</ele>
        <time>2018-04-21T02:09:17Z</time>
      </trkpt>
      <trkpt lat="46.64764" lon="-1.83683">
        <ele>26</ele>
        <time>2018-04-21T02:10:17Z</time>
      </trkpt>
      <trkpt lat="46.64766" lon="-1.8367">
        <ele>25</ele>
        <time>2018-04-21T02:11:17Z</time>
      </trkpt>
      <trkpt lat="46.64769" lon="-1.83657">
        <ele>25</ele>
        <time>2018-04-21T02:12:17Z</time>
      </trkpt>
      <trkpt lat="46.64771" lon="-1.83644">
        <ele>25</ele>
        <time>2018-04-21T02:13:17Z</time>
      </trkpt>
      <trkpt lat="46.64773" lon="-1.83631">
        <ele>25</ele>
        <time>2018-04-21T02:14:17Z</time>
      </trkpt>
      <trkpt lat="46.64776" lon="-1.83619">
        <ele>25</ele>
        <time>2018-04-21T02:15:17Z</time>
      </trkpt>
      <trkpt lat="46.64778" lon="-1.83606">
        <ele>25</ele>
        <time>2018-04-21T02:16:17Z</time>
      </trkpt>
      <trkpt lat="46.6478" lon="-1.83593">
        <ele>24</ele>
        <time>2018-04-21T02:17:17Z</time>
      </trkpt>
      <trkpt lat="46.64783" lon="-1.83579">
        <ele>24</ele>
        <time>2018-04-21T02:18:17Z</time>
      </trkpt>
      <trkpt lat="46.64785" lon="-1.83566">
        <ele>24</ele>
        <time>2018-04-21T02:19:17Z</time>
      </trkpt>
      <trkpt lat="46.64788" lon="-1.83553">
        <ele>24</ele>
        <time>2018-04-21T02:20:17Z</time>
      </trkpt>
      <trkpt lat="46.6479" lon="-1.8354">
        <ele>23</ele>
        <time>2018-04-21T02:21:17Z</time>
      </trkpt>
      <trkpt lat="46.64793" lon="-1.83526">
        <ele>23</ele>
        <time>2018-04-21T02:22:17Z</time>
      </trkpt>
      <trkpt lat="46.64795" lon="-1.83513">
        <ele>23</ele>
        <time>2018-04-21T02:23:17Z</time>
      </trkpt>
      <trkpt lat="46.64798" lon="-1.83501">
        <ele>23</ele>
        <time>2018-04-21T02:24:17Z</time>
      </trkpt>
      <trkpt lat="46.648" lon="-1.83488">
        <ele>22</ele>
        <time>2018-04-21T02:25:17Z</time>
      </trkpt>
      <trkpt lat="46.64801" lon="-1.83477">
        <ele>22</ele>
        <time>2018-04-21T02:26:17Z</time>
      </trkpt>
      <trkpt lat="46.64803" lon="-1.83473">
        <ele>22</ele>
        <time>2018-04-21T02:27:17Z</time>
      </trkpt>
      <trkpt lat="46.64805" lon="-1.83461">
        <ele>22</ele>
        <time>2018-04-21T02:28:17Z</time>
      </trkpt>
      <trkpt lat="46.64807" lon="-1.83448">
        <ele>21</ele>
        <time>2018-04-21T02:29:17Z</time>
      </trkpt>
      <trkpt lat="46.6481" lon="-1.83435">
        <ele>21</ele>
        <time>2018-04-21T02:30:17Z</time>
      </trkpt>
      <trkpt lat="46.64812" lon="-1.83422">
        <ele>21</ele>
        <time>2018-04-21T02:31:17Z</time>
      </trkpt>
      <trkpt lat="46.64813" lon="-1.83408">
        <ele>21</ele>
        <time>2018-04-21T02:32:17Z</time>
      </trkpt>
      <trkpt lat="46.64815" lon="-1.83395">
        <ele>21</ele>
        <time>2018-04-21T02:33:17Z</time>
      </trkpt>
      <trkpt lat="46.64816" lon="-1.83381">
        <ele>21</ele>
        <time>2018-04-21T02:34:17Z</time>
      </trkpt>
      <trkpt lat="46.64816" lon="-1.83368">
        <ele>21</ele>
        <time>2018-04-21T02:35:17Z</time>
      </trkpt>
      <trkpt lat="46.64816" lon="-1.83354">
        <ele>21</ele>
        <time>2018-04-21T02:36:17Z</time>
      </trkpt>
      <trkpt lat="46.64815" lon="-1.83335">
        <ele>21</ele>
        <time>2018-04-21T02:37:17Z</time>
      </trkpt>
      <trkpt lat="46.64815" lon="-1.83328">
        <ele>21</ele>
        <time>2018-04-21T02:38:17Z</time>
      </trkpt>
      <trkpt lat="46.64814" lon="-1.83316">
        <ele>21</ele>
        <time>2018-04-21T02:39:17Z</time>
      </trkpt>
      <trkpt lat="46.64813" lon="-1.83302">
        <ele>21</ele>
        <time>2018-04-21T02:40:17Z</time>
      </trkpt>
      <trkpt lat="46.64811" lon="-1.8329">
        <ele>21</ele>
        <time>2018-04-21T02:41:17Z</time>
      </trkpt>
      <trkpt lat="46.6481" lon="-1.83276">
        <ele>22</ele>
        <time>2018-04-21T02:42:17Z</time>
      </trkpt>
      <trkpt lat="46.64808" lon="-1.83264">
        <ele>22</ele>
        <time>2018-04-21T02:43:17Z</time>
      </trkpt>
      <trkpt lat="46.64807" lon="-1.83251">
        <ele>22</ele>
        <time>2018-04-21T02:44:17Z</time>
      </trkpt>
      <trkpt lat="46.64805" lon="-1.83238">
        <ele>22</ele>
        <time>2018-04-21T02:45:17Z</time>
      </trkpt>
      <trkpt lat="46.64804" lon="-1.83225">
        <ele>22</ele>
        <time>2018-04-21T02:46:17Z</time>
      </trkpt>
      <trkpt lat="46.64802" lon="-1.83212">
        <ele>22</ele>
        <time>2018-04-21T02:47:17Z</time>
      </trkpt>
      <trkpt lat="46.648" lon="-1.832">
        <ele>23</ele>
        <time>2018-04-21T02:48:17Z</time>
      </trkpt>
      <trkpt lat="46.64798" lon="-1.83187">
        <ele>23</ele>
        <time>2018-04-21T02:49:17Z</time>
      </trkpt>
      <trkpt lat="46.64797" lon="-1.83185">
        <ele>23</ele>
        <time>2018-04-21T02:50:17Z</time>
      </trkpt>
      <trkpt lat="46.64792" lon="-1.83165">
        <ele>23</ele>
        <time>2018-04-21T02:51:17Z</time>
      </trkpt>
      <trkpt lat="46.64789" lon="-1.83153">
        <ele>23</ele>
        <time>2018-04-21T02:52:17Z</time>
      </trkpt>
      <trkpt lat="46.64786" lon="-1.83142">
        <ele>23</ele>
        <time>2018-04-21T02:53:17Z</time>
      </trkpt>
      <trkpt lat="46.64783" lon="-1.83131">
        <ele>23</ele>
        <time>2018-04-21T02:54:17Z</time>
      </trkpt>
      <trkpt lat="46.6478" lon="-1.8312">
        <ele>23</ele>
        <time>2018-04-21T02:55:17Z</time>
      </trkpt>
      <trkpt lat="46.64777" lon="-1.83109">
        <ele>23</ele>
        <time>2018-04-21T02:56:17Z</time>
      </trkpt>
      <trkpt lat="46.64773" lon="-1.83098">
        <ele>23</ele>
        <time>2018-04-21T02:57:17Z</time>
      </trkpt>
      <trkpt lat="46.6477" lon="-1.83086">
        <ele>23</ele>
        <time>2018-04-21T02:58:17Z</time>
      </trkpt>
      <trkpt lat="46.64767" lon="-1.83075">
        <ele>23</ele>
        <time>2018-04-21T02:59:17Z</time>
      </trkpt>
      <trkpt lat="46.64765" lon="-1.83063">
        <ele>23</ele>
        <time>2018-04-21T03:00:17Z</time>
      </trkpt>
      <trkpt lat="46.64762" lon="-1.83051">
        <ele>23</ele>
        <time>2018-04-21T03:01:17Z</time>
      </trkpt>
      <trkpt lat="46.6476" lon="-1.83039">
        <ele>23</ele>
        <time>2018-04-21T03:02:17Z</time>
      </trkpt>
      <trkpt lat="46.64758" lon="-1.83027">
        <ele>23</ele>
        <time>2018-04-21T03:03:17Z</time>
      </trkpt>
      <trkpt lat="46.64757" lon="-1.83014">
        <ele>23</ele>
        <time>2018-04-21T03:04:17Z</time>
      </trkpt>
      <trkpt lat="46.64756" lon="-1.83004">
        <ele>23</ele>
        <time>2018-04-21T03:05:17Z</time>
      </trkpt>
      <trkpt lat="46.64751" lon="-1.82946">
        <ele>23</ele>
        <time>2018-04-21T03:06:17Z</time>
      </trkpt>
      <trkpt lat="46.64747" lon="-1.82909">
        <ele>23</ele>
        <time>2018-04-21T03:07:17Z</time>
      </trkpt>
      <trkpt lat="46.64745" lon="-1.82879">
        <ele>23</ele>
        <time>2018-04-21T03:08:17Z</time>
      </trkpt>
      <trkpt lat="46.64744" lon="-1.8287">
        <ele>23</ele>
        <time>2018-04-21T03:09:17Z</time>
      </trkpt>
      <trkpt lat="46.64743" lon="-1.82855">
        <ele>23</ele>
        <time>2018-04-21T03:10:17Z</time>
      </trkpt>
      <trkpt lat="46.64742" lon="-1.82842">
        <ele>23</ele>
        <time>2018-04-21T03:11:17Z</time>
      </trkpt>
      <trkpt lat="46.6474" lon="-1.82828">
        <ele>23</ele>
        <time>2018-04-21T03:12:17Z</time>
      </trkpt>
      <trkpt lat="46.64739" lon="-1.82814">
        <ele>23</ele>
        <time>2018-04-21T03:13:17Z</time>
      </trkpt>
      <trkpt lat="46.64737" lon="-1.828">
        <ele>23</ele>
        <time>2018-04-21T03:14:17Z</time>
      </trkpt>
      <trkpt lat="46.64736" lon="-1.82786">
        <ele>23</ele>
        <time>2018-04-21T03:15:17Z</time>
      </trkpt>
      <trkpt lat="46.64734" lon="-1.82772">
        <ele>23</ele>
        <time>2018-04-21T03:16:17Z</time>
      </trkpt>
      <trkpt lat="46.64733" lon="-1.82759">
        <ele>23</ele>
        <time>2018-04-21T03:17:17Z</time>
      </trkpt>
      <trkpt lat="46.64731" lon="-1.82745">
        <ele>23</ele>
        <time>2018-04-21T03:18:17Z</time>
      </trkpt>
      <trkpt lat="46.6473" lon="-1.82732">
        <ele>23</ele>
        <time>2018-04-21T03:19:17Z</time>
      </trkpt>
      <trkpt lat="46.64728" lon="-1.82718">
        <ele>23</ele>
        <time>2018-04-21T03:20:17Z</time>
      </trkpt>
      <trkpt lat="46.64726" lon="-1.82705">
        <ele>24</ele>
        <time>2018-04-21T03:21:17Z</time>
      </trkpt>
      <trkpt lat="46.64725" lon="-1.82692">
        <ele>24</ele>
        <time>2018-04-21T03:22:17Z</time>
      </trkpt>
      <trkpt lat="46.64723" lon="-1.8268">
        <ele>24</ele>
        <time>2018-04-21T03:23:17Z</time>
      </trkpt>
      <trkpt lat="46.64722" lon="-1.82668">
        <ele>25</ele>
        <time>2018-04-21T03:24:17Z</time>
      </trkpt>
      <trkpt lat="46.6472" lon="-1.82655">
        <ele>25</ele>
        <time>2018-04-21T03:25:17Z</time>
      </trkpt>
      <trkpt lat="46.64716" lon="-1.8263">
        <ele>25</ele>
        <time>2018-04-21T03:26:17Z</time>
      </trkpt>
      <trkpt lat="46.64712" lon="-1.82607">
        <ele>26</ele>
        <time>2018-04-21T03:27:17Z</time>
      </trkpt>
      <trkpt lat="46.64708" lon="-1.82584">
        <ele>26</ele>
        <time>2018-04-21T03:28:17Z</time>
      </trkpt>
      <trkpt lat="46.64703" lon="-1.82552">
        <ele>26</ele>
        <time>2018-04-21T03:29:17Z</time>
      </trkpt>
      <trkpt lat="46.647" lon="-1.82536">
        <ele>26</ele>
        <time>2018-04-21T03:30:17Z</time>
      </trkpt>
      <trkpt lat="46.64698" lon="-1.82523">
        <ele>26</ele>
        <time>2018-04-21T03:31:17Z</time>
      </trkpt>
      <trkpt lat="46.64695" lon="-1.8251">
        <ele>26</ele>
        <time>2018-04-21T03:32:17Z</time>
      </trkpt>
      <trkpt lat="46.64693" lon="-1.82497">
        <ele>26</ele>
        <time>2018-04-21T03:33:17Z</time>
      </trkpt>
      <trkpt lat="46.64691" lon="-1.82485">
        <ele>26</ele>
        <time>2018-04-21T03:34:17Z</time>
      </trkpt>
      <trkpt lat="46.64689" lon="-1.82472">
        <ele>26</ele>
        <time>2018-04-21T03:35:17Z</time>
      </trkpt>
      <trkpt lat="46.64687" lon="-1.82459">
        <ele>26</ele>
        <time>2018-04-21T03:36:17Z</time>
      </trkpt>
      <trkpt lat="46.64685" lon="-1.82446">
        <ele>26</ele>
        <time>2018-04-21T03:37:17Z</time>
      </trkpt>
      <trkpt lat="46.64684" lon="-1.8244">
        <ele>26</ele>
        <time>2018-04-21T03:38:17Z</time>
      </trkpt>
      <trkpt lat="46.64682" lon="-1.82433">
        <ele>26</ele>
        <time>2018-04-21T03:39:17Z</time>
      </trkpt>
      <trkpt lat="46.64681" lon="-1.82426">
        <ele>26</ele>
        <time>2018-04-21T03:40:17Z</time>
      </trkpt>
      <trkpt lat="46.6468" lon="-1.82413">
        <ele>26</ele>
        <time>2018-04-21T03:41:17Z</time>
      </trkpt>
      <trkpt lat="46.64679" lon="-1.82402">
        <ele>27</ele>
        <time>2018-04-21T03:42:17Z</time>
      </trkpt>
      <trkpt lat="46.64679" lon="-1.82391">
        <ele>27</ele>
        <time>2018-04-21T03:43:17Z</time>
      </trkpt>
      <trkpt lat="46.6468" lon="-1.82381">
        <ele>27</ele>
        <time>2018-04-21T03:44:17Z</time>
      </trkpt>
      <trkpt lat="46.6468" lon="-1.82371">
        <ele>28</ele>
        <time>2018-04-21T03:45:17Z</time>
      </trkpt>
      <trkpt lat="46.64682" lon="-1.82362">
        <ele>28</ele>
        <time>2018-04-21T03:46:17Z</time>
      </trkpt>
      <trkpt lat="46.64684" lon="-1.82352">
        <ele>28</ele>
        <time>2018-04-21T03:47:17Z</time>
      </trkpt>
      <trkpt lat="46.64686" lon="-1.82344">
        <ele>28</ele>
        <time>2018-04-21T03:48:17Z</time>
      </trkpt>
      <trkpt lat="46.64689" lon="-1.82336">
        <ele>28</ele>
        <time>2018-04-21T03:49:17Z</time>
      </trkpt>
      <trkpt lat="46.64693" lon="-1.82329">
        <ele>28</ele>
        <time>2018-04-21T03:50:17Z</time>
      </trkpt>
      <trkpt lat="46.64697" lon="-1.82323">
        <ele>29</ele>
        <time>2018-04-21T03:51:17Z</time>
      </trkpt>
      <trkpt lat="46.64701" lon="-1.82317">
        <ele>29</ele>
        <time>2018-04-21T03:52:17Z</time>
      </trkpt>
      <trkpt lat="46.64705" lon="-1.82312">
        <ele>29</ele>
        <time>2018-04-21T03:53:17Z</time>
      </trkpt>
      <trkpt lat="46.64709" lon="-1.82307">
        <ele>29</ele>
        <time>2018-04-21T03:54:17Z</time>
      </trkpt>
      <trkpt lat="46.64714" lon="-1.82301">
        <ele>29</ele>
        <time>2018-04-21T03:55:17Z</time>
      </trkpt>
      <trkpt lat="46.64716" lon="-1.82297">
        <ele>29</ele>
        <time>2018-04-21T03:56:17Z</time>
      </trkpt>
      <trkpt lat="46.64719" lon="-1.82293">
        <ele>29</ele>
        <time>2018-04-21T03:57:17Z</time>
      </trkpt>
      <trkpt lat="46.64721" lon="-1.82287">
        <ele>29</ele>
        <time>2018-04-21T03:58:17Z</time>
      </trkpt>
      <trkpt lat="46.64723" lon="-1.82282">
        <ele>29</ele>
        <time>2018-04-21T03:59:17Z</time>
      </trkpt>
      <trkpt lat="46.64724" lon="-1.82276">
        <ele>29</ele>
        <time>2018-04-21T04:00:17Z</time>
      </trkpt>
      <trkpt lat="46.64726" lon="-1.82269">
        <ele>30</ele>
        <time>2018-04-21T04:01:17Z</time>
      </trkpt>
      <trkpt lat="46.64726" lon="-1.82261">
        <ele>30</ele>
        <time>2018-04-21T04:02:17Z</time>
      </trkpt>
      <trkpt lat="46.64727" lon="-1.82253">
        <ele>30</ele>
        <time>2018-04-21T04:03:17Z</time>
      </trkpt>
      <trkpt lat="46.64728" lon="-1.82244">
        <ele>30</ele>
        <time>2018-04-21T04:04:17Z</time>
      </trkpt>
      <trkpt lat="46.64728" lon="-1.82235">
        <ele>30</ele>
        <time>2018-04-21T04:05:17Z</time>
      </trkpt>
      <trkpt lat="46.6473" lon="-1.82221">
        <ele>31</ele>
        <time>2018-04-21T04:06:17Z</time>
      </trkpt>
      <trkpt lat="46.64732" lon="-1.82195">
        <ele>31</ele>
        <time>2018-04-21T04:07:17Z</time>
      </trkpt>
      <trkpt lat="46.64733" lon="-1.82184">
        <ele>31</ele>
        <time>2018-04-21T04:08:17Z</time>
      </trkpt>
      <trkpt lat="46.64736" lon="-1.82154">
        <ele>31</ele>
        <time>2018-04-21T04:09:17Z</time>
      </trkpt>
      <trkpt lat="46.64738" lon="-1.82138">
        <ele>32</ele>
        <time>2018-04-21T04:10:17Z</time>
      </trkpt>
      <trkpt lat="46.64739" lon="-1.82126">
        <ele>32</ele>
        <time>2018-04-21T04:11:17Z</time>
      </trkpt>
      <trkpt lat="46.64742" lon="-1.82103">
        <ele>32</ele>
        <time>2018-04-21T04:12:17Z</time>
      </trkpt>
      <trkpt lat="46.64744" lon="-1.82092">
        <ele>32</ele>
        <time>2018-04-21T04:13:17Z</time>
      </trkpt>
      <trkpt lat="46.64745" lon="-1.82081">
        <ele>32</ele>
        <time>2018-04-21T04:14:17Z</time>
      </trkpt>
      <trkpt lat="46.64747" lon="-1.82069">
        <ele>32</ele>
        <time>2018-04-21T04:15:17Z</time>
      </trkpt>
      <trkpt lat="46.64749" lon="-1.82058">
        <ele>32</ele>
        <time>2018-04-21T04:16:17Z</time>
      </trkpt>
      <trkpt lat="46.64751" lon="-1.82048">
        <ele>32</ele>
        <time>2018-04-21T04:17:17Z</time>
      </trkpt>
      <trkpt lat="46.64753" lon="-1.82037">
        <ele>32</ele>
        <time>2018-04-21T04:18:17Z</time>
      </trkpt>
      <trkpt lat="46.64755" lon="-1.82027">
        <ele>32</ele>
        <time>2018-04-21T04:19:17Z</time>
      </trkpt>
      <trkpt lat="46.64757" lon="-1.82018">
        <ele>32</ele>
        <time>2018-04-21T04:20:17Z</time>
      </trkpt>
      <trkpt lat="46.64759" lon="-1.82008">
        <ele>32</ele>
        <time>2018-04-21T04:21:17Z</time>
      </trkpt>
      <trkpt lat="46.64761" lon="-1.81999">
        <ele>32</ele>
        <time>2018-04-21T04:22:17Z</time>
      </trkpt>
      <trkpt lat="46.64762" lon="-1.81991">
        <ele>32</ele>
        <time>2018-04-21T04:23:17Z</time>
      </trkpt>
      <trkpt lat="46.64763" lon="-1.81982">
        <ele>32</ele>
        <time>2018-04-21T04:24:17Z</time>
      </trkpt>
      <trkpt lat="46.64764" lon="-1.81975">
        <ele>32</ele>
        <time>2018-04-21T04:25:17Z</time>
      </trkpt>
      <trkpt lat="46.64764" lon="-1.81967">
        <ele>32</ele>
        <time>2018-04-21T04:26:17Z</time>
      </trkpt>
      <trkpt lat="46.64764" lon="-1.81961">
        <ele>32</ele>
        <time>2018-04-21T04:27:17Z</time>
      </trkpt>
      <trkpt lat="46.64762" lon="-1.81944">
        <ele>32</ele>
        <time>2018-04-21T04:28:17Z</time>
      </trkpt>
      <trkpt lat="46.64762" lon="-1.81944">
        <ele>32</ele>
        <time>2018-04-21T04:29:17Z</time>
      </trkpt>
      <trkpt lat="46.64762" lon="-1.81943">
        <ele>32</ele>
        <time>2018-04-21T04:30:17Z</time>
      </trkpt>
      <trkpt lat="46.64761" lon="-1.81943">
        <ele>32</ele>
        <time>2018-04-21T04:31:17Z</time>
      </trkpt>
      <trkpt lat="46.6476" lon="-1.81943">
        <ele>32</ele>
        <time>2018-04-21T04:32:17Z</time>
      </trkpt>
      <trkpt lat="46.6476" lon="-1.81942">
        <ele>32</ele>
        <time>2018-04-21T04:33:17Z</time>
      </trkpt>
      <trkpt lat="46.64759" lon="-1.81942">
        <ele>33</ele>
        <time>2018-04-21T04:34:17Z</time>
      </trkpt>
      <trkpt lat="46.64759" lon="-1.81941">
        <ele>33</ele>
        <time>2018-04-21T04:35:17Z</time>
      </trkpt>
      <trkpt lat="46.64759" lon="-1.8194">
        <ele>33</ele>
        <time>2018-04-21T04:36:17Z</time>
      </trkpt>
      <trkpt lat="46.64758" lon="-1.8194">
        <ele>33</ele>
        <time>2018-04-21T04:37:17Z</time>
      </trkpt>
      <trkpt lat="46.64758" lon="-1.81939">
        <ele>33</ele>
        <time>2018-04-21T04:38:17Z</time>
      </trkpt>
      <trkpt lat="46.64758" lon="-1.81938">
        <ele>33</ele>
        <time>2018-04-21T04:39:17Z</time>
      </trkpt>
      <trkpt lat="46.64757" lon="-1.81937">
        <ele>33</ele>
        <time>2018-04-21T04:40:17Z</time>
      </trkpt>
      <trkpt lat="46.64757" lon="-1.81936">
        <ele>33</ele>
        <time>2018-04-21T04:41:17Z</time>
      </trkpt>
      <trkpt lat="46.64757" lon="-1.81935">
        <ele>33</ele>
        <time>2018-04-21T04:42:17Z</time>
      </trkpt>
      <trkpt lat="46.64757" lon="-1.81934">
        <ele>33</ele>
        <time>2018-04-21T04:43:17Z</time>
      </trkpt>
      <trkpt lat="46.64758" lon="-1.81934">
        <ele>33</ele>
        <time>2018-04-21T04:44:17Z</time>
      </trkpt>
      <trkpt lat="46.64758" lon="-1.81933">
        <ele>33</ele>
        <time>2018-04-21T04:45:17Z</time>
      </trkpt>
      <trkpt lat="46.64758" lon="-1.81932">
        <ele>33</ele>
        <time>2018-04-21T04:46:17Z</time>
      </trkpt>
      <trkpt lat="46.64758" lon="-1.81931">
        <ele>33</ele>
        <time>2018-04-21T04:47:17Z</time>
      </trkpt>
      <trkpt lat="46.64759" lon="-1.81931">
        <ele>33</ele>
        <time>2018-04-21T04:48:17Z</time>
      </trkpt>
      <trkpt lat="46.64759" lon="-1.8193">
        <ele>33</ele>
        <time>2018-04-21T04:49:17Z</time>
      </trkpt>
      <trkpt lat="46.64759" lon="-1.81929">
        <ele>33</ele>
        <time>2018-04-21T04:50:17Z</time>
      </trkpt>
      <trkpt lat="46.6476" lon="-1.81929">
        <ele>32</ele>
        <time>2018-04-21T04:51:17Z</time>
      </trkpt>
      <trkpt lat="46.6476" lon="-1.81928">
        <ele>32</ele>
        <time>2018-04-21T04:52:17Z</time>
      </trkpt>
      <trkpt lat="46.64761" lon="-1.81928">
        <ele>32</ele>
        <time>2018-04-21T04:53:17Z</time>
      </trkpt>
      <trkpt lat="46.64762" lon="-1.81928">
        <ele>32</ele>
        <time>2018-04-21T04:54:17Z</time>
      </trkpt>
      <trkpt lat="46.64762" lon="-1.81927">
        <ele>32</ele>
        <time>2018-04-21T04:55:17Z</time>
      </trkpt>
      <trkpt lat="46.64763" lon="-1.81927">
        <ele>32</ele>
        <time>2018-04-21T04:56:17Z</time>
      </trkpt>
      <trkpt lat="46.64764" lon="-1.81927">
        <ele>32</ele>
        <time>2018-04-21T04:57:17Z</time>
      </trkpt>
      <trkpt lat="46.64764" lon="-1.81928">
        <ele>32</ele>
        <time>2018-04-21T04:58:17Z</time>
      </trkpt>
      <trkpt lat="46.64777" lon="-1.81899">
        <ele>32</ele>
        <time>2018-04-21T04:59:17Z</time>
      </trkpt>
      <trkpt lat="46.64778" lon="-1.81898">
        <ele>32</ele>
        <time>2018-04-21T05:00:17Z</time>
      </trkpt>
      <trkpt lat="46.64778" lon="-1.81897">
        <ele>32</ele>
        <time>2018-04-21T05:01:17Z</time>
      </trkpt>
      <trkpt lat="46.64778" lon="-1.81896">
        <ele>32</ele>
        <time>2018-04-21T05:02:17Z</time>
      </trkpt>
      <trkpt lat="46.64779" lon="-1.81895">
        <ele>32</ele>
        <time>2018-04-21T05:03:17Z</time>
      </trkpt>
      <trkpt lat="46.64779" lon="-1.81894">
        <ele>32</ele>
        <time>2018-04-21T05:04:17Z</time>
      </trkpt>
      <trkpt lat="46.64779" lon="-1.81893">
        <ele>32</ele>
        <time>2018-04-21T05:05:17Z</time>
      </trkpt>
      <trkpt lat="46.64779" lon="-1.81892">
        <ele>32</ele>
        <time>2018-04-21T05:06:17Z</time>
      </trkpt>
      <trkpt lat="46.64779" lon="-1.81891">
        <ele>32</ele>
        <time>2018-04-21T05:07:17Z</time>
      </trkpt>
      <trkpt lat="46.64782" lon="-1.81775">
        <ele>32</ele>
        <time>2018-04-21T05:08:17Z</time>
      </trkpt>
      <trkpt lat="46.64782" lon="-1.81769">
        <ele>32</ele>
        <time>2018-04-21T05:09:17Z</time>
      </trkpt>
      <trkpt lat="46.64782" lon="-1.81745">
        <ele>32</ele>
        <time>2018-04-21T05:10:17Z</time>
      </trkpt>
      <trkpt lat="46.64783" lon="-1.81739">
        <ele>32</ele>
        <time>2018-04-21T05:11:17Z</time>
      </trkpt>
      <trkpt lat="46.64783" lon="-1.81725">
        <ele>32</ele>
        <time>2018-04-21T05:12:17Z</time>
      </trkpt>
      <trkpt lat="46.64785" lon="-1.81711">
        <ele>32</ele>
        <time>2018-04-21T05:13:17Z</time>
      </trkpt>
      <trkpt lat="46.6479" lon="-1.81687">
        <ele>32</ele>
        <time>2018-04-21T05:14:17Z</time>
      </trkpt>
      <trkpt lat="46.64792" lon="-1.81673">
        <ele>32</ele>
        <time>2018-04-21T05:15:17Z</time>
      </trkpt>
      <trkpt lat="46.64794" lon="-1.81666">
        <ele>32</ele>
        <time>2018-04-21T05:16:17Z</time>
      </trkpt>
      <trkpt lat="46.64796" lon="-1.81661">
        <ele>32</ele>
        <time>2018-04-21T05:17:17Z</time>
      </trkpt>
      <trkpt lat="46.64803" lon="-1.8164">
        <ele>32</ele>
        <time>2018-04-21T05:18:17Z</time>
      </trkpt>
      <trkpt lat="46.64804" lon="-1.81636">
        <ele>32</ele>
        <time>2018-04-21T05:19:17Z</time>
      </trkpt>
      <trkpt lat="46.64811" lon="-1.81613">
        <ele>32</ele>
        <time>2018-04-21T05:20:17Z</time>
      </trkpt>
      <trkpt lat="46.64818" lon="-1.81589">
        <ele>33</ele>
        <time>2018-04-21T05:21:17Z</time>
      </trkpt>
      <trkpt lat="46.6482" lon="-1.81583">
        <ele>33</ele>
        <time>2018-04-21T05:22:17Z</time>
      </trkpt>
      <trkpt lat="46.64824" lon="-1.81567">
        <ele>33</ele>
        <time>2018-04-21T05:23:17Z</time>
      </trkpt>
      <trkpt lat="46.64824" lon="-1.81558">
        <ele>33</ele>
        <time>2018-04-21T05:24:17Z</time>
      </trkpt>
      <trkpt lat="46.64824" lon="-1.81552">
        <ele>33</ele>
        <time>2018-04-21T05:25:17Z</time>
      </trkpt>
      <trkpt lat="46.64821" lon="-1.8154">
        <ele>33</ele>
        <time>2018-04-21T05:26:17Z</time>
      </trkpt>
      <trkpt lat="46.64818" lon="-1.81529">
        <ele>33</ele>
        <time>2018-04-21T05:27:17Z</time>
      </trkpt>
      <trkpt lat="46.64816" lon="-1.81518">
        <ele>33</ele>
        <time>2018-04-21T05:28:17Z</time>
      </trkpt>
      <trkpt lat="46.64807" lon="-1.8149">
        <ele>34</ele>
        <time>2018-04-21T05:29:17Z</time>
      </trkpt>
      <trkpt lat="46.64801" lon="-1.8147">
        <ele>34</ele>
        <time>2018-04-21T05:30:17Z</time>
      </trkpt>
      <trkpt lat="46.64797" lon="-1.81453">
        <ele>34</ele>
        <time>2018-04-21T05:31:17Z</time>
      </trkpt>
      <trkpt lat="46.64794" lon="-1.81439">
        <ele>34</ele>
        <time>2018-04-21T05:32:17Z</time>
      </trkpt>
      <trkpt lat="46.64793" lon="-1.81429">
        <ele>34</ele>
        <time>2018-04-21T05:33:17Z</time>
      </trkpt>
      <trkpt lat="46.64793" lon="-1.81422">
        <ele>34</ele>
        <time>2018-04-21T05:34:17Z</time>
      </trkpt>
      <trkpt lat="46.64793" lon="-1.81409">
        <ele>34</ele>
        <time>2018-04-21T05:35:17Z</time>
      </trkpt>
      <trkpt lat="46.64793" lon="-1.81392">
        <ele>34</ele>
        <time>2018-04-21T05:36:17Z</time>
      </trkpt>
      <trkpt lat="46.64795" lon="-1.81372">
        <ele>34</ele>
        <time>2018-04-21T05:37:17Z</time>
      </trkpt>
      <trkpt lat="46.64795" lon="-1.81357">
        <ele>34</ele>
        <time>2018-04-21T05:38:17Z</time>
      </trkpt>
      <trkpt lat="46.64796" lon="-1.81342">
        <ele>34</ele>
        <time>2018-04-21T05:39:17Z</time>
      </trkpt>
      <trkpt lat="46.64796" lon="-1.81325">
        <ele>34</ele>
        <time>2018-04-21T05:40:17Z</time>
      </trkpt>
      <trkpt lat="46.64797" lon="-1.81307">
        <ele>34</ele>
        <time>2018-04-21T05:41:17Z</time>
      </trkpt>
      <trkpt lat="46.64797" lon="-1.81295">
        <ele>35</ele>
        <time>2018-04-21T05:42:17Z</time>
      </trkpt>
      <trkpt lat="46.648" lon="-1.81271">
        <ele>35</ele>
        <time>2018-04-21T05:43:17Z</time>
      </trkpt>
      <trkpt lat="46.64805" lon="-1.81216">
        <ele>34</ele>
        <time>2018-04-21T05:44:17Z</time>
      </trkpt>
      <trkpt lat="46.64805" lon="-1.812">
        <ele>34</ele>
        <time>2018-04-21T05:45:17Z</time>
      </trkpt>
      <trkpt lat="46.64804" lon="-1.81189">
        <ele>34</ele>
        <time>2018-04-21T05:46:17Z</time>
      </trkpt>
      <trkpt lat="46.64804" lon="-1.81182">
        <ele>34</ele>
        <time>2018-04-21T05:47:17Z</time>
      </trkpt>
      <trkpt lat="46.64804" lon="-1.81164">
        <ele>33</ele>
        <time>2018-04-21T05:48:17Z</time>
      </trkpt>
      <trkpt lat="46.64804" lon="-1.81164">
        <ele>33</ele>
        <time>2018-04-21T05:49:17Z</time>
      </trkpt>
      <trkpt lat="46.64803" lon="-1.81163">
        <ele>34</ele>
        <time>2018-04-21T05:50:17Z</time>
      </trkpt>
      <trkpt lat="46.64802" lon="-1.81162">
        <ele>34</ele>
        <time>2018-04-21T05:51:17Z</time>
      </trkpt>
      <trkpt lat="46.64802" lon="-1.8116">
        <ele>34</ele>
        <time>2018-04-21T05:52:17Z</time>
      </trkpt>
      <trkpt lat="46.64801" lon="-1.81159">
        <ele>34</ele>
        <time>2018-04-21T05:53:17Z</time>
      </trkpt>
      <trkpt lat="46.648" lon="-1.81158">
        <ele>34</ele>
        <time>2018-04-21T05:54:17Z</time>
      </trkpt>
      <trkpt lat="46.64799" lon="-1.81156">
        <ele>34</ele>
        <time>2018-04-21T05:55:17Z</time>
      </trkpt>
      <trkpt lat="46.64799" lon="-1.81155">
        <ele>34</ele>
        <time>2018-04-21T05:56:17Z</time>
      </trkpt>
      <trkpt lat="46.64798" lon="-1.81153">
        <ele>34</ele>
        <time>2018-04-21T05:57:17Z</time>
      </trkpt>
      <trkpt lat="46.64798" lon="-1.81151">
        <ele>34</ele>
        <time>2018-04-21T05:58:17Z</time>
      </trkpt>
      <trkpt lat="46.64798" lon="-1.81149">
        <ele>34</ele>
        <time>2018-04-21T05:59:17Z</time>
      </trkpt>
      <trkpt lat="46.64799" lon="-1.81147">
        <ele>34</ele>
        <time>2018-04-21T06:00:17Z</time>
      </trkpt>
      <trkpt lat="46.64799" lon="-1.81145">
        <ele>34</ele>
        <time>2018-04-21T06:01:17Z</time>
      </trkpt>
      <trkpt lat="46.64799" lon="-1.81144">
        <ele>34</ele>
        <time>2018-04-21T06:02:17Z</time>
      </trkpt>
      <trkpt lat="46.648" lon="-1.81142">
        <ele>34</ele>
        <time>2018-04-21T06:03:17Z</time>
      </trkpt>
      <trkpt lat="46.64801" lon="-1.81141">
        <ele>34</ele>
        <time>2018-04-21T06:04:17Z</time>
      </trkpt>
      <trkpt lat="46.64801" lon="-1.81139">
        <ele>34</ele>
        <time>2018-04-21T06:05:17Z</time>
      </trkpt>
      <trkpt lat="46.64802" lon="-1.81138">
        <ele>34</ele>
        <time>2018-04-21T06:06:17Z</time>
      </trkpt>
      <trkpt lat="46.64803" lon="-1.81136">
        <ele>34</ele>
        <time>2018-04-21T06:07:17Z</time>
      </trkpt>
      <trkpt lat="46.64804" lon="-1.81136">
        <ele>34</ele>
        <time>2018-04-21T06:08:17Z</time>
      </trkpt>
      <trkpt lat="46.64804" lon="-1.81135">
        <ele>34</ele>
        <time>2018-04-21T06:09:17Z</time>
      </trkpt>
      <trkpt lat="46.64805" lon="-1.81135">
        <ele>34</ele>
        <time>2018-04-21T06:10:17Z</time>
      </trkpt>
      <trkpt lat="46.64806" lon="-1.81134">
        <ele>34</ele>
        <time>2018-04-21T06:11:17Z</time>
      </trkpt>
      <trkpt lat="46.64807" lon="-1.81133">
        <ele>34</ele>
        <time>2018-04-21T06:12:17Z</time>
      </trkpt>
      <trkpt lat="46.64808" lon="-1.81133">
        <ele>34</ele>
        <time>2018-04-21T06:13:17Z</time>
      </trkpt>
      <trkpt lat="46.64809" lon="-1.81132">
        <ele>34</ele>
        <time>2018-04-21T06:14:17Z</time>
      </trkpt>
      <trkpt lat="46.6481" lon="-1.81132">
        <ele>34</ele>
        <time>2018-04-21T06:15:17Z</time>
      </trkpt>
      <trkpt lat="46.64811" lon="-1.81132">
        <ele>34</ele>
        <time>2018-04-21T06:16:17Z</time>
      </trkpt>
      <trkpt lat="46.64812" lon="-1.81132">
        <ele>34</ele>
        <time>2018-04-21T06:17:17Z</time>
      </trkpt>
      <trkpt lat="46.64813" lon="-1.81133">
        <ele>34</ele>
        <time>2018-04-21T06:18:17Z</time>
      </trkpt>
      <trkpt lat="46.64815" lon="-1.81133">
        <ele>34</ele>
        <time>2018-04-21T06:19:17Z</time>
      </trkpt>
      <trkpt lat="46.64816" lon="-1.81134">
        <ele>33</ele>
        <time>2018-04-21T06:20:17Z</time>
      </trkpt>
      <trkpt lat="46.64817" lon="-1.81134">
        <ele>33</ele>
        <time>2018-04-21T06:21:17Z</time>
      </trkpt>
      <trkpt lat="46.64818" lon="-1.81135">
        <ele>33</ele>
        <time>2018-04-21T06:22:17Z</time>
      </trkpt>
      <trkpt lat="46.6482" lon="-1.81138">
        <ele>33</ele>
        <time>2018-04-21T06:23:17Z</time>
      </trkpt>
      <trkpt lat="46.64821" lon="-1.81138">
        <ele>33</ele>
        <time>2018-04-21T06:24:17Z</time>
      </trkpt>
      <trkpt lat="46.64821" lon="-1.81139">
        <ele>33</ele>
        <time>2018-04-21T06:25:17Z</time>
      </trkpt>
      <trkpt lat="46.64822" lon="-1.8114">
        <ele>33</ele>
        <time>2018-04-21T06:26:17Z</time>
      </trkpt>
      <trkpt lat="46.64822" lon="-1.81141">
        <ele>33</ele>
        <time>2018-04-21T06:27:17Z</time>
      </trkpt>
      <trkpt lat="46.64822" lon="-1.81142">
        <ele>33</ele>
        <time>2018-04-21T06:28:17Z</time>
      </trkpt>
      <trkpt lat="46.64823" lon="-1.81143">
        <ele>33</ele>
        <time>2018-04-21T06:29:17Z</time>
      </trkpt>
      <trkpt lat="46.64823" lon="-1.81144">
        <ele>33</ele>
        <time>2018-04-21T06:30:17Z</time>
      </trkpt>
      <trkpt lat="46.64823" lon="-1.81146">
        <ele>33</ele>
        <time>2018-04-21T06:31:17Z</time>
      </trkpt>
      <trkpt lat="46.64827" lon="-1.81149">
        <ele>33</ele>
        <time>2018-04-21T06:32:17Z</time>
      </trkpt>
      <trkpt lat="46.6483" lon="-1.81153">
        <ele>32</ele>
        <time>2018-04-21T06:33:17Z</time>
      </trkpt>
      <trkpt lat="46.64835" lon="-1.81162">
        <ele>32</ele>
        <time>2018-04-21T06:34:17Z</time>
      </trkpt>
      <trkpt lat="46.64838" lon="-1.81167">
        <ele>32</ele>
        <time>2018-04-21T06:35:17Z</time>
      </trkpt>
      <trkpt lat="46.64852" lon="-1.81183">
        <ele>33</ele>
        <time>2018-04-21T06:36:17Z</time>
      </trkpt>
      <trkpt lat="46.64867" lon="-1.81202">
        <ele>33</ele>
        <time>2018-04-21T06:37:17Z</time>
      </trkpt>
      <trkpt lat="46.64884" lon="-1.81224">
        <ele>33</ele>
        <time>2018-04-21T06:38:17Z</time>
      </trkpt>
      <trkpt lat="46.64898" lon="-1.81244">
        <ele>33</ele>
        <time>2018-04-21T06:39:17Z</time>
      </trkpt>
      <trkpt lat="46.6492" lon="-1.81274">
        <ele>31</ele>
        <time>2018-04-21T06:40:17Z</time>
      </trkpt>
      <trkpt lat="46.6494" lon="-1.81303">
        <ele>29</ele>
        <time>2018-04-21T06:41:17Z</time>
      </trkpt>
      <trkpt lat="46.64956" lon="-1.81325">
        <ele>28</ele>
        <time>2018-04-21T06:42:17Z</time>
      </trkpt>
      <trkpt lat="46.64972" lon="-1.81347">
        <ele>27</ele>
        <time>2018-04-21T06:43:17Z</time>
      </trkpt>
      <trkpt lat="46.64981" lon="-1.8136">
        <ele>26</ele>
        <time>2018-04-21T06:44:17Z</time>
      </trkpt>
      <trkpt lat="46.64993" lon="-1.81374">
        <ele>25</ele>
        <time>2018-04-21T06:45:17Z</time>
      </trkpt>
      <trkpt lat="46.65006" lon="-1.81385">
        <ele>24</ele>
        <time>2018-04-21T06:46:17Z</time>
      </trkpt>
      <trkpt lat="46.65014" lon="-1.8139">
        <ele>23</ele>
        <time>2018-04-21T06:47:17Z</time>
      </trkpt>
      <trkpt lat="46.65023" lon="-1.81396">
        <ele>22</ele>
        <time>2018-04-21T06:48:17Z</time>
      </trkpt>
      <trkpt lat="46.65032" lon="-1.81399">
        <ele>21</ele>
        <time>2018-04-21T06:49:17Z</time>
      </trkpt>
      <trkpt lat="46.65041" lon="-1.81402">
        <ele>20</ele>
        <time>2018-04-21T06:50:17Z</time>
      </trkpt>
      <trkpt lat="46.6505" lon="-1.81402">
        <ele>19</ele>
        <time>2018-04-21T06:51:17Z</time>
      </trkpt>
      <trkpt lat="46.65056" lon="-1.81403">
        <ele>18</ele>
        <time>2018-04-21T06:52:17Z</time>
      </trkpt>
      <trkpt lat="46.65062" lon="-1.81402">
        <ele>18</ele>
        <time>2018-04-21T06:53:17Z</time>
      </trkpt>
      <trkpt lat="46.65081" lon="-1.81398">
        <ele>16</ele>
        <time>2018-04-21T06:54:17Z</time>
      </trkpt>
      <trkpt lat="46.65097" lon="-1.81393">
        <ele>15</ele>
        <time>2018-04-21T06:55:17Z</time>
      </trkpt>
      <trkpt lat="46.65102" lon="-1.81391">
        <ele>15</ele>
        <time>2018-04-21T06:56:17Z</time>
      </trkpt>
      <trkpt lat="46.6511" lon="-1.81388">
        <ele>14</ele>
        <time>2018-04-21T06:57:17Z</time>
      </trkpt>
      <trkpt lat="46.65132" lon="-1.8138">
        <ele>13</ele>
        <time>2018-04-21T06:58:17Z</time>
      </trkpt>
      <trkpt lat="46.6514" lon="-1.81377">
        <ele>13</ele>
        <time>2018-04-21T06:59:17Z</time>
      </trkpt>
      <trkpt lat="46.6516" lon="-1.81369">
        <ele>11</ele>
        <time>2018-04-21T07:00:17Z</time>
      </trkpt>
      <trkpt lat="46.65167" lon="-1.81367">
        <ele>11</ele>
        <time>2018-04-21T07:01:17Z</time>
      </trkpt>
      <trkpt lat="46.65199" lon="-1.81355">
        <ele>10</ele>
        <time>2018-04-21T07:02:17Z</time>
      </trkpt>
      <trkpt lat="46.65216" lon="-1.81349">
        <ele>9</ele>
        <time>2018-04-21T07:03:17Z</time>
      </trkpt>
      <trkpt lat="46.65243" lon="-1.81339">
        <ele>8</ele>
        <time>2018-04-21T07:04:17Z</time>
      </trkpt>
      <trkpt lat="46.65259" lon="-1.81334">
        <ele>8</ele>
        <time>2018-04-21T07:05:17Z</time>
      </trkpt>
      <trkpt lat="46.6527" lon="-1.8133">
        <ele>7</ele>
        <time>2018-04-21T07:06:17Z</time>
      </trkpt>
      <trkpt lat="46.65291" lon="-1.81322">
        <ele>6</ele>
        <time>2018-04-21T07:07:17Z</time>
      </trkpt>
      <trkpt lat="46.65302" lon="-1.81319">
        <ele>6</ele>
        <time>2018-04-21T07:08:17Z</time>
      </trkpt>
      <trkpt lat="46.65311" lon="-1.81317">
        <ele>6</ele>
        <time>2018-04-21T07:09:17Z</time>
      </trkpt>
      <trkpt lat="46.65328" lon="-1.81312">
        <ele>5</ele>
        <time>2018-04-21T07:10:17Z</time>
      </trkpt>
      <trkpt lat="46.65328" lon="-1.81312">
        <ele>5</ele>
        <time>2018-04-21T07:11:17Z</time>
      </trkpt>
      <trkpt lat="46.65339" lon="-1.81296">
        <ele>5</ele>
        <time>2018-04-21T07:12:17Z</time>
      </trkpt>
      <trkpt lat="46.65345" lon="-1.8129">
        <ele>5</ele>
        <time>2018-04-21T07:13:17Z</time>
      </trkpt>
      <trkpt lat="46.65349" lon="-1.81287">
        <ele>5</ele>
        <time>2018-04-21T07:14:17Z</time>
      </trkpt>
      <trkpt lat="46.6536" lon="-1.81269">
        <ele>5</ele>
        <time>2018-04-21T07:15:17Z</time>
      </trkpt>
      <trkpt lat="46.65373" lon="-1.81251">
        <ele>5</ele>
        <time>2018-04-21T07:16:17Z</time>
      </trkpt>
      <trkpt lat="46.65378" lon="-1.81243">
        <ele>6</ele>
        <time>2018-04-21T07:17:17Z</time>
      </trkpt>
      <trkpt lat="46.65388" lon="-1.81228">
        <ele>6</ele>
        <time>2018-04-21T07:18:17Z</time>
      </trkpt>
      <trkpt lat="46.65397" lon="-1.81213">
        <ele>6</ele>
        <time>2018-04-21T07:19:17Z</time>
      </trkpt>
      <trkpt lat="46.65415" lon="-1.81193">
        <ele>7</ele>
        <time>2018-04-21T07:20:17Z</time>
      </trkpt>
      <trkpt lat="46.6543" lon="-1.81177">
        <ele>8</ele>
        <time>2018-04-21T07:21:17Z</time>
      </trkpt>
      <trkpt lat="46.65444" lon="-1.81163">
        <ele>9</ele>
        <time>2018-04-21T07:22:17Z</time>
      </trkpt>
      <trkpt lat="46.65452" lon="-1.81156">
        <ele>9</ele>
        <time>2018-04-21T07:23:17Z</time>
      </trkpt>
      <trkpt lat="46.65469" lon="-1.8114">
        <ele>11</ele>
        <time>2018-04-21T07:24:17Z</time>
      </trkpt>
      <trkpt lat="46.6547" lon="-1.81139">
        <ele>11</ele>
        <time>2018-04-21T07:25:17Z</time>
      </trkpt>
      <trkpt lat="46.65494" lon="-1.81119">
        <ele>13</ele>
        <time>2018-04-21T07:26:17Z</time>
      </trkpt>
      <trkpt lat="46.65511" lon="-1.81105">
        <ele>14</ele>
        <time>2018-04-21T07:27:17Z</time>
      </trkpt>
      <trkpt lat="46.65534" lon="-1.81085">
        <ele>16</ele>
        <time>2018-04-21T07:28:17Z</time>
      </trkpt>
      <trkpt lat="46.6556" lon="-1.81064">
        <ele>17</ele>
        <time>2018-04-21T07:29:17Z</time>
      </trkpt>
      <trkpt lat="46.65565" lon="-1.8106">
        <ele>18</ele>
        <time>2018-04-21T07:30:17Z</time>
      </trkpt>
      <trkpt lat="46.65578" lon="-1.81051">
        <ele>18</ele>
        <time>2018-04-21T07:31:17Z</time>
      </trkpt>
      <trkpt lat="46.65592" lon="-1.81042">
        <ele>19</ele>
        <time>2018-04-21T07:32:17Z</time>
      </trkpt>
      <trkpt lat="46.65619" lon="-1.8103">
        <ele>20</ele>
        <time>2018-04-21T07:33:17Z</time>
      </trkpt>
      <trkpt lat="46.65628" lon="-1.81025">
        <ele>21</ele>
        <time>2018-04-21T07:34:17Z</time>
      </trkpt>
      <trkpt lat="46.65648" lon="-1.81017">
        <ele>21</ele>
        <time>2018-04-21T07:35:17Z</time>
      </trkpt>
      <trkpt lat="46.65677" lon="-1.81006">
        <ele>22</ele>
        <time>2018-04-21T07:36:17Z</time>
      </trkpt>
      <trkpt lat="46.6569" lon="-1.81001">
        <ele>22</ele>
        <time>2018-04-21T07:37:17Z</time>
      </trkpt>
      <trkpt lat="46.65718" lon="-1.80992">
        <ele>23</ele>
        <time>2018-04-21T07:38:17Z</time>
      </trkpt>
      <trkpt lat="46.65763" lon="-1.80975">
        <ele>22</ele>
        <time>2018-04-21T07:39:17Z</time>
      </trkpt>
      <trkpt lat="46.65802" lon="-1.80961">
        <ele>21</ele>
        <time>2018-04-21T07:40:17Z</time>
      </trkpt>
      <trkpt lat="46.65849" lon="-1.80944">
        <ele>19</ele>
        <time>2018-04-21T07:41:17Z</time>
      </trkpt>
      <trkpt lat="46.65887" lon="-1.80931">
        <ele>18</ele>
        <time>2018-04-21T07:42:17Z</time>
      </trkpt>
      <trkpt lat="46.65914" lon="-1.80922">
        <ele>16</ele>
        <time>2018-04-21T07:43:17Z</time>
      </trkpt>
      <trkpt lat="46.65935" lon="-1.80913">
        <ele>17</ele>
        <time>2018-04-21T07:44:17Z</time>
      </trkpt>
      <trkpt lat="46.65942" lon="-1.80911">
        <ele>17</ele>
        <time>2018-04-21T07:45:17Z</time>
      </trkpt>
      <trkpt lat="46.65967" lon="-1.80899">
        <ele>18</ele>
        <time>2018-04-21T07:46:17Z</time>
      </trkpt>
      <trkpt lat="46.65981" lon="-1.80893">
        <ele>19</ele>
        <time>2018-04-21T07:47:17Z</time>
      </trkpt>
      <trkpt lat="46.65988" lon="-1.80888">
        <ele>19</ele>
        <time>2018-04-21T07:48:17Z</time>
      </trkpt>
      <trkpt lat="46.66007" lon="-1.80876">
        <ele>20</ele>
        <time>2018-04-21T07:49:17Z</time>
      </trkpt>
      <trkpt lat="46.66033" lon="-1.80858">
        <ele>21</ele>
        <time>2018-04-21T07:50:17Z</time>
      </trkpt>
      <trkpt lat="46.66057" lon="-1.80838">
        <ele>23</ele>
        <time>2018-04-21T07:51:17Z</time>
      </trkpt>
      <trkpt lat="46.66079" lon="-1.80825">
        <ele>25</ele>
        <time>2018-04-21T07:52:17Z</time>
      </trkpt>
      <trkpt lat="46.66105" lon="-1.80803">
        <ele>26</ele>
        <time>2018-04-21T07:53:17Z</time>
      </trkpt>
      <trkpt lat="46.66138" lon="-1.80775">
        <ele>28</ele>
        <time>2018-04-21T07:54:17Z</time>
      </trkpt>
      <trkpt lat="46.66171" lon="-1.80741">
        <ele>30</ele>
        <time>2018-04-21T07:55:17Z</time>
      </trkpt>
      <trkpt lat="46.6621" lon="-1.80697">
        <ele>32</ele>
        <time>2018-04-21T07:56:17Z</time>
      </trkpt>
      <trkpt lat="46.66255" lon="-1.80646">
        <ele>33</ele>
        <time>2018-04-21T07:57:17Z</time>
      </trkpt>
      <trkpt lat="46.66296" lon="-1.80602">
        <ele>34</ele>
        <time>2018-04-21T07:58:17Z</time>
      </trkpt>
      <trkpt lat="46.66332" lon="-1.80562">
        <ele>35</ele>
        <time>2018-04-21T07:59:17Z</time>
      </trkpt>
      <trkpt lat="46.66375" lon="-1.80515">
        <ele>36</ele>
        <time>2018-04-21T08:00:17Z</time>
      </trkpt>
      <trkpt lat="46.66413" lon="-1.80473">
        <ele>36</ele>
        <time>2018-04-21T08:01:17Z</time>
      </trkpt>
      <trkpt lat="46.66452" lon="-1.8043">
        <ele>36</ele>
        <time>2018-04-21T08:02:17Z</time>
      </trkpt>
      <trkpt lat="46.66489" lon="-1.80389">
        <ele>37</ele>
        <time>2018-04-21T08:03:17Z</time>
      </trkpt>
      <trkpt lat="46.66505" lon="-1.8037">
        <ele>38</ele>
        <time>2018-04-21T08:04:17Z</time>
      </trkpt>
      <trkpt lat="46.66512" lon="-1.80361">
        <ele>38</ele>
        <time>2018-04-21T08:05:17Z</time>
      </trkpt>
      <trkpt lat="46.66519" lon="-1.8035">
        <ele>38</ele>
        <time>2018-04-21T08:06:17Z</time>
      </trkpt>
      <trkpt lat="46.6653" lon="-1.80332">
        <ele>38</ele>
        <time>2018-04-21T08:07:17Z</time>
      </trkpt>
      <trkpt lat="46.66541" lon="-1.80309">
        <ele>38</ele>
        <time>2018-04-21T08:08:17Z</time>
      </trkpt>
      <trkpt lat="46.66553" lon="-1.80279">
        <ele>38</ele>
        <time>2018-04-21T08:09:17Z</time>
      </trkpt>
      <trkpt lat="46.66567" lon="-1.80237">
        <ele>39</ele>
        <time>2018-04-21T08:10:17Z</time>
      </trkpt>
      <trkpt lat="46.66584" lon="-1.80188">
        <ele>39</ele>
        <time>2018-04-21T08:11:17Z</time>
      </trkpt>
      <trkpt lat="46.66599" lon="-1.80141">
        <ele>39</ele>
        <time>2018-04-21T08:12:17Z</time>
      </trkpt>
      <trkpt lat="46.66618" lon="-1.80087">
        <ele>39</ele>
        <time>2018-04-21T08:13:17Z</time>
      </trkpt>
      <trkpt lat="46.66632" lon="-1.80041">
        <ele>39</ele>
        <time>2018-04-21T08:14:17Z</time>
      </trkpt>
      <trkpt lat="46.66644" lon="-1.80009">
        <ele>40</ele>
        <time>2018-04-21T08:15:17Z</time>
      </trkpt>
      <trkpt lat="46.66652" lon="-1.79982">
        <ele>40</ele>
        <time>2018-04-21T08:16:17Z</time>
      </trkpt>
      <trkpt lat="46.66667" lon="-1.79927">
        <ele>40</ele>
        <time>2018-04-21T08:17:17Z</time>
      </trkpt>
      <trkpt lat="46.6668" lon="-1.79875">
        <ele>40</ele>
        <time>2018-04-21T08:18:17Z</time>
      </trkpt>
      <trkpt lat="46.66694" lon="-1.79817">
        <ele>41</ele>
        <time>2018-04-21T08:19:17Z</time>
      </trkpt>
      <trkpt lat="46.66715" lon="-1.79735">
        <ele>41</ele>
        <time>2018-04-21T08:20:17Z</time>
      </trkpt>
      <trkpt lat="46.66725" lon="-1.79698">
        <ele>40</ele>
        <time>2018-04-21T08:21:17Z</time>
      </trkpt>
      <trkpt lat="46.66733" lon="-1.79661">
        <ele>39</ele>
        <time>2018-04-21T08:22:17Z</time>
      </trkpt>
      <trkpt lat="46.66746" lon="-1.79613">
        <ele>40</ele>
        <time>2018-04-21T08:23:17Z</time>
      </trkpt>
      <trkpt lat="46.66757" lon="-1.79571">
        <ele>40</ele>
        <time>2018-04-21T08:24:17Z</time>
      </trkpt>
      <trkpt lat="46.66766" lon="-1.79541">
        <ele>40</ele>
        <time>2018-04-21T08:25:17Z</time>
      </trkpt>
      <trkpt lat="46.66769" lon="-1.79531">
        <ele>40</ele>
        <time>2018-04-21T08:26:17Z</time>
      </trkpt>
      <trkpt lat="46.66773" lon="-1.7952">
        <ele>40</ele>
        <time>2018-04-21T08:27:17Z</time>
      </trkpt>
      <trkpt lat="46.66782" lon="-1.795">
        <ele>41</ele>
        <time>2018-04-21T08:28:17Z</time>
      </trkpt>
      <trkpt lat="46.66796" lon="-1.7947">
        <ele>41</ele>
        <time>2018-04-21T08:29:17Z</time>
      </trkpt>
      <trkpt lat="46.66813" lon="-1.79439">
        <ele>41</ele>
        <time>2018-04-21T08:30:17Z</time>
      </trkpt>
      <trkpt lat="46.6683" lon="-1.79413">
        <ele>41</ele>
        <time>2018-04-21T08:31:17Z</time>
      </trkpt>
      <trkpt lat="46.66851" lon="-1.7938">
        <ele>40</ele>
        <time>2018-04-21T08:32:17Z</time>
      </trkpt>
      <trkpt lat="46.6686" lon="-1.79365">
        <ele>39</ele>
        <time>2018-04-21T08:33:17Z</time>
      </trkpt>
      <trkpt lat="46.6688" lon="-1.79336">
        <ele>38</ele>
        <time>2018-04-21T08:34:17Z</time>
      </trkpt>
      <trkpt lat="46.66906" lon="-1.79295">
        <ele>38</ele>
        <time>2018-04-21T08:35:17Z</time>
      </trkpt>
      <trkpt lat="46.66934" lon="-1.79253">
        <ele>38</ele>
        <time>2018-04-21T08:36:17Z</time>
      </trkpt>
      <trkpt lat="46.66963" lon="-1.79214">
        <ele>37</ele>
        <time>2018-04-21T08:37:17Z</time>
      </trkpt>
      <trkpt lat="46.67009" lon="-1.79151">
        <ele>35</ele>
        <time>2018-04-21T08:38:17Z</time>
      </trkpt>
      <trkpt lat="46.67045" lon="-1.79101">
        <ele>35</ele>
        <time>2018-04-21T08:39:17Z</time>
      </trkpt>
      <trkpt lat="46.67085" lon="-1.79047">
        <ele>34</ele>
        <time>2018-04-21T08:40:17Z</time>
      </trkpt>
      <trkpt lat="46.67124" lon="-1.78995">
        <ele>33</ele>
        <time>2018-04-21T08:41:17Z</time>
      </trkpt>
      <trkpt lat="46.67142" lon="-1.78968">
        <ele>33</ele>
        <time>2018-04-21T08:42:17Z</time>
      </trkpt>
      <trkpt lat="46.67152" lon="-1.78953">
        <ele>32</ele>
        <time>2018-04-21T08:43:17Z</time>
      </trkpt>
      <trkpt lat="46.67191" lon="-1.78901">
        <ele>33</ele>
        <time>2018-04-21T08:44:17Z</time>
      </trkpt>
      <trkpt lat="46.67234" lon="-1.7884">
        <ele>34</ele>
        <time>2018-04-21T08:45:17Z</time>
      </trkpt>
      <trkpt lat="46.67257" lon="-1.7881">
        <ele>34</ele>
        <time>2018-04-21T08:46:17Z</time>
      </trkpt>
      <trkpt lat="46.67272" lon="-1.7879">
        <ele>34</ele>
        <time>2018-04-21T08:47:17Z</time>
      </trkpt>
      <trkpt lat="46.67292" lon="-1.78763">
        <ele>33</ele>
        <time>2018-04-21T08:48:17Z</time>
      </trkpt>
      <trkpt lat="46.6731" lon="-1.78739">
        <ele>33</ele>
        <time>2018-04-21T08:49:17Z</time>
      </trkpt>
      <trkpt lat="46.67332" lon="-1.78709">
        <ele>34</ele>
        <time>2018-04-21T08:50:17Z</time>
      </trkpt>
      <trkpt lat="46.67355" lon="-1.78678">
        <ele>35</ele>
        <time>2018-04-21T08:51:17Z</time>
      </trkpt>
      <trkpt lat="46.6739" lon="-1.78629">
        <ele>35</ele>
        <time>2018-04-21T08:52:17Z</time>
      </trkpt>
      <trkpt lat="46.6742" lon="-1.7859">
        <ele>36</ele>
        <time>2018-04-21T08:53:17Z</time>
      </trkpt>
      <trkpt lat="46.67442" lon="-1.78559">
        <ele>36</ele>
        <time>2018-04-21T08:54:17Z</time>
      </trkpt>
      <trkpt lat="46.67445" lon="-1.78554">
        <ele>36</ele>
        <time>2018-04-21T08:55:17Z</time>
      </trkpt>
      <trkpt lat="46.67451" lon="-1.78547">
        <ele>36</ele>
        <time>2018-04-21T08:56:17Z</time>
      </trkpt>
      <trkpt lat="46.67466" lon="-1.78526">
        <ele>36</ele>
        <time>2018-04-21T08:57:17Z</time>
      </trkpt>
      <trkpt lat="46.67492" lon="-1.78492">
        <ele>36</ele>
        <time>2018-04-21T08:58:17Z</time>
      </trkpt>
      <trkpt lat="46.67526" lon="-1.78446">
        <ele>38</ele>
        <time>2018-04-21T08:59:17Z</time>
      </trkpt>
      <trkpt lat="46.67553" lon="-1.78408">
        <ele>39</ele>
        <time>2018-04-21T09:00:17Z</time>
      </trkpt>
      <trkpt lat="46.67586" lon="-1.78364">
        <ele>40</ele>
        <time>2018-04-21T09:01:17Z</time>
      </trkpt>
      <trkpt lat="46.6762" lon="-1.78317">
        <ele>41</ele>
        <time>2018-04-21T09:02:17Z</time>
      </trkpt>
      <trkpt lat="46.67664" lon="-1.78259">
        <ele>42</ele>
        <time>2018-04-21T09:03:17Z</time>
      </trkpt>
      <trkpt lat="46.67694" lon="-1.78218">
        <ele>42</ele>
        <time>2018-04-21T09:04:17Z</time>
      </trkpt>
      <trkpt lat="46.67715" lon="-1.7819">
        <ele>43</ele>
        <time>2018-04-21T09:05:17Z</time>
      </trkpt>
      <trkpt lat="46.67728" lon="-1.78173">
        <ele>43</ele>
        <time>2018-04-21T09:06:17Z</time>
      </trkpt>
      <trkpt lat="46.67753" lon="-1.78138">
        <ele>44</ele>
        <time>2018-04-21T09:07:17Z</time>
      </trkpt>
      <trkpt lat="46.67773" lon="-1.78109">
        <ele>44</ele>
        <time>2018-04-21T09:08:17Z</time>
      </trkpt>
      <trkpt lat="46.67796" lon="-1.7808">
        <ele>44</ele>
        <time>2018-04-21T09:09:17Z</time>
      </trkpt>
      <trkpt lat="46.67821" lon="-1.78044">
        <ele>45</ele>
        <time>2018-04-21T09:10:17Z</time>
      </trkpt>
      <trkpt lat="46.67845" lon="-1.78011">
        <ele>45</ele>
        <time>2018-04-21T09:11:17Z</time>
      </trkpt>
      <trkpt lat="46.67852" lon="-1.78001">
        <ele>45</ele>
        <time>2018-04-21T09:12:17Z</time>
      </trkpt>
      <trkpt lat="46.67874" lon="-1.77973">
        <ele>46</ele>
        <time>2018-04-21T09:13:17Z</time>
      </trkpt>
      <trkpt lat="46.67895" lon="-1.77943">
        <ele>46</ele>
        <time>2018-04-21T09:14:17Z</time>
      </trkpt>
      <trkpt lat="46.67917" lon="-1.77914">
        <ele>47</ele>
        <time>2018-04-21T09:15:17Z</time>
      </trkpt>
      <trkpt lat="46.67939" lon="-1.77884">
        <ele>47</ele>
        <time>2018-04-21T09:16:17Z</time>
      </trkpt>
      <trkpt lat="46.67964" lon="-1.77851">
        <ele>48</ele>
        <time>2018-04-21T09:17:17Z</time>
      </trkpt>
      <trkpt lat="46.67988" lon="-1.77817">
        <ele>49</ele>
        <time>2018-04-21T09:18:17Z</time>
      </trkpt>
      <trkpt lat="46.68012" lon="-1.77785">
        <ele>49</ele>
        <time>2018-04-21T09:19:17Z</time>
      </trkpt>
      <trkpt lat="46.68046" lon="-1.77739">
        <ele>49</ele>
        <time>2018-04-21T09:20:17Z</time>
      </trkpt>
      <trkpt lat="46.68063" lon="-1.77717">
        <ele>49</ele>
        <time>2018-04-21T09:21:17Z</time>
      </trkpt>
      <trkpt lat="46.68081" lon="-1.77694">
        <ele>49</ele>
        <time>2018-04-21T09:22:17Z</time>
      </trkpt>
      <trkpt lat="46.68098" lon="-1.77671">
        <ele>50</ele>
        <time>2018-04-21T09:23:17Z</time>
      </trkpt>
      <trkpt lat="46.68112" lon="-1.77655">
        <ele>50</ele>
        <time>2018-04-21T09:24:17Z</time>
      </trkpt>
      <trkpt lat="46.68125" lon="-1.77641">
        <ele>50</ele>
        <time>2018-04-21T09:25:17Z</time>
      </trkpt>
      <trkpt lat="46.6814" lon="-1.77627">
        <ele>50</ele>
        <time>2018-04-21T09:26:17Z</time>
      </trkpt>
      <trkpt lat="46.68155" lon="-1.77615">
        <ele>50</ele>
        <time>2018-04-21T09:27:17Z</time>
      </trkpt>
      <trkpt lat="46.68193" lon="-1.77584">
        <ele>50</ele>
        <time>2018-04-21T09:28:17Z</time>
      </trkpt>
      <trkpt lat="46.68229" lon="-1.77556">
        <ele>51</ele>
        <time>2018-04-21T09:29:17Z</time>
      </trkpt>
      <trkpt lat="46.68269" lon="-1.77524">
        <ele>51</ele>
        <time>2018-04-21T09:30:17Z</time>
      </trkpt>
      <trkpt lat="46.68299" lon="-1.775">
        <ele>51</ele>
        <time>2018-04-21T09:31:17Z</time>
      </trkpt>
      <trkpt lat="46.68317" lon="-1.77486">
        <ele>51</ele>
        <time>2018-04-21T09:32:17Z</time>
      </trkpt>
      <trkpt lat="46.68335" lon="-1.77471">
        <ele>52</ele>
        <time>2018-04-21T09:33:17Z</time>
      </trkpt>
      <trkpt lat="46.68357" lon="-1.77453">
        <ele>52</ele>
        <time>2018-04-21T09:34:17Z</time>
      </trkpt>
      <trkpt lat="46.68372" lon="-1.77439">
        <ele>52</ele>
        <time>2018-04-21T09:35:17Z</time>
      </trkpt>
      <trkpt lat="46.68389" lon="-1.77423">
        <ele>52</ele>
        <time>2018-04-21T09:36:17Z</time>
      </trkpt>
      <trkpt lat="46.68404" lon="-1.77409">
        <ele>52</ele>
        <time>2018-04-21T09:37:17Z</time>
      </trkpt>
      <trkpt lat="46.68424" lon="-1.77386">
        <ele>53</ele>
        <time>2018-04-21T09:38:17Z</time>
      </trkpt>
      <trkpt lat="46.68442" lon="-1.77365">
        <ele>54</ele>
        <time>2018-04-21T09:39:17Z</time>
      </trkpt>
      <trkpt lat="46.6846" lon="-1.77344">
        <ele>54</ele>
        <time>2018-04-21T09:40:17Z</time>
      </trkpt>
      <trkpt lat="46.68486" lon="-1.77314">
        <ele>55</ele>
        <time>2018-04-21T09:41:17Z</time>
      </trkpt>
      <trkpt lat="46.68511" lon="-1.77283">
        <ele>56</ele>
        <time>2018-04-21T09:42:17Z</time>
      </trkpt>
      <trkpt lat="46.68544" lon="-1.77245">
        <ele>57</ele>
        <time>2018-04-21T09:43:17Z</time>
      </trkpt>
      <trkpt lat="46.68572" lon="-1.7721">
        <ele>57</ele>
        <time>2018-04-21T09:44:17Z</time>
      </trkpt>
      <trkpt lat="46.68597" lon="-1.77181">
        <ele>57</ele>
        <time>2018-04-21T09:45:17Z</time>
      </trkpt>
      <trkpt lat="46.68715" lon="-1.77046">
        <ele>56</ele>
        <time>2018-04-21T09:46:17Z</time>
      </trkpt>
      <trkpt lat="46.688" lon="-1.76944">
        <ele>54</ele>
        <time>2018-04-21T09:47:17Z</time>
      </trkpt>
      <trkpt lat="46.688" lon="-1.76943">
        <ele>54</ele>
        <time>2018-04-21T09:48:17Z</time>
      </trkpt>
      <trkpt lat="46.68799" lon="-1.76943">
        <ele>54</ele>
        <time>2018-04-21T09:49:17Z</time>
      </trkpt>
      <trkpt lat="46.68799" lon="-1.76942">
        <ele>54</ele>
        <time>2018-04-21T09:50:17Z</time>
      </trkpt>
      <trkpt lat="46.68799" lon="-1.76941">
        <ele>54</ele>
        <time>2018-04-21T09:51:17Z</time>
      </trkpt>
      <trkpt lat="46.68799" lon="-1.7694">
        <ele>54</ele>
        <time>2018-04-21T09:52:17Z</time>
      </trkpt>
      <trkpt lat="46.68798" lon="-1.76939">
        <ele>54</ele>
        <time>2018-04-21T09:53:17Z</time>
      </trkpt>
      <trkpt lat="46.68798" lon="-1.76938">
        <ele>54</ele>
        <time>2018-04-21T09:54:17Z</time>
      </trkpt>
      <trkpt lat="46.68798" lon="-1.76937">
        <ele>54</ele>
        <time>2018-04-21T09:55:17Z</time>
      </trkpt>
      <trkpt lat="46.68798" lon="-1.76936">
        <ele>54</ele>
        <time>2018-04-21T09:56:17Z</time>
      </trkpt>
      <trkpt lat="46.68798" lon="-1.76935">
        <ele>54</ele>
        <time>2018-04-21T09:57:17Z</time>
      </trkpt>
      <trkpt lat="46.68799" lon="-1.76935">
        <ele>54</ele>
        <time>2018-04-21T09:58:17Z</time>
      </trkpt>
      <trkpt lat="46.68799" lon="-1.76934">
        <ele>54</ele>
        <time>2018-04-21T09:59:17Z</time>
      </trkpt>
      <trkpt lat="46.68799" lon="-1.76933">
        <ele>54</ele>
        <time>2018-04-21T10:00:17Z</time>
      </trkpt>
      <trkpt lat="46.68799" lon="-1.76932">
        <ele>54</ele>
        <time>2018-04-21T10:01:17Z</time>
      </trkpt>
      <trkpt lat="46.68799" lon="-1.76931">
        <ele>54</ele>
        <time>2018-04-21T10:02:17Z</time>
      </trkpt>
      <trkpt lat="46.688" lon="-1.76931">
        <ele>54</ele>
        <time>2018-04-21T10:03:17Z</time>
      </trkpt>
      <trkpt lat="46.688" lon="-1.7693">
        <ele>54</ele>
        <time>2018-04-21T10:04:17Z</time>
      </trkpt>
      <trkpt lat="46.688" lon="-1.76929">
        <ele>54</ele>
        <time>2018-04-21T10:05:17Z</time>
      </trkpt>
      <trkpt lat="46.68801" lon="-1.76929">
        <ele>54</ele>
        <time>2018-04-21T10:06:17Z</time>
      </trkpt>
      <trkpt lat="46.68801" lon="-1.76928">
        <ele>54</ele>
        <time>2018-04-21T10:07:17Z</time>
      </trkpt>
      <trkpt lat="46.68802" lon="-1.76928">
        <ele>54</ele>
        <time>2018-04-21T10:08:17Z</time>
      </trkpt>
      <trkpt lat="46.68802" lon="-1.76927">
        <ele>54</ele>
        <time>2018-04-21T10:09:17Z</time>
      </trkpt>
      <trkpt lat="46.68803" lon="-1.76927">
        <ele>54</ele>
        <time>2018-04-21T10:10:17Z</time>
      </trkpt>
      <trkpt lat="46.68804" lon="-1.76927">
        <ele>54</ele>
        <time>2018-04-21T10:11:17Z</time>
      </trkpt>
      <trkpt lat="46.68804" lon="-1.76926">
        <ele>54</ele>
        <time>2018-04-21T10:12:17Z</time>
      </trkpt>
      <trkpt lat="46.68805" lon="-1.76926">
        <ele>54</ele>
        <time>2018-04-21T10:13:17Z</time>
      </trkpt>
      <trkpt lat="46.68806" lon="-1.76926">
        <ele>54</ele>
        <time>2018-04-21T10:14:17Z</time>
      </trkpt>
      <trkpt lat="46.68807" lon="-1.76926">
        <ele>54</ele>
        <time>2018-04-21T10:15:17Z</time>
      </trkpt>
      <trkpt lat="46.68808" lon="-1.76926">
        <ele>54</ele>
        <time>2018-04-21T10:16:17Z</time>
      </trkpt>
      <trkpt lat="46.68808" lon="-1.76927">
        <ele>54</ele>
        <time>2018-04-21T10:17:17Z</time>
      </trkpt>
      <trkpt lat="46.68809" lon="-1.76927">
        <ele>54</ele>
        <time>2018-04-21T10:18:17Z</time>
      </trkpt>
      <trkpt lat="46.6881" lon="-1.76928">
        <ele>54</ele>
        <time>2018-04-21T10:19:17Z</time>
      </trkpt>
      <trkpt lat="46.68811" lon="-1.76929">
        <ele>54</ele>
        <time>2018-04-21T10:20:17Z</time>
      </trkpt>
      <trkpt lat="46.68811" lon="-1.7693">
        <ele>54</ele>
        <time>2018-04-21T10:21:17Z</time>
      </trkpt>
      <trkpt lat="46.68812" lon="-1.7693">
        <ele>54</ele>
        <time>2018-04-21T10:22:17Z</time>
      </trkpt>
      <trkpt lat="46.68812" lon="-1.76931">
        <ele>54</ele>
        <time>2018-04-21T10:23:17Z</time>
      </trkpt>
      <trkpt lat="46.68812" lon="-1.76932">
        <ele>54</ele>
        <time>2018-04-21T10:24:17Z</time>
      </trkpt>
      <trkpt lat="46.68813" lon="-1.76932">
        <ele>54</ele>
        <time>2018-04-21T10:25:17Z</time>
      </trkpt>
      <trkpt lat="46.68864" lon="-1.76891">
        <ele>54</ele>
        <time>2018-04-21T10:26:17Z</time>
      </trkpt>
      <trkpt lat="46.68864" lon="-1.7689">
        <ele>54</ele>
        <time>2018-04-21T10:27:17Z</time>
      </trkpt>
      <trkpt lat="46.68864" lon="-1.76889">
        <ele>54</ele>
        <time>2018-04-21T10:28:17Z</time>
      </trkpt>
      <trkpt lat="46.68863" lon="-1.76889">
        <ele>54</ele>
        <time>2018-04-21T10:29:17Z</time>
      </trkpt>
      <trkpt lat="46.68863" lon="-1.76888">
        <ele>54</ele>
        <time>2018-04-21T10:30:17Z</time>
      </trkpt>
      <trkpt lat="46.68863" lon="-1.76887">
        <ele>54</ele>
        <time>2018-04-21T10:31:17Z</time>
      </trkpt>
      <trkpt lat="46.68863" lon="-1.76886">
        <ele>54</ele>
        <time>2018-04-21T10:32:17Z</time>
      </trkpt>
      <trkpt lat="46.68863" lon="-1.76885">
        <ele>54</ele>
        <time>2018-04-21T10:33:17Z</time>
      </trkpt>
      <trkpt lat="46.68863" lon="-1.76884">
        <ele>54</ele>
        <time>2018-04-21T10:34:17Z</time>
      </trkpt>
      <trkpt lat="46.68863" lon="-1.76883">
        <ele>54</ele>
        <time>2018-04-21T10:35:17Z</time>
      </trkpt>
      <trkpt lat="46.68864" lon="-1.76882">
        <ele>54</ele>
        <time>2018-04-21T10:36:17Z</time>
      </trkpt>
      <trkpt lat="46.68864" lon="-1.76881">
        <ele>54</ele>
        <time>2018-04-21T10:37:17Z</time>
      </trkpt>
      <trkpt lat="46.68864" lon="-1.7688">
        <ele>54</ele>
        <time>2018-04-21T10:38:17Z</time>
      </trkpt>
      <trkpt lat="46.68865" lon="-1.76879">
        <ele>54</ele>
        <time>2018-04-21T10:39:17Z</time>
      </trkpt>
      <trkpt lat="46.68865" lon="-1.76878">
        <ele>54</ele>
        <time>2018-04-21T10:40:17Z</time>
      </trkpt>
      <trkpt lat="46.68866" lon="-1.76878">
        <ele>54</ele>
        <time>2018-04-21T10:41:17Z</time>
      </trkpt>
      <trkpt lat="46.68866" lon="-1.76877">
        <ele>54</ele>
        <time>2018-04-21T10:42:17Z</time>
      </trkpt>
      <trkpt lat="46.68867" lon="-1.76877">
        <ele>54</ele>
        <time>2018-04-21T10:43:17Z</time>
      </trkpt>
      <trkpt lat="46.68867" lon="-1.76876">
        <ele>54</ele>
        <time>2018-04-21T10:44:17Z</time>
      </trkpt>
      <trkpt lat="46.68868" lon="-1.76875">
        <ele>54</ele>
        <time>2018-04-21T10:45:17Z</time>
      </trkpt>
      <trkpt lat="46.68869" lon="-1.76875">
        <ele>54</ele>
        <time>2018-04-21T10:46:17Z</time>
      </trkpt>
      <trkpt lat="46.68869" lon="-1.76874">
        <ele>54</ele>
        <time>2018-04-21T10:47:17Z</time>
      </trkpt>
      <trkpt lat="46.6887" lon="-1.76874">
        <ele>54</ele>
        <time>2018-04-21T10:48:17Z</time>
      </trkpt>
      <trkpt lat="46.68871" lon="-1.76874">
        <ele>54</ele>
        <time>2018-04-21T10:49:17Z</time>
      </trkpt>
      <trkpt lat="46.68872" lon="-1.76874">
        <ele>54</ele>
        <time>2018-04-21T10:50:17Z</time>
      </trkpt>
      <trkpt lat="46.68873" lon="-1.76874">
        <ele>54</ele>
        <time>2018-04-21T10:51:17Z</time>
      </trkpt>
      <trkpt lat="46.68874" lon="-1.76874">
        <ele>54</ele>
        <time>2018-04-21T10:52:17Z</time>
      </trkpt>
      <trkpt lat="46.68874" lon="-1.76875">
        <ele>54</ele>
        <time>2018-04-21T10:53:17Z</time>
      </trkpt>
      <trkpt lat="46.68875" lon="-1.76875">
        <ele>54</ele>
        <time>2018-04-21T10:54:17Z</time>
      </trkpt>
      <trkpt lat="46.68875" lon="-1.76876">
        <ele>54</ele>
        <time>2018-04-21T10:55:17Z</time>
      </trkpt>
      <trkpt lat="46.68876" lon="-1.76876">
        <ele>54</ele>
        <time>2018-04-21T10:56:17Z</time>
      </trkpt>
      <trkpt lat="46.68876" lon="-1.76877">
        <ele>54</ele>
        <time>2018-04-21T10:57:17Z</time>
      </trkpt>
      <trkpt lat="46.68877" lon="-1.76877">
        <ele>54</ele>
        <time>2018-04-21T10:58:17Z</time>
      </trkpt>
      <trkpt lat="46.68877" lon="-1.76878">
        <ele>54</ele>
        <time>2018-04-21T10:59:17Z</time>
      </trkpt>
      <trkpt lat="46.68878" lon="-1.76879">
        <ele>54</ele>
        <time>2018-04-21T11:00:17Z</time>
      </trkpt>
      <trkpt lat="46.68891" lon="-1.76866">
        <ele>54</ele>
        <time>2018-04-21T11:01:17Z</time>
      </trkpt>
      <trkpt lat="46.68893" lon="-1.76863">
        <ele>54</ele>
        <time>2018-04-21T11:02:17Z</time>
      </trkpt>
      <trkpt lat="46.68913" lon="-1.76842">
        <ele>54</ele>
        <time>2018-04-21T11:03:17Z</time>
      </trkpt>
      <trkpt lat="46.68946" lon="-1.76813">
        <ele>54</ele>
        <time>2018-04-21T11:04:17Z</time>
      </trkpt>
      <trkpt lat="46.68964" lon="-1.76796">
        <ele>55</ele>
        <time>2018-04-21T11:05:17Z</time>
      </trkpt>
      <trkpt lat="46.68992" lon="-1.76782">
        <ele>56</ele>
        <time>2018-04-21T11:06:17Z</time>
      </trkpt>
      <trkpt lat="46.69024" lon="-1.76766">
        <ele>56</ele>
        <time>2018-04-21T11:07:17Z</time>
      </trkpt>
      <trkpt lat="46.69031" lon="-1.76763">
        <ele>56</ele>
        <time>2018-04-21T11:08:17Z</time>
      </trkpt>
      <trkpt lat="46.69039" lon="-1.76759">
        <ele>56</ele>
        <time>2018-04-21T11:09:17Z</time>
      </trkpt>
      <trkpt lat="46.6905" lon="-1.76753">
        <ele>56</ele>
        <time>2018-04-21T11:10:17Z</time>
      </trkpt>
      <trkpt lat="46.69064" lon="-1.76747">
        <ele>55</ele>
        <time>2018-04-21T11:11:17Z</time>
      </trkpt>
      <trkpt lat="46.69069" lon="-1.76744">
        <ele>55</ele>
        <time>2018-04-21T11:12:17Z</time>
      </trkpt>
      <trkpt lat="46.69079" lon="-1.76741">
        <ele>55</ele>
        <time>2018-04-21T11:13:17Z</time>
      </trkpt>
      <trkpt lat="46.69083" lon="-1.7674">
        <ele>55</ele>
        <time>2018-04-21T11:14:17Z</time>
      </trkpt>
      <trkpt lat="46.69097" lon="-1.76737">
        <ele>55</ele>
        <time>2018-04-21T11:15:17Z</time>
      </trkpt>
      <trkpt lat="46.69113" lon="-1.76734">
        <ele>55</ele>
        <time>2018-04-21T11:16:17Z</time>
      </trkpt>
      <trkpt lat="46.69132" lon="-1.76732">
        <ele>55</ele>
        <time>2018-04-21T11:17:17Z</time>
      </trkpt>
      <trkpt lat="46.69139" lon="-1.76731">
        <ele>55</ele>
        <time>2018-04-21T11:18:17Z</time>
      </trkpt>
      <trkpt lat="46.69143" lon="-1.7673">
        <ele>55</ele>
        <time>2018-04-21T11:19:17Z</time>
      </trkpt>
      <trkpt lat="46.69151" lon="-1.76728">
        <ele>54</ele>
        <time>2018-04-21T11:20:17Z</time>
      </trkpt>
      <trkpt lat="46.69162" lon="-1.76726">
        <ele>54</ele>
        <time>2018-04-21T11:21:17Z</time>
      </trkpt>
      <trkpt lat="46.69166" lon="-1.76724">
        <ele>54</ele>
        <time>2018-04-21T11:22:17Z</time>
      </trkpt>
      <trkpt lat="46.69178" lon="-1.7672">
        <ele>54</ele>
        <time>2018-04-21T11:23:17Z</time>
      </trkpt>
      <trkpt lat="46.69182" lon="-1.76719">
        <ele>54</ele>
        <time>2018-04-21T11:24:17Z</time>
      </trkpt>
      <trkpt lat="46.69195" lon="-1.76713">
        <ele>54</ele>
        <time>2018-04-21T11:25:17Z</time>
      </trkpt>
      <trkpt lat="46.69212" lon="-1.76706">
        <ele>53</ele>
        <time>2018-04-21T11:26:17Z</time>
      </trkpt>
      <trkpt lat="46.69228" lon="-1.76697">
        <ele>53</ele>
        <time>2018-04-21T11:27:17Z</time>
      </trkpt>
      <trkpt lat="46.6925" lon="-1.76686">
        <ele>53</ele>
        <time>2018-04-21T11:28:17Z</time>
      </trkpt>
      <trkpt lat="46.69272" lon="-1.76675">
        <ele>52</ele>
        <time>2018-04-21T11:29:17Z</time>
      </trkpt>
      <trkpt lat="46.69301" lon="-1.7666">
        <ele>52</ele>
        <time>2018-04-21T11:30:17Z</time>
      </trkpt>
      <trkpt lat="46.69319" lon="-1.76651">
        <ele>51</ele>
        <time>2018-04-21T11:31:17Z</time>
      </trkpt>
      <trkpt lat="46.69338" lon="-1.76641">
        <ele>51</ele>
        <time>2018-04-21T11:32:17Z</time>
      </trkpt>
      <trkpt lat="46.69346" lon="-1.76637">
        <ele>51</ele>
        <time>2018-04-21T11:33:17Z</time>
      </trkpt>
      <trkpt lat="46.6937" lon="-1.76624">
        <ele>50</ele>
        <time>2018-04-21T11:34:17Z</time>
      </trkpt>
      <trkpt lat="46.69385" lon="-1.76617">
        <ele>50</ele>
        <time>2018-04-21T11:35:17Z</time>
      </trkpt>
      <trkpt lat="46.69404" lon="-1.76606">
        <ele>49</ele>
        <time>2018-04-21T11:36:17Z</time>
      </trkpt>
      <trkpt lat="46.69412" lon="-1.766">
        <ele>49</ele>
        <time>2018-04-21T11:37:17Z</time>
      </trkpt>
      <trkpt lat="46.69419" lon="-1.76595">
        <ele>49</ele>
        <time>2018-04-21T11:38:17Z</time>
      </trkpt>
      <trkpt lat="46.69424" lon="-1.76591">
        <ele>49</ele>
        <time>2018-04-21T11:39:17Z</time>
      </trkpt>
      <trkpt lat="46.69436" lon="-1.76583">
        <ele>48</ele>
        <time>2018-04-21T11:40:17Z</time>
      </trkpt>
      <trkpt lat="46.69438" lon="-1.76581">
        <ele>48</ele>
        <time>2018-04-21T11:41:17Z</time>
      </trkpt>
      <trkpt lat="46.69441" lon="-1.76578">
        <ele>48</ele>
        <time>2018-04-21T11:42:17Z</time>
      </trkpt>
      <trkpt lat="46.69451" lon="-1.7657">
        <ele>48</ele>
        <time>2018-04-21T11:43:17Z</time>
      </trkpt>
      <trkpt lat="46.69464" lon="-1.76557">
        <ele>47</ele>
        <time>2018-04-21T11:44:17Z</time>
      </trkpt>
      <trkpt lat="46.6948" lon="-1.76543">
        <ele>47</ele>
        <time>2018-04-21T11:45:17Z</time>
      </trkpt>
      <trkpt lat="46.69496" lon="-1.76528">
        <ele>46</ele>
        <time>2018-04-21T11:46:17Z</time>
      </trkpt>
      <trkpt lat="46.69509" lon="-1.76516">
        <ele>46</ele>
        <time>2018-04-21T11:47:17Z</time>
      </trkpt>
      <trkpt lat="46.69524" lon="-1.76501">
        <ele>45</ele>
        <time>2018-04-21T11:48:17Z</time>
      </trkpt>
      <trkpt lat="46.69539" lon="-1.76488">
        <ele>44</ele>
        <time>2018-04-21T11:49:17Z</time>
      </trkpt>
      <trkpt lat="46.69552" lon="-1.76476">
        <ele>43</ele>
        <time>2018-04-21T11:50:17Z</time>
      </trkpt>
      <trkpt lat="46.69557" lon="-1.76471">
        <ele>42</ele>
        <time>2018-04-21T11:51:17Z</time>
      </trkpt>
      <trkpt lat="46.69579" lon="-1.76447">
        <ele>40</ele>
        <time>2018-04-21T11:52:17Z</time>
      </trkpt>
      <trkpt lat="46.69581" lon="-1.76444">
        <ele>40</ele>
        <time>2018-04-21T11:53:17Z</time>
      </trkpt>
      <trkpt lat="46.69594" lon="-1.76433">
        <ele>39</ele>
        <time>2018-04-21T11:54:17Z</time>
      </trkpt>
      <trkpt lat="46.69604" lon="-1.76425">
        <ele>38</ele>
        <time>2018-04-21T11:55:17Z</time>
      </trkpt>
      <trkpt lat="46.69605" lon="-1.76424">
        <ele>38</ele>
        <time>2018-04-21T11:56:17Z</time>
      </trkpt>
      <trkpt lat="46.69618" lon="-1.76414">
        <ele>38</ele>
        <time>2018-04-21T11:57:17Z</time>
      </trkpt>
      <trkpt lat="46.6963" lon="-1.76405">
        <ele>37</ele>
        <time>2018-04-21T11:58:17Z</time>
      </trkpt>
      <trkpt lat="46.69638" lon="-1.764">
        <ele>37</ele>
        <time>2018-04-21T11:59:17Z</time>
      </trkpt>
      <trkpt lat="46.69642" lon="-1.76397">
        <ele>37</ele>
        <time>2018-04-21T12:00:17Z</time>
      </trkpt>
      <trkpt lat="46.69652" lon="-1.76389">
        <ele>37</ele>
        <time>2018-04-21T12:01:17Z</time>
      </trkpt>
      <trkpt lat="46.69659" lon="-1.76384">
        <ele>36</ele>
        <time>2018-04-21T12:02:17Z</time>
      </trkpt>
      <trkpt lat="46.69663" lon="-1.7638">
        <ele>36</ele>
        <time>2018-04-21T12:03:17Z</time>
      </trkpt>
      <trkpt lat="46.69666" lon="-1.76379">
        <ele>36</ele>
        <time>2018-04-21T12:04:17Z</time>
      </trkpt>
      <trkpt lat="46.69681" lon="-1.76368">
        <ele>37</ele>
        <time>2018-04-21T12:05:17Z</time>
      </trkpt>
      <trkpt lat="46.69696" lon="-1.76359">
        <ele>38</ele>
        <time>2018-04-21T12:06:17Z</time>
      </trkpt>
      <trkpt lat="46.69708" lon="-1.76351">
        <ele>39</ele>
        <time>2018-04-21T12:07:17Z</time>
      </trkpt>
      <trkpt lat="46.69719" lon="-1.76346">
        <ele>40</ele>
        <time>2018-04-21T12:08:17Z</time>
      </trkpt>
      <trkpt lat="46.6973" lon="-1.76345">
        <ele>40</ele>
        <time>2018-04-21T12:09:17Z</time>
      </trkpt>
      <trkpt lat="46.6973" lon="-1.76345">
        <ele>40</ele>
        <time>2018-04-21T12:10:17Z</time>
      </trkpt>
      <trkpt lat="46.6973" lon="-1.76344">
        <ele>40</ele>
        <time>2018-04-21T12:11:17Z</time>
      </trkpt>
      <trkpt lat="46.6973" lon="-1.76343">
        <ele>40</ele>
        <time>2018-04-21T12:12:17Z</time>
      </trkpt>
      <trkpt lat="46.6973" lon="-1.76342">
        <ele>40</ele>
        <time>2018-04-21T12:13:17Z</time>
      </trkpt>
      <trkpt lat="46.69731" lon="-1.76341">
        <ele>41</ele>
        <time>2018-04-21T12:14:17Z</time>
      </trkpt>
      <trkpt lat="46.69731" lon="-1.7634">
        <ele>41</ele>
        <time>2018-04-21T12:15:17Z</time>
      </trkpt>
      <trkpt lat="46.69732" lon="-1.76339">
        <ele>41</ele>
        <time>2018-04-21T12:16:17Z</time>
      </trkpt>
      <trkpt lat="46.69732" lon="-1.76338">
        <ele>41</ele>
        <time>2018-04-21T12:17:17Z</time>
      </trkpt>
      <trkpt lat="46.69733" lon="-1.76338">
        <ele>41</ele>
        <time>2018-04-21T12:18:17Z</time>
      </trkpt>
      <trkpt lat="46.69733" lon="-1.76337">
        <ele>41</ele>
        <time>2018-04-21T12:19:17Z</time>
      </trkpt>
      <trkpt lat="46.69734" lon="-1.76337">
        <ele>41</ele>
        <time>2018-04-21T12:20:17Z</time>
      </trkpt>
      <trkpt lat="46.69735" lon="-1.76336">
        <ele>41</ele>
        <time>2018-04-21T12:21:17Z</time>
      </trkpt>
      <trkpt lat="46.69736" lon="-1.76336">
        <ele>41</ele>
        <time>2018-04-21T12:22:17Z</time>
      </trkpt>
      <trkpt lat="46.69737" lon="-1.76336">
        <ele>41</ele>
        <time>2018-04-21T12:23:17Z</time>
      </trkpt>
      <trkpt lat="46.69738" lon="-1.76336">
        <ele>41</ele>
        <time>2018-04-21T12:24:17Z</time>
      </trkpt>
      <trkpt lat="46.69739" lon="-1.76336">
        <ele>41</ele>
        <time>2018-04-21T12:25:17Z</time>
      </trkpt>
      <trkpt lat="46.69742" lon="-1.76322">
        <ele>42</ele>
        <time>2018-04-21T12:26:17Z</time>
      </trkpt>
      <trkpt lat="46.69743" lon="-1.76301">
        <ele>42</ele>
        <time>2018-04-21T12:27:17Z</time>
      </trkpt>
      <trkpt lat="46.69745" lon="-1.76282">
        <ele>42</ele>
        <time>2018-04-21T12:28:17Z</time>
      </trkpt>
      <trkpt lat="46.69746" lon="-1.76271">
        <ele>42</ele>
        <time>2018-04-21T12:29:17Z</time>
      </trkpt>
      <trkpt lat="46.69746" lon="-1.76266">
        <ele>43</ele>
        <time>2018-04-21T12:30:17Z</time>
      </trkpt>
      <trkpt lat="46.6975" lon="-1.76245">
        <ele>43</ele>
        <time>2018-04-21T12:31:17Z</time>
      </trkpt>
      <trkpt lat="46.69753" lon="-1.76235">
        <ele>44</ele>
        <time>2018-04-21T12:32:17Z</time>
      </trkpt>
      <trkpt lat="46.69756" lon="-1.76225">
        <ele>45</ele>
        <time>2018-04-21T12:33:17Z</time>
      </trkpt>
      <trkpt lat="46.69759" lon="-1.76206">
        <ele>46</ele>
        <time>2018-04-21T12:34:17Z</time>
      </trkpt>
      <trkpt lat="46.69761" lon="-1.76192">
        <ele>47</ele>
        <time>2018-04-21T12:35:17Z</time>
      </trkpt>
      <trkpt lat="46.6976" lon="-1.76174">
        <ele>49</ele>
        <time>2018-04-21T12:36:17Z</time>
      </trkpt>
      <trkpt lat="46.69759" lon="-1.76164">
        <ele>49</ele>
        <time>2018-04-21T12:37:17Z</time>
      </trkpt>
      <trkpt lat="46.69758" lon="-1.76148">
        <ele>49</ele>
        <time>2018-04-21T12:38:17Z</time>
      </trkpt>
      <trkpt lat="46.69758" lon="-1.76148">
        <ele>49</ele>
        <time>2018-04-21T12:39:17Z</time>
      </trkpt>
      <trkpt lat="46.69773" lon="-1.76141">
        <ele>49</ele>
        <time>2018-04-21T12:40:17Z</time>
      </trkpt>
      <trkpt lat="46.69787" lon="-1.76136">
        <ele>49</ele>
        <time>2018-04-21T12:41:17Z</time>
      </trkpt>
      <trkpt lat="46.69808" lon="-1.76126">
        <ele>49</ele>
        <time>2018-04-21T12:42:17Z</time>
      </trkpt>
      <trkpt lat="46.69817" lon="-1.76124">
        <ele>49</ele>
        <time>2018-04-21T12:43:17Z</time>
      </trkpt>
      <trkpt lat="46.69826" lon="-1.76121">
        <ele>49</ele>
        <time>2018-04-21T12:44:17Z</time>
      </trkpt>
      <trkpt lat="46.6983" lon="-1.7612">
        <ele>49</ele>
        <time>2018-04-21T12:45:17Z</time>
      </trkpt>
      <trkpt lat="46.69838" lon="-1.76119">
        <ele>49</ele>
        <time>2018-04-21T12:46:17Z</time>
      </trkpt>
      <trkpt lat="46.69842" lon="-1.76118">
        <ele>49</ele>
        <time>2018-04-21T12:47:17Z</time>
      </trkpt>
      <trkpt lat="46.69857" lon="-1.76118">
        <ele>49</ele>
        <time>2018-04-21T12:48:17Z</time>
      </trkpt>
      <trkpt lat="46.69867" lon="-1.7612">
        <ele>49</ele>
        <time>2018-04-21T12:49:17Z</time>
      </trkpt>
      <trkpt lat="46.69873" lon="-1.76122">
        <ele>49</ele>
        <time>2018-04-21T12:50:17Z</time>
      </trkpt>
      <trkpt lat="46.69877" lon="-1.76122">
        <ele>48</ele>
        <time>2018-04-21T12:51:17Z</time>
      </trkpt>
      <trkpt lat="46.69892" lon="-1.76123">
        <ele>48</ele>
        <time>2018-04-21T12:52:17Z</time>
      </trkpt>
      <trkpt lat="46.69904" lon="-1.7612">
        <ele>48</ele>
        <time>2018-04-21T12:53:17Z</time>
      </trkpt>
      <trkpt lat="46.6993" lon="-1.76112">
        <ele>48</ele>
        <time>2018-04-21T12:54:17Z</time>
      </trkpt>
      <trkpt lat="46.69958" lon="-1.76101">
        <ele>48</ele>
        <time>2018-04-21T12:55:17Z</time>
      </trkpt>
      <trkpt lat="46.69971" lon="-1.76096">
        <ele>49</ele>
        <time>2018-04-21T12:56:17Z</time>
      </trkpt>
      <trkpt lat="46.70005" lon="-1.76083">
        <ele>49</ele>
        <time>2018-04-21T12:57:17Z</time>
      </trkpt>
      <trkpt lat="46.70033" lon="-1.76073">
        <ele>49</ele>
        <time>2018-04-21T12:58:17Z</time>
      </trkpt>
      <trkpt lat="46.70079" lon="-1.76054">
        <ele>49</ele>
        <time>2018-04-21T12:59:17Z</time>
      </trkpt>
      <trkpt lat="46.70099" lon="-1.76044">
        <ele>50</ele>
        <time>2018-04-21T13:00:17Z</time>
      </trkpt>
      <trkpt lat="46.70099" lon="-1.76044">
        <ele>50</ele>
        <time>2018-04-21T13:01:17Z</time>
      </trkpt>
      <trkpt lat="46.70107" lon="-1.76055">
        <ele>50</ele>
        <time>2018-04-21T13:02:17Z</time>
      </trkpt>
      <trkpt lat="46.70126" lon="-1.7607">
        <ele>50</ele>
        <time>2018-04-21T13:03:17Z</time>
      </trkpt>
      <trkpt lat="46.70148" lon="-1.76089">
        <ele>51</ele>
        <time>2018-04-21T13:04:17Z</time>
      </trkpt>
      <trkpt lat="46.70149" lon="-1.76089">
        <ele>51</ele>
        <time>2018-04-21T13:05:17Z</time>
      </trkpt>
      <trkpt lat="46.70167" lon="-1.76105">
        <ele>51</ele>
        <time>2018-04-21T13:06:17Z</time>
      </trkpt>
      <trkpt lat="46.70185" lon="-1.76121">
        <ele>52</ele>
        <time>2018-04-21T13:07:17Z</time>
      </trkpt>
      <trkpt lat="46.70203" lon="-1.76137">
        <ele>52</ele>
        <time>2018-04-21T13:08:17Z</time>
      </trkpt>
      <trkpt lat="46.70229" lon="-1.76159">
        <ele>52</ele>
        <time>2018-04-21T13:09:17Z</time>
      </trkpt>
      <trkpt lat="46.70245" lon="-1.76173">
        <ele>52</ele>
        <time>2018-04-21T13:10:17Z</time>
      </trkpt>
      <trkpt lat="46.70258" lon="-1.76186">
        <ele>52</ele>
        <time>2018-04-21T13:11:17Z</time>
      </trkpt>
      <trkpt lat="46.70301" lon="-1.76223">
        <ele>53</ele>
        <time>2018-04-21T13:12:17Z</time>
      </trkpt>
      <trkpt lat="46.70337" lon="-1.76254">
        <ele>53</ele>
        <time>2018-04-21T13:13:17Z</time>
      </trkpt>
      <trkpt lat="46.7037" lon="-1.76285">
        <ele>53</ele>
        <time>2018-04-21T13:14:17Z</time>
      </trkpt>
      <trkpt lat="46.70397" lon="-1.76307">
        <ele>53</ele>
        <time>2018-04-21T13:15:17Z</time>
      </trkpt>
      <trkpt lat="46.704" lon="-1.76309">
        <ele>53</ele>
        <time>2018-04-21T13:16:17Z</time>
      </trkpt>
      <trkpt lat="46.70425" lon="-1.76332">
        <ele>52</ele>
        <time>2018-04-21T13:17:17Z</time>
      </trkpt>
      <trkpt lat="46.70455" lon="-1.7636">
        <ele>52</ele>
        <time>2018-04-21T13:18:17Z</time>
      </trkpt>
      <trkpt lat="46.70463" lon="-1.76366">
        <ele>52</ele>
        <time>2018-04-21T13:19:17Z</time>
      </trkpt>
      <trkpt lat="46.70482" lon="-1.76383">
        <ele>52</ele>
        <time>2018-04-21T13:20:17Z</time>
      </trkpt>
      <trkpt lat="46.70528" lon="-1.76424">
        <ele>52</ele>
        <time>2018-04-21T13:21:17Z</time>
      </trkpt>
      <trkpt lat="46.70571" lon="-1.76462">
        <ele>53</ele>
        <time>2018-04-21T13:22:17Z</time>
      </trkpt>
      <trkpt lat="46.70574" lon="-1.76464">
        <ele>53</ele>
        <time>2018-04-21T13:23:17Z</time>
      </trkpt>
      <trkpt lat="46.70596" lon="-1.76485">
        <ele>53</ele>
        <time>2018-04-21T13:24:17Z</time>
      </trkpt>
      <trkpt lat="46.7063" lon="-1.76514">
        <ele>53</ele>
        <time>2018-04-21T13:25:17Z</time>
      </trkpt>
      <trkpt lat="46.70662" lon="-1.76543">
        <ele>54</ele>
        <time>2018-04-21T13:26:17Z</time>
      </trkpt>
      <trkpt lat="46.70689" lon="-1.76566">
        <ele>54</ele>
        <time>2018-04-21T13:27:17Z</time>
      </trkpt>
      <trkpt lat="46.70714" lon="-1.76587">
        <ele>53</ele>
        <time>2018-04-21T13:28:17Z</time>
      </trkpt>
      <trkpt lat="46.7073" lon="-1.76602">
        <ele>53</ele>
        <time>2018-04-21T13:29:17Z</time>
      </trkpt>
      <trkpt lat="46.70742" lon="-1.76613">
        <ele>53</ele>
        <time>2018-04-21T13:30:17Z</time>
      </trkpt>
      <trkpt lat="46.7077" lon="-1.76638">
        <ele>53</ele>
        <time>2018-04-21T13:31:17Z</time>
      </trkpt>
      <trkpt lat="46.70791" lon="-1.76657">
        <ele>53</ele>
        <time>2018-04-21T13:32:17Z</time>
      </trkpt>
      <trkpt lat="46.70805" lon="-1.76671">
        <ele>52</ele>
        <time>2018-04-21T13:33:17Z</time>
      </trkpt>
      <trkpt lat="46.70822" lon="-1.76689">
        <ele>52</ele>
        <time>2018-04-21T13:34:17Z</time>
      </trkpt>
      <trkpt lat="46.70839" lon="-1.7671">
        <ele>51</ele>
        <time>2018-04-21T13:35:17Z</time>
      </trkpt>
      <trkpt lat="46.70863" lon="-1.76741">
        <ele>51</ele>
        <time>2018-04-21T13:36:17Z</time>
      </trkpt>
      <trkpt lat="46.70888" lon="-1.76773">
        <ele>51</ele>
        <time>2018-04-21T13:37:17Z</time>
      </trkpt>
      <trkpt lat="46.70913" lon="-1.76805">
        <ele>51</ele>
        <time>2018-04-21T13:38:17Z</time>
      </trkpt>
      <trkpt lat="46.70938" lon="-1.76838">
        <ele>51</ele>
        <time>2018-04-21T13:39:17Z</time>
      </trkpt>
      <trkpt lat="46.70968" lon="-1.76877">
        <ele>50</ele>
        <time>2018-04-21T13:40:17Z</time>
      </trkpt>
      <trkpt lat="46.7099" lon="-1.76906">
        <ele>50</ele>
        <time>2018-04-21T13:41:17Z</time>
      </trkpt>
      <trkpt lat="46.71028" lon="-1.76954">
        <ele>50</ele>
        <time>2018-04-21T13:42:17Z</time>
      </trkpt>
      <trkpt lat="46.71062" lon="-1.76998">
        <ele>51</ele>
        <time>2018-04-21T13:43:17Z</time>
      </trkpt>
      <trkpt lat="46.71097" lon="-1.77044">
        <ele>52</ele>
        <time>2018-04-21T13:44:17Z</time>
      </trkpt>
      <trkpt lat="46.71168" lon="-1.77136">
        <ele>52</ele>
        <time>2018-04-21T13:45:17Z</time>
      </trkpt>
      <trkpt lat="46.71224" lon="-1.77209">
        <ele>50</ele>
        <time>2018-04-21T13:46:17Z</time>
      </trkpt>
      <trkpt lat="46.71241" lon="-1.77232">
        <ele>49</ele>
        <time>2018-04-21T13:47:17Z</time>
      </trkpt>
      <trkpt lat="46.71252" lon="-1.77249">
        <ele>49</ele>
        <time>2018-04-21T13:48:17Z</time>
      </trkpt>
      <trkpt lat="46.71273" lon="-1.77286">
        <ele>48</ele>
        <time>2018-04-21T13:49:17Z</time>
      </trkpt>
      <trkpt lat="46.71295" lon="-1.77326">
        <ele>48</ele>
        <time>2018-04-21T13:50:17Z</time>
      </trkpt>
      <trkpt lat="46.71327" lon="-1.77382">
        <ele>47</ele>
        <time>2018-04-21T13:51:17Z</time>
      </trkpt>
      <trkpt lat="46.71358" lon="-1.77439">
        <ele>46</ele>
        <time>2018-04-21T13:52:17Z</time>
      </trkpt>
      <trkpt lat="46.71368" lon="-1.77455">
        <ele>46</ele>
        <time>2018-04-21T13:53:17Z</time>
      </trkpt>
      <trkpt lat="46.71374" lon="-1.77464">
        <ele>46</ele>
        <time>2018-04-21T13:54:17Z</time>
      </trkpt>
      <trkpt lat="46.71379" lon="-1.77472">
        <ele>46</ele>
        <time>2018-04-21T13:55:17Z</time>
      </trkpt>
      <trkpt lat="46.71388" lon="-1.77489">
        <ele>46</ele>
        <time>2018-04-21T13:56:17Z</time>
      </trkpt>
      <trkpt lat="46.71406" lon="-1.77511">
        <ele>46</ele>
        <time>2018-04-21T13:57:17Z</time>
      </trkpt>
      <trkpt lat="46.71429" lon="-1.77536">
        <ele>46</ele>
        <time>2018-04-21T13:58:17Z</time>
      </trkpt>
      <trkpt lat="46.71463" lon="-1.7757">
        <ele>46</ele>
        <time>2018-04-21T13:59:17Z</time>
      </trkpt>
      <trkpt lat="46.71505" lon="-1.77612">
        <ele>45</ele>
        <time>2018-04-21T14:00:17Z</time>
      </trkpt>
      <trkpt lat="46.71521" lon="-1.77627">
        <ele>45</ele>
        <time>2018-04-21T14:01:17Z</time>
      </trkpt>
      <trkpt lat="46.71574" lon="-1.7768">
        <ele>44</ele>
        <time>2018-04-21T14:02:17Z</time>
      </trkpt>
      <trkpt lat="46.71629" lon="-1.77734">
        <ele>43</ele>
        <time>2018-04-21T14:03:17Z</time>
      </trkpt>
      <trkpt lat="46.71663" lon="-1.77768">
        <ele>43</ele>
        <time>2018-04-21T14:04:17Z</time>
      </trkpt>
      <trkpt lat="46.71702" lon="-1.77808">
        <ele>43</ele>
        <time>2018-04-21T14:05:17Z</time>
      </trkpt>
      <trkpt lat="46.71709" lon="-1.77814">
        <ele>43</ele>
        <time>2018-04-21T14:06:17Z</time>
      </trkpt>
      <trkpt lat="46.71718" lon="-1.77822">
        <ele>43</ele>
        <time>2018-04-21T14:07:17Z</time>
      </trkpt>
      <trkpt lat="46.71726" lon="-1.77828">
        <ele>43</ele>
        <time>2018-04-21T14:08:17Z</time>
      </trkpt>
      <trkpt lat="46.71733" lon="-1.77835">
        <ele>43</ele>
        <time>2018-04-21T14:09:17Z</time>
      </trkpt>
      <trkpt lat="46.71741" lon="-1.77841">
        <ele>43</ele>
        <time>2018-04-21T14:10:17Z</time>
      </trkpt>
      <trkpt lat="46.71747" lon="-1.77844">
        <ele>43</ele>
        <time>2018-04-21T14:11:17Z</time>
      </trkpt>
      <trkpt lat="46.71753" lon="-1.77848">
        <ele>43</ele>
        <time>2018-04-21T14:12:17Z</time>
      </trkpt>
      <trkpt lat="46.71763" lon="-1.77853">
        <ele>43</ele>
        <time>2018-04-21T14:13:17Z</time>
      </trkpt>
      <trkpt lat="46.71774" lon="-1.77858">
        <ele>43</ele>
        <time>2018-04-21T14:14:17Z</time>
      </trkpt>
      <trkpt lat="46.71786" lon="-1.77863">
        <ele>43</ele>
        <time>2018-04-21T14:15:17Z</time>
      </trkpt>
      <trkpt lat="46.71802" lon="-1.77869">
        <ele>43</ele>
        <time>2018-04-21T14:16:17Z</time>
      </trkpt>
      <trkpt lat="46.71837" lon="-1.77881">
        <ele>43</ele>
        <time>2018-04-21T14:17:17Z</time>
      </trkpt>
      <trkpt lat="46.71883" lon="-1.77896">
        <ele>43</ele>
        <time>2018-04-21T14:18:17Z</time>
      </trkpt>
      <trkpt lat="46.71924" lon="-1.7791">
        <ele>43</ele>
        <time>2018-04-21T14:19:17Z</time>
      </trkpt>
      <trkpt lat="46.71976" lon="-1.77927">
        <ele>41</ele>
        <time>2018-04-21T14:20:17Z</time>
      </trkpt>
      <trkpt lat="46.72031" lon="-1.77946">
        <ele>41</ele>
        <time>2018-04-21T14:21:17Z</time>
      </trkpt>
      <trkpt lat="46.72085" lon="-1.77964">
        <ele>41</ele>
        <time>2018-04-21T14:22:17Z</time>
      </trkpt>
      <trkpt lat="46.7214" lon="-1.77982">
        <ele>41</ele>
        <time>2018-04-21T14:23:17Z</time>
      </trkpt>
      <trkpt lat="46.72151" lon="-1.77985">
        <ele>40</ele>
        <time>2018-04-21T14:24:17Z</time>
      </trkpt>
      <trkpt lat="46.72161" lon="-1.77989">
        <ele>40</ele>
        <time>2018-04-21T14:25:17Z</time>
      </trkpt>
      <trkpt lat="46.7217" lon="-1.77992">
        <ele>40</ele>
        <time>2018-04-21T14:26:17Z</time>
      </trkpt>
      <trkpt lat="46.72178" lon="-1.77996">
        <ele>40</ele>
        <time>2018-04-21T14:27:17Z</time>
      </trkpt>
      <trkpt lat="46.72186" lon="-1.77999">
        <ele>40</ele>
        <time>2018-04-21T14:28:17Z</time>
      </trkpt>
      <trkpt lat="46.72193" lon="-1.78003">
        <ele>40</ele>
        <time>2018-04-21T14:29:17Z</time>
      </trkpt>
      <trkpt lat="46.72201" lon="-1.78008">
        <ele>40</ele>
        <time>2018-04-21T14:30:17Z</time>
      </trkpt>
      <trkpt lat="46.72208" lon="-1.78012">
        <ele>40</ele>
        <time>2018-04-21T14:31:17Z</time>
      </trkpt>
      <trkpt lat="46.72216" lon="-1.78017">
        <ele>40</ele>
        <time>2018-04-21T14:32:17Z</time>
      </trkpt>
      <trkpt lat="46.72224" lon="-1.78023">
        <ele>40</ele>
        <time>2018-04-21T14:33:17Z</time>
      </trkpt>
      <trkpt lat="46.72231" lon="-1.78028">
        <ele>40</ele>
        <time>2018-04-21T14:34:17Z</time>
      </trkpt>
      <trkpt lat="46.72243" lon="-1.78038">
        <ele>40</ele>
        <time>2018-04-21T14:35:17Z</time>
      </trkpt>
      <trkpt lat="46.7227" lon="-1.78064">
        <ele>40</ele>
        <time>2018-04-21T14:36:17Z</time>
      </trkpt>
      <trkpt lat="46.72311" lon="-1.781">
        <ele>39</ele>
        <time>2018-04-21T14:37:17Z</time>
      </trkpt>
      <trkpt lat="46.72328" lon="-1.78116">
        <ele>39</ele>
        <time>2018-04-21T14:38:17Z</time>
      </trkpt>
      <trkpt lat="46.72345" lon="-1.78133">
        <ele>39</ele>
        <time>2018-04-21T14:39:17Z</time>
      </trkpt>
      <trkpt lat="46.72362" lon="-1.78149">
        <ele>39</ele>
        <time>2018-04-21T14:40:17Z</time>
      </trkpt>
      <trkpt lat="46.72371" lon="-1.78157">
        <ele>39</ele>
        <time>2018-04-21T14:41:17Z</time>
      </trkpt>
      <trkpt lat="46.7238" lon="-1.78166">
        <ele>40</ele>
        <time>2018-04-21T14:42:17Z</time>
      </trkpt>
      <trkpt lat="46.72389" lon="-1.78174">
        <ele>40</ele>
        <time>2018-04-21T14:43:17Z</time>
      </trkpt>
      <trkpt lat="46.72397" lon="-1.78181">
        <ele>40</ele>
        <time>2018-04-21T14:44:17Z</time>
      </trkpt>
      <trkpt lat="46.72407" lon="-1.78189">
        <ele>40</ele>
        <time>2018-04-21T14:45:17Z</time>
      </trkpt>
      <trkpt lat="46.72416" lon="-1.78196">
        <ele>40</ele>
        <time>2018-04-21T14:46:17Z</time>
      </trkpt>
      <trkpt lat="46.72425" lon="-1.78203">
        <ele>40</ele>
        <time>2018-04-21T14:47:17Z</time>
      </trkpt>
      <trkpt lat="46.72444" lon="-1.78215">
        <ele>39</ele>
        <time>2018-04-21T14:48:17Z</time>
      </trkpt>
      <trkpt lat="46.72464" lon="-1.78226">
        <ele>39</ele>
        <time>2018-04-21T14:49:17Z</time>
      </trkpt>
      <trkpt lat="46.72494" lon="-1.78242">
        <ele>39</ele>
        <time>2018-04-21T14:50:17Z</time>
      </trkpt>
      <trkpt lat="46.72514" lon="-1.78253">
        <ele>39</ele>
        <time>2018-04-21T14:51:17Z</time>
      </trkpt>
      <trkpt lat="46.72544" lon="-1.78269">
        <ele>38</ele>
        <time>2018-04-21T14:52:17Z</time>
      </trkpt>
      <trkpt lat="46.72605" lon="-1.78301">
        <ele>37</ele>
        <time>2018-04-21T14:53:17Z</time>
      </trkpt>
      <trkpt lat="46.72699" lon="-1.78352">
        <ele>35</ele>
        <time>2018-04-21T14:54:17Z</time>
      </trkpt>
      <trkpt lat="46.72756" lon="-1.78382">
        <ele>34</ele>
        <time>2018-04-21T14:55:17Z</time>
      </trkpt>
      <trkpt lat="46.72804" lon="-1.78406">
        <ele>34</ele>
        <time>2018-04-21T14:56:17Z</time>
      </trkpt>
      <trkpt lat="46.72851" lon="-1.78431">
        <ele>34</ele>
        <time>2018-04-21T14:57:17Z</time>
      </trkpt>
      <trkpt lat="46.72898" lon="-1.78456">
        <ele>33</ele>
        <time>2018-04-21T14:58:17Z</time>
      </trkpt>
      <trkpt lat="46.72925" lon="-1.7847">
        <ele>33</ele>
        <time>2018-04-21T14:59:17Z</time>
      </trkpt>
      <trkpt lat="46.72976" lon="-1.78497">
        <ele>33</ele>
        <time>2018-04-21T15:00:17Z</time>
      </trkpt>
      <trkpt lat="46.72987" lon="-1.78503">
        <ele>33</ele>
        <time>2018-04-21T15:01:17Z</time>
      </trkpt>
      <trkpt lat="46.73038" lon="-1.78529">
        <ele>31</ele>
        <time>2018-04-21T15:02:17Z</time>
      </trkpt>
      <trkpt lat="46.73069" lon="-1.78546">
        <ele>30</ele>
        <time>2018-04-21T15:03:17Z</time>
      </trkpt>
      <trkpt lat="46.73085" lon="-1.78556">
        <ele>30</ele>
        <time>2018-04-21T15:04:17Z</time>
      </trkpt>
      <trkpt lat="46.73094" lon="-1.78561">
        <ele>29</ele>
        <time>2018-04-21T15:05:17Z</time>
      </trkpt>
      <trkpt lat="46.73103" lon="-1.78568">
        <ele>29</ele>
        <time>2018-04-21T15:06:17Z</time>
      </trkpt>
      <trkpt lat="46.73112" lon="-1.78575">
        <ele>29</ele>
        <time>2018-04-21T15:07:17Z</time>
      </trkpt>
      <trkpt lat="46.73123" lon="-1.78584">
        <ele>29</ele>
        <time>2018-04-21T15:08:17Z</time>
      </trkpt>
      <trkpt lat="46.7314" lon="-1.78601">
        <ele>29</ele>
        <time>2018-04-21T15:09:17Z</time>
      </trkpt>
      <trkpt lat="46.73148" lon="-1.7861">
        <ele>29</ele>
        <time>2018-04-21T15:10:17Z</time>
      </trkpt>
      <trkpt lat="46.73168" lon="-1.78636">
        <ele>29</ele>
        <time>2018-04-21T15:11:17Z</time>
      </trkpt>
      <trkpt lat="46.73196" lon="-1.78675">
        <ele>28</ele>
        <time>2018-04-21T15:12:17Z</time>
      </trkpt>
      <trkpt lat="46.73209" lon="-1.78693">
        <ele>28</ele>
        <time>2018-04-21T15:13:17Z</time>
      </trkpt>
      <trkpt lat="46.73214" lon="-1.78699">
        <ele>27</ele>
        <time>2018-04-21T15:14:17Z</time>
      </trkpt>
      <trkpt lat="46.73227" lon="-1.78715">
        <ele>27</ele>
        <time>2018-04-21T15:15:17Z</time>
      </trkpt>
      <trkpt lat="46.73236" lon="-1.78725">
        <ele>27</ele>
        <time>2018-04-21T15:16:17Z</time>
      </trkpt>
      <trkpt lat="46.73246" lon="-1.78735">
        <ele>26</ele>
        <time>2018-04-21T15:17:17Z</time>
      </trkpt>
      <trkpt lat="46.73255" lon="-1.78741">
        <ele>26</ele>
        <time>2018-04-21T15:18:17Z</time>
      </trkpt>
      <trkpt lat="46.73266" lon="-1.78751">
        <ele>26</ele>
        <time>2018-04-21T15:19:17Z</time>
      </trkpt>
      <trkpt lat="46.73274" lon="-1.78757">
        <ele>26</ele>
        <time>2018-04-21T15:20:17Z</time>
      </trkpt>
      <trkpt lat="46.73293" lon="-1.78771">
        <ele>25</ele>
        <time>2018-04-21T15:21:17Z</time>
      </trkpt>
      <trkpt lat="46.73315" lon="-1.78784">
        <ele>25</ele>
        <time>2018-04-21T15:22:17Z</time>
      </trkpt>
      <trkpt lat="46.73367" lon="-1.78814">
        <ele>24</ele>
        <time>2018-04-21T15:23:17Z</time>
      </trkpt>
      <trkpt lat="46.73399" lon="-1.78833">
        <ele>23</ele>
        <time>2018-04-21T15:24:17Z</time>
      </trkpt>
      <trkpt lat="46.73424" lon="-1.78846">
        <ele>23</ele>
        <time>2018-04-21T15:25:17Z</time>
      </trkpt>
      <trkpt lat="46.73485" lon="-1.78881">
        <ele>21</ele>
        <time>2018-04-21T15:26:17Z</time>
      </trkpt>
      <trkpt lat="46.73546" lon="-1.78917">
        <ele>18</ele>
        <time>2018-04-21T15:27:17Z</time>
      </trkpt>
      <trkpt lat="46.73613" lon="-1.78956">
        <ele>16</ele>
        <time>2018-04-21T15:28:17Z</time>
      </trkpt>
      <trkpt lat="46.73661" lon="-1.78983">
        <ele>15</ele>
        <time>2018-04-21T15:29:17Z</time>
      </trkpt>
      <trkpt lat="46.73693" lon="-1.79002">
        <ele>15</ele>
        <time>2018-04-21T15:30:17Z</time>
      </trkpt>
      <trkpt lat="46.73734" lon="-1.79025">
        <ele>15</ele>
        <time>2018-04-21T15:31:17Z</time>
      </trkpt>
      <trkpt lat="46.73785" lon="-1.79055">
        <ele>16</ele>
        <time>2018-04-21T15:32:17Z</time>
      </trkpt>
      <trkpt lat="46.73838" lon="-1.79085">
        <ele>19</ele>
        <time>2018-04-21T15:33:17Z</time>
      </trkpt>
      <trkpt lat="46.73882" lon="-1.79111">
        <ele>20</ele>
        <time>2018-04-21T15:34:17Z</time>
      </trkpt>
      <trkpt lat="46.73901" lon="-1.79122">
        <ele>20</ele>
        <time>2018-04-21T15:35:17Z</time>
      </trkpt>
      <trkpt lat="46.73923" lon="-1.79134">
        <ele>21</ele>
        <time>2018-04-21T15:36:17Z</time>
      </trkpt>
      <trkpt lat="46.73937" lon="-1.79142">
        <ele>21</ele>
        <time>2018-04-21T15:37:17Z</time>
      </trkpt>
      <trkpt lat="46.73958" lon="-1.79151">
        <ele>22</ele>
        <time>2018-04-21T15:38:17Z</time>
      </trkpt>
      <trkpt lat="46.73974" lon="-1.79158">
        <ele>22</ele>
        <time>2018-04-21T15:39:17Z</time>
      </trkpt>
      <trkpt lat="46.73988" lon="-1.79165">
        <ele>23</ele>
        <time>2018-04-21T15:40:17Z</time>
      </trkpt>
      <trkpt lat="46.74001" lon="-1.7917">
        <ele>23</ele>
        <time>2018-04-21T15:41:17Z</time>
      </trkpt>
      <trkpt lat="46.74021" lon="-1.79176">
        <ele>23</ele>
        <time>2018-04-21T15:42:17Z</time>
      </trkpt>
      <trkpt lat="46.74023" lon="-1.79177">
        <ele>23</ele>
        <time>2018-04-21T15:43:17Z</time>
      </trkpt>
      <trkpt lat="46.74025" lon="-1.79178">
        <ele>23</ele>
        <time>2018-04-21T15:44:17Z</time>
      </trkpt>
      <trkpt lat="46.74035" lon="-1.79181">
        <ele>23</ele>
        <time>2018-04-21T15:45:17Z</time>
      </trkpt>
      <trkpt lat="46.74042" lon="-1.79183">
        <ele>23</ele>
        <time>2018-04-21T15:46:17Z</time>
      </trkpt>
      <trkpt lat="46.74063" lon="-1.7919">
        <ele>23</ele>
        <time>2018-04-21T15:47:17Z</time>
      </trkpt>
      <trkpt lat="46.74113" lon="-1.79206">
        <ele>24</ele>
        <time>2018-04-21T15:48:17Z</time>
      </trkpt>
      <trkpt lat="46.74136" lon="-1.79214">
        <ele>24</ele>
        <time>2018-04-21T15:49:17Z</time>
      </trkpt>
      <trkpt lat="46.74168" lon="-1.79223">
        <ele>24</ele>
        <time>2018-04-21T15:50:17Z</time>
      </trkpt>
      <trkpt lat="46.74221" lon="-1.79241">
        <ele>24</ele>
        <time>2018-04-21T15:51:17Z</time>
      </trkpt>
      <trkpt lat="46.74255" lon="-1.79251">
        <ele>23</ele>
        <time>2018-04-21T15:52:17Z</time>
      </trkpt>
      <trkpt lat="46.74283" lon="-1.79259">
        <ele>22</ele>
        <time>2018-04-21T15:53:17Z</time>
      </trkpt>
      <trkpt lat="46.7434" lon="-1.79276">
        <ele>21</ele>
        <time>2018-04-21T15:54:17Z</time>
      </trkpt>
      <trkpt lat="46.74356" lon="-1.79281">
        <ele>20</ele>
        <time>2018-04-21T15:55:17Z</time>
      </trkpt>
      <trkpt lat="46.74367" lon="-1.79285">
        <ele>20</ele>
        <time>2018-04-21T15:56:17Z</time>
      </trkpt>
      <trkpt lat="46.74378" lon="-1.79289">
        <ele>19</ele>
        <time>2018-04-21T15:57:17Z</time>
      </trkpt>
      <trkpt lat="46.74387" lon="-1.79294">
        <ele>19</ele>
        <time>2018-04-21T15:58:17Z</time>
      </trkpt>
      <trkpt lat="46.74396" lon="-1.79299">
        <ele>19</ele>
        <time>2018-04-21T15:59:17Z</time>
      </trkpt>
      <trkpt lat="46.74405" lon="-1.79304">
        <ele>19</ele>
        <time>2018-04-21T16:00:17Z</time>
      </trkpt>
      <trkpt lat="46.74416" lon="-1.79313">
        <ele>19</ele>
        <time>2018-04-21T16:01:17Z</time>
      </trkpt>
      <trkpt lat="46.7442" lon="-1.79317">
        <ele>19</ele>
        <time>2018-04-21T16:02:17Z</time>
      </trkpt>
      <trkpt lat="46.74423" lon="-1.7932">
        <ele>18</ele>
        <time>2018-04-21T16:03:17Z</time>
      </trkpt>
      <trkpt lat="46.74426" lon="-1.79323">
        <ele>18</ele>
        <time>2018-04-21T16:04:17Z</time>
      </trkpt>
      <trkpt lat="46.74439" lon="-1.79337">
        <ele>18</ele>
        <time>2018-04-21T16:05:17Z</time>
      </trkpt>
      <trkpt lat="46.74452" lon="-1.79353">
        <ele>18</ele>
        <time>2018-04-21T16:06:17Z</time>
      </trkpt>
      <trkpt lat="46.74469" lon="-1.79377">
        <ele>17</ele>
        <time>2018-04-21T16:07:17Z</time>
      </trkpt>
      <trkpt lat="46.7449" lon="-1.79409">
        <ele>17</ele>
        <time>2018-04-21T16:08:17Z</time>
      </trkpt>
      <trkpt lat="46.74528" lon="-1.79473">
        <ele>16</ele>
        <time>2018-04-21T16:09:17Z</time>
      </trkpt>
      <trkpt lat="46.74548" lon="-1.79503">
        <ele>15</ele>
        <time>2018-04-21T16:10:17Z</time>
      </trkpt>
      <trkpt lat="46.74552" lon="-1.7951">
        <ele>15</ele>
        <time>2018-04-21T16:11:17Z</time>
      </trkpt>
      <trkpt lat="46.74557" lon="-1.79518">
        <ele>15</ele>
        <time>2018-04-21T16:12:17Z</time>
      </trkpt>
      <trkpt lat="46.74562" lon="-1.79524">
        <ele>15</ele>
        <time>2018-04-21T16:13:17Z</time>
      </trkpt>
      <trkpt lat="46.7457" lon="-1.79535">
        <ele>15</ele>
        <time>2018-04-21T16:14:17Z</time>
      </trkpt>
      <trkpt lat="46.74575" lon="-1.7954">
        <ele>15</ele>
        <time>2018-04-21T16:15:17Z</time>
      </trkpt>
      <trkpt lat="46.7458" lon="-1.79546">
        <ele>15</ele>
        <time>2018-04-21T16:16:17Z</time>
      </trkpt>
      <trkpt lat="46.74581" lon="-1.79547">
        <ele>15</ele>
        <time>2018-04-21T16:17:17Z</time>
      </trkpt>
      <trkpt lat="46.74592" lon="-1.79558">
        <ele>15</ele>
        <time>2018-04-21T16:18:17Z</time>
      </trkpt>
      <trkpt lat="46.74594" lon="-1.79561">
        <ele>15</ele>
        <time>2018-04-21T16:19:17Z</time>
      </trkpt>
      <trkpt lat="46.7461" lon="-1.79577">
        <ele>15</ele>
        <time>2018-04-21T16:20:17Z</time>
      </trkpt>
      <trkpt lat="46.74626" lon="-1.7959">
        <ele>15</ele>
        <time>2018-04-21T16:21:17Z</time>
      </trkpt>
      <trkpt lat="46.74636" lon="-1.79599">
        <ele>14</ele>
        <time>2018-04-21T16:22:17Z</time>
      </trkpt>
      <trkpt lat="46.74653" lon="-1.79613">
        <ele>14</ele>
        <time>2018-04-21T16:23:17Z</time>
      </trkpt>
      <trkpt lat="46.74682" lon="-1.79636">
        <ele>13</ele>
        <time>2018-04-21T16:24:17Z</time>
      </trkpt>
      <trkpt lat="46.74687" lon="-1.79641">
        <ele>13</ele>
        <time>2018-04-21T16:25:17Z</time>
      </trkpt>
      <trkpt lat="46.74714" lon="-1.79662">
        <ele>12</ele>
        <time>2018-04-21T16:26:17Z</time>
      </trkpt>
      <trkpt lat="46.74738" lon="-1.79679">
        <ele>10</ele>
        <time>2018-04-21T16:27:17Z</time>
      </trkpt>
      <trkpt lat="46.74751" lon="-1.79688">
        <ele>9</ele>
        <time>2018-04-21T16:28:17Z</time>
      </trkpt>
      <trkpt lat="46.74757" lon="-1.79692">
        <ele>9</ele>
        <time>2018-04-21T16:29:17Z</time>
      </trkpt>
      <trkpt lat="46.74766" lon="-1.79697">
        <ele>9</ele>
        <time>2018-04-21T16:30:17Z</time>
      </trkpt>
      <trkpt lat="46.74774" lon="-1.79701">
        <ele>8</ele>
        <time>2018-04-21T16:31:17Z</time>
      </trkpt>
      <trkpt lat="46.74784" lon="-1.79705">
        <ele>8</ele>
        <time>2018-04-21T16:32:17Z</time>
      </trkpt>
      <trkpt lat="46.74785" lon="-1.79706">
        <ele>8</ele>
        <time>2018-04-21T16:33:17Z</time>
      </trkpt>
      <trkpt lat="46.74801" lon="-1.79712">
        <ele>7</ele>
        <time>2018-04-21T16:34:17Z</time>
      </trkpt>
      <trkpt lat="46.74807" lon="-1.79714">
        <ele>7</ele>
        <time>2018-04-21T16:35:17Z</time>
      </trkpt>
      <trkpt lat="46.74816" lon="-1.79716">
        <ele>7</ele>
        <time>2018-04-21T16:36:17Z</time>
      </trkpt>
      <trkpt lat="46.74825" lon="-1.79719">
        <ele>7</ele>
        <time>2018-04-21T16:37:17Z</time>
      </trkpt>
      <trkpt lat="46.74831" lon="-1.7972">
        <ele>6</ele>
        <time>2018-04-21T16:38:17Z</time>
      </trkpt>
      <trkpt lat="46.74836" lon="-1.79722">
        <ele>6</ele>
        <time>2018-04-21T16:39:17Z</time>
      </trkpt>
      <trkpt lat="46.74838" lon="-1.79723">
        <ele>6</ele>
        <time>2018-04-21T16:40:17Z</time>
      </trkpt>
      <trkpt lat="46.74849" lon="-1.79726">
        <ele>6</ele>
        <time>2018-04-21T16:41:17Z</time>
      </trkpt>
      <trkpt lat="46.74857" lon="-1.79731">
        <ele>6</ele>
        <time>2018-04-21T16:42:17Z</time>
      </trkpt>
      <trkpt lat="46.74866" lon="-1.79737">
        <ele>6</ele>
        <time>2018-04-21T16:43:17Z</time>
      </trkpt>
      <trkpt lat="46.74873" lon="-1.79744">
        <ele>6</ele>
        <time>2018-04-21T16:44:17Z</time>
      </trkpt>
      <trkpt lat="46.7488" lon="-1.79751">
        <ele>6</ele>
        <time>2018-04-21T16:45:17Z</time>
      </trkpt>
      <trkpt lat="46.74887" lon="-1.79761">
        <ele>6</ele>
        <time>2018-04-21T16:46:17Z</time>
      </trkpt>
      <trkpt lat="46.74895" lon="-1.79771">
        <ele>6</ele>
        <time>2018-04-21T16:47:17Z</time>
      </trkpt>
      <trkpt lat="46.74927" lon="-1.79817">
        <ele>6</ele>
        <time>2018-04-21T16:48:17Z</time>
      </trkpt>
      <trkpt lat="46.74954" lon="-1.79854">
        <ele>7</ele>
        <time>2018-04-21T16:49:17Z</time>
      </trkpt>
      <trkpt lat="46.74974" lon="-1.79884">
        <ele>9</ele>
        <time>2018-04-21T16:50:17Z</time>
      </trkpt>
      <trkpt lat="46.74981" lon="-1.79895">
        <ele>10</ele>
        <time>2018-04-21T16:51:17Z</time>
      </trkpt>
      <trkpt lat="46.74988" lon="-1.79908">
        <ele>10</ele>
        <time>2018-04-21T16:52:17Z</time>
      </trkpt>
      <trkpt lat="46.74997" lon="-1.79926">
        <ele>11</ele>
        <time>2018-04-21T16:53:17Z</time>
      </trkpt>
      <trkpt lat="46.75004" lon="-1.79943">
        <ele>12</ele>
        <time>2018-04-21T16:54:17Z</time>
      </trkpt>
      <trkpt lat="46.75011" lon="-1.79963">
        <ele>12</ele>
        <time>2018-04-21T16:55:17Z</time>
      </trkpt>
      <trkpt lat="46.75017" lon="-1.79991">
        <ele>13</ele>
        <time>2018-04-21T16:56:17Z</time>
      </trkpt>
      <trkpt lat="46.75021" lon="-1.80014">
        <ele>13</ele>
        <time>2018-04-21T16:57:17Z</time>
      </trkpt>
      <trkpt lat="46.75026" lon="-1.80044">
        <ele>13</ele>
        <time>2018-04-21T16:58:17Z</time>
      </trkpt>
      <trkpt lat="46.75034" lon="-1.80092">
        <ele>12</ele>
        <time>2018-04-21T16:59:17Z</time>
      </trkpt>
      <trkpt lat="46.75039" lon="-1.80125">
        <ele>12</ele>
        <time>2018-04-21T17:00:17Z</time>
      </trkpt>
      <trkpt lat="46.75039" lon="-1.80127">
        <ele>12</ele>
        <time>2018-04-21T17:01:17Z</time>
      </trkpt>
      <trkpt lat="46.75048" lon="-1.8018">
        <ele>13</ele>
        <time>2018-04-21T17:02:17Z</time>
      </trkpt>
      <trkpt lat="46.75055" lon="-1.80218">
        <ele>15</ele>
        <time>2018-04-21T17:03:17Z</time>
      </trkpt>
      <trkpt lat="46.75059" lon="-1.80247">
        <ele>16</ele>
        <time>2018-04-21T17:04:17Z</time>
      </trkpt>
      <trkpt lat="46.75066" lon="-1.80298">
        <ele>16</ele>
        <time>2018-04-21T17:05:17Z</time>
      </trkpt>
      <trkpt lat="46.75066" lon="-1.803">
        <ele>16</ele>
        <time>2018-04-21T17:06:17Z</time>
      </trkpt>
      <trkpt lat="46.75079" lon="-1.8038">
        <ele>15</ele>
        <time>2018-04-21T17:07:17Z</time>
      </trkpt>
      <trkpt lat="46.75088" lon="-1.80437">
        <ele>14</ele>
        <time>2018-04-21T17:08:17Z</time>
      </trkpt>
      <trkpt lat="46.75097" lon="-1.80489">
        <ele>15</ele>
        <time>2018-04-21T17:09:17Z</time>
      </trkpt>
      <trkpt lat="46.75102" lon="-1.80526">
        <ele>14</ele>
        <time>2018-04-21T17:10:17Z</time>
      </trkpt>
      <trkpt lat="46.75113" lon="-1.80589">
        <ele>14</ele>
        <time>2018-04-21T17:11:17Z</time>
      </trkpt>
      <trkpt lat="46.75115" lon="-1.80604">
        <ele>13</ele>
        <time>2018-04-21T17:12:17Z</time>
      </trkpt>
      <trkpt lat="46.75127" lon="-1.80676">
        <ele>11</ele>
        <time>2018-04-21T17:13:17Z</time>
      </trkpt>
      <trkpt lat="46.7513" lon="-1.80699">
        <ele>11</ele>
        <time>2018-04-21T17:14:17Z</time>
      </trkpt>
      <trkpt lat="46.75135" lon="-1.8073">
        <ele>11</ele>
        <time>2018-04-21T17:15:17Z</time>
      </trkpt>
      <trkpt lat="46.75144" lon="-1.80784">
        <ele>11</ele>
        <time>2018-04-21T17:16:17Z</time>
      </trkpt>
      <trkpt lat="46.75157" lon="-1.80862">
        <ele>11</ele>
        <time>2018-04-21T17:17:17Z</time>
      </trkpt>
      <trkpt lat="46.75169" lon="-1.80939">
        <ele>11</ele>
        <time>2018-04-21T17:18:17Z</time>
      </trkpt>
      <trkpt lat="46.75185" lon="-1.81037">
        <ele>10</ele>
        <time>2018-04-21T17:19:17Z</time>
      </trkpt>
      <trkpt lat="46.75195" lon="-1.81098">
        <ele>10</ele>
        <time>2018-04-21T17:20:17Z</time>
      </trkpt>
      <trkpt lat="46.752" lon="-1.81132">
        <ele>10</ele>
        <time>2018-04-21T17:21:17Z</time>
      </trkpt>
      <trkpt lat="46.75204" lon="-1.81152">
        <ele>10</ele>
        <time>2018-04-21T17:22:17Z</time>
      </trkpt>
      <trkpt lat="46.75207" lon="-1.81169">
        <ele>10</ele>
        <time>2018-04-21T17:23:17Z</time>
      </trkpt>
      <trkpt lat="46.7521" lon="-1.81184">
        <ele>10</ele>
        <time>2018-04-21T17:24:17Z</time>
      </trkpt>
      <trkpt lat="46.75215" lon="-1.81201">
        <ele>10</ele>
        <time>2018-04-21T17:25:17Z</time>
      </trkpt>
      <trkpt lat="46.7522" lon="-1.81224">
        <ele>10</ele>
        <time>2018-04-21T17:26:17Z</time>
      </trkpt>
      <trkpt lat="46.75226" lon="-1.81242">
        <ele>10</ele>
        <time>2018-04-21T17:27:17Z</time>
      </trkpt>
      <trkpt lat="46.75244" lon="-1.81293">
        <ele>10</ele>
        <time>2018-04-21T17:28:17Z</time>
      </trkpt>
      <trkpt lat="46.75256" lon="-1.81322">
        <ele>10</ele>
        <time>2018-04-21T17:29:17Z</time>
      </trkpt>
      <trkpt lat="46.75272" lon="-1.81358">
        <ele>10</ele>
        <time>2018-04-21T17:30:17Z</time>
      </trkpt>
      <trkpt lat="46.75278" lon="-1.81373">
        <ele>10</ele>
        <time>2018-04-21T17:31:17Z</time>
      </trkpt>
      <trkpt lat="46.75311" lon="-1.81446">
        <ele>9</ele>
        <time>2018-04-21T17:32:17Z</time>
      </trkpt>
      <trkpt lat="46.7533" lon="-1.81491">
        <ele>9</ele>
        <time>2018-04-21T17:33:17Z</time>
      </trkpt>
      <trkpt lat="46.75354" lon="-1.81545">
        <ele>8</ele>
        <time>2018-04-21T17:34:17Z</time>
      </trkpt>
      <trkpt lat="46.75378" lon="-1.81599">
        <ele>9</ele>
        <time>2018-04-21T17:35:17Z</time>
      </trkpt>
      <trkpt lat="46.75399" lon="-1.81648">
        <ele>9</ele>
        <time>2018-04-21T17:36:17Z</time>
      </trkpt>
      <trkpt lat="46.75429" lon="-1.81716">
        <ele>9</ele>
        <time>2018-04-21T17:37:17Z</time>
      </trkpt>
      <trkpt lat="46.75447" lon="-1.81754">
        <ele>9</ele>
        <time>2018-04-21T17:38:17Z</time>
      </trkpt>
      <trkpt lat="46.75456" lon="-1.81772">
        <ele>9</ele>
        <time>2018-04-21T17:39:17Z</time>
      </trkpt>
      <trkpt lat="46.7546" lon="-1.81778">
        <ele>9</ele>
        <time>2018-04-21T17:40:17Z</time>
      </trkpt>
      <trkpt lat="46.75467" lon="-1.8179">
        <ele>9</ele>
        <time>2018-04-21T17:41:17Z</time>
      </trkpt>
      <trkpt lat="46.75474" lon="-1.81802">
        <ele>9</ele>
        <time>2018-04-21T17:42:17Z</time>
      </trkpt>
      <trkpt lat="46.75484" lon="-1.81816">
        <ele>9</ele>
        <time>2018-04-21T17:43:17Z</time>
      </trkpt>
      <trkpt lat="46.75493" lon="-1.81829">
        <ele>9</ele>
        <time>2018-04-21T17:44:17Z</time>
      </trkpt>
      <trkpt lat="46.75502" lon="-1.8184">
        <ele>9</ele>
        <time>2018-04-21T17:45:17Z</time>
      </trkpt>
      <trkpt lat="46.75509" lon="-1.8185">
        <ele>9</ele>
        <time>2018-04-21T17:46:17Z</time>
      </trkpt>
      <trkpt lat="46.75516" lon="-1.81858">
        <ele>9</ele>
        <time>2018-04-21T17:47:17Z</time>
      </trkpt>
      <trkpt lat="46.75525" lon="-1.81869">
        <ele>8</ele>
        <time>2018-04-21T17:48:17Z</time>
      </trkpt>
      <trkpt lat="46.75533" lon="-1.81879">
        <ele>8</ele>
        <time>2018-04-21T17:49:17Z</time>
      </trkpt>
      <trkpt lat="46.75541" lon="-1.81887">
        <ele>8</ele>
        <time>2018-04-21T17:50:17Z</time>
      </trkpt>
      <trkpt lat="46.7555" lon="-1.81896">
        <ele>8</ele>
        <time>2018-04-21T17:51:17Z</time>
      </trkpt>
      <trkpt lat="46.75582" lon="-1.81925">
        <ele>7</ele>
        <time>2018-04-21T17:52:17Z</time>
      </trkpt>
      <trkpt lat="46.75614" lon="-1.81951">
        <ele>6</ele>
        <time>2018-04-21T17:53:17Z</time>
      </trkpt>
      <trkpt lat="46.75644" lon="-1.81975">
        <ele>6</ele>
        <time>2018-04-21T17:54:17Z</time>
      </trkpt>
      <trkpt lat="46.75704" lon="-1.82024">
        <ele>6</ele>
        <time>2018-04-21T17:55:17Z</time>
      </trkpt>
      <trkpt lat="46.75739" lon="-1.82054">
        <ele>7</ele>
        <time>2018-04-21T17:56:17Z</time>
      </trkpt>
      <trkpt lat="46.75767" lon="-1.82077">
        <ele>7</ele>
        <time>2018-04-21T17:57:17Z</time>
      </trkpt>
      <trkpt lat="46.75783" lon="-1.8209">
        <ele>7</ele>
        <time>2018-04-21T17:58:17Z</time>
      </trkpt>
      <trkpt lat="46.75796" lon="-1.82103">
        <ele>7</ele>
        <time>2018-04-21T17:59:17Z</time>
      </trkpt>
      <trkpt lat="46.75806" lon="-1.82114">
        <ele>7</ele>
        <time>2018-04-21T18:00:17Z</time>
      </trkpt>
      <trkpt lat="46.75815" lon="-1.82124">
        <ele>7</ele>
        <time>2018-04-21T18:01:17Z</time>
      </trkpt>
      <trkpt lat="46.75824" lon="-1.82136">
        <ele>7</ele>
        <time>2018-04-21T18:02:17Z</time>
      </trkpt>
      <trkpt lat="46.7583" lon="-1.82144">
        <ele>7</ele>
        <time>2018-04-21T18:03:17Z</time>
      </trkpt>
      <trkpt lat="46.7584" lon="-1.82159">
        <ele>7</ele>
        <time>2018-04-21T18:04:17Z</time>
      </trkpt>
      <trkpt lat="46.7585" lon="-1.82177">
        <ele>7</ele>
        <time>2018-04-21T18:05:17Z</time>
      </trkpt>
      <trkpt lat="46.75858" lon="-1.82191">
        <ele>7</ele>
        <time>2018-04-21T18:06:17Z</time>
      </trkpt>
      <trkpt lat="46.75867" lon="-1.82208">
        <ele>7</ele>
        <time>2018-04-21T18:07:17Z</time>
      </trkpt>
      <trkpt lat="46.75877" lon="-1.8223">
        <ele>7</ele>
        <time>2018-04-21T18:08:17Z</time>
      </trkpt>
      <trkpt lat="46.75883" lon="-1.82246">
        <ele>7</ele>
        <time>2018-04-21T18:09:17Z</time>
      </trkpt>
      <trkpt lat="46.75884" lon="-1.82249">
        <ele>7</ele>
        <time>2018-04-21T18:10:17Z</time>
      </trkpt>
      <trkpt lat="46.75886" lon="-1.82253">
        <ele>7</ele>
        <time>2018-04-21T18:11:17Z</time>
      </trkpt>
      <trkpt lat="46.75889" lon="-1.82262">
        <ele>7</ele>
        <time>2018-04-21T18:12:17Z</time>
      </trkpt>
      <trkpt lat="46.75893" lon="-1.82273">
        <ele>7</ele>
        <time>2018-04-21T18:13:17Z</time>
      </trkpt>
      <trkpt lat="46.75897" lon="-1.82285">
        <ele>7</ele>
        <time>2018-04-21T18:14:17Z</time>
      </trkpt>
      <trkpt lat="46.759" lon="-1.82298">
        <ele>7</ele>
        <time>2018-04-21T18:15:17Z</time>
      </trkpt>
      <trkpt lat="46.75905" lon="-1.82318">
        <ele>7</ele>
        <time>2018-04-21T18:16:17Z</time>
      </trkpt>
      <trkpt lat="46.75908" lon="-1.82329">
        <ele>7</ele>
        <time>2018-04-21T18:17:17Z</time>
      </trkpt>
      <trkpt lat="46.75913" lon="-1.82347">
        <ele>7</ele>
        <time>2018-04-21T18:18:17Z</time>
      </trkpt>
      <trkpt lat="46.75923" lon="-1.82387">
        <ele>7</ele>
        <time>2018-04-21T18:19:17Z</time>
      </trkpt>
      <trkpt lat="46.75946" lon="-1.82477">
        <ele>7</ele>
        <time>2018-04-21T18:20:17Z</time>
      </trkpt>
      <trkpt lat="46.75964" lon="-1.82552">
        <ele>8</ele>
        <time>2018-04-21T18:21:17Z</time>
      </trkpt>
      <trkpt lat="46.7598" lon="-1.82616">
        <ele>8</ele>
        <time>2018-04-21T18:22:17Z</time>
      </trkpt>
      <trkpt lat="46.75996" lon="-1.82677">
        <ele>8</ele>
        <time>2018-04-21T18:23:17Z</time>
      </trkpt>
      <trkpt lat="46.76007" lon="-1.8272">
        <ele>8</ele>
        <time>2018-04-21T18:24:17Z</time>
      </trkpt>
      <trkpt lat="46.7601" lon="-1.82731">
        <ele>8</ele>
        <time>2018-04-21T18:25:17Z</time>
      </trkpt>
      <trkpt lat="46.76021" lon="-1.82775">
        <ele>8</ele>
        <time>2018-04-21T18:26:17Z</time>
      </trkpt>
      <trkpt lat="46.76023" lon="-1.82781">
        <ele>8</ele>
        <time>2018-04-21T18:27:17Z</time>
      </trkpt>
      <trkpt lat="46.76032" lon="-1.82816">
        <ele>8</ele>
        <time>2018-04-21T18:28:17Z</time>
      </trkpt>
      <trkpt lat="46.76041" lon="-1.82855">
        <ele>8</ele>
        <time>2018-04-21T18:29:17Z</time>
      </trkpt>
      <trkpt lat="46.76055" lon="-1.82908">
        <ele>7</ele>
        <time>2018-04-21T18:30:17Z</time>
      </trkpt>
      <trkpt lat="46.76062" lon="-1.82937">
        <ele>8</ele>
        <time>2018-04-21T18:31:17Z</time>
      </trkpt>
      <trkpt lat="46.76069" lon="-1.82964">
        <ele>9</ele>
        <time>2018-04-21T18:32:17Z</time>
      </trkpt>
      <trkpt lat="46.76083" lon="-1.8302">
        <ele>11</ele>
        <time>2018-04-21T18:33:17Z</time>
      </trkpt>
      <trkpt lat="46.76093" lon="-1.83059">
        <ele>12</ele>
        <time>2018-04-21T18:34:17Z</time>
      </trkpt>
      <trkpt lat="46.76103" lon="-1.83097">
        <ele>13</ele>
        <time>2018-04-21T18:35:17Z</time>
      </trkpt>
      <trkpt lat="46.76113" lon="-1.83134">
        <ele>13</ele>
        <time>2018-04-21T18:36:17Z</time>
      </trkpt>
      <trkpt lat="46.76126" lon="-1.83183">
        <ele>13</ele>
        <time>2018-04-21T18:37:17Z</time>
      </trkpt>
      <trkpt lat="46.76134" lon="-1.83214">
        <ele>14</ele>
        <time>2018-04-21T18:38:17Z</time>
      </trkpt>
      <trkpt lat="46.76137" lon="-1.83226">
        <ele>14</ele>
        <time>2018-04-21T18:39:17Z</time>
      </trkpt>
      <trkpt lat="46.76147" lon="-1.83267">
        <ele>15</ele>
        <time>2018-04-21T18:40:17Z</time>
      </trkpt>
      <trkpt lat="46.76155" lon="-1.83296">
        <ele>15</ele>
        <time>2018-04-21T18:41:17Z</time>
      </trkpt>
      <trkpt lat="46.76165" lon="-1.83332">
        <ele>16</ele>
        <time>2018-04-21T18:42:17Z</time>
      </trkpt>
      <trkpt lat="46.76182" lon="-1.834">
        <ele>17</ele>
        <time>2018-04-21T18:43:17Z</time>
      </trkpt>
      <trkpt lat="46.76187" lon="-1.83416">
        <ele>17</ele>
        <time>2018-04-21T18:44:17Z</time>
      </trkpt>
      <trkpt lat="46.76199" lon="-1.83463">
        <ele>17</ele>
        <time>2018-04-21T18:45:17Z</time>
      </trkpt>
      <trkpt lat="46.76211" lon="-1.8351">
        <ele>17</ele>
        <time>2018-04-21T18:46:17Z</time>
      </trkpt>
      <trkpt lat="46.76221" lon="-1.83549">
        <ele>17</ele>
        <time>2018-04-21T18:47:17Z</time>
      </trkpt>
      <trkpt lat="46.76223" lon="-1.83558">
        <ele>17</ele>
        <time>2018-04-21T18:48:17Z</time>
      </trkpt>
      <trkpt lat="46.76229" lon="-1.83581">
        <ele>17</ele>
        <time>2018-04-21T18:49:17Z</time>
      </trkpt>
      <trkpt lat="46.76232" lon="-1.83593">
        <ele>17</ele>
        <time>2018-04-21T18:50:17Z</time>
      </trkpt>
      <trkpt lat="46.76235" lon="-1.83602">
        <ele>18</ele>
        <time>2018-04-21T18:51:17Z</time>
      </trkpt>
      <trkpt lat="46.76236" lon="-1.83607">
        <ele>18</ele>
        <time>2018-04-21T18:52:17Z</time>
      </trkpt>
      <trkpt lat="46.76241" lon="-1.83628">
        <ele>18</ele>
        <time>2018-04-21T18:53:17Z</time>
      </trkpt>
      <trkpt lat="46.76242" lon="-1.83635">
        <ele>18</ele>
        <time>2018-04-21T18:54:17Z</time>
      </trkpt>
      <trkpt lat="46.76244" lon="-1.83645">
        <ele>18</ele>
        <time>2018-04-21T18:55:17Z</time>
      </trkpt>
      <trkpt lat="46.76245" lon="-1.83656">
        <ele>19</ele>
        <time>2018-04-21T18:56:17Z</time>
      </trkpt>
      <trkpt lat="46.76247" lon="-1.83667">
        <ele>19</ele>
        <time>2018-04-21T18:57:17Z</time>
      </trkpt>
      <trkpt lat="46.76247" lon="-1.83667">
        <ele>19</ele>
        <time>2018-04-21T18:58:17Z</time>
      </trkpt>
      <trkpt lat="46.7624" lon="-1.83666">
        <ele>19</ele>
        <time>2018-04-21T18:59:17Z</time>
      </trkpt>
      <trkpt lat="46.76234" lon="-1.83668">
        <ele>19</ele>
        <time>2018-04-21T19:00:17Z</time>
      </trkpt>
      <trkpt lat="46.76226" lon="-1.83672">
        <ele>19</ele>
        <time>2018-04-21T19:01:17Z</time>
      </trkpt>
      <trkpt lat="46.76218" lon="-1.83677">
        <ele>19</ele>
        <time>2018-04-21T19:02:17Z</time>
      </trkpt>
      <trkpt lat="46.76212" lon="-1.83682">
        <ele>19</ele>
        <time>2018-04-21T19:03:17Z</time>
      </trkpt>
      <trkpt lat="46.7621" lon="-1.83684">
        <ele>19</ele>
        <time>2018-04-21T19:04:17Z</time>
      </trkpt>
      <trkpt lat="46.76207" lon="-1.83687">
        <ele>19</ele>
        <time>2018-04-21T19:05:17Z</time>
      </trkpt>
      <trkpt lat="46.762" lon="-1.83696">
        <ele>19</ele>
        <time>2018-04-21T19:06:17Z</time>
      </trkpt>
      <trkpt lat="46.76195" lon="-1.83703">
        <ele>19</ele>
        <time>2018-04-21T19:07:17Z</time>
      </trkpt>
      <trkpt lat="46.76191" lon="-1.8371">
        <ele>19</ele>
        <time>2018-04-21T19:08:17Z</time>
      </trkpt>
      <trkpt lat="46.76186" lon="-1.83718">
        <ele>19</ele>
        <time>2018-04-21T19:09:17Z</time>
      </trkpt>
      <trkpt lat="46.76182" lon="-1.83724">
        <ele>20</ele>
        <time>2018-04-21T19:10:17Z</time>
      </trkpt>
      <trkpt lat="46.76182" lon="-1.83724">
        <ele>20</ele>
        <time>2018-04-21T19:11:17Z</time>
      </trkpt>
      <trkpt lat="46.76184" lon="-1.8373">
        <ele>20</ele>
        <time>2018-04-21T19:12:17Z</time>
      </trkpt>
      <trkpt lat="46.76187" lon="-1.83737">
        <ele>20</ele>
        <time>2018-04-21T19:13:17Z</time>
      </trkpt>
      <trkpt lat="46.76191" lon="-1.83745">
        <ele>20</ele>
        <time>2018-04-21T19:14:17Z</time>
      </trkpt>
      <trkpt lat="46.76194" lon="-1.83752">
        <ele>20</ele>
        <time>2018-04-21T19:15:17Z</time>
      </trkpt>
      <trkpt lat="46.76196" lon="-1.8376">
        <ele>20</ele>
        <time>2018-04-21T19:16:17Z</time>
      </trkpt>
      <trkpt lat="46.76198" lon="-1.83765">
        <ele>20</ele>
        <time>2018-04-21T19:17:17Z</time>
      </trkpt>
      <trkpt lat="46.762" lon="-1.8377">
        <ele>20</ele>
        <time>2018-04-21T19:18:17Z</time>
      </trkpt>
      <trkpt lat="46.76202" lon="-1.83774">
        <ele>20</ele>
        <time>2018-04-21T19:19:17Z</time>
      </trkpt>
      <trkpt lat="46.76205" lon="-1.8378">
        <ele>20</ele>
        <time>2018-04-21T19:20:17Z</time>
      </trkpt>
      <trkpt lat="46.76213" lon="-1.83788">
        <ele>20</ele>
        <time>2018-04-21T19:21:17Z</time>
      </trkpt>
      <trkpt lat="46.76219" lon="-1.83793">
        <ele>20</ele>
        <time>2018-04-21T19:22:17Z</time>
      </trkpt>
      <trkpt lat="46.76223" lon="-1.83795">
        <ele>19</ele>
        <time>2018-04-21T19:23:17Z</time>
      </trkpt>
      <trkpt lat="46.76234" lon="-1.83801">
        <ele>19</ele>
        <time>2018-04-21T19:24:17Z</time>
      </trkpt>
      <trkpt lat="46.76246" lon="-1.83807">
        <ele>19</ele>
        <time>2018-04-21T19:25:17Z</time>
      </trkpt>
      <trkpt lat="46.7625" lon="-1.83809">
        <ele>19</ele>
        <time>2018-04-21T19:26:17Z</time>
      </trkpt>
      <trkpt lat="46.7626" lon="-1.83813">
        <ele>19</ele>
        <time>2018-04-21T19:27:17Z</time>
      </trkpt>
      <trkpt lat="46.76284" lon="-1.83821">
        <ele>19</ele>
        <time>2018-04-21T19:28:17Z</time>
      </trkpt>
      <trkpt lat="46.76308" lon="-1.8383">
        <ele>18</ele>
        <time>2018-04-21T19:29:17Z</time>
      </trkpt>
      <trkpt lat="46.76339" lon="-1.83843">
        <ele>18</ele>
        <time>2018-04-21T19:30:17Z</time>
      </trkpt>
      <trkpt lat="46.76352" lon="-1.83849">
        <ele>18</ele>
        <time>2018-04-21T19:31:17Z</time>
      </trkpt>
      <trkpt lat="46.76361" lon="-1.83852">
        <ele>18</ele>
        <time>2018-04-21T19:32:17Z</time>
      </trkpt>
      <trkpt lat="46.76371" lon="-1.83854">
        <ele>18</ele>
        <time>2018-04-21T19:33:17Z</time>
      </trkpt>
      <trkpt lat="46.76376" lon="-1.83855">
        <ele>18</ele>
        <time>2018-04-21T19:34:17Z</time>
      </trkpt>
      <trkpt lat="46.76381" lon="-1.83852">
        <ele>18</ele>
        <time>2018-04-21T19:35:17Z</time>
      </trkpt>
      <trkpt lat="46.76387" lon="-1.83854">
        <ele>18</ele>
        <time>2018-04-21T19:36:17Z</time>
      </trkpt>
      <trkpt lat="46.76399" lon="-1.83855">
        <ele>19</ele>
        <time>2018-04-21T19:37:17Z</time>
      </trkpt>
      <trkpt lat="46.76419" lon="-1.83856">
        <ele>19</ele>
        <time>2018-04-21T19:38:17Z</time>
      </trkpt>
      <trkpt lat="46.76426" lon="-1.83857">
        <ele>19</ele>
        <time>2018-04-21T19:39:17Z</time>
      </trkpt>
      <trkpt lat="46.76429" lon="-1.8386">
        <ele>19</ele>
        <time>2018-04-21T19:40:17Z</time>
      </trkpt>
      <trkpt lat="46.76437" lon="-1.83861">
        <ele>19</ele>
        <time>2018-04-21T19:41:17Z</time>
      </trkpt>
      <trkpt lat="46.76442" lon="-1.83862">
        <ele>19</ele>
        <time>2018-04-21T19:42:17Z</time>
      </trkpt>
      <trkpt lat="46.76446" lon="-1.83862">
        <ele>19</ele>
        <time>2018-04-21T19:43:17Z</time>
      </trkpt>
      <trkpt lat="46.76463" lon="-1.83864">
        <ele>19</ele>
        <time>2018-04-21T19:44:17Z</time>
      </trkpt>
      <trkpt lat="46.76485" lon="-1.83866">
        <ele>19</ele>
        <time>2018-04-21T19:45:17Z</time>
      </trkpt>
      <trkpt lat="46.76503" lon="-1.83869">
        <ele>20</ele>
        <time>2018-04-21T19:46:17Z</time>
      </trkpt>
      <trkpt lat="46.76517" lon="-1.83872">
        <ele>20</ele>
        <time>2018-04-21T19:47:17Z</time>
      </trkpt>
      <trkpt lat="46.76523" lon="-1.83874">
        <ele>20</ele>
        <time>2018-04-21T19:48:17Z</time>
      </trkpt>
      <trkpt lat="46.76529" lon="-1.83876">
        <ele>20</ele>
        <time>2018-04-21T19:49:17Z</time>
      </trkpt>
      <trkpt lat="46.76534" lon="-1.83878">
        <ele>20</ele>
        <time>2018-04-21T19:50:17Z</time>
      </trkpt>
      <trkpt lat="46.76541" lon="-1.8388">
        <ele>20</ele>
        <time>2018-04-21T19:51:17Z</time>
      </trkpt>
      <trkpt lat="46.76545" lon="-1.83882">
        <ele>20</ele>
        <time>2018-04-21T19:52:17Z</time>
      </trkpt>
      <trkpt lat="46.76551" lon="-1.83884">
        <ele>20</ele>
        <time>2018-04-21T19:53:17Z</time>
      </trkpt>
      <trkpt lat="46.76562" lon="-1.83888">
        <ele>20</ele>
        <time>2018-04-21T19:54:17Z</time>
      </trkpt>
      <trkpt lat="46.76566" lon="-1.8389">
        <ele>20</ele>
        <time>2018-04-21T19:55:17Z</time>
      </trkpt>
      <trkpt lat="46.76573" lon="-1.83897">
        <ele>21</ele>
        <time>2018-04-21T19:56:17Z</time>
      </trkpt>
      <trkpt lat="46.76577" lon="-1.83903">
        <ele>21</ele>
        <time>2018-04-21T19:57:17Z</time>
      </trkpt>
      <trkpt lat="46.7658" lon="-1.83907">
        <ele>21</ele>
        <time>2018-04-21T19:58:17Z</time>
      </trkpt>
      <trkpt lat="46.76584" lon="-1.83912">
        <ele>21</ele>
        <time>2018-04-21T19:59:17Z</time>
      </trkpt>
      <trkpt lat="46.76588" lon="-1.8392">
        <ele>21</ele>
        <time>2018-04-21T20:00:17Z</time>
      </trkpt>
      <trkpt lat="46.76591" lon="-1.83927">
        <ele>21</ele>
        <time>2018-04-21T20:01:17Z</time>
      </trkpt>
      <trkpt lat="46.76613" lon="-1.8398">
        <ele>21</ele>
        <time>2018-04-21T20:02:17Z</time>
      </trkpt>
      <trkpt lat="46.76649" lon="-1.84071">
        <ele>20</ele>
        <time>2018-04-21T20:03:17Z</time>
      </trkpt>
      <trkpt lat="46.7665" lon="-1.84074">
        <ele>20</ele>
        <time>2018-04-21T20:04:17Z</time>
      </trkpt>
      <trkpt lat="46.7666" lon="-1.841">
        <ele>20</ele>
        <time>2018-04-21T20:05:17Z</time>
      </trkpt>
      <trkpt lat="46.76682" lon="-1.84155">
        <ele>20</ele>
        <time>2018-04-21T20:06:17Z</time>
      </trkpt>
      <trkpt lat="46.76687" lon="-1.84167">
        <ele>20</ele>
        <time>2018-04-21T20:07:17Z</time>
      </trkpt>
      <trkpt lat="46.76693" lon="-1.84184">
        <ele>20</ele>
        <time>2018-04-21T20:08:17Z</time>
      </trkpt>
      <trkpt lat="46.76698" lon="-1.84199">
        <ele>20</ele>
        <time>2018-04-21T20:09:17Z</time>
      </trkpt>
      <trkpt lat="46.76702" lon="-1.84212">
        <ele>20</ele>
        <time>2018-04-21T20:10:17Z</time>
      </trkpt>
      <trkpt lat="46.76705" lon="-1.84226">
        <ele>20</ele>
        <time>2018-04-21T20:11:17Z</time>
      </trkpt>
      <trkpt lat="46.76707" lon="-1.84237">
        <ele>20</ele>
        <time>2018-04-21T20:12:17Z</time>
      </trkpt>
      <trkpt lat="46.7671" lon="-1.84253">
        <ele>19</ele>
        <time>2018-04-21T20:13:17Z</time>
      </trkpt>
      <trkpt lat="46.76712" lon="-1.84267">
        <ele>19</ele>
        <time>2018-04-21T20:14:17Z</time>
      </trkpt>
      <trkpt lat="46.76713" lon="-1.84291">
        <ele>19</ele>
        <time>2018-04-21T20:15:17Z</time>
      </trkpt>
      <trkpt lat="46.76714" lon="-1.84317">
        <ele>19</ele>
        <time>2018-04-21T20:16:17Z</time>
      </trkpt>
      <trkpt lat="46.76714" lon="-1.84361">
        <ele>19</ele>
        <time>2018-04-21T20:17:17Z</time>
      </trkpt>
      <trkpt lat="46.76714" lon="-1.84368">
        <ele>19</ele>
        <time>2018-04-21T20:18:17Z</time>
      </trkpt>
      <trkpt lat="46.76714" lon="-1.84385">
        <ele>19</ele>
        <time>2018-04-21T20:19:17Z</time>
      </trkpt>
      <trkpt lat="46.76716" lon="-1.84404">
        <ele>18</ele>
        <time>2018-04-21T20:20:17Z</time>
      </trkpt>
      <trkpt lat="46.76718" lon="-1.84424">
        <ele>18</ele>
        <time>2018-04-21T20:21:17Z</time>
      </trkpt>
      <trkpt lat="46.7672" lon="-1.84438">
        <ele>18</ele>
        <time>2018-04-21T20:22:17Z</time>
      </trkpt>
      <trkpt lat="46.76724" lon="-1.84468">
        <ele>18</ele>
        <time>2018-04-21T20:23:17Z</time>
      </trkpt>
      <trkpt lat="46.7673" lon="-1.84503">
        <ele>18</ele>
        <time>2018-04-21T20:24:17Z</time>
      </trkpt>
      <trkpt lat="46.76737" lon="-1.84537">
        <ele>18</ele>
        <time>2018-04-21T20:25:17Z</time>
      </trkpt>
      <trkpt lat="46.7674" lon="-1.84558">
        <ele>18</ele>
        <time>2018-04-21T20:26:17Z</time>
      </trkpt>
      <trkpt lat="46.76749" lon="-1.84613">
        <ele>18</ele>
        <time>2018-04-21T20:27:17Z</time>
      </trkpt>
      <trkpt lat="46.76751" lon="-1.84624">
        <ele>17</ele>
        <time>2018-04-21T20:28:17Z</time>
      </trkpt>
      <trkpt lat="46.76765" lon="-1.84703">
        <ele>17</ele>
        <time>2018-04-21T20:29:17Z</time>
      </trkpt>
      <trkpt lat="46.76777" lon="-1.84769">
        <ele>16</ele>
        <time>2018-04-21T20:30:17Z</time>
      </trkpt>
      <trkpt lat="46.7679" lon="-1.84848">
        <ele>15</ele>
        <time>2018-04-21T20:31:17Z</time>
      </trkpt>
      <trkpt lat="46.76799" lon="-1.84895">
        <ele>15</ele>
        <time>2018-04-21T20:32:17Z</time>
      </trkpt>
      <trkpt lat="46.76802" lon="-1.84914">
        <ele>15</ele>
        <time>2018-04-21T20:33:17Z</time>
      </trkpt>
      <trkpt lat="46.76809" lon="-1.8495">
        <ele>15</ele>
        <time>2018-04-21T20:34:17Z</time>
      </trkpt>
      <trkpt lat="46.76812" lon="-1.84973">
        <ele>15</ele>
        <time>2018-04-21T20:35:17Z</time>
      </trkpt>
      <trkpt lat="46.76814" lon="-1.84994">
        <ele>15</ele>
        <time>2018-04-21T20:36:17Z</time>
      </trkpt>
      <trkpt lat="46.76815" lon="-1.85012">
        <ele>15</ele>
        <time>2018-04-21T20:37:17Z</time>
      </trkpt>
      <trkpt lat="46.76816" lon="-1.85032">
        <ele>15</ele>
        <time>2018-04-21T20:38:17Z</time>
      </trkpt>
      <trkpt lat="46.76817" lon="-1.85053">
        <ele>15</ele>
        <time>2018-04-21T20:39:17Z</time>
      </trkpt>
      <trkpt lat="46.76817" lon="-1.8509">
        <ele>15</ele>
        <time>2018-04-21T20:40:17Z</time>
      </trkpt>
      <trkpt lat="46.76815" lon="-1.85142">
        <ele>14</ele>
        <time>2018-04-21T20:41:17Z</time>
      </trkpt>
      <trkpt lat="46.76815" lon="-1.85176">
        <ele>13</ele>
        <time>2018-04-21T20:42:17Z</time>
      </trkpt>
      <trkpt lat="46.76815" lon="-1.85199">
        <ele>13</ele>
        <time>2018-04-21T20:43:17Z</time>
      </trkpt>
      <trkpt lat="46.76816" lon="-1.85221">
        <ele>13</ele>
        <time>2018-04-21T20:44:17Z</time>
      </trkpt>
      <trkpt lat="46.76818" lon="-1.85241">
        <ele>13</ele>
        <time>2018-04-21T20:45:17Z</time>
      </trkpt>
      <trkpt lat="46.76818" lon="-1.85242">
        <ele>13</ele>
        <time>2018-04-21T20:46:17Z</time>
      </trkpt>
      <trkpt lat="46.76822" lon="-1.85266">
        <ele>13</ele>
        <time>2018-04-21T20:47:17Z</time>
      </trkpt>
      <trkpt lat="46.76828" lon="-1.85291">
        <ele>13</ele>
        <time>2018-04-21T20:48:17Z</time>
      </trkpt>
      <trkpt lat="46.76835" lon="-1.85316">
        <ele>13</ele>
        <time>2018-04-21T20:49:17Z</time>
      </trkpt>
      <trkpt lat="46.76851" lon="-1.85366">
        <ele>13</ele>
        <time>2018-04-21T20:50:17Z</time>
      </trkpt>
      <trkpt lat="46.76857" lon="-1.85383">
        <ele>13</ele>
        <time>2018-04-21T20:51:17Z</time>
      </trkpt>
      <trkpt lat="46.76866" lon="-1.85412">
        <ele>14</ele>
        <time>2018-04-21T20:52:17Z</time>
      </trkpt>
      <trkpt lat="46.76874" lon="-1.85433">
        <ele>14</ele>
        <time>2018-04-21T20:53:17Z</time>
      </trkpt>
      <trkpt lat="46.76894" lon="-1.85495">
        <ele>14</ele>
        <time>2018-04-21T20:54:17Z</time>
      </trkpt>
      <trkpt lat="46.76902" lon="-1.85518">
        <ele>14</ele>
        <time>2018-04-21T20:55:17Z</time>
      </trkpt>
      <trkpt lat="46.76909" lon="-1.85537">
        <ele>14</ele>
        <time>2018-04-21T20:56:17Z</time>
      </trkpt>
      <trkpt lat="46.76915" lon="-1.85553">
        <ele>13</ele>
        <time>2018-04-21T20:57:17Z</time>
      </trkpt>
      <trkpt lat="46.76922" lon="-1.8557">
        <ele>13</ele>
        <time>2018-04-21T20:58:17Z</time>
      </trkpt>
      <trkpt lat="46.76928" lon="-1.85584">
        <ele>13</ele>
        <time>2018-04-21T20:59:17Z</time>
      </trkpt>
      <trkpt lat="46.76932" lon="-1.85591">
        <ele>13</ele>
        <time>2018-04-21T21:00:17Z</time>
      </trkpt>
      <trkpt lat="46.76936" lon="-1.856">
        <ele>12</ele>
        <time>2018-04-21T21:01:17Z</time>
      </trkpt>
      <trkpt lat="46.76961" lon="-1.85652">
        <ele>12</ele>
        <time>2018-04-21T21:02:17Z</time>
      </trkpt>
      <trkpt lat="46.76963" lon="-1.85656">
        <ele>12</ele>
        <time>2018-04-21T21:03:17Z</time>
      </trkpt>
      <trkpt lat="46.76981" lon="-1.8569">
        <ele>12</ele>
        <time>2018-04-21T21:04:17Z</time>
      </trkpt>
      <trkpt lat="46.77" lon="-1.85725">
        <ele>12</ele>
        <time>2018-04-21T21:05:17Z</time>
      </trkpt>
      <trkpt lat="46.7701" lon="-1.85744">
        <ele>13</ele>
        <time>2018-04-21T21:06:17Z</time>
      </trkpt>
      <trkpt lat="46.7702" lon="-1.85765">
        <ele>13</ele>
        <time>2018-04-21T21:07:17Z</time>
      </trkpt>
      <trkpt lat="46.77025" lon="-1.85775">
        <ele>12</ele>
        <time>2018-04-21T21:08:17Z</time>
      </trkpt>
      <trkpt lat="46.77037" lon="-1.85796">
        <ele>12</ele>
        <time>2018-04-21T21:09:17Z</time>
      </trkpt>
      <trkpt lat="46.77069" lon="-1.85859">
        <ele>12</ele>
        <time>2018-04-21T21:10:17Z</time>
      </trkpt>
      <trkpt lat="46.77097" lon="-1.85912">
        <ele>12</ele>
        <time>2018-04-21T21:11:17Z</time>
      </trkpt>
      <trkpt lat="46.77146" lon="-1.86007">
        <ele>9</ele>
        <time>2018-04-21T21:12:17Z</time>
      </trkpt>
      <trkpt lat="46.77179" lon="-1.86071">
        <ele>9</ele>
        <time>2018-04-21T21:13:17Z</time>
      </trkpt>
      <trkpt lat="46.77215" lon="-1.8614">
        <ele>9</ele>
        <time>2018-04-21T21:14:17Z</time>
      </trkpt>
      <trkpt lat="46.77242" lon="-1.86193">
        <ele>9</ele>
        <time>2018-04-21T21:15:17Z</time>
      </trkpt>
      <trkpt lat="46.77248" lon="-1.86204">
        <ele>9</ele>
        <time>2018-04-21T21:16:17Z</time>
      </trkpt>
      <trkpt lat="46.77255" lon="-1.86217">
        <ele>9</ele>
        <time>2018-04-21T21:17:17Z</time>
      </trkpt>
      <trkpt lat="46.77263" lon="-1.86232">
        <ele>9</ele>
        <time>2018-04-21T21:18:17Z</time>
      </trkpt>
      <trkpt lat="46.7727" lon="-1.86244">
        <ele>9</ele>
        <time>2018-04-21T21:19:17Z</time>
      </trkpt>
      <trkpt lat="46.77277" lon="-1.86254">
        <ele>9</ele>
        <time>2018-04-21T21:20:17Z</time>
      </trkpt>
      <trkpt lat="46.77284" lon="-1.86265">
        <ele>9</ele>
        <time>2018-04-21T21:21:17Z</time>
      </trkpt>
      <trkpt lat="46.7729" lon="-1.86274">
        <ele>9</ele>
        <time>2018-04-21T21:22:17Z</time>
      </trkpt>
      <trkpt lat="46.77298" lon="-1.86284">
        <ele>9</ele>
        <time>2018-04-21T21:23:17Z</time>
      </trkpt>
      <trkpt lat="46.77305" lon="-1.86293">
        <ele>8</ele>
        <time>2018-04-21T21:24:17Z</time>
      </trkpt>
      <trkpt lat="46.77314" lon="-1.86303">
        <ele>8</ele>
        <time>2018-04-21T21:25:17Z</time>
      </trkpt>
      <trkpt lat="46.77318" lon="-1.86308">
        <ele>8</ele>
        <time>2018-04-21T21:26:17Z</time>
      </trkpt>
      <trkpt lat="46.77327" lon="-1.86318">
        <ele>8</ele>
        <time>2018-04-21T21:27:17Z</time>
      </trkpt>
      <trkpt lat="46.7742" lon="-1.86419">
        <ele>8</ele>
        <time>2018-04-21T21:28:17Z</time>
      </trkpt>
      <trkpt lat="46.77481" lon="-1.86487">
        <ele>7</ele>
        <time>2018-04-21T21:29:17Z</time>
      </trkpt>
      <trkpt lat="46.77537" lon="-1.86549">
        <ele>7</ele>
        <time>2018-04-21T21:30:17Z</time>
      </trkpt>
      <trkpt lat="46.77568" lon="-1.86583">
        <ele>7</ele>
        <time>2018-04-21T21:31:17Z</time>
      </trkpt>
      <trkpt lat="46.77578" lon="-1.86596">
        <ele>7</ele>
        <time>2018-04-21T21:32:17Z</time>
      </trkpt>
      <trkpt lat="46.77587" lon="-1.86608">
        <ele>7</ele>
        <time>2018-04-21T21:33:17Z</time>
      </trkpt>
      <trkpt lat="46.77594" lon="-1.86622">
        <ele>7</ele>
        <time>2018-04-21T21:34:17Z</time>
      </trkpt>
      <trkpt lat="46.77599" lon="-1.86633">
        <ele>7</ele>
        <time>2018-04-21T21:35:17Z</time>
      </trkpt>
      <trkpt lat="46.77604" lon="-1.86646">
        <ele>7</ele>
        <time>2018-04-21T21:36:17Z</time>
      </trkpt>
      <trkpt lat="46.77609" lon="-1.8666">
        <ele>7</ele>
        <time>2018-04-21T21:37:17Z</time>
      </trkpt>
      <trkpt lat="46.77614" lon="-1.86675">
        <ele>7</ele>
        <time>2018-04-21T21:38:17Z</time>
      </trkpt>
      <trkpt lat="46.77618" lon="-1.86688">
        <ele>7</ele>
        <time>2018-04-21T21:39:17Z</time>
      </trkpt>
      <trkpt lat="46.77622" lon="-1.86702">
        <ele>7</ele>
        <time>2018-04-21T21:40:17Z</time>
      </trkpt>
      <trkpt lat="46.77625" lon="-1.86715">
        <ele>7</ele>
        <time>2018-04-21T21:41:17Z</time>
      </trkpt>
      <trkpt lat="46.77628" lon="-1.86731">
        <ele>7</ele>
        <time>2018-04-21T21:42:17Z</time>
      </trkpt>
      <trkpt lat="46.77632" lon="-1.86756">
        <ele>7</ele>
        <time>2018-04-21T21:43:17Z</time>
      </trkpt>
      <trkpt lat="46.77641" lon="-1.86822">
        <ele>7</ele>
        <time>2018-04-21T21:44:17Z</time>
      </trkpt>
      <trkpt lat="46.7765" lon="-1.86891">
        <ele>7</ele>
        <time>2018-04-21T21:45:17Z</time>
      </trkpt>
      <trkpt lat="46.7766" lon="-1.86961">
        <ele>6</ele>
        <time>2018-04-21T21:46:17Z</time>
      </trkpt>
      <trkpt lat="46.77673" lon="-1.87067">
        <ele>5</ele>
        <time>2018-04-21T21:47:17Z</time>
      </trkpt>
      <trkpt lat="46.77686" lon="-1.87156">
        <ele>5</ele>
        <time>2018-04-21T21:48:17Z</time>
      </trkpt>
      <trkpt lat="46.77691" lon="-1.87204">
        <ele>5</ele>
        <time>2018-04-21T21:49:17Z</time>
      </trkpt>
      <trkpt lat="46.77696" lon="-1.87241">
        <ele>4</ele>
        <time>2018-04-21T21:50:17Z</time>
      </trkpt>
      <trkpt lat="46.77696" lon="-1.87245">
        <ele>4</ele>
        <time>2018-04-21T21:51:17Z</time>
      </trkpt>
      <trkpt lat="46.77705" lon="-1.87306">
        <ele>4</ele>
        <time>2018-04-21T21:52:17Z</time>
      </trkpt>
      <trkpt lat="46.77716" lon="-1.87378">
        <ele>5</ele>
        <time>2018-04-21T21:53:17Z</time>
      </trkpt>
      <trkpt lat="46.77732" lon="-1.87487">
        <ele>4</ele>
        <time>2018-04-21T21:54:17Z</time>
      </trkpt>
      <trkpt lat="46.7774" lon="-1.87542">
        <ele>5</ele>
        <time>2018-04-21T21:55:17Z</time>
      </trkpt>
      <trkpt lat="46.7775" lon="-1.87611">
        <ele>5</ele>
        <time>2018-04-21T21:56:17Z</time>
      </trkpt>
      <trkpt lat="46.77752" lon="-1.87628">
        <ele>4</ele>
        <time>2018-04-21T21:57:17Z</time>
      </trkpt>
      <trkpt lat="46.77754" lon="-1.87646">
        <ele>4</ele>
        <time>2018-04-21T21:58:17Z</time>
      </trkpt>
      <trkpt lat="46.77756" lon="-1.87665">
        <ele>4</ele>
        <time>2018-04-21T21:59:17Z</time>
      </trkpt>
      <trkpt lat="46.77757" lon="-1.87673">
        <ele>4</ele>
        <time>2018-04-21T22:00:17Z</time>
      </trkpt>
      <trkpt lat="46.77758" lon="-1.87682">
        <ele>4</ele>
        <time>2018-04-21T22:01:17Z</time>
      </trkpt>
      <trkpt lat="46.77758" lon="-1.87682">
        <ele>4</ele>
        <time>2018-04-21T22:02:17Z</time>
      </trkpt>
      <trkpt lat="46.77789" lon="-1.87695">
        <ele>4</ele>
        <time>2018-04-21T22:03:17Z</time>
      </trkpt>
      <trkpt lat="46.77799" lon="-1.87699">
        <ele>4</ele>
        <time>2018-04-21T22:04:17Z</time>
      </trkpt>
      <trkpt lat="46.77811" lon="-1.87703">
        <ele>4</ele>
        <time>2018-04-21T22:05:17Z</time>
      </trkpt>
      <trkpt lat="46.77856" lon="-1.8772">
        <ele>4</ele>
        <time>2018-04-21T22:06:17Z</time>
      </trkpt>
      <trkpt lat="46.77865" lon="-1.87723">
        <ele>4</ele>
        <time>2018-04-21T22:07:17Z</time>
      </trkpt>
      <trkpt lat="46.77912" lon="-1.8774">
        <ele>5</ele>
        <time>2018-04-21T22:08:17Z</time>
      </trkpt>
      <trkpt lat="46.77967" lon="-1.87761">
        <ele>3</ele>
        <time>2018-04-21T22:09:17Z</time>
      </trkpt>
      <trkpt lat="46.77999" lon="-1.87773">
        <ele>2</ele>
        <time>2018-04-21T22:10:17Z</time>
      </trkpt>
      <trkpt lat="46.78034" lon="-1.87786">
        <ele>3</ele>
        <time>2018-04-21T22:11:17Z</time>
      </trkpt>
      <trkpt lat="46.78059" lon="-1.87794">
        <ele>4</ele>
        <time>2018-04-21T22:12:17Z</time>
      </trkpt>
      <trkpt lat="46.78068" lon="-1.87799">
        <ele>4</ele>
        <time>2018-04-21T22:13:17Z</time>
      </trkpt>
      <trkpt lat="46.78082" lon="-1.87805">
        <ele>4</ele>
        <time>2018-04-21T22:14:17Z</time>
      </trkpt>
      <trkpt lat="46.78107" lon="-1.87813">
        <ele>5</ele>
        <time>2018-04-21T22:15:17Z</time>
      </trkpt>
      <trkpt lat="46.78109" lon="-1.87813">
        <ele>5</ele>
        <time>2018-04-21T22:16:17Z</time>
      </trkpt>
      <trkpt lat="46.78184" lon="-1.87842">
        <ele>6</ele>
        <time>2018-04-21T22:17:17Z</time>
      </trkpt>
      <trkpt lat="46.78246" lon="-1.87865">
        <ele>5</ele>
        <time>2018-04-21T22:18:17Z</time>
      </trkpt>
      <trkpt lat="46.7826" lon="-1.8787">
        <ele>5</ele>
        <time>2018-04-21T22:19:17Z</time>
      </trkpt>
      <trkpt lat="46.78302" lon="-1.87884">
        <ele>5</ele>
        <time>2018-04-21T22:20:17Z</time>
      </trkpt>
      <trkpt lat="46.7831" lon="-1.87887">
        <ele>5</ele>
        <time>2018-04-21T22:21:17Z</time>
      </trkpt>
      <trkpt lat="46.78367" lon="-1.87908">
        <ele>6</ele>
        <time>2018-04-21T22:22:17Z</time>
      </trkpt>
      <trkpt lat="46.78401" lon="-1.87921">
        <ele>7</ele>
        <time>2018-04-21T22:23:17Z</time>
      </trkpt>
      <trkpt lat="46.78421" lon="-1.87928">
        <ele>8</ele>
        <time>2018-04-21T22:24:17Z</time>
      </trkpt>
      <trkpt lat="46.78475" lon="-1.87947">
        <ele>6</ele>
        <time>2018-04-21T22:25:17Z</time>
      </trkpt>
      <trkpt lat="46.78501" lon="-1.87957">
        <ele>6</ele>
        <time>2018-04-21T22:26:17Z</time>
      </trkpt>
      <trkpt lat="46.78526" lon="-1.87967">
        <ele>6</ele>
        <time>2018-04-21T22:27:17Z</time>
      </trkpt>
      <trkpt lat="46.78582" lon="-1.8799">
        <ele>6</ele>
        <time>2018-04-21T22:28:17Z</time>
      </trkpt>
      <trkpt lat="46.786" lon="-1.87996">
        <ele>6</ele>
        <time>2018-04-21T22:29:17Z</time>
      </trkpt>
      <trkpt lat="46.78669" lon="-1.88024">
        <ele>5</ele>
        <time>2018-04-21T22:30:17Z</time>
      </trkpt>
      <trkpt lat="46.78706" lon="-1.88037">
        <ele>4</ele>
        <time>2018-04-21T22:31:17Z</time>
      </trkpt>
      <trkpt lat="46.78733" lon="-1.88048">
        <ele>4</ele>
        <time>2018-04-21T22:32:17Z</time>
      </trkpt>
      <trkpt lat="46.78741" lon="-1.88051">
        <ele>4</ele>
        <time>2018-04-21T22:33:17Z</time>
      </trkpt>
      <trkpt lat="46.78749" lon="-1.88056">
        <ele>4</ele>
        <time>2018-04-21T22:34:17Z</time>
      </trkpt>
      <trkpt lat="46.78757" lon="-1.88061">
        <ele>5</ele>
        <time>2018-04-21T22:35:17Z</time>
      </trkpt>
      <trkpt lat="46.78764" lon="-1.88068">
        <ele>5</ele>
        <time>2018-04-21T22:36:17Z</time>
      </trkpt>
      <trkpt lat="46.78771" lon="-1.88075">
        <ele>5</ele>
        <time>2018-04-21T22:37:17Z</time>
      </trkpt>
      <trkpt lat="46.7878" lon="-1.88085">
        <ele>5</ele>
        <time>2018-04-21T22:38:17Z</time>
      </trkpt>
      <trkpt lat="46.78798" lon="-1.88106">
        <ele>5</ele>
        <time>2018-04-21T22:39:17Z</time>
      </trkpt>
      <trkpt lat="46.78808" lon="-1.88119">
        <ele>5</ele>
        <time>2018-04-21T22:40:17Z</time>
      </trkpt>
      <trkpt lat="46.78821" lon="-1.88134">
        <ele>4</ele>
        <time>2018-04-21T22:41:17Z</time>
      </trkpt>
      <trkpt lat="46.78834" lon="-1.88145">
        <ele>4</ele>
        <time>2018-04-21T22:42:17Z</time>
      </trkpt>
      <trkpt lat="46.78857" lon="-1.88171">
        <ele>4</ele>
        <time>2018-04-21T22:43:17Z</time>
      </trkpt>
      <trkpt lat="46.78868" lon="-1.88183">
        <ele>3</ele>
        <time>2018-04-21T22:44:17Z</time>
      </trkpt>
      <trkpt lat="46.78871" lon="-1.88186">
        <ele>3</ele>
        <time>2018-04-21T22:45:17Z</time>
      </trkpt>
      <trkpt lat="46.78876" lon="-1.8819">
        <ele>3</ele>
        <time>2018-04-21T22:46:17Z</time>
      </trkpt>
      <trkpt lat="46.78881" lon="-1.88194">
        <ele>3</ele>
        <time>2018-04-21T22:47:17Z</time>
      </trkpt>
      <trkpt lat="46.78882" lon="-1.88196">
        <ele>3</ele>
        <time>2018-04-21T22:48:17Z</time>
      </trkpt>
      <trkpt lat="46.78889" lon="-1.882">
        <ele>3</ele>
        <time>2018-04-21T22:49:17Z</time>
      </trkpt>
      <trkpt lat="46.78895" lon="-1.88203">
        <ele>3</ele>
        <time>2018-04-21T22:50:17Z</time>
      </trkpt>
      <trkpt lat="46.78895" lon="-1.88203">
        <ele>3</ele>
        <time>2018-04-21T22:51:17Z</time>
      </trkpt>
      <trkpt lat="46.78894" lon="-1.88211">
        <ele>3</ele>
        <time>2018-04-21T22:52:17Z</time>
      </trkpt>
      <trkpt lat="46.78894" lon="-1.88213">
        <ele>3</ele>
        <time>2018-04-21T22:53:17Z</time>
      </trkpt>
      <trkpt lat="46.78893" lon="-1.88216">
        <ele>3</ele>
        <time>2018-04-21T22:54:17Z</time>
      </trkpt>
      <trkpt lat="46.78894" lon="-1.88219">
        <ele>3</ele>
        <time>2018-04-21T22:55:17Z</time>
      </trkpt>
      <trkpt lat="46.78904" lon="-1.88232">
        <ele>4</ele>
        <time>2018-04-21T22:56:17Z</time>
      </trkpt>
      <trkpt lat="46.78918" lon="-1.88252">
        <ele>4</ele>
        <time>2018-04-21T22:57:17Z</time>
      </trkpt>
      <trkpt lat="46.78939" lon="-1.88278">
        <ele>5</ele>
        <time>2018-04-21T22:58:17Z</time>
      </trkpt>
      <trkpt lat="46.78971" lon="-1.88317">
        <ele>6</ele>
        <time>2018-04-21T22:59:17Z</time>
      </trkpt>
      <trkpt lat="46.78978" lon="-1.88325">
        <ele>6</ele>
        <time>2018-04-21T23:00:17Z</time>
      </trkpt>
      <trkpt lat="46.7901" lon="-1.88365">
        <ele>7</ele>
        <time>2018-04-21T23:01:17Z</time>
      </trkpt>
      <trkpt lat="46.79029" lon="-1.88391">
        <ele>7</ele>
        <time>2018-04-21T23:02:17Z</time>
      </trkpt>
      <trkpt lat="46.79039" lon="-1.88404">
        <ele>7</ele>
        <time>2018-04-21T23:03:17Z</time>
      </trkpt>
      <trkpt lat="46.79048" lon="-1.88418">
        <ele>8</ele>
        <time>2018-04-21T23:04:17Z</time>
      </trkpt>
      <trkpt lat="46.79056" lon="-1.88431">
        <ele>8</ele>
        <time>2018-04-21T23:05:17Z</time>
      </trkpt>
      <trkpt lat="46.79063" lon="-1.88445">
        <ele>8</ele>
        <time>2018-04-21T23:06:17Z</time>
      </trkpt>
      <trkpt lat="46.79064" lon="-1.88447">
        <ele>8</ele>
        <time>2018-04-21T23:07:17Z</time>
      </trkpt>
      <trkpt lat="46.79073" lon="-1.88466">
        <ele>8</ele>
        <time>2018-04-21T23:08:17Z</time>
      </trkpt>
      <trkpt lat="46.79087" lon="-1.88497">
        <ele>9</ele>
        <time>2018-04-21T23:09:17Z</time>
      </trkpt>
      <trkpt lat="46.79096" lon="-1.88516">
        <ele>9</ele>
        <time>2018-04-21T23:10:17Z</time>
      </trkpt>
      <trkpt lat="46.79103" lon="-1.88534">
        <ele>9</ele>
        <time>2018-04-21T23:11:17Z</time>
      </trkpt>
      <trkpt lat="46.79109" lon="-1.88552">
        <ele>9</ele>
        <time>2018-04-21T23:12:17Z</time>
      </trkpt>
      <trkpt lat="46.79126" lon="-1.88601">
        <ele>10</ele>
        <time>2018-04-21T23:13:17Z</time>
      </trkpt>
      <trkpt lat="46.79137" lon="-1.88636">
        <ele>10</ele>
        <time>2018-04-21T23:14:17Z</time>
      </trkpt>
      <trkpt lat="46.79155" lon="-1.88689">
        <ele>11</ele>
        <time>2018-04-21T23:15:17Z</time>
      </trkpt>
      <trkpt lat="46.79168" lon="-1.88728">
        <ele>11</ele>
        <time>2018-04-21T23:16:17Z</time>
      </trkpt>
      <trkpt lat="46.79191" lon="-1.888">
        <ele>10</ele>
        <time>2018-04-21T23:17:17Z</time>
      </trkpt>
      <trkpt lat="46.79195" lon="-1.88812">
        <ele>10</ele>
        <time>2018-04-21T23:18:17Z</time>
      </trkpt>
      <trkpt lat="46.79223" lon="-1.88898">
        <ele>10</ele>
        <time>2018-04-21T23:19:17Z</time>
      </trkpt>
      <trkpt lat="46.79238" lon="-1.88948">
        <ele>10</ele>
        <time>2018-04-21T23:20:17Z</time>
      </trkpt>
      <trkpt lat="46.7924" lon="-1.88954">
        <ele>10</ele>
        <time>2018-04-21T23:21:17Z</time>
      </trkpt>
      <trkpt lat="46.79242" lon="-1.8896">
        <ele>10</ele>
        <time>2018-04-21T23:22:17Z</time>
      </trkpt>
      <trkpt lat="46.79246" lon="-1.88972">
        <ele>10</ele>
        <time>2018-04-21T23:23:17Z</time>
      </trkpt>
      <trkpt lat="46.79251" lon="-1.88988">
        <ele>10</ele>
        <time>2018-04-21T23:24:17Z</time>
      </trkpt>
      <trkpt lat="46.79259" lon="-1.89011">
        <ele>10</ele>
        <time>2018-04-21T23:25:17Z</time>
      </trkpt>
      <trkpt lat="46.79269" lon="-1.89045">
        <ele>11</ele>
        <time>2018-04-21T23:26:17Z</time>
      </trkpt>
      <trkpt lat="46.79275" lon="-1.89069">
        <ele>11</ele>
        <time>2018-04-21T23:27:17Z</time>
      </trkpt>
      <trkpt lat="46.79281" lon="-1.8909">
        <ele>11</ele>
        <time>2018-04-21T23:28:17Z</time>
      </trkpt>
      <trkpt lat="46.79287" lon="-1.89116">
        <ele>11</ele>
        <time>2018-04-21T23:29:17Z</time>
      </trkpt>
      <trkpt lat="46.79293" lon="-1.8915">
        <ele>11</ele>
        <time>2018-04-21T23:30:17Z</time>
      </trkpt>
      <trkpt lat="46.79303" lon="-1.89211">
        <ele>11</ele>
        <time>2018-04-21T23:31:17Z</time>
      </trkpt>
      <trkpt lat="46.79316" lon="-1.89292">
        <ele>11</ele>
        <time>2018-04-21T23:32:17Z</time>
      </trkpt>
      <trkpt lat="46.79327" lon="-1.89346">
        <ele>10</ele>
        <time>2018-04-21T23:33:17Z</time>
      </trkpt>
      <trkpt lat="46.79335" lon="-1.89378">
        <ele>10</ele>
        <time>2018-04-21T23:34:17Z</time>
      </trkpt>
      <trkpt lat="46.79338" lon="-1.8939">
        <ele>10</ele>
        <time>2018-04-21T23:35:17Z</time>
      </trkpt>
      <trkpt lat="46.7934" lon="-1.89395">
        <ele>10</ele>
        <time>2018-04-21T23:36:17Z</time>
      </trkpt>
      <trkpt lat="46.79347" lon="-1.89416">
        <ele>10</ele>
        <time>2018-04-21T23:37:17Z</time>
      </trkpt>
      <trkpt lat="46.79353" lon="-1.89434">
        <ele>10</ele>
        <time>2018-04-21T23:38:17Z</time>
      </trkpt>
      <trkpt lat="46.79359" lon="-1.89451">
        <ele>10</ele>
        <time>2018-04-21T23:39:17Z</time>
      </trkpt>
      <trkpt lat="46.79366" lon="-1.89468">
        <ele>11</ele>
        <time>2018-04-21T23:40:17Z</time>
      </trkpt>
      <trkpt lat="46.79367" lon="-1.89473">
        <ele>11</ele>
        <time>2018-04-21T23:41:17Z</time>
      </trkpt>
      <trkpt lat="46.79371" lon="-1.89482">
        <ele>11</ele>
        <time>2018-04-21T23:42:17Z</time>
      </trkpt>
      <trkpt lat="46.79378" lon="-1.89497">
        <ele>11</ele>
        <time>2018-04-21T23:43:17Z</time>
      </trkpt>
      <trkpt lat="46.79394" lon="-1.89527">
        <ele>10</ele>
        <time>2018-04-21T23:44:17Z</time>
      </trkpt>
      <trkpt lat="46.79402" lon="-1.89541">
        <ele>10</ele>
        <time>2018-04-21T23:45:17Z</time>
      </trkpt>
      <trkpt lat="46.79422" lon="-1.89578">
        <ele>10</ele>
        <time>2018-04-21T23:46:17Z</time>
      </trkpt>
      <trkpt lat="46.79431" lon="-1.89596">
        <ele>10</ele>
        <time>2018-04-21T23:47:17Z</time>
      </trkpt>
      <trkpt lat="46.7946" lon="-1.8965">
        <ele>11</ele>
        <time>2018-04-21T23:48:17Z</time>
      </trkpt>
      <trkpt lat="46.79461" lon="-1.89653">
        <ele>11</ele>
        <time>2018-04-21T23:49:17Z</time>
      </trkpt>
      <trkpt lat="46.79468" lon="-1.89665">
        <ele>11</ele>
        <time>2018-04-21T23:50:17Z</time>
      </trkpt>
      <trkpt lat="46.79489" lon="-1.89707">
        <ele>12</ele>
        <time>2018-04-21T23:51:17Z</time>
      </trkpt>
      <trkpt lat="46.79499" lon="-1.89725">
        <ele>12</ele>
        <time>2018-04-21T23:52:17Z</time>
      </trkpt>
      <trkpt lat="46.79512" lon="-1.8975">
        <ele>12</ele>
        <time>2018-04-21T23:53:17Z</time>
      </trkpt>
      <trkpt lat="46.79539" lon="-1.89802">
        <ele>11</ele>
        <time>2018-04-21T23:54:17Z</time>
      </trkpt>
      <trkpt lat="46.79543" lon="-1.89811">
        <ele>11</ele>
        <time>2018-04-21T23:55:17Z</time>
      </trkpt>
      <trkpt lat="46.79549" lon="-1.89822">
        <ele>11</ele>
        <time>2018-04-21T23:56:17Z</time>
      </trkpt>
      <trkpt lat="46.79553" lon="-1.89834">
        <ele>11</ele>
        <time>2018-04-21T23:57:17Z</time>
      </trkpt>
      <trkpt lat="46.79558" lon="-1.89861">
        <ele>11</ele>
        <time>2018-04-21T23:58:17Z</time>
      </trkpt>
      <trkpt lat="46.79568" lon="-1.89907">
        <ele>12</ele>
        <time>2018-04-21T23:59:17Z</time>
      </trkpt>
      <trkpt lat="46.7958" lon="-1.89955">
        <ele>12</ele>
        <time>2018-04-22T00:00:17Z</time>
      </trkpt>
      <trkpt lat="46.79585" lon="-1.89972">
        <ele>12</ele>
        <time>2018-04-22T00:01:17Z</time>
      </trkpt>
      <trkpt lat="46.79588" lon="-1.89986">
        <ele>12</ele>
        <time>2018-04-22T00:02:17Z</time>
      </trkpt>
      <trkpt lat="46.79593" lon="-1.90002">
        <ele>12</ele>
        <time>2018-04-22T00:03:17Z</time>
      </trkpt>
      <trkpt lat="46.79604" lon="-1.90035">
        <ele>11</ele>
        <time>2018-04-22T00:04:17Z</time>
      </trkpt>
      <trkpt lat="46.79609" lon="-1.90046">
        <ele>11</ele>
        <time>2018-04-22T00:05:17Z</time>
      </trkpt>
      <trkpt lat="46.79613" lon="-1.9006">
        <ele>11</ele>
        <time>2018-04-22T00:06:17Z</time>
      </trkpt>
      <trkpt lat="46.79616" lon="-1.90068">
        <ele>11</ele>
        <time>2018-04-22T00:07:17Z</time>
      </trkpt>
      <trkpt lat="46.7962" lon="-1.90078">
        <ele>11</ele>
        <time>2018-04-22T00:08:17Z</time>
      </trkpt>
      <trkpt lat="46.79626" lon="-1.90085">
        <ele>10</ele>
        <time>2018-04-22T00:09:17Z</time>
      </trkpt>
      <trkpt lat="46.79672" lon="-1.90123">
        <ele>10</ele>
        <time>2018-04-22T00:10:17Z</time>
      </trkpt>
      <trkpt lat="46.79736" lon="-1.90172">
        <ele>10</ele>
        <time>2018-04-22T00:11:17Z</time>
      </trkpt>
      <trkpt lat="46.79765" lon="-1.90195">
        <ele>9</ele>
        <time>2018-04-22T00:12:17Z</time>
      </trkpt>
      <trkpt lat="46.79827" lon="-1.90242">
        <ele>10</ele>
        <time>2018-04-22T00:13:17Z</time>
      </trkpt>
      <trkpt lat="46.7988" lon="-1.90284">
        <ele>10</ele>
        <time>2018-04-22T00:14:17Z</time>
      </trkpt>
      <trkpt lat="46.79921" lon="-1.90317">
        <ele>11</ele>
        <time>2018-04-22T00:15:17Z</time>
      </trkpt>
      <trkpt lat="46.79943" lon="-1.90336">
        <ele>11</ele>
        <time>2018-04-22T00:16:17Z</time>
      </trkpt>
      <trkpt lat="46.79953" lon="-1.90345">
        <ele>11</ele>
        <time>2018-04-22T00:17:17Z</time>
      </trkpt>
      <trkpt lat="46.79965" lon="-1.90355">
        <ele>12</ele>
        <time>2018-04-22T00:18:17Z</time>
      </trkpt>
      <trkpt lat="46.79971" lon="-1.9036">
        <ele>12</ele>
        <time>2018-04-22T00:19:17Z</time>
      </trkpt>
      <trkpt lat="46.80005" lon="-1.90401">
        <ele>13</ele>
        <time>2018-04-22T00:20:17Z</time>
      </trkpt>
      <trkpt lat="46.80043" lon="-1.90446">
        <ele>13</ele>
        <time>2018-04-22T00:21:17Z</time>
      </trkpt>
      <trkpt lat="46.80054" lon="-1.9046">
        <ele>13</ele>
        <time>2018-04-22T00:22:17Z</time>
      </trkpt>
      <trkpt lat="46.80088" lon="-1.90502">
        <ele>12</ele>
        <time>2018-04-22T00:23:17Z</time>
      </trkpt>
      <trkpt lat="46.80102" lon="-1.90519">
        <ele>12</ele>
        <time>2018-04-22T00:24:17Z</time>
      </trkpt>
      <trkpt lat="46.80112" lon="-1.90537">
        <ele>13</ele>
        <time>2018-04-22T00:25:17Z</time>
      </trkpt>
      <trkpt lat="46.80139" lon="-1.90599">
        <ele>13</ele>
        <time>2018-04-22T00:26:17Z</time>
      </trkpt>
      <trkpt lat="46.80157" lon="-1.90641">
        <ele>13</ele>
        <time>2018-04-22T00:27:17Z</time>
      </trkpt>
      <trkpt lat="46.80178" lon="-1.90696">
        <ele>12</ele>
        <time>2018-04-22T00:28:17Z</time>
      </trkpt>
      <trkpt lat="46.80213" lon="-1.90784">
        <ele>11</ele>
        <time>2018-04-22T00:29:17Z</time>
      </trkpt>
      <trkpt lat="46.80249" lon="-1.90878">
        <ele>12</ele>
        <time>2018-04-22T00:30:17Z</time>
      </trkpt>
      <trkpt lat="46.80267" lon="-1.90923">
        <ele>12</ele>
        <time>2018-04-22T00:31:17Z</time>
      </trkpt>
      <trkpt lat="46.80272" lon="-1.90939">
        <ele>12</ele>
        <time>2018-04-22T00:32:17Z</time>
      </trkpt>
      <trkpt lat="46.80273" lon="-1.9094">
        <ele>12</ele>
        <time>2018-04-22T00:33:17Z</time>
      </trkpt>
      <trkpt lat="46.80276" lon="-1.90948">
        <ele>12</ele>
        <time>2018-04-22T00:34:17Z</time>
      </trkpt>
      <trkpt lat="46.8028" lon="-1.90962">
        <ele>12</ele>
        <time>2018-04-22T00:35:17Z</time>
      </trkpt>
      <trkpt lat="46.80285" lon="-1.9098">
        <ele>12</ele>
        <time>2018-04-22T00:36:17Z</time>
      </trkpt>
      <trkpt lat="46.80288" lon="-1.90996">
        <ele>12</ele>
        <time>2018-04-22T00:37:17Z</time>
      </trkpt>
      <trkpt lat="46.80288" lon="-1.90998">
        <ele>11</ele>
        <time>2018-04-22T00:38:17Z</time>
      </trkpt>
      <trkpt lat="46.80292" lon="-1.91027">
        <ele>11</ele>
        <time>2018-04-22T00:39:17Z</time>
      </trkpt>
      <trkpt lat="46.80295" lon="-1.91048">
        <ele>10</ele>
        <time>2018-04-22T00:40:17Z</time>
      </trkpt>
      <trkpt lat="46.80298" lon="-1.91076">
        <ele>9</ele>
        <time>2018-04-22T00:41:17Z</time>
      </trkpt>
      <trkpt lat="46.80298" lon="-1.91077">
        <ele>9</ele>
        <time>2018-04-22T00:42:17Z</time>
      </trkpt>
      <trkpt lat="46.80307" lon="-1.9116">
        <ele>8</ele>
        <time>2018-04-22T00:43:17Z</time>
      </trkpt>
      <trkpt lat="46.80315" lon="-1.91235">
        <ele>8</ele>
        <time>2018-04-22T00:44:17Z</time>
      </trkpt>
      <trkpt lat="46.80318" lon="-1.9126">
        <ele>8</ele>
        <time>2018-04-22T00:45:17Z</time>
      </trkpt>
      <trkpt lat="46.80318" lon="-1.91265">
        <ele>8</ele>
        <time>2018-04-22T00:46:17Z</time>
      </trkpt>
      <trkpt lat="46.80321" lon="-1.91277">
        <ele>8</ele>
        <time>2018-04-22T00:47:17Z</time>
      </trkpt>
      <trkpt lat="46.80323" lon="-1.91291">
        <ele>8</ele>
        <time>2018-04-22T00:48:17Z</time>
      </trkpt>
      <trkpt lat="46.80327" lon="-1.9131">
        <ele>8</ele>
        <time>2018-04-22T00:49:17Z</time>
      </trkpt>
      <trkpt lat="46.80333" lon="-1.91328">
        <ele>8</ele>
        <time>2018-04-22T00:50:17Z</time>
      </trkpt>
      <trkpt lat="46.80339" lon="-1.91346">
        <ele>8</ele>
        <time>2018-04-22T00:51:17Z</time>
      </trkpt>
      <trkpt lat="46.80346" lon="-1.91361">
        <ele>8</ele>
        <time>2018-04-22T00:52:17Z</time>
      </trkpt>
      <trkpt lat="46.80351" lon="-1.91372">
        <ele>8</ele>
        <time>2018-04-22T00:53:17Z</time>
      </trkpt>
      <trkpt lat="46.80354" lon="-1.91379">
        <ele>8</ele>
        <time>2018-04-22T00:54:17Z</time>
      </trkpt>
      <trkpt lat="46.80366" lon="-1.91399">
        <ele>8</ele>
        <time>2018-04-22T00:55:17Z</time>
      </trkpt>
      <trkpt lat="46.80384" lon="-1.91425">
        <ele>8</ele>
        <time>2018-04-22T00:56:17Z</time>
      </trkpt>
      <trkpt lat="46.80398" lon="-1.91445">
        <ele>8</ele>
        <time>2018-04-22T00:57:17Z</time>
      </trkpt>
      <trkpt lat="46.80412" lon="-1.91464">
        <ele>8</ele>
        <time>2018-04-22T00:58:17Z</time>
      </trkpt>
      <trkpt lat="46.80458" lon="-1.91527">
        <ele>8</ele>
        <time>2018-04-22T00:59:17Z</time>
      </trkpt>
      <trkpt lat="46.80475" lon="-1.91547">
        <ele>8</ele>
        <time>2018-04-22T01:00:17Z</time>
      </trkpt>
      <trkpt lat="46.80488" lon="-1.91562">
        <ele>8</ele>
        <time>2018-04-22T01:01:17Z</time>
      </trkpt>
      <trkpt lat="46.8051" lon="-1.91583">
        <ele>8</ele>
        <time>2018-04-22T01:02:17Z</time>
      </trkpt>
      <trkpt lat="46.80542" lon="-1.91609">
        <ele>7</ele>
        <time>2018-04-22T01:03:17Z</time>
      </trkpt>
      <trkpt lat="46.80555" lon="-1.91623">
        <ele>7</ele>
        <time>2018-04-22T01:04:17Z</time>
      </trkpt>
      <trkpt lat="46.80569" lon="-1.91638">
        <ele>6</ele>
        <time>2018-04-22T01:05:17Z</time>
      </trkpt>
      <trkpt lat="46.80575" lon="-1.91647">
        <ele>6</ele>
        <time>2018-04-22T01:06:17Z</time>
      </trkpt>
      <trkpt lat="46.80582" lon="-1.91662">
        <ele>6</ele>
        <time>2018-04-22T01:07:17Z</time>
      </trkpt>
      <trkpt lat="46.80585" lon="-1.91669">
        <ele>6</ele>
        <time>2018-04-22T01:08:17Z</time>
      </trkpt>
      <trkpt lat="46.80591" lon="-1.91683">
        <ele>6</ele>
        <time>2018-04-22T01:09:17Z</time>
      </trkpt>
      <trkpt lat="46.80596" lon="-1.91699">
        <ele>5</ele>
        <time>2018-04-22T01:10:17Z</time>
      </trkpt>
      <trkpt lat="46.806" lon="-1.91717">
        <ele>5</ele>
        <time>2018-04-22T01:11:17Z</time>
      </trkpt>
      <trkpt lat="46.80604" lon="-1.91749">
        <ele>5</ele>
        <time>2018-04-22T01:12:17Z</time>
      </trkpt>
      <trkpt lat="46.80607" lon="-1.91785">
        <ele>5</ele>
        <time>2018-04-22T01:13:17Z</time>
      </trkpt>
      <trkpt lat="46.8061" lon="-1.91803">
        <ele>5</ele>
        <time>2018-04-22T01:14:17Z</time>
      </trkpt>
      <trkpt lat="46.80613" lon="-1.91824">
        <ele>5</ele>
        <time>2018-04-22T01:15:17Z</time>
      </trkpt>
      <trkpt lat="46.80617" lon="-1.91842">
        <ele>5</ele>
        <time>2018-04-22T01:16:17Z</time>
      </trkpt>
      <trkpt lat="46.8062" lon="-1.91857">
        <ele>5</ele>
        <time>2018-04-22T01:17:17Z</time>
      </trkpt>
      <trkpt lat="46.80621" lon="-1.91862">
        <ele>5</ele>
        <time>2018-04-22T01:18:17Z</time>
      </trkpt>
      <trkpt lat="46.80627" lon="-1.91883">
        <ele>5</ele>
        <time>2018-04-22T01:19:17Z</time>
      </trkpt>
      <trkpt lat="46.80634" lon="-1.91902">
        <ele>5</ele>
        <time>2018-04-22T01:20:17Z</time>
      </trkpt>
      <trkpt lat="46.8064" lon="-1.91921">
        <ele>5</ele>
        <time>2018-04-22T01:21:17Z</time>
      </trkpt>
      <trkpt lat="46.80652" lon="-1.91948">
        <ele>5</ele>
        <time>2018-04-22T01:22:17Z</time>
      </trkpt>
      <trkpt lat="46.80676" lon="-1.91991">
        <ele>4</ele>
        <time>2018-04-22T01:23:17Z</time>
      </trkpt>
      <trkpt lat="46.807" lon="-1.92035">
        <ele>4</ele>
        <time>2018-04-22T01:24:17Z</time>
      </trkpt>
      <trkpt lat="46.80734" lon="-1.92103">
        <ele>4</ele>
        <time>2018-04-22T01:25:17Z</time>
      </trkpt>
      <trkpt lat="46.80767" lon="-1.92165">
        <ele>4</ele>
        <time>2018-04-22T01:26:17Z</time>
      </trkpt>
      <trkpt lat="46.80773" lon="-1.92177">
        <ele>4</ele>
        <time>2018-04-22T01:27:17Z</time>
      </trkpt>
      <trkpt lat="46.80775" lon="-1.9218">
        <ele>4</ele>
        <time>2018-04-22T01:28:17Z</time>
      </trkpt>
      <trkpt lat="46.80781" lon="-1.92196">
        <ele>4</ele>
        <time>2018-04-22T01:29:17Z</time>
      </trkpt>
      <trkpt lat="46.80789" lon="-1.92216">
        <ele>4</ele>
        <time>2018-04-22T01:30:17Z</time>
      </trkpt>
      <trkpt lat="46.80796" lon="-1.92232">
        <ele>5</ele>
        <time>2018-04-22T01:31:17Z</time>
      </trkpt>
      <trkpt lat="46.80802" lon="-1.92248">
        <ele>5</ele>
        <time>2018-04-22T01:32:17Z</time>
      </trkpt>
      <trkpt lat="46.8081" lon="-1.92272">
        <ele>5</ele>
        <time>2018-04-22T01:33:17Z</time>
      </trkpt>
      <trkpt lat="46.80818" lon="-1.92297">
        <ele>5</ele>
        <time>2018-04-22T01:34:17Z</time>
      </trkpt>
      <trkpt lat="46.80824" lon="-1.92313">
        <ele>5</ele>
        <time>2018-04-22T01:35:17Z</time>
      </trkpt>
      <trkpt lat="46.80824" lon="-1.92313">
        <ele>5</ele>
        <time>2018-04-22T01:36:17Z</time>
      </trkpt>
      <trkpt lat="46.8083" lon="-1.92316">
        <ele>5</ele>
        <time>2018-04-22T01:37:17Z</time>
      </trkpt>
      <trkpt lat="46.80837" lon="-1.9232">
        <ele>5</ele>
        <time>2018-04-22T01:38:17Z</time>
      </trkpt>
      <trkpt lat="46.80849" lon="-1.92331">
        <ele>5</ele>
        <time>2018-04-22T01:39:17Z</time>
      </trkpt>
      <trkpt lat="46.80901" lon="-1.92383">
        <ele>4</ele>
        <time>2018-04-22T01:40:17Z</time>
      </trkpt>
      <trkpt lat="46.80901" lon="-1.92383">
        <ele>4</ele>
        <time>2018-04-22T01:41:17Z</time>
      </trkpt>
      <trkpt lat="46.80914" lon="-1.92396">
        <ele>3</ele>
        <time>2018-04-22T01:42:17Z</time>
      </trkpt>
      <trkpt lat="46.80982" lon="-1.92464">
        <ele>1</ele>
        <time>2018-04-22T01:43:17Z</time>
      </trkpt>
      <trkpt lat="46.81072" lon="-1.92552">
        <ele>1</ele>
        <time>2018-04-22T01:44:17Z</time>
      </trkpt>
      <trkpt lat="46.81115" lon="-1.92593">
        <ele>1</ele>
        <time>2018-04-22T01:45:17Z</time>
      </trkpt>
      <trkpt lat="46.81151" lon="-1.92628">
        <ele>1</ele>
        <time>2018-04-22T01:46:17Z</time>
      </trkpt>
      <trkpt lat="46.81211" lon="-1.92688">
        <ele>1</ele>
        <time>2018-04-22T01:47:17Z</time>
      </trkpt>
      <trkpt lat="46.81237" lon="-1.92713">
        <ele>2</ele>
        <time>2018-04-22T01:48:17Z</time>
      </trkpt>
      <trkpt lat="46.81317" lon="-1.92792">
        <ele>2</ele>
        <time>2018-04-22T01:49:17Z</time>
      </trkpt>
      <trkpt lat="46.81351" lon="-1.92824">
        <ele>2</ele>
        <time>2018-04-22T01:50:17Z</time>
      </trkpt>
      <trkpt lat="46.81394" lon="-1.92867">
        <ele>1</ele>
        <time>2018-04-22T01:51:17Z</time>
      </trkpt>
      <trkpt lat="46.81401" lon="-1.92874">
        <ele>1</ele>
        <time>2018-04-22T01:52:17Z</time>
      </trkpt>
      <trkpt lat="46.8141" lon="-1.92884">
        <ele>1</ele>
        <time>2018-04-22T01:53:17Z</time>
      </trkpt>
      <trkpt lat="46.81423" lon="-1.929">
        <ele>2</ele>
        <time>2018-04-22T01:54:17Z</time>
      </trkpt>
      <trkpt lat="46.8143" lon="-1.9291">
        <ele>2</ele>
        <time>2018-04-22T01:55:17Z</time>
      </trkpt>
      <trkpt lat="46.81435" lon="-1.92918">
        <ele>2</ele>
        <time>2018-04-22T01:56:17Z</time>
      </trkpt>
      <trkpt lat="46.8144" lon="-1.92927">
        <ele>2</ele>
        <time>2018-04-22T01:57:17Z</time>
      </trkpt>
      <trkpt lat="46.81444" lon="-1.92937">
        <ele>2</ele>
        <time>2018-04-22T01:58:17Z</time>
      </trkpt>
      <trkpt lat="46.81449" lon="-1.92948">
        <ele>1</ele>
        <time>2018-04-22T01:59:17Z</time>
      </trkpt>
      <trkpt lat="46.81453" lon="-1.92962">
        <ele>1</ele>
        <time>2018-04-22T02:00:17Z</time>
      </trkpt>
      <trkpt lat="46.81464" lon="-1.93005">
        <ele>2</ele>
        <time>2018-04-22T02:01:17Z</time>
      </trkpt>
      <trkpt lat="46.81498" lon="-1.93149">
        <ele>1</ele>
        <time>2018-04-22T02:02:17Z</time>
      </trkpt>
      <trkpt lat="46.81506" lon="-1.93178">
        <ele>1</ele>
        <time>2018-04-22T02:03:17Z</time>
      </trkpt>
      <trkpt lat="46.81512" lon="-1.93195">
        <ele>1</ele>
        <time>2018-04-22T02:04:17Z</time>
      </trkpt>
      <trkpt lat="46.81519" lon="-1.93214">
        <ele>1</ele>
        <time>2018-04-22T02:05:17Z</time>
      </trkpt>
      <trkpt lat="46.81527" lon="-1.93227">
        <ele>1</ele>
        <time>2018-04-22T02:06:17Z</time>
      </trkpt>
      <trkpt lat="46.81534" lon="-1.93239">
        <ele>1</ele>
        <time>2018-04-22T02:07:17Z</time>
      </trkpt>
      <trkpt lat="46.81543" lon="-1.93252">
        <ele>1</ele>
        <time>2018-04-22T02:08:17Z</time>
      </trkpt>
      <trkpt lat="46.81551" lon="-1.93261">
        <ele>1</ele>
        <time>2018-04-22T02:09:17Z</time>
      </trkpt>
      <trkpt lat="46.81559" lon="-1.9327">
        <ele>1</ele>
        <time>2018-04-22T02:10:17Z</time>
      </trkpt>
      <trkpt lat="46.81583" lon="-1.93291">
        <ele>1</ele>
        <time>2018-04-22T02:11:17Z</time>
      </trkpt>
      <trkpt lat="46.81629" lon="-1.93329">
        <ele>2</ele>
        <time>2018-04-22T02:12:17Z</time>
      </trkpt>
      <trkpt lat="46.81652" lon="-1.93351">
        <ele>1</ele>
        <time>2018-04-22T02:13:17Z</time>
      </trkpt>
      <trkpt lat="46.81664" lon="-1.93363">
        <ele>1</ele>
        <time>2018-04-22T02:14:17Z</time>
      </trkpt>
      <trkpt lat="46.81674" lon="-1.93376">
        <ele>1</ele>
        <time>2018-04-22T02:15:17Z</time>
      </trkpt>
      <trkpt lat="46.81694" lon="-1.93401">
        <ele>1</ele>
        <time>2018-04-22T02:16:17Z</time>
      </trkpt>
      <trkpt lat="46.81715" lon="-1.93433">
        <ele>1</ele>
        <time>2018-04-22T02:17:17Z</time>
      </trkpt>
      <trkpt lat="46.81778" lon="-1.93531">
        <ele>1</ele>
        <time>2018-04-22T02:18:17Z</time>
      </trkpt>
      <trkpt lat="46.81787" lon="-1.93545">
        <ele>1</ele>
        <time>2018-04-22T02:19:17Z</time>
      </trkpt>
      <trkpt lat="46.81795" lon="-1.9356">
        <ele>1</ele>
        <time>2018-04-22T02:20:17Z</time>
      </trkpt>
      <trkpt lat="46.81801" lon="-1.93572">
        <ele>1</ele>
        <time>2018-04-22T02:21:17Z</time>
      </trkpt>
      <trkpt lat="46.81806" lon="-1.93584">
        <ele>1</ele>
        <time>2018-04-22T02:22:17Z</time>
      </trkpt>
      <trkpt lat="46.81811" lon="-1.93596">
        <ele>1</ele>
        <time>2018-04-22T02:23:17Z</time>
      </trkpt>
      <trkpt lat="46.81843" lon="-1.93711">
        <ele>2</ele>
        <time>2018-04-22T02:24:17Z</time>
      </trkpt>
      <trkpt lat="46.81851" lon="-1.93729">
        <ele>2</ele>
        <time>2018-04-22T02:25:17Z</time>
      </trkpt>
      <trkpt lat="46.81856" lon="-1.93741">
        <ele>2</ele>
        <time>2018-04-22T02:26:17Z</time>
      </trkpt>
      <trkpt lat="46.8186" lon="-1.9375">
        <ele>2</ele>
        <time>2018-04-22T02:27:17Z</time>
      </trkpt>
      <trkpt lat="46.81865" lon="-1.93758">
        <ele>1.8</ele>
        <time>2018-04-22T02:28:17Z</time>
      </trkpt>
      <trkpt lat="46.81869" lon="-1.93765">
        <ele>1.6</ele>
        <time>2018-04-22T02:29:17Z</time>
      </trkpt>
      <trkpt lat="46.81991" lon="-1.9393">
        <ele>1</ele>
        <time>2018-04-22T02:30:17Z</time>
      </trkpt>
      <trkpt lat="46.81995" lon="-1.93934">
        <ele>1</ele>
        <time>2018-04-22T02:31:17Z</time>
      </trkpt>
      <trkpt lat="46.81999" lon="-1.93935">
        <ele>1</ele>
        <time>2018-04-22T02:32:17Z</time>
      </trkpt>
      <trkpt lat="46.82006" lon="-1.93945">
        <ele>1</ele>
        <time>2018-04-22T02:33:17Z</time>
      </trkpt>
      <trkpt lat="46.82023" lon="-1.93965">
        <ele>1</ele>
        <time>2018-04-22T02:34:17Z</time>
      </trkpt>
      <trkpt lat="46.82025" lon="-1.93963">
        <ele>1</ele>
        <time>2018-04-22T02:35:17Z</time>
      </trkpt>
      <trkpt lat="46.82026" lon="-1.93962">
        <ele>1</ele>
        <time>2018-04-22T02:36:17Z</time>
      </trkpt>
      <trkpt lat="46.82027" lon="-1.93962">
        <ele>1</ele>
        <time>2018-04-22T02:37:17Z</time>
      </trkpt>
      <trkpt lat="46.82028" lon="-1.93961">
        <ele>1</ele>
        <time>2018-04-22T02:38:17Z</time>
      </trkpt>
      <trkpt lat="46.82029" lon="-1.93961">
        <ele>1</ele>
        <time>2018-04-22T02:39:17Z</time>
      </trkpt>
      <trkpt lat="46.8203" lon="-1.9396">
        <ele>1</ele>
        <time>2018-04-22T02:40:17Z</time>
      </trkpt>
      <trkpt lat="46.82031" lon="-1.9396">
        <ele>1</ele>
        <time>2018-04-22T02:41:17Z</time>
      </trkpt>
      <trkpt lat="46.82032" lon="-1.9396">
        <ele>1</ele>
        <time>2018-04-22T02:42:17Z</time>
      </trkpt>
      <trkpt lat="46.82033" lon="-1.9396">
        <ele>1</ele>
        <time>2018-04-22T02:43:17Z</time>
      </trkpt>
      <trkpt lat="46.82034" lon="-1.9396">
        <ele>1</ele>
        <time>2018-04-22T02:44:17Z</time>
      </trkpt>
      <trkpt lat="46.82035" lon="-1.9396">
        <ele>1</ele>
        <time>2018-04-22T02:45:17Z</time>
      </trkpt>
      <trkpt lat="46.82036" lon="-1.93961">
        <ele>1</ele>
        <time>2018-04-22T02:46:17Z</time>
      </trkpt>
      <trkpt lat="46.82037" lon="-1.93961">
        <ele>1</ele>
        <time>2018-04-22T02:47:17Z</time>
      </trkpt>
      <trkpt lat="46.82038" lon="-1.93961">
        <ele>1</ele>
        <time>2018-04-22T02:48:17Z</time>
      </trkpt>
      <trkpt lat="46.82039" lon="-1.93962">
        <ele>1</ele>
        <time>2018-04-22T02:49:17Z</time>
      </trkpt>
      <trkpt lat="46.8204" lon="-1.93963">
        <ele>1</ele>
        <time>2018-04-22T02:50:17Z</time>
      </trkpt>
      <trkpt lat="46.82041" lon="-1.93963">
        <ele>1</ele>
        <time>2018-04-22T02:51:17Z</time>
      </trkpt>
      <trkpt lat="46.82042" lon="-1.93964">
        <ele>1</ele>
        <time>2018-04-22T02:52:17Z</time>
      </trkpt>
      <trkpt lat="46.82043" lon="-1.93966">
        <ele>1</ele>
        <time>2018-04-22T02:53:17Z</time>
      </trkpt>
      <trkpt lat="46.82044" lon="-1.93968">
        <ele>1</ele>
        <time>2018-04-22T02:54:17Z</time>
      </trkpt>
      <trkpt lat="46.82045" lon="-1.93969">
        <ele>1</ele>
        <time>2018-04-22T02:55:17Z</time>
      </trkpt>
      <trkpt lat="46.82046" lon="-1.9397">
        <ele>1</ele>
        <time>2018-04-22T02:56:17Z</time>
      </trkpt>
      <trkpt lat="46.82046" lon="-1.93972">
        <ele>1</ele>
        <time>2018-04-22T02:57:17Z</time>
      </trkpt>
      <trkpt lat="46.82047" lon="-1.93973">
        <ele>1</ele>
        <time>2018-04-22T02:58:17Z</time>
      </trkpt>
      <trkpt lat="46.82047" lon="-1.93975">
        <ele>1</ele>
        <time>2018-04-22T02:59:17Z</time>
      </trkpt>
      <trkpt lat="46.82047" lon="-1.93976">
        <ele>1</ele>
        <time>2018-04-22T03:00:17Z</time>
      </trkpt>
      <trkpt lat="46.82048" lon="-1.93978">
        <ele>1</ele>
        <time>2018-04-22T03:01:17Z</time>
      </trkpt>
      <trkpt lat="46.82048" lon="-1.93979">
        <ele>1</ele>
        <time>2018-04-22T03:02:17Z</time>
      </trkpt>
      <trkpt lat="46.82048" lon="-1.93981">
        <ele>1</ele>
        <time>2018-04-22T03:03:17Z</time>
      </trkpt>
      <trkpt lat="46.82048" lon="-1.93982">
        <ele>1</ele>
        <time>2018-04-22T03:04:17Z</time>
      </trkpt>
      <trkpt lat="46.82048" lon="-1.93984">
        <ele>1</ele>
        <time>2018-04-22T03:05:17Z</time>
      </trkpt>
      <trkpt lat="46.82048" lon="-1.93985">
        <ele>1</ele>
        <time>2018-04-22T03:06:17Z</time>
      </trkpt>
      <trkpt lat="46.82048" lon="-1.93987">
        <ele>1</ele>
        <time>2018-04-22T03:07:17Z</time>
      </trkpt>
      <trkpt lat="46.82048" lon="-1.93988">
        <ele>1</ele>
        <time>2018-04-22T03:08:17Z</time>
      </trkpt>
      <trkpt lat="46.82066" lon="-1.94025">
        <ele>1</ele>
        <time>2018-04-22T03:09:17Z</time>
      </trkpt>
      <trkpt lat="46.82077" lon="-1.94037">
        <ele>1</ele>
        <time>2018-04-22T03:10:17Z</time>
      </trkpt>
      <trkpt lat="46.8211" lon="-1.94072">
        <ele>1</ele>
        <time>2018-04-22T03:11:17Z</time>
      </trkpt>
      <trkpt lat="46.82148" lon="-1.94105">
        <ele>1</ele>
        <time>2018-04-22T03:12:17Z</time>
      </trkpt>
      <trkpt lat="46.82158" lon="-1.94113">
        <ele>1</ele>
        <time>2018-04-22T03:13:17Z</time>
      </trkpt>
      <trkpt lat="46.82174" lon="-1.94124">
        <ele>1</ele>
        <time>2018-04-22T03:14:17Z</time>
      </trkpt>
      <trkpt lat="46.82196" lon="-1.94138">
        <ele>1</ele>
        <time>2018-04-22T03:15:17Z</time>
      </trkpt>
      <trkpt lat="46.82214" lon="-1.94147">
        <ele>1</ele>
        <time>2018-04-22T03:16:17Z</time>
      </trkpt>
      <trkpt lat="46.82261" lon="-1.94172">
        <ele>1</ele>
        <time>2018-04-22T03:17:17Z</time>
      </trkpt>
      <trkpt lat="46.8232" lon="-1.94199">
        <ele>1</ele>
        <time>2018-04-22T03:18:17Z</time>
      </trkpt>
      <trkpt lat="46.82362" lon="-1.94219">
        <ele>1</ele>
        <time>2018-04-22T03:19:17Z</time>
      </trkpt>
      <trkpt lat="46.82363" lon="-1.9422">
        <ele>1</ele>
        <time>2018-04-22T03:20:17Z</time>
      </trkpt>
      <trkpt lat="46.82369" lon="-1.94222">
        <ele>1</ele>
        <time>2018-04-22T03:21:17Z</time>
      </trkpt>
      <trkpt lat="46.82393" lon="-1.94234">
        <ele>1</ele>
        <time>2018-04-22T03:22:17Z</time>
      </trkpt>
      <trkpt lat="46.82402" lon="-1.94238">
        <ele>1</ele>
        <time>2018-04-22T03:23:17Z</time>
      </trkpt>
      <trkpt lat="46.82415" lon="-1.94244">
        <ele>1</ele>
        <time>2018-04-22T03:24:17Z</time>
      </trkpt>
      <trkpt lat="46.82457" lon="-1.94261">
        <ele>1</ele>
        <time>2018-04-22T03:25:17Z</time>
      </trkpt>
      <trkpt lat="46.82504" lon="-1.94279">
        <ele>2</ele>
        <time>2018-04-22T03:26:17Z</time>
      </trkpt>
      <trkpt lat="46.8252" lon="-1.94284">
        <ele>1</ele>
        <time>2018-04-22T03:27:17Z</time>
      </trkpt>
      <trkpt lat="46.8256" lon="-1.94299">
        <ele>2</ele>
        <time>2018-04-22T03:28:17Z</time>
      </trkpt>
      <trkpt lat="46.8265" lon="-1.94333">
        <ele>1</ele>
        <time>2018-04-22T03:29:17Z</time>
      </trkpt>
      <trkpt lat="46.82697" lon="-1.9435">
        <ele>1</ele>
        <time>2018-04-22T03:30:17Z</time>
      </trkpt>
      <trkpt lat="46.82743" lon="-1.94367">
        <ele>1.4</ele>
        <time>2018-04-22T03:31:17Z</time>
      </trkpt>
      <trkpt lat="46.82772" lon="-1.94378">
        <ele>1</ele>
        <time>2018-04-22T03:32:17Z</time>
      </trkpt>
      <trkpt lat="46.8278" lon="-1.94381">
        <ele>1</ele>
        <time>2018-04-22T03:33:17Z</time>
      </trkpt>
      <trkpt lat="46.82808" lon="-1.94383">
        <ele>1</ele>
        <time>2018-04-22T03:34:17Z</time>
      </trkpt>
      <trkpt lat="46.82808" lon="-1.94382">
        <ele>1</ele>
        <time>2018-04-22T03:35:17Z</time>
      </trkpt>
      <trkpt lat="46.82809" lon="-1.94382">
        <ele>1</ele>
        <time>2018-04-22T03:36:17Z</time>
      </trkpt>
      <trkpt lat="46.82809" lon="-1.94381">
        <ele>1</ele>
        <time>2018-04-22T03:37:17Z</time>
      </trkpt>
      <trkpt lat="46.8281" lon="-1.94381">
        <ele>1</ele>
        <time>2018-04-22T03:38:17Z</time>
      </trkpt>
      <trkpt lat="46.8281" lon="-1.9438">
        <ele>1</ele>
        <time>2018-04-22T03:39:17Z</time>
      </trkpt>
      <trkpt lat="46.82811" lon="-1.9438">
        <ele>1</ele>
        <time>2018-04-22T03:40:17Z</time>
      </trkpt>
      <trkpt lat="46.82811" lon="-1.94379">
        <ele>1</ele>
        <time>2018-04-22T03:41:17Z</time>
      </trkpt>
      <trkpt lat="46.82812" lon="-1.94379">
        <ele>1</ele>
        <time>2018-04-22T03:42:17Z</time>
      </trkpt>
      <trkpt lat="46.82813" lon="-1.94379">
        <ele>1</ele>
        <time>2018-04-22T03:43:17Z</time>
      </trkpt>
      <trkpt lat="46.82813" lon="-1.94378">
        <ele>1</ele>
        <time>2018-04-22T03:44:17Z</time>
      </trkpt>
      <trkpt lat="46.82814" lon="-1.94378">
        <ele>1</ele>
        <time>2018-04-22T03:45:17Z</time>
      </trkpt>
      <trkpt lat="46.82815" lon="-1.94378">
        <ele>1</ele>
        <time>2018-04-22T03:46:17Z</time>
      </trkpt>
      <trkpt lat="46.82816" lon="-1.94378">
        <ele>1</ele>
        <time>2018-04-22T03:47:17Z</time>
      </trkpt>
      <trkpt lat="46.82817" lon="-1.94378">
        <ele>1</ele>
        <time>2018-04-22T03:48:17Z</time>
      </trkpt>
      <trkpt lat="46.82818" lon="-1.94378">
        <ele>1</ele>
        <time>2018-04-22T03:49:17Z</time>
      </trkpt>
      <trkpt lat="46.82818" lon="-1.94379">
        <ele>1</ele>
        <time>2018-04-22T03:50:17Z</time>
      </trkpt>
      <trkpt lat="46.82819" lon="-1.94379">
        <ele>1</ele>
        <time>2018-04-22T03:51:17Z</time>
      </trkpt>
      <trkpt lat="46.8282" lon="-1.94379">
        <ele>1</ele>
        <time>2018-04-22T03:52:17Z</time>
      </trkpt>
      <trkpt lat="46.8282" lon="-1.9438">
        <ele>1</ele>
        <time>2018-04-22T03:53:17Z</time>
      </trkpt>
      <trkpt lat="46.82821" lon="-1.9438">
        <ele>1</ele>
        <time>2018-04-22T03:54:17Z</time>
      </trkpt>
      <trkpt lat="46.82821" lon="-1.94381">
        <ele>1</ele>
        <time>2018-04-22T03:55:17Z</time>
      </trkpt>
      <trkpt lat="46.82822" lon="-1.94381">
        <ele>1</ele>
        <time>2018-04-22T03:56:17Z</time>
      </trkpt>
      <trkpt lat="46.82822" lon="-1.94382">
        <ele>1</ele>
        <time>2018-04-22T03:57:17Z</time>
      </trkpt>
      <trkpt lat="46.82823" lon="-1.94383">
        <ele>1</ele>
        <time>2018-04-22T03:58:17Z</time>
      </trkpt>
      <trkpt lat="46.82823" lon="-1.94384">
        <ele>1</ele>
        <time>2018-04-22T03:59:17Z</time>
      </trkpt>
      <trkpt lat="46.82824" lon="-1.94384">
        <ele>1</ele>
        <time>2018-04-22T04:00:17Z</time>
      </trkpt>
      <trkpt lat="46.82824" lon="-1.94385">
        <ele>1</ele>
        <time>2018-04-22T04:01:17Z</time>
      </trkpt>
      <trkpt lat="46.82824" lon="-1.94386">
        <ele>1</ele>
        <time>2018-04-22T04:02:17Z</time>
      </trkpt>
      <trkpt lat="46.82824" lon="-1.94387">
        <ele>1</ele>
        <time>2018-04-22T04:03:17Z</time>
      </trkpt>
      <trkpt lat="46.82825" lon="-1.94387">
        <ele>1</ele>
        <time>2018-04-22T04:04:17Z</time>
      </trkpt>
      <trkpt lat="46.82825" lon="-1.94388">
        <ele>1</ele>
        <time>2018-04-22T04:05:17Z</time>
      </trkpt>
      <trkpt lat="46.82825" lon="-1.94389">
        <ele>1</ele>
        <time>2018-04-22T04:06:17Z</time>
      </trkpt>
      <trkpt lat="46.82825" lon="-1.9439">
        <ele>1</ele>
        <time>2018-04-22T04:07:17Z</time>
      </trkpt>
      <trkpt lat="46.82825" lon="-1.94391">
        <ele>1</ele>
        <time>2018-04-22T04:08:17Z</time>
      </trkpt>
      <trkpt lat="46.82829" lon="-1.94396">
        <ele>1</ele>
        <time>2018-04-22T04:09:17Z</time>
      </trkpt>
      <trkpt lat="46.82835" lon="-1.94402">
        <ele>1</ele>
        <time>2018-04-22T04:10:17Z</time>
      </trkpt>
      <trkpt lat="46.82981" lon="-1.94473">
        <ele>1</ele>
        <time>2018-04-22T04:11:17Z</time>
      </trkpt>
      <trkpt lat="46.83045" lon="-1.94504">
        <ele>2</ele>
        <time>2018-04-22T04:12:17Z</time>
      </trkpt>
      <trkpt lat="46.83057" lon="-1.94509">
        <ele>2</ele>
        <time>2018-04-22T04:13:17Z</time>
      </trkpt>
      <trkpt lat="46.83168" lon="-1.94574">
        <ele>1.7</ele>
        <time>2018-04-22T04:14:17Z</time>
      </trkpt>
      <trkpt lat="46.83242" lon="-1.9462">
        <ele>1.4</ele>
        <time>2018-04-22T04:15:17Z</time>
      </trkpt>
      <trkpt lat="46.83302" lon="-1.94658">
        <ele>1</ele>
        <time>2018-04-22T04:16:17Z</time>
      </trkpt>
      <trkpt lat="46.83355" lon="-1.9469">
        <ele>2</ele>
        <time>2018-04-22T04:17:17Z</time>
      </trkpt>
      <trkpt lat="46.83414" lon="-1.94726">
        <ele>2</ele>
        <time>2018-04-22T04:18:17Z</time>
      </trkpt>
      <trkpt lat="46.83462" lon="-1.94754">
        <ele>2</ele>
        <time>2018-04-22T04:19:17Z</time>
      </trkpt>
      <trkpt lat="46.83516" lon="-1.94788">
        <ele>1</ele>
        <time>2018-04-22T04:20:17Z</time>
      </trkpt>
      <trkpt lat="46.83547" lon="-1.94807">
        <ele>1</ele>
        <time>2018-04-22T04:21:17Z</time>
      </trkpt>
      <trkpt lat="46.8355" lon="-1.94809">
        <ele>1</ele>
        <time>2018-04-22T04:22:17Z</time>
      </trkpt>
      <trkpt lat="46.83618" lon="-1.94851">
        <ele>1</ele>
        <time>2018-04-22T04:23:17Z</time>
      </trkpt>
      <trkpt lat="46.83685" lon="-1.94894">
        <ele>1</ele>
        <time>2018-04-22T04:24:17Z</time>
      </trkpt>
      <trkpt lat="46.83735" lon="-1.94923">
        <ele>1</ele>
        <time>2018-04-22T04:25:17Z</time>
      </trkpt>
      <trkpt lat="46.83765" lon="-1.94942">
        <ele>1</ele>
        <time>2018-04-22T04:26:17Z</time>
      </trkpt>
      <trkpt lat="46.83847" lon="-1.94993">
        <ele>1</ele>
        <time>2018-04-22T04:27:17Z</time>
      </trkpt>
      <trkpt lat="46.8391" lon="-1.95031">
        <ele>1</ele>
        <time>2018-04-22T04:28:17Z</time>
      </trkpt>
      <trkpt lat="46.83925" lon="-1.95042">
        <ele>1</ele>
        <time>2018-04-22T04:29:17Z</time>
      </trkpt>
      <trkpt lat="46.83933" lon="-1.95048">
        <ele>1</ele>
        <time>2018-04-22T04:30:17Z</time>
      </trkpt>
      <trkpt lat="46.84038" lon="-1.95112">
        <ele>1</ele>
        <time>2018-04-22T04:31:17Z</time>
      </trkpt>
      <trkpt lat="46.84074" lon="-1.95135">
        <ele>1</ele>
        <time>2018-04-22T04:32:17Z</time>
      </trkpt>
      <trkpt lat="46.84195" lon="-1.95212">
        <ele>2</ele>
        <time>2018-04-22T04:33:17Z</time>
      </trkpt>
      <trkpt lat="46.84332" lon="-1.95299">
        <ele>2</ele>
        <time>2018-04-22T04:34:17Z</time>
      </trkpt>
      <trkpt lat="46.84618" lon="-1.95479">
        <ele>1.8</ele>
        <time>2018-04-22T04:35:17Z</time>
      </trkpt>
      <trkpt lat="46.84623" lon="-1.95482">
        <ele>1.8</ele>
        <time>2018-04-22T04:36:17Z</time>
      </trkpt>
      <trkpt lat="46.84675" lon="-1.95517">
        <ele>1</ele>
        <time>2018-04-22T04:37:17Z</time>
      </trkpt>
      <trkpt lat="46.8477" lon="-1.95577">
        <ele>2</ele>
        <time>2018-04-22T04:38:17Z</time>
      </trkpt>
      <trkpt lat="46.84912" lon="-1.95668">
        <ele>2</ele>
        <time>2018-04-22T04:39:17Z</time>
      </trkpt>
      <trkpt lat="46.85067" lon="-1.95766">
        <ele>1</ele>
        <time>2018-04-22T04:40:17Z</time>
      </trkpt>
      <trkpt lat="46.85185" lon="-1.9584">
        <ele>1</ele>
        <time>2018-04-22T04:41:17Z</time>
      </trkpt>
      <trkpt lat="46.85204" lon="-1.95852">
        <ele>1</ele>
        <time>2018-04-22T04:42:17Z</time>
      </trkpt>
      <trkpt lat="46.85346" lon="-1.95943">
        <ele>1</ele>
        <time>2018-04-22T04:43:17Z</time>
      </trkpt>
      <trkpt lat="46.8545" lon="-1.96009">
        <ele>1</ele>
        <time>2018-04-22T04:44:17Z</time>
      </trkpt>
      <trkpt lat="46.85543" lon="-1.96069">
        <ele>1</ele>
        <time>2018-04-22T04:45:17Z</time>
      </trkpt>
      <trkpt lat="46.85645" lon="-1.96132">
        <ele>1</ele>
        <time>2018-04-22T04:46:17Z</time>
      </trkpt>
      <trkpt lat="46.85722" lon="-1.96182">
        <ele>1</ele>
        <time>2018-04-22T04:47:17Z</time>
      </trkpt>
      <trkpt lat="46.85748" lon="-1.96197">
        <ele>1</ele>
        <time>2018-04-22T04:48:17Z</time>
      </trkpt>
      <trkpt lat="46.85748" lon="-1.96197">
        <ele>1</ele>
        <time>2018-04-22T04:49:17Z</time>
      </trkpt>
      <trkpt lat="46.85732" lon="-1.96254">
        <ele>1.4</ele>
        <time>2018-04-22T04:50:17Z</time>
      </trkpt>
      <trkpt lat="46.85727" lon="-1.96266">
        <ele>1.6</ele>
        <time>2018-04-22T04:51:17Z</time>
      </trkpt>
      <trkpt lat="46.85723" lon="-1.96274">
        <ele>1.9</ele>
        <time>2018-04-22T04:52:17Z</time>
      </trkpt>
      <trkpt lat="46.85717" lon="-1.96285">
        <ele>1.8</ele>
        <time>2018-04-22T04:53:17Z</time>
      </trkpt>
      <trkpt lat="46.85712" lon="-1.96291">
        <ele>1.7</ele>
        <time>2018-04-22T04:54:17Z</time>
      </trkpt>
      <trkpt lat="46.85703" lon="-1.963">
        <ele>1.8</ele>
        <time>2018-04-22T04:55:17Z</time>
      </trkpt>
      <trkpt lat="46.85684" lon="-1.96315">
        <ele>2</ele>
        <time>2018-04-22T04:56:17Z</time>
      </trkpt>
      <trkpt lat="46.8567" lon="-1.96331">
        <ele>2</ele>
        <time>2018-04-22T04:57:17Z</time>
      </trkpt>
      <trkpt lat="46.85657" lon="-1.96347">
        <ele>1.7</ele>
        <time>2018-04-22T04:58:17Z</time>
      </trkpt>
      <trkpt lat="46.85643" lon="-1.9637">
        <ele>1.9</ele>
        <time>2018-04-22T04:59:17Z</time>
      </trkpt>
      <trkpt lat="46.85637" lon="-1.9638">
        <ele>2</ele>
        <time>2018-04-22T05:00:17Z</time>
      </trkpt>
      <trkpt lat="46.85632" lon="-1.96393">
        <ele>1.9</ele>
        <time>2018-04-22T05:01:17Z</time>
      </trkpt>
      <trkpt lat="46.85627" lon="-1.96409">
        <ele>1.6</ele>
        <time>2018-04-22T05:02:17Z</time>
      </trkpt>
      <trkpt lat="46.85626" lon="-1.96423">
        <ele>1.5</ele>
        <time>2018-04-22T05:03:17Z</time>
      </trkpt>
      <trkpt lat="46.85627" lon="-1.96444">
        <ele>1.4</ele>
        <time>2018-04-22T05:04:17Z</time>
      </trkpt>
      <trkpt lat="46.85627" lon="-1.96462">
        <ele>1.4</ele>
        <time>2018-04-22T05:05:17Z</time>
      </trkpt>
      <trkpt lat="46.85626" lon="-1.96474">
        <ele>1.5</ele>
        <time>2018-04-22T05:06:17Z</time>
      </trkpt>
      <trkpt lat="46.85625" lon="-1.96484">
        <ele>1.7</ele>
        <time>2018-04-22T05:07:17Z</time>
      </trkpt>
      <trkpt lat="46.85622" lon="-1.96494">
        <ele>1.9</ele>
        <time>2018-04-22T05:08:17Z</time>
      </trkpt>
      <trkpt lat="46.85619" lon="-1.96501">
        <ele>2</ele>
        <time>2018-04-22T05:09:17Z</time>
      </trkpt>
      <trkpt lat="46.85615" lon="-1.96509">
        <ele>1.7</ele>
        <time>2018-04-22T05:10:17Z</time>
      </trkpt>
      <trkpt lat="46.85609" lon="-1.96515">
        <ele>1.5</ele>
        <time>2018-04-22T05:11:17Z</time>
      </trkpt>
      <trkpt lat="46.85603" lon="-1.96519">
        <ele>1.5</ele>
        <time>2018-04-22T05:12:17Z</time>
      </trkpt>
      <trkpt lat="46.85591" lon="-1.96525">
        <ele>1.8</ele>
        <time>2018-04-22T05:13:17Z</time>
      </trkpt>
      <trkpt lat="46.85582" lon="-1.9653">
        <ele>2</ele>
        <time>2018-04-22T05:14:17Z</time>
      </trkpt>
      <trkpt lat="46.85576" lon="-1.96534">
        <ele>2</ele>
        <time>2018-04-22T05:15:17Z</time>
      </trkpt>
      <trkpt lat="46.85569" lon="-1.96539">
        <ele>2</ele>
        <time>2018-04-22T05:16:17Z</time>
      </trkpt>
      <trkpt lat="46.85564" lon="-1.96545">
        <ele>2</ele>
        <time>2018-04-22T05:17:17Z</time>
      </trkpt>
      <trkpt lat="46.85558" lon="-1.96553">
        <ele>2</ele>
        <time>2018-04-22T05:18:17Z</time>
      </trkpt>
      <trkpt lat="46.85553" lon="-1.9656">
        <ele>2</ele>
        <time>2018-04-22T05:19:17Z</time>
      </trkpt>
      <trkpt lat="46.85547" lon="-1.96573">
        <ele>1.8</ele>
        <time>2018-04-22T05:20:17Z</time>
      </trkpt>
      <trkpt lat="46.85538" lon="-1.96599">
        <ele>1.7</ele>
        <time>2018-04-22T05:21:17Z</time>
      </trkpt>
      <trkpt lat="46.85529" lon="-1.9662">
        <ele>2</ele>
        <time>2018-04-22T05:22:17Z</time>
      </trkpt>
      <trkpt lat="46.85517" lon="-1.96653">
        <ele>2</ele>
        <time>2018-04-22T05:23:17Z</time>
      </trkpt>
      <trkpt lat="46.85505" lon="-1.96695">
        <ele>2</ele>
        <time>2018-04-22T05:24:17Z</time>
      </trkpt>
      <trkpt lat="46.85501" lon="-1.96708">
        <ele>2</ele>
        <time>2018-04-22T05:25:17Z</time>
      </trkpt>
      <trkpt lat="46.85499" lon="-1.96721">
        <ele>1</ele>
        <time>2018-04-22T05:26:17Z</time>
      </trkpt>
      <trkpt lat="46.85497" lon="-1.96734">
        <ele>1</ele>
        <time>2018-04-22T05:27:17Z</time>
      </trkpt>
      <trkpt lat="46.85497" lon="-1.96744">
        <ele>1</ele>
        <time>2018-04-22T05:28:17Z</time>
      </trkpt>
      <trkpt lat="46.85497" lon="-1.96756">
        <ele>1</ele>
        <time>2018-04-22T05:29:17Z</time>
      </trkpt>
      <trkpt lat="46.85499" lon="-1.96768">
        <ele>1</ele>
        <time>2018-04-22T05:30:17Z</time>
      </trkpt>
      <trkpt lat="46.855" lon="-1.96783">
        <ele>1</ele>
        <time>2018-04-22T05:31:17Z</time>
      </trkpt>
      <trkpt lat="46.85506" lon="-1.96806">
        <ele>2</ele>
        <time>2018-04-22T05:32:17Z</time>
      </trkpt>
      <trkpt lat="46.85517" lon="-1.96838">
        <ele>2</ele>
        <time>2018-04-22T05:33:17Z</time>
      </trkpt>
      <trkpt lat="46.85521" lon="-1.96852">
        <ele>1</ele>
        <time>2018-04-22T05:34:17Z</time>
      </trkpt>
      <trkpt lat="46.85525" lon="-1.96867">
        <ele>1</ele>
        <time>2018-04-22T05:35:17Z</time>
      </trkpt>
      <trkpt lat="46.85527" lon="-1.96882">
        <ele>1</ele>
        <time>2018-04-22T05:36:17Z</time>
      </trkpt>
      <trkpt lat="46.85531" lon="-1.96913">
        <ele>1</ele>
        <time>2018-04-22T05:37:17Z</time>
      </trkpt>
      <trkpt lat="46.85539" lon="-1.9699">
        <ele>1</ele>
        <time>2018-04-22T05:38:17Z</time>
      </trkpt>
      <trkpt lat="46.8554" lon="-1.97006">
        <ele>1</ele>
        <time>2018-04-22T05:39:17Z</time>
      </trkpt>
      <trkpt lat="46.85541" lon="-1.97016">
        <ele>1</ele>
        <time>2018-04-22T05:40:17Z</time>
      </trkpt>
      <trkpt lat="46.8554" lon="-1.97028">
        <ele>1</ele>
        <time>2018-04-22T05:41:17Z</time>
      </trkpt>
      <trkpt lat="46.85538" lon="-1.97039">
        <ele>1</ele>
        <time>2018-04-22T05:42:17Z</time>
      </trkpt>
      <trkpt lat="46.85535" lon="-1.9705">
        <ele>1</ele>
        <time>2018-04-22T05:43:17Z</time>
      </trkpt>
      <trkpt lat="46.85522" lon="-1.97086">
        <ele>1</ele>
        <time>2018-04-22T05:44:17Z</time>
      </trkpt>
      <trkpt lat="46.85515" lon="-1.97106">
        <ele>1</ele>
        <time>2018-04-22T05:45:17Z</time>
      </trkpt>
      <trkpt lat="46.85499" lon="-1.97151">
        <ele>3</ele>
        <time>2018-04-22T05:46:17Z</time>
      </trkpt>
      <trkpt lat="46.85475" lon="-1.97228">
        <ele>3</ele>
        <time>2018-04-22T05:47:17Z</time>
      </trkpt>
      <trkpt lat="46.85461" lon="-1.97276">
        <ele>2</ele>
        <time>2018-04-22T05:48:17Z</time>
      </trkpt>
      <trkpt lat="46.85452" lon="-1.97306">
        <ele>1</ele>
        <time>2018-04-22T05:49:17Z</time>
      </trkpt>
      <trkpt lat="46.85446" lon="-1.97329">
        <ele>1</ele>
        <time>2018-04-22T05:50:17Z</time>
      </trkpt>
      <trkpt lat="46.8544" lon="-1.97344">
        <ele>1</ele>
        <time>2018-04-22T05:51:17Z</time>
      </trkpt>
      <trkpt lat="46.85434" lon="-1.97359">
        <ele>1</ele>
        <time>2018-04-22T05:52:17Z</time>
      </trkpt>
      <trkpt lat="46.85426" lon="-1.97373">
        <ele>1</ele>
        <time>2018-04-22T05:53:17Z</time>
      </trkpt>
      <trkpt lat="46.85418" lon="-1.97385">
        <ele>1</ele>
        <time>2018-04-22T05:54:17Z</time>
      </trkpt>
      <trkpt lat="46.85416" lon="-1.97389">
        <ele>1</ele>
        <time>2018-04-22T05:55:17Z</time>
      </trkpt>
      <trkpt lat="46.85405" lon="-1.97401">
        <ele>1</ele>
        <time>2018-04-22T05:56:17Z</time>
      </trkpt>
      <trkpt lat="46.85399" lon="-1.97407">
        <ele>1</ele>
        <time>2018-04-22T05:57:17Z</time>
      </trkpt>
      <trkpt lat="46.85391" lon="-1.97413">
        <ele>1</ele>
        <time>2018-04-22T05:58:17Z</time>
      </trkpt>
      <trkpt lat="46.85384" lon="-1.97417">
        <ele>1</ele>
        <time>2018-04-22T05:59:17Z</time>
      </trkpt>
      <trkpt lat="46.85369" lon="-1.97425">
        <ele>1</ele>
        <time>2018-04-22T06:00:17Z</time>
      </trkpt>
      <trkpt lat="46.85335" lon="-1.97435">
        <ele>1</ele>
        <time>2018-04-22T06:01:17Z</time>
      </trkpt>
      <trkpt lat="46.85304" lon="-1.97447">
        <ele>1</ele>
        <time>2018-04-22T06:02:17Z</time>
      </trkpt>
      <trkpt lat="46.85291" lon="-1.97454">
        <ele>1</ele>
        <time>2018-04-22T06:03:17Z</time>
      </trkpt>
      <trkpt lat="46.85283" lon="-1.9746">
        <ele>1</ele>
        <time>2018-04-22T06:04:17Z</time>
      </trkpt>
      <trkpt lat="46.85276" lon="-1.97467">
        <ele>1</ele>
        <time>2018-04-22T06:05:17Z</time>
      </trkpt>
      <trkpt lat="46.8527" lon="-1.97475">
        <ele>1</ele>
        <time>2018-04-22T06:06:17Z</time>
      </trkpt>
      <trkpt lat="46.85253" lon="-1.975">
        <ele>1</ele>
        <time>2018-04-22T06:07:17Z</time>
      </trkpt>
      <trkpt lat="46.85224" lon="-1.97541">
        <ele>1</ele>
        <time>2018-04-22T06:08:17Z</time>
      </trkpt>
      <trkpt lat="46.85214" lon="-1.97555">
        <ele>1</ele>
        <time>2018-04-22T06:09:17Z</time>
      </trkpt>
      <trkpt lat="46.85146" lon="-1.97611">
        <ele>1</ele>
        <time>2018-04-22T06:10:17Z</time>
      </trkpt>
      <trkpt lat="46.85068" lon="-1.97676">
        <ele>2</ele>
        <time>2018-04-22T06:11:17Z</time>
      </trkpt>
      <trkpt lat="46.85032" lon="-1.97705">
        <ele>2</ele>
        <time>2018-04-22T06:12:17Z</time>
      </trkpt>
      <trkpt lat="46.8501" lon="-1.97723">
        <ele>1</ele>
        <time>2018-04-22T06:13:17Z</time>
      </trkpt>
      <trkpt lat="46.84993" lon="-1.97736">
        <ele>1</ele>
        <time>2018-04-22T06:14:17Z</time>
      </trkpt>
      <trkpt lat="46.8498" lon="-1.97747">
        <ele>1</ele>
        <time>2018-04-22T06:15:17Z</time>
      </trkpt>
      <trkpt lat="46.84976" lon="-1.9775">
        <ele>2</ele>
        <time>2018-04-22T06:16:17Z</time>
      </trkpt>
      <trkpt lat="46.84971" lon="-1.97755">
        <ele>2</ele>
        <time>2018-04-22T06:17:17Z</time>
      </trkpt>
      <trkpt lat="46.84963" lon="-1.97763">
        <ele>2</ele>
        <time>2018-04-22T06:18:17Z</time>
      </trkpt>
      <trkpt lat="46.8495" lon="-1.97776">
        <ele>2</ele>
        <time>2018-04-22T06:19:17Z</time>
      </trkpt>
      <trkpt lat="46.84938" lon="-1.97792">
        <ele>1.9</ele>
        <time>2018-04-22T06:20:17Z</time>
      </trkpt>
      <trkpt lat="46.8492" lon="-1.97816">
        <ele>1.5</ele>
        <time>2018-04-22T06:21:17Z</time>
      </trkpt>
      <trkpt lat="46.8489" lon="-1.97861">
        <ele>2</ele>
        <time>2018-04-22T06:22:17Z</time>
      </trkpt>
      <trkpt lat="46.84844" lon="-1.97927">
        <ele>2</ele>
        <time>2018-04-22T06:23:17Z</time>
      </trkpt>
      <trkpt lat="46.84802" lon="-1.9799">
        <ele>2</ele>
        <time>2018-04-22T06:24:17Z</time>
      </trkpt>
      <trkpt lat="46.84778" lon="-1.98025">
        <ele>2</ele>
        <time>2018-04-22T06:25:17Z</time>
      </trkpt>
      <trkpt lat="46.8476" lon="-1.98051">
        <ele>1.2</ele>
        <time>2018-04-22T06:26:17Z</time>
      </trkpt>
      <trkpt lat="46.84754" lon="-1.98059">
        <ele>1.1</ele>
        <time>2018-04-22T06:27:17Z</time>
      </trkpt>
      <trkpt lat="46.84749" lon="-1.98066">
        <ele>1.4</ele>
        <time>2018-04-22T06:28:17Z</time>
      </trkpt>
      <trkpt lat="46.84742" lon="-1.98073">
        <ele>1.7</ele>
        <time>2018-04-22T06:29:17Z</time>
      </trkpt>
      <trkpt lat="46.84737" lon="-1.98079">
        <ele>1.9</ele>
        <time>2018-04-22T06:30:17Z</time>
      </trkpt>
      <trkpt lat="46.84733" lon="-1.98083">
        <ele>2</ele>
        <time>2018-04-22T06:31:17Z</time>
      </trkpt>
      <trkpt lat="46.84725" lon="-1.98091">
        <ele>2</ele>
        <time>2018-04-22T06:32:17Z</time>
      </trkpt>
      <trkpt lat="46.84713" lon="-1.98101">
        <ele>2</ele>
        <time>2018-04-22T06:33:17Z</time>
      </trkpt>
      <trkpt lat="46.84696" lon="-1.98113">
        <ele>1.9</ele>
        <time>2018-04-22T06:34:17Z</time>
      </trkpt>
      <trkpt lat="46.84689" lon="-1.98118">
        <ele>1.8</ele>
        <time>2018-04-22T06:35:17Z</time>
      </trkpt>
      <trkpt lat="46.84685" lon="-1.98122">
        <ele>1.7</ele>
        <time>2018-04-22T06:36:17Z</time>
      </trkpt>
      <trkpt lat="46.84679" lon="-1.98129">
        <ele>1.7</ele>
        <time>2018-04-22T06:37:17Z</time>
      </trkpt>
      <trkpt lat="46.84673" lon="-1.98138">
        <ele>1.8</ele>
        <time>2018-04-22T06:38:17Z</time>
      </trkpt>
      <trkpt lat="46.84668" lon="-1.98146">
        <ele>1.7</ele>
        <time>2018-04-22T06:39:17Z</time>
      </trkpt>
      <trkpt lat="46.84662" lon="-1.98158">
        <ele>1.4</ele>
        <time>2018-04-22T06:40:17Z</time>
      </trkpt>
      <trkpt lat="46.84656" lon="-1.98174">
        <ele>1.5</ele>
        <time>2018-04-22T06:41:17Z</time>
      </trkpt>
      <trkpt lat="46.84647" lon="-1.98199">
        <ele>1</ele>
        <time>2018-04-22T06:42:17Z</time>
      </trkpt>
      <trkpt lat="46.84644" lon="-1.98207">
        <ele>1</ele>
        <time>2018-04-22T06:43:17Z</time>
      </trkpt>
      <trkpt lat="46.84639" lon="-1.98215">
        <ele>1</ele>
        <time>2018-04-22T06:44:17Z</time>
      </trkpt>
      <trkpt lat="46.84635" lon="-1.98223">
        <ele>1</ele>
        <time>2018-04-22T06:45:17Z</time>
      </trkpt>
      <trkpt lat="46.84626" lon="-1.98234">
        <ele>1</ele>
        <time>2018-04-22T06:46:17Z</time>
      </trkpt>
      <trkpt lat="46.84613" lon="-1.98247">
        <ele>1</ele>
        <time>2018-04-22T06:47:17Z</time>
      </trkpt>
      <trkpt lat="46.84606" lon="-1.98255">
        <ele>1</ele>
        <time>2018-04-22T06:48:17Z</time>
      </trkpt>
      <trkpt lat="46.84601" lon="-1.98264">
        <ele>1</ele>
        <time>2018-04-22T06:49:17Z</time>
      </trkpt>
      <trkpt lat="46.84594" lon="-1.98277">
        <ele>1</ele>
        <time>2018-04-22T06:50:17Z</time>
      </trkpt>
      <trkpt lat="46.84582" lon="-1.98301">
        <ele>2</ele>
        <time>2018-04-22T06:51:17Z</time>
      </trkpt>
      <trkpt lat="46.8457" lon="-1.98326">
        <ele>2</ele>
        <time>2018-04-22T06:52:17Z</time>
      </trkpt>
      <trkpt lat="46.84566" lon="-1.98338">
        <ele>2</ele>
        <time>2018-04-22T06:53:17Z</time>
      </trkpt>
      <trkpt lat="46.84562" lon="-1.98349">
        <ele>1</ele>
        <time>2018-04-22T06:54:17Z</time>
      </trkpt>
      <trkpt lat="46.84559" lon="-1.9836">
        <ele>1</ele>
        <time>2018-04-22T06:55:17Z</time>
      </trkpt>
      <trkpt lat="46.84556" lon="-1.9837">
        <ele>1</ele>
        <time>2018-04-22T06:56:17Z</time>
      </trkpt>
      <trkpt lat="46.84554" lon="-1.9838">
        <ele>1</ele>
        <time>2018-04-22T06:57:17Z</time>
      </trkpt>
      <trkpt lat="46.84553" lon="-1.9839">
        <ele>1</ele>
        <time>2018-04-22T06:58:17Z</time>
      </trkpt>
      <trkpt lat="46.84553" lon="-1.98403">
        <ele>1</ele>
        <time>2018-04-22T06:59:17Z</time>
      </trkpt>
      <trkpt lat="46.84553" lon="-1.98416">
        <ele>1</ele>
        <time>2018-04-22T07:00:17Z</time>
      </trkpt>
      <trkpt lat="46.84553" lon="-1.98441">
        <ele>1</ele>
        <time>2018-04-22T07:01:17Z</time>
      </trkpt>
      <trkpt lat="46.84553" lon="-1.98453">
        <ele>1</ele>
        <time>2018-04-22T07:02:17Z</time>
      </trkpt>
      <trkpt lat="46.84552" lon="-1.98463">
        <ele>1</ele>
        <time>2018-04-22T07:03:17Z</time>
      </trkpt>
      <trkpt lat="46.8455" lon="-1.98474">
        <ele>1</ele>
        <time>2018-04-22T07:04:17Z</time>
      </trkpt>
      <trkpt lat="46.84549" lon="-1.98483">
        <ele>2</ele>
        <time>2018-04-22T07:05:17Z</time>
      </trkpt>
      <trkpt lat="46.84544" lon="-1.98496">
        <ele>2</ele>
        <time>2018-04-22T07:06:17Z</time>
      </trkpt>
      <trkpt lat="46.84538" lon="-1.98511">
        <ele>1</ele>
        <time>2018-04-22T07:07:17Z</time>
      </trkpt>
      <trkpt lat="46.84508" lon="-1.98583">
        <ele>2</ele>
        <time>2018-04-22T07:08:17Z</time>
      </trkpt>
      <trkpt lat="46.8448" lon="-1.98649">
        <ele>1</ele>
        <time>2018-04-22T07:09:17Z</time>
      </trkpt>
      <trkpt lat="46.8447" lon="-1.9867">
        <ele>1</ele>
        <time>2018-04-22T07:10:17Z</time>
      </trkpt>
      <trkpt lat="46.84464" lon="-1.98681">
        <ele>1</ele>
        <time>2018-04-22T07:11:17Z</time>
      </trkpt>
      <trkpt lat="46.84459" lon="-1.9869">
        <ele>1</ele>
        <time>2018-04-22T07:12:17Z</time>
      </trkpt>
      <trkpt lat="46.84453" lon="-1.987">
        <ele>1</ele>
        <time>2018-04-22T07:13:17Z</time>
      </trkpt>
      <trkpt lat="46.84447" lon="-1.98708">
        <ele>1</ele>
        <time>2018-04-22T07:14:17Z</time>
      </trkpt>
      <trkpt lat="46.84441" lon="-1.98715">
        <ele>1</ele>
        <time>2018-04-22T07:15:17Z</time>
      </trkpt>
      <trkpt lat="46.84434" lon="-1.98721">
        <ele>1</ele>
        <time>2018-04-22T07:16:17Z</time>
      </trkpt>
      <trkpt lat="46.84412" lon="-1.98735">
        <ele>1</ele>
        <time>2018-04-22T07:17:17Z</time>
      </trkpt>
      <trkpt lat="46.84375" lon="-1.98755">
        <ele>1</ele>
        <time>2018-04-22T07:18:17Z</time>
      </trkpt>
      <trkpt lat="46.84336" lon="-1.98774">
        <ele>1</ele>
        <time>2018-04-22T07:19:17Z</time>
      </trkpt>
      <trkpt lat="46.84325" lon="-1.98779">
        <ele>1</ele>
        <time>2018-04-22T07:20:17Z</time>
      </trkpt>
      <trkpt lat="46.84314" lon="-1.98782">
        <ele>1</ele>
        <time>2018-04-22T07:21:17Z</time>
      </trkpt>
      <trkpt lat="46.84302" lon="-1.98786">
        <ele>1</ele>
        <time>2018-04-22T07:22:17Z</time>
      </trkpt>
      <trkpt lat="46.84291" lon="-1.98788">
        <ele>1</ele>
        <time>2018-04-22T07:23:17Z</time>
      </trkpt>
      <trkpt lat="46.84277" lon="-1.98791">
        <ele>1</ele>
        <time>2018-04-22T07:24:17Z</time>
      </trkpt>
      <trkpt lat="46.84227" lon="-1.988">
        <ele>1</ele>
        <time>2018-04-22T07:25:17Z</time>
      </trkpt>
      <trkpt lat="46.8419" lon="-1.98808">
        <ele>1</ele>
        <time>2018-04-22T07:26:17Z</time>
      </trkpt>
      <trkpt lat="46.84174" lon="-1.98811">
        <ele>1</ele>
        <time>2018-04-22T07:27:17Z</time>
      </trkpt>
      <trkpt lat="46.84163" lon="-1.98813">
        <ele>1</ele>
        <time>2018-04-22T07:28:17Z</time>
      </trkpt>
      <trkpt lat="46.8415" lon="-1.98817">
        <ele>1</ele>
        <time>2018-04-22T07:29:17Z</time>
      </trkpt>
      <trkpt lat="46.84139" lon="-1.9882">
        <ele>1</ele>
        <time>2018-04-22T07:30:17Z</time>
      </trkpt>
      <trkpt lat="46.84125" lon="-1.98824">
        <ele>1</ele>
        <time>2018-04-22T07:31:17Z</time>
      </trkpt>
      <trkpt lat="46.84109" lon="-1.9883">
        <ele>1</ele>
        <time>2018-04-22T07:32:17Z</time>
      </trkpt>
      <trkpt lat="46.84079" lon="-1.98841">
        <ele>1</ele>
        <time>2018-04-22T07:33:17Z</time>
      </trkpt>
      <trkpt lat="46.8403" lon="-1.98859">
        <ele>1</ele>
        <time>2018-04-22T07:34:17Z</time>
      </trkpt>
      <trkpt lat="46.84015" lon="-1.98865">
        <ele>1</ele>
        <time>2018-04-22T07:35:17Z</time>
      </trkpt>
      <trkpt lat="46.84007" lon="-1.98869">
        <ele>1</ele>
        <time>2018-04-22T07:36:17Z</time>
      </trkpt>
      <trkpt lat="46.83999" lon="-1.98873">
        <ele>1</ele>
        <time>2018-04-22T07:37:17Z</time>
      </trkpt>
      <trkpt lat="46.83989" lon="-1.98878">
        <ele>2</ele>
        <time>2018-04-22T07:38:17Z</time>
      </trkpt>
      <trkpt lat="46.83977" lon="-1.98887">
        <ele>2</ele>
        <time>2018-04-22T07:39:17Z</time>
      </trkpt>
      <trkpt lat="46.83968" lon="-1.98893">
        <ele>1.9</ele>
        <time>2018-04-22T07:40:17Z</time>
      </trkpt>
      <trkpt lat="46.83958" lon="-1.98898">
        <ele>1.7</ele>
        <time>2018-04-22T07:41:17Z</time>
      </trkpt>
      <trkpt lat="46.83948" lon="-1.98903">
        <ele>1.6</ele>
        <time>2018-04-22T07:42:17Z</time>
      </trkpt>
      <trkpt lat="46.83925" lon="-1.98914">
        <ele>1.9</ele>
        <time>2018-04-22T07:43:17Z</time>
      </trkpt>
      <trkpt lat="46.83884" lon="-1.9893">
        <ele>2</ele>
        <time>2018-04-22T07:44:17Z</time>
      </trkpt>
      <trkpt lat="46.83847" lon="-1.98945">
        <ele>2</ele>
        <time>2018-04-22T07:45:17Z</time>
      </trkpt>
      <trkpt lat="46.83808" lon="-1.9896">
        <ele>2</ele>
        <time>2018-04-22T07:46:17Z</time>
      </trkpt>
      <trkpt lat="46.83783" lon="-1.98971">
        <ele>2.8</ele>
        <time>2018-04-22T07:47:17Z</time>
      </trkpt>
      <trkpt lat="46.83771" lon="-1.98976">
        <ele>2.5</ele>
        <time>2018-04-22T07:48:17Z</time>
      </trkpt>
      <trkpt lat="46.83762" lon="-1.9898">
        <ele>2</ele>
        <time>2018-04-22T07:49:17Z</time>
      </trkpt>
      <trkpt lat="46.83717" lon="-1.98999">
        <ele>2</ele>
        <time>2018-04-22T07:50:17Z</time>
      </trkpt>
      <trkpt lat="46.83674" lon="-1.99021">
        <ele>1</ele>
        <time>2018-04-22T07:51:17Z</time>
      </trkpt>
      <trkpt lat="46.83604" lon="-1.99055">
        <ele>2</ele>
        <time>2018-04-22T07:52:17Z</time>
      </trkpt>
      <trkpt lat="46.83543" lon="-1.99087">
        <ele>1</ele>
        <time>2018-04-22T07:53:17Z</time>
      </trkpt>
      <trkpt lat="46.83489" lon="-1.99115">
        <ele>1</ele>
        <time>2018-04-22T07:54:17Z</time>
      </trkpt>
      <trkpt lat="46.83455" lon="-1.99134">
        <ele>1</ele>
        <time>2018-04-22T07:55:17Z</time>
      </trkpt>
      <trkpt lat="46.83404" lon="-1.99167">
        <ele>1</ele>
        <time>2018-04-22T07:56:17Z</time>
      </trkpt>
      <trkpt lat="46.83367" lon="-1.99191">
        <ele>1</ele>
        <time>2018-04-22T07:57:17Z</time>
      </trkpt>
      <trkpt lat="46.83342" lon="-1.99206">
        <ele>1</ele>
        <time>2018-04-22T07:58:17Z</time>
      </trkpt>
      <trkpt lat="46.83335" lon="-1.99209">
        <ele>1</ele>
        <time>2018-04-22T07:59:17Z</time>
      </trkpt>
      <trkpt lat="46.83309" lon="-1.9922">
        <ele>1</ele>
        <time>2018-04-22T08:00:17Z</time>
      </trkpt>
      <trkpt lat="46.8327" lon="-1.99231">
        <ele>1</ele>
        <time>2018-04-22T08:01:17Z</time>
      </trkpt>
      <trkpt lat="46.8322" lon="-1.99247">
        <ele>1</ele>
        <time>2018-04-22T08:02:17Z</time>
      </trkpt>
      <trkpt lat="46.83198" lon="-1.99253">
        <ele>1</ele>
        <time>2018-04-22T08:03:17Z</time>
      </trkpt>
      <trkpt lat="46.83191" lon="-1.99255">
        <ele>1</ele>
        <time>2018-04-22T08:04:17Z</time>
      </trkpt>
      <trkpt lat="46.83174" lon="-1.99259">
        <ele>1</ele>
        <time>2018-04-22T08:05:17Z</time>
      </trkpt>
      <trkpt lat="46.83133" lon="-1.99269">
        <ele>1</ele>
        <time>2018-04-22T08:06:17Z</time>
      </trkpt>
      <trkpt lat="46.83094" lon="-1.99284">
        <ele>1</ele>
        <time>2018-04-22T08:07:17Z</time>
      </trkpt>
      <trkpt lat="46.83052" lon="-1.99319">
        <ele>1</ele>
        <time>2018-04-22T08:08:17Z</time>
      </trkpt>
      <trkpt lat="46.83022" lon="-1.9935">
        <ele>1</ele>
        <time>2018-04-22T08:09:17Z</time>
      </trkpt>
      <trkpt lat="46.83002" lon="-1.99372">
        <ele>1</ele>
        <time>2018-04-22T08:10:17Z</time>
      </trkpt>
      <trkpt lat="46.82959" lon="-1.99417">
        <ele>1</ele>
        <time>2018-04-22T08:11:17Z</time>
      </trkpt>
      <trkpt lat="46.82925" lon="-1.99451">
        <ele>1</ele>
        <time>2018-04-22T08:12:17Z</time>
      </trkpt>
      <trkpt lat="46.82916" lon="-1.99455">
        <ele>1</ele>
        <time>2018-04-22T08:13:17Z</time>
      </trkpt>
      <trkpt lat="46.82905" lon="-1.99461">
        <ele>2</ele>
        <time>2018-04-22T08:14:17Z</time>
      </trkpt>
      <trkpt lat="46.82884" lon="-1.99464">
        <ele>1.9</ele>
        <time>2018-04-22T08:15:17Z</time>
      </trkpt>
      <trkpt lat="46.82865" lon="-1.99463">
        <ele>1.7</ele>
        <time>2018-04-22T08:16:17Z</time>
      </trkpt>
      <trkpt lat="46.82847" lon="-1.9946">
        <ele>1.8</ele>
        <time>2018-04-22T08:17:17Z</time>
      </trkpt>
      <trkpt lat="46.82822" lon="-1.99459">
        <ele>2.2</ele>
        <time>2018-04-22T08:18:17Z</time>
      </trkpt>
      <trkpt lat="46.82813" lon="-1.99459">
        <ele>2.4</ele>
        <time>2018-04-22T08:19:17Z</time>
      </trkpt>
      <trkpt lat="46.82801" lon="-1.99461">
        <ele>2.5</ele>
        <time>2018-04-22T08:20:17Z</time>
      </trkpt>
      <trkpt lat="46.8276" lon="-1.9947">
        <ele>2.6</ele>
        <time>2018-04-22T08:21:17Z</time>
      </trkpt>
      <trkpt lat="46.82718" lon="-1.99481">
        <ele>1</ele>
        <time>2018-04-22T08:22:17Z</time>
      </trkpt>
      <trkpt lat="46.82683" lon="-1.99489">
        <ele>1</ele>
        <time>2018-04-22T08:23:17Z</time>
      </trkpt>
      <trkpt lat="46.82639" lon="-1.99498">
        <ele>2</ele>
        <time>2018-04-22T08:24:17Z</time>
      </trkpt>
      <trkpt lat="46.82615" lon="-1.995">
        <ele>2</ele>
        <time>2018-04-22T08:25:17Z</time>
      </trkpt>
      <trkpt lat="46.82593" lon="-1.99497">
        <ele>1.9</ele>
        <time>2018-04-22T08:26:17Z</time>
      </trkpt>
      <trkpt lat="46.82563" lon="-1.99489">
        <ele>1.6</ele>
        <time>2018-04-22T08:27:17Z</time>
      </trkpt>
      <trkpt lat="46.82549" lon="-1.99485">
        <ele>1.6</ele>
        <time>2018-04-22T08:28:17Z</time>
      </trkpt>
      <trkpt lat="46.82518" lon="-1.99479">
        <ele>2</ele>
        <time>2018-04-22T08:29:17Z</time>
      </trkpt>
      <trkpt lat="46.82511" lon="-1.99481">
        <ele>2</ele>
        <time>2018-04-22T08:30:17Z</time>
      </trkpt>
      <trkpt lat="46.82506" lon="-1.99482">
        <ele>2</ele>
        <time>2018-04-22T08:31:17Z</time>
      </trkpt>
      <trkpt lat="46.82501" lon="-1.99483">
        <ele>2</ele>
        <time>2018-04-22T08:32:17Z</time>
      </trkpt>
      <trkpt lat="46.82494" lon="-1.99486">
        <ele>2</ele>
        <time>2018-04-22T08:33:17Z</time>
      </trkpt>
      <trkpt lat="46.82488" lon="-1.99488">
        <ele>2</ele>
        <time>2018-04-22T08:34:17Z</time>
      </trkpt>
      <trkpt lat="46.82486" lon="-1.9949">
        <ele>2</ele>
        <time>2018-04-22T08:35:17Z</time>
      </trkpt>
      <trkpt lat="46.82484" lon="-1.99492">
        <ele>2</ele>
        <time>2018-04-22T08:36:17Z</time>
      </trkpt>
      <trkpt lat="46.82479" lon="-1.99496">
        <ele>2</ele>
        <time>2018-04-22T08:37:17Z</time>
      </trkpt>
      <trkpt lat="46.82474" lon="-1.99502">
        <ele>2</ele>
        <time>2018-04-22T08:38:17Z</time>
      </trkpt>
      <trkpt lat="46.82469" lon="-1.9951">
        <ele>2</ele>
        <time>2018-04-22T08:39:17Z</time>
      </trkpt>
      <trkpt lat="46.82464" lon="-1.99518">
        <ele>1</ele>
        <time>2018-04-22T08:40:17Z</time>
      </trkpt>
      <trkpt lat="46.8246" lon="-1.99524">
        <ele>1</ele>
        <time>2018-04-22T08:41:17Z</time>
      </trkpt>
      <trkpt lat="46.82456" lon="-1.99533">
        <ele>1</ele>
        <time>2018-04-22T08:42:17Z</time>
      </trkpt>
      <trkpt lat="46.82453" lon="-1.99541">
        <ele>1</ele>
        <time>2018-04-22T08:43:17Z</time>
      </trkpt>
      <trkpt lat="46.8245" lon="-1.99551">
        <ele>1</ele>
        <time>2018-04-22T08:44:17Z</time>
      </trkpt>
      <trkpt lat="46.82445" lon="-1.99564">
        <ele>1</ele>
        <time>2018-04-22T08:45:17Z</time>
      </trkpt>
      <trkpt lat="46.82445" lon="-1.99564">
        <ele>1</ele>
        <time>2018-04-22T08:46:17Z</time>
      </trkpt>
      <trkpt lat="46.82446" lon="-1.99565">
        <ele>1</ele>
        <time>2018-04-22T08:47:17Z</time>
      </trkpt>
      <trkpt lat="46.82447" lon="-1.99566">
        <ele>1</ele>
        <time>2018-04-22T08:48:17Z</time>
      </trkpt>
      <trkpt lat="46.82447" lon="-1.99567">
        <ele>1</ele>
        <time>2018-04-22T08:49:17Z</time>
      </trkpt>
      <trkpt lat="46.82447" lon="-1.99568">
        <ele>1</ele>
        <time>2018-04-22T08:50:17Z</time>
      </trkpt>
      <trkpt lat="46.82448" lon="-1.99569">
        <ele>1</ele>
        <time>2018-04-22T08:51:17Z</time>
      </trkpt>
      <trkpt lat="46.82448" lon="-1.9957">
        <ele>1</ele>
        <time>2018-04-22T08:52:17Z</time>
      </trkpt>
      <trkpt lat="46.82448" lon="-1.99571">
        <ele>1</ele>
        <time>2018-04-22T08:53:17Z</time>
      </trkpt>
      <trkpt lat="46.82448" lon="-1.99572">
        <ele>1</ele>
        <time>2018-04-22T08:54:17Z</time>
      </trkpt>
      <trkpt lat="46.82449" lon="-1.99574">
        <ele>2</ele>
        <time>2018-04-22T08:55:17Z</time>
      </trkpt>
      <trkpt lat="46.82449" lon="-1.99575">
        <ele>2</ele>
        <time>2018-04-22T08:56:17Z</time>
      </trkpt>
      <trkpt lat="46.82449" lon="-1.99576">
        <ele>2</ele>
        <time>2018-04-22T08:57:17Z</time>
      </trkpt>
      <trkpt lat="46.82449" lon="-1.99577">
        <ele>2</ele>
        <time>2018-04-22T08:58:17Z</time>
      </trkpt>
      <trkpt lat="46.82449" lon="-1.99578">
        <ele>2</ele>
        <time>2018-04-22T08:59:17Z</time>
      </trkpt>
      <trkpt lat="46.82448" lon="-1.99579">
        <ele>2</ele>
        <time>2018-04-22T09:00:17Z</time>
      </trkpt>
      <trkpt lat="46.82448" lon="-1.9958">
        <ele>2</ele>
        <time>2018-04-22T09:01:17Z</time>
      </trkpt>
      <trkpt lat="46.82448" lon="-1.99581">
        <ele>2</ele>
        <time>2018-04-22T09:02:17Z</time>
      </trkpt>
      <trkpt lat="46.82448" lon="-1.99582">
        <ele>2</ele>
        <time>2018-04-22T09:03:17Z</time>
      </trkpt>
      <trkpt lat="46.82448" lon="-1.99583">
        <ele>2</ele>
        <time>2018-04-22T09:04:17Z</time>
      </trkpt>
      <trkpt lat="46.82447" lon="-1.99584">
        <ele>2</ele>
        <time>2018-04-22T09:05:17Z</time>
      </trkpt>
      <trkpt lat="46.82447" lon="-1.99585">
        <ele>2</ele>
        <time>2018-04-22T09:06:17Z</time>
      </trkpt>
      <trkpt lat="46.82447" lon="-1.99586">
        <ele>2</ele>
        <time>2018-04-22T09:07:17Z</time>
      </trkpt>
      <trkpt lat="46.82446" lon="-1.99587">
        <ele>2</ele>
        <time>2018-04-22T09:08:17Z</time>
      </trkpt>
      <trkpt lat="46.82445" lon="-1.99588">
        <ele>2</ele>
        <time>2018-04-22T09:09:17Z</time>
      </trkpt>
      <trkpt lat="46.82445" lon="-1.99589">
        <ele>2</ele>
        <time>2018-04-22T09:10:17Z</time>
      </trkpt>
      <trkpt lat="46.82444" lon="-1.9959">
        <ele>2</ele>
        <time>2018-04-22T09:11:17Z</time>
      </trkpt>
      <trkpt lat="46.82443" lon="-1.99591">
        <ele>2</ele>
        <time>2018-04-22T09:12:17Z</time>
      </trkpt>
      <trkpt lat="46.82442" lon="-1.99592">
        <ele>2</ele>
        <time>2018-04-22T09:13:17Z</time>
      </trkpt>
      <trkpt lat="46.82441" lon="-1.99592">
        <ele>2</ele>
        <time>2018-04-22T09:14:17Z</time>
      </trkpt>
      <trkpt lat="46.8244" lon="-1.99593">
        <ele>2</ele>
        <time>2018-04-22T09:15:17Z</time>
      </trkpt>
      <trkpt lat="46.82439" lon="-1.99593">
        <ele>2</ele>
        <time>2018-04-22T09:16:17Z</time>
      </trkpt>
      <trkpt lat="46.82439" lon="-1.99594">
        <ele>2</ele>
        <time>2018-04-22T09:17:17Z</time>
      </trkpt>
      <trkpt lat="46.82438" lon="-1.99594">
        <ele>2</ele>
        <time>2018-04-22T09:18:17Z</time>
      </trkpt>
      <trkpt lat="46.82437" lon="-1.99594">
        <ele>2</ele>
        <time>2018-04-22T09:19:17Z</time>
      </trkpt>
      <trkpt lat="46.82436" lon="-1.99594">
        <ele>2</ele>
        <time>2018-04-22T09:20:17Z</time>
      </trkpt>
      <trkpt lat="46.82435" lon="-1.99595">
        <ele>2</ele>
        <time>2018-04-22T09:21:17Z</time>
      </trkpt>
      <trkpt lat="46.82434" lon="-1.99594">
        <ele>2</ele>
        <time>2018-04-22T09:22:17Z</time>
      </trkpt>
      <trkpt lat="46.82433" lon="-1.99594">
        <ele>2</ele>
        <time>2018-04-22T09:23:17Z</time>
      </trkpt>
      <trkpt lat="46.82432" lon="-1.99594">
        <ele>2</ele>
        <time>2018-04-22T09:24:17Z</time>
      </trkpt>
      <trkpt lat="46.82431" lon="-1.99594">
        <ele>2</ele>
        <time>2018-04-22T09:25:17Z</time>
      </trkpt>
      <trkpt lat="46.8243" lon="-1.99593">
        <ele>2</ele>
        <time>2018-04-22T09:26:17Z</time>
      </trkpt>
      <trkpt lat="46.82429" lon="-1.99593">
        <ele>2</ele>
        <time>2018-04-22T09:27:17Z</time>
      </trkpt>
      <trkpt lat="46.82429" lon="-1.99592">
        <ele>2</ele>
        <time>2018-04-22T09:28:17Z</time>
      </trkpt>
      <trkpt lat="46.82428" lon="-1.99592">
        <ele>2</ele>
        <time>2018-04-22T09:29:17Z</time>
      </trkpt>
      <trkpt lat="46.82428" lon="-1.99591">
        <ele>2</ele>
        <time>2018-04-22T09:30:17Z</time>
      </trkpt>
      <trkpt lat="46.82427" lon="-1.99591">
        <ele>2</ele>
        <time>2018-04-22T09:31:17Z</time>
      </trkpt>
      <trkpt lat="46.82427" lon="-1.9959">
        <ele>2</ele>
        <time>2018-04-22T09:32:17Z</time>
      </trkpt>
      <trkpt lat="46.82426" lon="-1.9959">
        <ele>2</ele>
        <time>2018-04-22T09:33:17Z</time>
      </trkpt>
      <trkpt lat="46.82426" lon="-1.99589">
        <ele>2</ele>
        <time>2018-04-22T09:34:17Z</time>
      </trkpt>
      <trkpt lat="46.82426" lon="-1.99588">
        <ele>2</ele>
        <time>2018-04-22T09:35:17Z</time>
      </trkpt>
      <trkpt lat="46.82425" lon="-1.99587">
        <ele>2</ele>
        <time>2018-04-22T09:36:17Z</time>
      </trkpt>
      <trkpt lat="46.82425" lon="-1.99586">
        <ele>2</ele>
        <time>2018-04-22T09:37:17Z</time>
      </trkpt>
      <trkpt lat="46.82424" lon="-1.99585">
        <ele>2</ele>
        <time>2018-04-22T09:38:17Z</time>
      </trkpt>
      <trkpt lat="46.82424" lon="-1.99584">
        <ele>2</ele>
        <time>2018-04-22T09:39:17Z</time>
      </trkpt>
      <trkpt lat="46.82424" lon="-1.99583">
        <ele>2</ele>
        <time>2018-04-22T09:40:17Z</time>
      </trkpt>
      <trkpt lat="46.82423" lon="-1.99582">
        <ele>2</ele>
        <time>2018-04-22T09:41:17Z</time>
      </trkpt>
      <trkpt lat="46.82423" lon="-1.99581">
        <ele>2</ele>
        <time>2018-04-22T09:42:17Z</time>
      </trkpt>
      <trkpt lat="46.82423" lon="-1.9958">
        <ele>2</ele>
        <time>2018-04-22T09:43:17Z</time>
      </trkpt>
      <trkpt lat="46.8242" lon="-1.99577">
        <ele>2</ele>
        <time>2018-04-22T09:44:17Z</time>
      </trkpt>
      <trkpt lat="46.82411" lon="-1.99571">
        <ele>2</ele>
        <time>2018-04-22T09:45:17Z</time>
      </trkpt>
      <trkpt lat="46.82407" lon="-1.99568">
        <ele>2</ele>
        <time>2018-04-22T09:46:17Z</time>
      </trkpt>
      <trkpt lat="46.82403" lon="-1.99565">
        <ele>2</ele>
        <time>2018-04-22T09:47:17Z</time>
      </trkpt>
      <trkpt lat="46.82391" lon="-1.99559">
        <ele>1</ele>
        <time>2018-04-22T09:48:17Z</time>
      </trkpt>
      <trkpt lat="46.82371" lon="-1.99547">
        <ele>1</ele>
        <time>2018-04-22T09:49:17Z</time>
      </trkpt>
      <trkpt lat="46.82366" lon="-1.99544">
        <ele>1</ele>
        <time>2018-04-22T09:50:17Z</time>
      </trkpt>
      <trkpt lat="46.82352" lon="-1.9954">
        <ele>1</ele>
        <time>2018-04-22T09:51:17Z</time>
      </trkpt>
      <trkpt lat="46.82341" lon="-1.99533">
        <ele>1</ele>
        <time>2018-04-22T09:52:17Z</time>
      </trkpt>
      <trkpt lat="46.82326" lon="-1.99524">
        <ele>2</ele>
        <time>2018-04-22T09:53:17Z</time>
      </trkpt>
      <trkpt lat="46.82305" lon="-1.9951">
        <ele>2</ele>
        <time>2018-04-22T09:54:17Z</time>
      </trkpt>
      <trkpt lat="46.82286" lon="-1.99496">
        <ele>2</ele>
        <time>2018-04-22T09:55:17Z</time>
      </trkpt>
      <trkpt lat="46.82278" lon="-1.99491">
        <ele>2</ele>
        <time>2018-04-22T09:56:17Z</time>
      </trkpt>
      <trkpt lat="46.82271" lon="-1.99486">
        <ele>2</ele>
        <time>2018-04-22T09:57:17Z</time>
      </trkpt>
      <trkpt lat="46.82265" lon="-1.99482">
        <ele>2</ele>
        <time>2018-04-22T09:58:17Z</time>
      </trkpt>
      <trkpt lat="46.82264" lon="-1.99481">
        <ele>2</ele>
        <time>2018-04-22T09:59:17Z</time>
      </trkpt>
      <trkpt lat="46.82252" lon="-1.99472">
        <ele>2</ele>
        <time>2018-04-22T10:00:17Z</time>
      </trkpt>
      <trkpt lat="46.82229" lon="-1.99454">
        <ele>2</ele>
        <time>2018-04-22T10:01:17Z</time>
      </trkpt>
      <trkpt lat="46.82221" lon="-1.99448">
        <ele>2</ele>
        <time>2018-04-22T10:02:17Z</time>
      </trkpt>
      <trkpt lat="46.82201" lon="-1.99433">
        <ele>2</ele>
        <time>2018-04-22T10:03:17Z</time>
      </trkpt>
      <trkpt lat="46.82193" lon="-1.99427">
        <ele>1</ele>
        <time>2018-04-22T10:04:17Z</time>
      </trkpt>
      <trkpt lat="46.82177" lon="-1.99416">
        <ele>1</ele>
        <time>2018-04-22T10:05:17Z</time>
      </trkpt>
      <trkpt lat="46.82165" lon="-1.99409">
        <ele>1</ele>
        <time>2018-04-22T10:06:17Z</time>
      </trkpt>
      <trkpt lat="46.82159" lon="-1.99405">
        <ele>1</ele>
        <time>2018-04-22T10:07:17Z</time>
      </trkpt>
      <trkpt lat="46.82141" lon="-1.99391">
        <ele>1</ele>
        <time>2018-04-22T10:08:17Z</time>
      </trkpt>
      <trkpt lat="46.82127" lon="-1.99382">
        <ele>1</ele>
        <time>2018-04-22T10:09:17Z</time>
      </trkpt>
      <trkpt lat="46.8212" lon="-1.99379">
        <ele>1</ele>
        <time>2018-04-22T10:10:17Z</time>
      </trkpt>
      <trkpt lat="46.82116" lon="-1.99376">
        <ele>1</ele>
        <time>2018-04-22T10:11:17Z</time>
      </trkpt>
      <trkpt lat="46.82109" lon="-1.99373">
        <ele>1</ele>
        <time>2018-04-22T10:12:17Z</time>
      </trkpt>
      <trkpt lat="46.82103" lon="-1.99371">
        <ele>1</ele>
        <time>2018-04-22T10:13:17Z</time>
      </trkpt>
      <trkpt lat="46.82092" lon="-1.99366">
        <ele>1</ele>
        <time>2018-04-22T10:14:17Z</time>
      </trkpt>
      <trkpt lat="46.82064" lon="-1.99358">
        <ele>1</ele>
        <time>2018-04-22T10:15:17Z</time>
      </trkpt>
      <trkpt lat="46.82026" lon="-1.99347">
        <ele>2</ele>
        <time>2018-04-22T10:16:17Z</time>
      </trkpt>
      <trkpt lat="46.82024" lon="-1.99346">
        <ele>2</ele>
        <time>2018-04-22T10:17:17Z</time>
      </trkpt>
      <trkpt lat="46.82009" lon="-1.99341">
        <ele>2</ele>
        <time>2018-04-22T10:18:17Z</time>
      </trkpt>
      <trkpt lat="46.82001" lon="-1.99337">
        <ele>2</ele>
        <time>2018-04-22T10:19:17Z</time>
      </trkpt>
      <trkpt lat="46.81959" lon="-1.99318">
        <ele>2</ele>
        <time>2018-04-22T10:20:17Z</time>
      </trkpt>
      <trkpt lat="46.81957" lon="-1.99317">
        <ele>2</ele>
        <time>2018-04-22T10:21:17Z</time>
      </trkpt>
      <trkpt lat="46.8194" lon="-1.99309">
        <ele>2</ele>
        <time>2018-04-22T10:22:17Z</time>
      </trkpt>
      <trkpt lat="46.81938" lon="-1.99308">
        <ele>2</ele>
        <time>2018-04-22T10:23:17Z</time>
      </trkpt>
      <trkpt lat="46.8193" lon="-1.99305">
        <ele>2</ele>
        <time>2018-04-22T10:24:17Z</time>
      </trkpt>
      <trkpt lat="46.81912" lon="-1.99305">
        <ele>2</ele>
        <time>2018-04-22T10:25:17Z</time>
      </trkpt>
      <trkpt lat="46.81911" lon="-1.99306">
        <ele>2</ele>
        <time>2018-04-22T10:26:17Z</time>
      </trkpt>
      <trkpt lat="46.81911" lon="-1.99307">
        <ele>2</ele>
        <time>2018-04-22T10:27:17Z</time>
      </trkpt>
      <trkpt lat="46.8191" lon="-1.99307">
        <ele>2</ele>
        <time>2018-04-22T10:28:17Z</time>
      </trkpt>
      <trkpt lat="46.8191" lon="-1.99308">
        <ele>2</ele>
        <time>2018-04-22T10:29:17Z</time>
      </trkpt>
      <trkpt lat="46.81909" lon="-1.99308">
        <ele>2</ele>
        <time>2018-04-22T10:30:17Z</time>
      </trkpt>
      <trkpt lat="46.81908" lon="-1.99309">
        <ele>2</ele>
        <time>2018-04-22T10:31:17Z</time>
      </trkpt>
      <trkpt lat="46.81907" lon="-1.99309">
        <ele>2</ele>
        <time>2018-04-22T10:32:17Z</time>
      </trkpt>
      <trkpt lat="46.81906" lon="-1.99309">
        <ele>2</ele>
        <time>2018-04-22T10:33:17Z</time>
      </trkpt>
      <trkpt lat="46.81906" lon="-1.9931">
        <ele>2</ele>
        <time>2018-04-22T10:34:17Z</time>
      </trkpt>
      <trkpt lat="46.81905" lon="-1.9931">
        <ele>2</ele>
        <time>2018-04-22T10:35:17Z</time>
      </trkpt>
      <trkpt lat="46.81904" lon="-1.9931">
        <ele>2</ele>
        <time>2018-04-22T10:36:17Z</time>
      </trkpt>
      <trkpt lat="46.81904" lon="-1.99309">
        <ele>2</ele>
        <time>2018-04-22T10:37:17Z</time>
      </trkpt>
      <trkpt lat="46.81903" lon="-1.99309">
        <ele>2</ele>
        <time>2018-04-22T10:38:17Z</time>
      </trkpt>
      <trkpt lat="46.81902" lon="-1.99309">
        <ele>2</ele>
        <time>2018-04-22T10:39:17Z</time>
      </trkpt>
      <trkpt lat="46.81901" lon="-1.99309">
        <ele>2</ele>
        <time>2018-04-22T10:40:17Z</time>
      </trkpt>
      <trkpt lat="46.81901" lon="-1.99308">
        <ele>2</ele>
        <time>2018-04-22T10:41:17Z</time>
      </trkpt>
      <trkpt lat="46.819" lon="-1.99308">
        <ele>2</ele>
        <time>2018-04-22T10:42:17Z</time>
      </trkpt>
      <trkpt lat="46.819" lon="-1.99307">
        <ele>2</ele>
        <time>2018-04-22T10:43:17Z</time>
      </trkpt>
      <trkpt lat="46.81899" lon="-1.99307">
        <ele>2</ele>
        <time>2018-04-22T10:44:17Z</time>
      </trkpt>
      <trkpt lat="46.81899" lon="-1.99306">
        <ele>2</ele>
        <time>2018-04-22T10:45:17Z</time>
      </trkpt>
      <trkpt lat="46.81898" lon="-1.99306">
        <ele>2</ele>
        <time>2018-04-22T10:46:17Z</time>
      </trkpt>
      <trkpt lat="46.81898" lon="-1.99305">
        <ele>2</ele>
        <time>2018-04-22T10:47:17Z</time>
      </trkpt>
      <trkpt lat="46.81897" lon="-1.99304">
        <ele>2</ele>
        <time>2018-04-22T10:48:17Z</time>
      </trkpt>
      <trkpt lat="46.81897" lon="-1.99303">
        <ele>2</ele>
        <time>2018-04-22T10:49:17Z</time>
      </trkpt>
      <trkpt lat="46.81897" lon="-1.99302">
        <ele>2</ele>
        <time>2018-04-22T10:50:17Z</time>
      </trkpt>
      <trkpt lat="46.81896" lon="-1.99302">
        <ele>2</ele>
        <time>2018-04-22T10:51:17Z</time>
      </trkpt>
      <trkpt lat="46.81896" lon="-1.99301">
        <ele>2</ele>
        <time>2018-04-22T10:52:17Z</time>
      </trkpt>
      <trkpt lat="46.81896" lon="-1.993">
        <ele>2</ele>
        <time>2018-04-22T10:53:17Z</time>
      </trkpt>
      <trkpt lat="46.81896" lon="-1.99299">
        <ele>2</ele>
        <time>2018-04-22T10:54:17Z</time>
      </trkpt>
      <trkpt lat="46.81896" lon="-1.99298">
        <ele>2</ele>
        <time>2018-04-22T10:55:17Z</time>
      </trkpt>
      <trkpt lat="46.81896" lon="-1.99297">
        <ele>2</ele>
        <time>2018-04-22T10:56:17Z</time>
      </trkpt>
      <trkpt lat="46.81878" lon="-1.99285">
        <ele>2</ele>
        <time>2018-04-22T10:57:17Z</time>
      </trkpt>
      <trkpt lat="46.81874" lon="-1.99282">
        <ele>2</ele>
        <time>2018-04-22T10:58:17Z</time>
      </trkpt>
      <trkpt lat="46.81869" lon="-1.99278">
        <ele>2</ele>
        <time>2018-04-22T10:59:17Z</time>
      </trkpt>
      <trkpt lat="46.81835" lon="-1.99268">
        <ele>2</ele>
        <time>2018-04-22T11:00:17Z</time>
      </trkpt>
      <trkpt lat="46.81802" lon="-1.99259">
        <ele>2</ele>
        <time>2018-04-22T11:01:17Z</time>
      </trkpt>
      <trkpt lat="46.81748" lon="-1.99246">
        <ele>1</ele>
        <time>2018-04-22T11:02:17Z</time>
      </trkpt>
      <trkpt lat="46.81733" lon="-1.99241">
        <ele>1</ele>
        <time>2018-04-22T11:03:17Z</time>
      </trkpt>
      <trkpt lat="46.81702" lon="-1.99235">
        <ele>1</ele>
        <time>2018-04-22T11:04:17Z</time>
      </trkpt>
      <trkpt lat="46.81696" lon="-1.99234">
        <ele>2</ele>
        <time>2018-04-22T11:05:17Z</time>
      </trkpt>
      <trkpt lat="46.81672" lon="-1.99226">
        <ele>2</ele>
        <time>2018-04-22T11:06:17Z</time>
      </trkpt>
      <trkpt lat="46.8165" lon="-1.99216">
        <ele>2</ele>
        <time>2018-04-22T11:07:17Z</time>
      </trkpt>
      <trkpt lat="46.81645" lon="-1.99214">
        <ele>2</ele>
        <time>2018-04-22T11:08:17Z</time>
      </trkpt>
      <trkpt lat="46.81631" lon="-1.99207">
        <ele>2</ele>
        <time>2018-04-22T11:09:17Z</time>
      </trkpt>
      <trkpt lat="46.81604" lon="-1.99187">
        <ele>1</ele>
        <time>2018-04-22T11:10:17Z</time>
      </trkpt>
      <trkpt lat="46.81574" lon="-1.99159">
        <ele>1</ele>
        <time>2018-04-22T11:11:17Z</time>
      </trkpt>
      <trkpt lat="46.81544" lon="-1.99129">
        <ele>2</ele>
        <time>2018-04-22T11:12:17Z</time>
      </trkpt>
      <trkpt lat="46.81527" lon="-1.9911">
        <ele>2</ele>
        <time>2018-04-22T11:13:17Z</time>
      </trkpt>
      <trkpt lat="46.81527" lon="-1.9911">
        <ele>2</ele>
        <time>2018-04-22T11:14:17Z</time>
      </trkpt>
      <trkpt lat="46.81519" lon="-1.99124">
        <ele>2</ele>
        <time>2018-04-22T11:15:17Z</time>
      </trkpt>
      <trkpt lat="46.81476" lon="-1.99171">
        <ele>1</ele>
        <time>2018-04-22T11:16:17Z</time>
      </trkpt>
      <trkpt lat="46.81422" lon="-1.99223">
        <ele>1</ele>
        <time>2018-04-22T11:17:17Z</time>
      </trkpt>
      <trkpt lat="46.81411" lon="-1.99234">
        <ele>1</ele>
        <time>2018-04-22T11:18:17Z</time>
      </trkpt>
      <trkpt lat="46.81362" lon="-1.99286">
        <ele>1</ele>
        <time>2018-04-22T11:19:17Z</time>
      </trkpt>
      <trkpt lat="46.81332" lon="-1.99318">
        <ele>2</ele>
        <time>2018-04-22T11:20:17Z</time>
      </trkpt>
      <trkpt lat="46.81276" lon="-1.99376">
        <ele>1</ele>
        <time>2018-04-22T11:21:17Z</time>
      </trkpt>
      <trkpt lat="46.81252" lon="-1.99401">
        <ele>2</ele>
        <time>2018-04-22T11:22:17Z</time>
      </trkpt>
      <trkpt lat="46.81191" lon="-1.99463">
        <ele>1</ele>
        <time>2018-04-22T11:23:17Z</time>
      </trkpt>
      <trkpt lat="46.81179" lon="-1.99475">
        <ele>1</ele>
        <time>2018-04-22T11:24:17Z</time>
      </trkpt>
      <trkpt lat="46.81179" lon="-1.99475">
        <ele>1</ele>
        <time>2018-04-22T11:25:17Z</time>
      </trkpt>
      <trkpt lat="46.81158" lon="-1.99495">
        <ele>1</ele>
        <time>2018-04-22T11:26:17Z</time>
      </trkpt>
      <trkpt lat="46.81126" lon="-1.99528">
        <ele>1</ele>
        <time>2018-04-22T11:27:17Z</time>
      </trkpt>
      <trkpt lat="46.81115" lon="-1.99539">
        <ele>1</ele>
        <time>2018-04-22T11:28:17Z</time>
      </trkpt>
      <trkpt lat="46.81079" lon="-1.99576">
        <ele>1</ele>
        <time>2018-04-22T11:29:17Z</time>
      </trkpt>
      <trkpt lat="46.81037" lon="-1.99618">
        <ele>1</ele>
        <time>2018-04-22T11:30:17Z</time>
      </trkpt>
      <trkpt lat="46.81019" lon="-1.99637">
        <ele>1</ele>
        <time>2018-04-22T11:31:17Z</time>
      </trkpt>
      <trkpt lat="46.80997" lon="-1.9966">
        <ele>1</ele>
        <time>2018-04-22T11:32:17Z</time>
      </trkpt>
      <trkpt lat="46.80969" lon="-1.99688">
        <ele>1</ele>
        <time>2018-04-22T11:33:17Z</time>
      </trkpt>
      <trkpt lat="46.80939" lon="-1.99719">
        <ele>1</ele>
        <time>2018-04-22T11:34:17Z</time>
      </trkpt>
      <trkpt lat="46.80907" lon="-1.99752">
        <ele>1</ele>
        <time>2018-04-22T11:35:17Z</time>
      </trkpt>
      <trkpt lat="46.80866" lon="-1.99794">
        <ele>1</ele>
        <time>2018-04-22T11:36:17Z</time>
      </trkpt>
      <trkpt lat="46.80816" lon="-1.99846">
        <ele>1</ele>
        <time>2018-04-22T11:37:17Z</time>
      </trkpt>
      <trkpt lat="46.80767" lon="-1.99897">
        <ele>2</ele>
        <time>2018-04-22T11:38:17Z</time>
      </trkpt>
      <trkpt lat="46.8074" lon="-1.99925">
        <ele>2</ele>
        <time>2018-04-22T11:39:17Z</time>
      </trkpt>
      <trkpt lat="46.80717" lon="-1.99949">
        <ele>2</ele>
        <time>2018-04-22T11:40:17Z</time>
      </trkpt>
      <trkpt lat="46.80674" lon="-1.99993">
        <ele>1</ele>
        <time>2018-04-22T11:41:17Z</time>
      </trkpt>
      <trkpt lat="46.80627" lon="-2.00041">
        <ele>1</ele>
        <time>2018-04-22T11:42:17Z</time>
      </trkpt>
      <trkpt lat="46.80592" lon="-2.00077">
        <ele>1</ele>
        <time>2018-04-22T11:43:17Z</time>
      </trkpt>
      <trkpt lat="46.80548" lon="-2.00122">
        <ele>1</ele>
        <time>2018-04-22T11:44:17Z</time>
      </trkpt>
      <trkpt lat="46.80502" lon="-2.0017">
        <ele>1</ele>
        <time>2018-04-22T11:45:17Z</time>
      </trkpt>
      <trkpt lat="46.8046" lon="-2.00213">
        <ele>1.9</ele>
        <time>2018-04-22T11:46:17Z</time>
      </trkpt>
      <trkpt lat="46.80409" lon="-2.00264">
        <ele>2</ele>
        <time>2018-04-22T11:47:17Z</time>
      </trkpt>
      <trkpt lat="46.80389" lon="-2.00285">
        <ele>2</ele>
        <time>2018-04-22T11:48:17Z</time>
      </trkpt>
      <trkpt lat="46.80358" lon="-2.00316">
        <ele>2</ele>
        <time>2018-04-22T11:49:17Z</time>
      </trkpt>
      <trkpt lat="46.80348" lon="-2.00328">
        <ele>2</ele>
        <time>2018-04-22T11:50:17Z</time>
      </trkpt>
      <trkpt lat="46.80307" lon="-2.00369">
        <ele>2</ele>
        <time>2018-04-22T11:51:17Z</time>
      </trkpt>
      <trkpt lat="46.80279" lon="-2.00399">
        <ele>3</ele>
        <time>2018-04-22T11:52:17Z</time>
      </trkpt>
      <trkpt lat="46.80249" lon="-2.00428">
        <ele>3</ele>
        <time>2018-04-22T11:53:17Z</time>
      </trkpt>
      <trkpt lat="46.80246" lon="-2.0043">
        <ele>3</ele>
        <time>2018-04-22T11:54:17Z</time>
      </trkpt>
      <trkpt lat="46.80229" lon="-2.00448">
        <ele>2</ele>
        <time>2018-04-22T11:55:17Z</time>
      </trkpt>
      <trkpt lat="46.80208" lon="-2.00471">
        <ele>2</ele>
        <time>2018-04-22T11:56:17Z</time>
      </trkpt>
      <trkpt lat="46.80184" lon="-2.00498">
        <ele>1</ele>
        <time>2018-04-22T11:57:17Z</time>
      </trkpt>
      <trkpt lat="46.80145" lon="-2.00539">
        <ele>1</ele>
        <time>2018-04-22T11:58:17Z</time>
      </trkpt>
      <trkpt lat="46.80115" lon="-2.00571">
        <ele>2</ele>
        <time>2018-04-22T11:59:17Z</time>
      </trkpt>
      <trkpt lat="46.80081" lon="-2.00604">
        <ele>2</ele>
        <time>2018-04-22T12:00:17Z</time>
      </trkpt>
      <trkpt lat="46.80052" lon="-2.00638">
        <ele>1</ele>
        <time>2018-04-22T12:01:17Z</time>
      </trkpt>
      <trkpt lat="46.80032" lon="-2.0066">
        <ele>2</ele>
        <time>2018-04-22T12:02:17Z</time>
      </trkpt>
      <trkpt lat="46.80011" lon="-2.0068">
        <ele>2</ele>
        <time>2018-04-22T12:03:17Z</time>
      </trkpt>
      <trkpt lat="46.79993" lon="-2.00699">
        <ele>2</ele>
        <time>2018-04-22T12:04:17Z</time>
      </trkpt>
      <trkpt lat="46.79979" lon="-2.00716">
        <ele>2</ele>
        <time>2018-04-22T12:05:17Z</time>
      </trkpt>
      <trkpt lat="46.79967" lon="-2.00728">
        <ele>1.9</ele>
        <time>2018-04-22T12:06:17Z</time>
      </trkpt>
      <trkpt lat="46.79948" lon="-2.00745">
        <ele>1.8</ele>
        <time>2018-04-22T12:07:17Z</time>
      </trkpt>
      <trkpt lat="46.79925" lon="-2.00762">
        <ele>2</ele>
        <time>2018-04-22T12:08:17Z</time>
      </trkpt>
      <trkpt lat="46.799" lon="-2.00781">
        <ele>1</ele>
        <time>2018-04-22T12:09:17Z</time>
      </trkpt>
      <trkpt lat="46.79875" lon="-2.00803">
        <ele>1</ele>
        <time>2018-04-22T12:10:17Z</time>
      </trkpt>
      <trkpt lat="46.79855" lon="-2.00821">
        <ele>1</ele>
        <time>2018-04-22T12:11:17Z</time>
      </trkpt>
      <trkpt lat="46.79848" lon="-2.00829">
        <ele>1</ele>
        <time>2018-04-22T12:12:17Z</time>
      </trkpt>
      <trkpt lat="46.79819" lon="-2.00857">
        <ele>1</ele>
        <time>2018-04-22T12:13:17Z</time>
      </trkpt>
      <trkpt lat="46.79803" lon="-2.00874">
        <ele>1</ele>
        <time>2018-04-22T12:14:17Z</time>
      </trkpt>
      <trkpt lat="46.7978" lon="-2.00896">
        <ele>1</ele>
        <time>2018-04-22T12:15:17Z</time>
      </trkpt>
      <trkpt lat="46.79766" lon="-2.00908">
        <ele>2</ele>
        <time>2018-04-22T12:16:17Z</time>
      </trkpt>
      <trkpt lat="46.79757" lon="-2.00917">
        <ele>2</ele>
        <time>2018-04-22T12:17:17Z</time>
      </trkpt>
      <trkpt lat="46.79748" lon="-2.00931">
        <ele>2</ele>
        <time>2018-04-22T12:18:17Z</time>
      </trkpt>
      <trkpt lat="46.79737" lon="-2.0095">
        <ele>1</ele>
        <time>2018-04-22T12:19:17Z</time>
      </trkpt>
      <trkpt lat="46.79732" lon="-2.00962">
        <ele>1</ele>
        <time>2018-04-22T12:20:17Z</time>
      </trkpt>
      <trkpt lat="46.79727" lon="-2.00969">
        <ele>1</ele>
        <time>2018-04-22T12:21:17Z</time>
      </trkpt>
      <trkpt lat="46.79721" lon="-2.00977">
        <ele>1</ele>
        <time>2018-04-22T12:22:17Z</time>
      </trkpt>
      <trkpt lat="46.7971" lon="-2.00989">
        <ele>1</ele>
        <time>2018-04-22T12:23:17Z</time>
      </trkpt>
      <trkpt lat="46.797" lon="-2.00998">
        <ele>1</ele>
        <time>2018-04-22T12:24:17Z</time>
      </trkpt>
      <trkpt lat="46.79693" lon="-2.01004">
        <ele>2</ele>
        <time>2018-04-22T12:25:17Z</time>
      </trkpt>
      <trkpt lat="46.79682" lon="-2.01014">
        <ele>2</ele>
        <time>2018-04-22T12:26:17Z</time>
      </trkpt>
      <trkpt lat="46.79663" lon="-2.01029">
        <ele>1</ele>
        <time>2018-04-22T12:27:17Z</time>
      </trkpt>
      <trkpt lat="46.79656" lon="-2.01034">
        <ele>1</ele>
        <time>2018-04-22T12:28:17Z</time>
      </trkpt>
      <trkpt lat="46.79653" lon="-2.01036">
        <ele>1</ele>
        <time>2018-04-22T12:29:17Z</time>
      </trkpt>
      <trkpt lat="46.79645" lon="-2.0104">
        <ele>1</ele>
        <time>2018-04-22T12:30:17Z</time>
      </trkpt>
      <trkpt lat="46.79638" lon="-2.01049">
        <ele>1</ele>
        <time>2018-04-22T12:31:17Z</time>
      </trkpt>
      <trkpt lat="46.79633" lon="-2.01052">
        <ele>1</ele>
        <time>2018-04-22T12:32:17Z</time>
      </trkpt>
      <trkpt lat="46.79613" lon="-2.0106">
        <ele>1</ele>
        <time>2018-04-22T12:33:17Z</time>
      </trkpt>
      <trkpt lat="46.79613" lon="-2.01065">
        <ele>1</ele>
        <time>2018-04-22T12:34:17Z</time>
      </trkpt>
      <trkpt lat="46.79613" lon="-2.01067">
        <ele>1</ele>
        <time>2018-04-22T12:35:17Z</time>
      </trkpt>
      <trkpt lat="46.79612" lon="-2.0107">
        <ele>1</ele>
        <time>2018-04-22T12:36:17Z</time>
      </trkpt>
      <trkpt lat="46.79611" lon="-2.01073">
        <ele>1</ele>
        <time>2018-04-22T12:37:17Z</time>
      </trkpt>
      <trkpt lat="46.7961" lon="-2.01075">
        <ele>1</ele>
        <time>2018-04-22T12:38:17Z</time>
      </trkpt>
      <trkpt lat="46.79608" lon="-2.01078">
        <ele>1</ele>
        <time>2018-04-22T12:39:17Z</time>
      </trkpt>
      <trkpt lat="46.79606" lon="-2.0108">
        <ele>1</ele>
        <time>2018-04-22T12:40:17Z</time>
      </trkpt>
      <trkpt lat="46.79602" lon="-2.01082">
        <ele>1</ele>
        <time>2018-04-22T12:41:17Z</time>
      </trkpt>
      <trkpt lat="46.79599" lon="-2.01082">
        <ele>1</ele>
        <time>2018-04-22T12:42:17Z</time>
      </trkpt>
      <trkpt lat="46.79595" lon="-2.01083">
        <ele>1</ele>
        <time>2018-04-22T12:43:17Z</time>
      </trkpt>
      <trkpt lat="46.79592" lon="-2.01081">
        <ele>1</ele>
        <time>2018-04-22T12:44:17Z</time>
      </trkpt>
      <trkpt lat="46.7959" lon="-2.0108">
        <ele>1</ele>
        <time>2018-04-22T12:45:17Z</time>
      </trkpt>
      <trkpt lat="46.79586" lon="-2.01076">
        <ele>1</ele>
        <time>2018-04-22T12:46:17Z</time>
      </trkpt>
      <trkpt lat="46.79585" lon="-2.01072">
        <ele>1</ele>
        <time>2018-04-22T12:47:17Z</time>
      </trkpt>
      <trkpt lat="46.79584" lon="-2.01068">
        <ele>1</ele>
        <time>2018-04-22T12:48:17Z</time>
      </trkpt>
      <trkpt lat="46.79576" lon="-2.01071">
        <ele>1</ele>
        <time>2018-04-22T12:49:17Z</time>
      </trkpt>
      <trkpt lat="46.79571" lon="-2.0107">
        <ele>1</ele>
        <time>2018-04-22T12:50:17Z</time>
      </trkpt>
      <trkpt lat="46.79565" lon="-2.01068">
        <ele>1</ele>
        <time>2018-04-22T12:51:17Z</time>
      </trkpt>
      <trkpt lat="46.79561" lon="-2.01065">
        <ele>1</ele>
        <time>2018-04-22T12:52:17Z</time>
      </trkpt>
      <trkpt lat="46.79557" lon="-2.01061">
        <ele>1</ele>
        <time>2018-04-22T12:53:17Z</time>
      </trkpt>
      <trkpt lat="46.79557" lon="-2.01061">
        <ele>1</ele>
        <time>2018-04-22T12:54:17Z</time>
      </trkpt>
      <trkpt lat="46.79549" lon="-2.01049">
        <ele>1</ele>
        <time>2018-04-22T12:55:17Z</time>
      </trkpt>
      <trkpt lat="46.79544" lon="-2.01038">
        <ele>1</ele>
        <time>2018-04-22T12:56:17Z</time>
      </trkpt>
      <trkpt lat="46.79539" lon="-2.01025">
        <ele>1</ele>
        <time>2018-04-22T12:57:17Z</time>
      </trkpt>
      <trkpt lat="46.79534" lon="-2.01014">
        <ele>1</ele>
        <time>2018-04-22T12:58:17Z</time>
      </trkpt>
      <trkpt lat="46.79527" lon="-2.00997">
        <ele>1</ele>
        <time>2018-04-22T12:59:17Z</time>
      </trkpt>
      <trkpt lat="46.7952" lon="-2.00984">
        <ele>1</ele>
        <time>2018-04-22T13:00:17Z</time>
      </trkpt>
      <trkpt lat="46.79514" lon="-2.00973">
        <ele>1</ele>
        <time>2018-04-22T13:01:17Z</time>
      </trkpt>
      <trkpt lat="46.79509" lon="-2.00964">
        <ele>1</ele>
        <time>2018-04-22T13:02:17Z</time>
      </trkpt>
      <trkpt lat="46.79502" lon="-2.00952">
        <ele>2</ele>
        <time>2018-04-22T13:03:17Z</time>
      </trkpt>
      <trkpt lat="46.79493" lon="-2.00938">
        <ele>2</ele>
        <time>2018-04-22T13:04:17Z</time>
      </trkpt>
      <trkpt lat="46.79486" lon="-2.00926">
        <ele>2</ele>
        <time>2018-04-22T13:05:17Z</time>
      </trkpt>
      <trkpt lat="46.79477" lon="-2.00914">
        <ele>2</ele>
        <time>2018-04-22T13:06:17Z</time>
      </trkpt>
      <trkpt lat="46.79469" lon="-2.00903">
        <ele>2</ele>
        <time>2018-04-22T13:07:17Z</time>
      </trkpt>
      <trkpt lat="46.79459" lon="-2.00891">
        <ele>2</ele>
        <time>2018-04-22T13:08:17Z</time>
      </trkpt>
      <trkpt lat="46.7945" lon="-2.00879">
        <ele>2</ele>
        <time>2018-04-22T13:09:17Z</time>
      </trkpt>
      <trkpt lat="46.79441" lon="-2.00868">
        <ele>2</ele>
        <time>2018-04-22T13:10:17Z</time>
      </trkpt>
      <trkpt lat="46.79432" lon="-2.00856">
        <ele>2</ele>
        <time>2018-04-22T13:11:17Z</time>
      </trkpt>
      <trkpt lat="46.79415" lon="-2.00838">
        <ele>2</ele>
        <time>2018-04-22T13:12:17Z</time>
      </trkpt>
      <trkpt lat="46.79405" lon="-2.00827">
        <ele>2</ele>
        <time>2018-04-22T13:13:17Z</time>
      </trkpt>
      <trkpt lat="46.79397" lon="-2.00817">
        <ele>2</ele>
        <time>2018-04-22T13:14:17Z</time>
      </trkpt>
      <trkpt lat="46.79389" lon="-2.00808">
        <ele>2</ele>
        <time>2018-04-22T13:15:17Z</time>
      </trkpt>
      <trkpt lat="46.79374" lon="-2.00793">
        <ele>2</ele>
        <time>2018-04-22T13:16:17Z</time>
      </trkpt>
      <trkpt lat="46.79365" lon="-2.00783">
        <ele>2</ele>
        <time>2018-04-22T13:17:17Z</time>
      </trkpt>
      <trkpt lat="46.79356" lon="-2.00773">
        <ele>2</ele>
        <time>2018-04-22T13:18:17Z</time>
      </trkpt>
      <trkpt lat="46.79347" lon="-2.00762">
        <ele>2</ele>
        <time>2018-04-22T13:19:17Z</time>
      </trkpt>
      <trkpt lat="46.7934" lon="-2.00753">
        <ele>2</ele>
        <time>2018-04-22T13:20:17Z</time>
      </trkpt>
      <trkpt lat="46.79338" lon="-2.0075">
        <ele>2</ele>
        <time>2018-04-22T13:21:17Z</time>
      </trkpt>
      <trkpt lat="46.79332" lon="-2.0074">
        <ele>2</ele>
        <time>2018-04-22T13:22:17Z</time>
      </trkpt>
      <trkpt lat="46.79323" lon="-2.00728">
        <ele>2</ele>
        <time>2018-04-22T13:23:17Z</time>
      </trkpt>
      <trkpt lat="46.79312" lon="-2.00708">
        <ele>2</ele>
        <time>2018-04-22T13:24:17Z</time>
      </trkpt>
      <trkpt lat="46.79306" lon="-2.007">
        <ele>2</ele>
        <time>2018-04-22T13:25:17Z</time>
      </trkpt>
      <trkpt lat="46.79299" lon="-2.00689">
        <ele>2</ele>
        <time>2018-04-22T13:26:17Z</time>
      </trkpt>
      <trkpt lat="46.79295" lon="-2.00681">
        <ele>2</ele>
        <time>2018-04-22T13:27:17Z</time>
      </trkpt>
      <trkpt lat="46.79291" lon="-2.00668">
        <ele>2</ele>
        <time>2018-04-22T13:28:17Z</time>
      </trkpt>
      <trkpt lat="46.79288" lon="-2.00658">
        <ele>1</ele>
        <time>2018-04-22T13:29:17Z</time>
      </trkpt>
      <trkpt lat="46.79286" lon="-2.00646">
        <ele>1</ele>
        <time>2018-04-22T13:30:17Z</time>
      </trkpt>
      <trkpt lat="46.79284" lon="-2.00638">
        <ele>1</ele>
        <time>2018-04-22T13:31:17Z</time>
      </trkpt>
      <trkpt lat="46.79281" lon="-2.00624">
        <ele>1</ele>
        <time>2018-04-22T13:32:17Z</time>
      </trkpt>
      <trkpt lat="46.79281" lon="-2.00624">
        <ele>1</ele>
        <time>2018-04-22T13:33:17Z</time>
      </trkpt>
      <trkpt lat="46.79279" lon="-2.00609">
        <ele>1</ele>
        <time>2018-04-22T13:34:17Z</time>
      </trkpt>
      <trkpt lat="46.79276" lon="-2.00593">
        <ele>1</ele>
        <time>2018-04-22T13:35:17Z</time>
      </trkpt>
      <trkpt lat="46.79272" lon="-2.00577">
        <ele>1</ele>
        <time>2018-04-22T13:36:17Z</time>
      </trkpt>
      <trkpt lat="46.79269" lon="-2.00561">
        <ele>1</ele>
        <time>2018-04-22T13:37:17Z</time>
      </trkpt>
      <trkpt lat="46.79266" lon="-2.0055">
        <ele>1</ele>
        <time>2018-04-22T13:38:17Z</time>
      </trkpt>
      <trkpt lat="46.79263" lon="-2.00542">
        <ele>1</ele>
        <time>2018-04-22T13:39:17Z</time>
      </trkpt>
      <trkpt lat="46.79259" lon="-2.00532">
        <ele>2</ele>
        <time>2018-04-22T13:40:17Z</time>
      </trkpt>
      <trkpt lat="46.7925" lon="-2.00507">
        <ele>2</ele>
        <time>2018-04-22T13:41:17Z</time>
      </trkpt>
      <trkpt lat="46.79239" lon="-2.00483">
        <ele>2</ele>
        <time>2018-04-22T13:42:17Z</time>
      </trkpt>
      <trkpt lat="46.79226" lon="-2.00455">
        <ele>2</ele>
        <time>2018-04-22T13:43:17Z</time>
      </trkpt>
      <trkpt lat="46.79215" lon="-2.00429">
        <ele>2</ele>
        <time>2018-04-22T13:44:17Z</time>
      </trkpt>
      <trkpt lat="46.79213" lon="-2.00423">
        <ele>2</ele>
        <time>2018-04-22T13:45:17Z</time>
      </trkpt>
      <trkpt lat="46.79205" lon="-2.00409">
        <ele>2</ele>
        <time>2018-04-22T13:46:17Z</time>
      </trkpt>
      <trkpt lat="46.79197" lon="-2.00394">
        <ele>2</ele>
        <time>2018-04-22T13:47:17Z</time>
      </trkpt>
      <trkpt lat="46.79189" lon="-2.00383">
        <ele>2</ele>
        <time>2018-04-22T13:48:17Z</time>
      </trkpt>
      <trkpt lat="46.79182" lon="-2.00373">
        <ele>2</ele>
        <time>2018-04-22T13:49:17Z</time>
      </trkpt>
      <trkpt lat="46.79174" lon="-2.00366">
        <ele>2</ele>
        <time>2018-04-22T13:50:17Z</time>
      </trkpt>
      <trkpt lat="46.79167" lon="-2.0036">
        <ele>2</ele>
        <time>2018-04-22T13:51:17Z</time>
      </trkpt>
      <trkpt lat="46.7916" lon="-2.00355">
        <ele>1</ele>
        <time>2018-04-22T13:52:17Z</time>
      </trkpt>
      <trkpt lat="46.79153" lon="-2.00352">
        <ele>1</ele>
        <time>2018-04-22T13:53:17Z</time>
      </trkpt>
      <trkpt lat="46.79145" lon="-2.00349">
        <ele>1</ele>
        <time>2018-04-22T13:54:17Z</time>
      </trkpt>
      <trkpt lat="46.79137" lon="-2.00347">
        <ele>1</ele>
        <time>2018-04-22T13:55:17Z</time>
      </trkpt>
      <trkpt lat="46.7913" lon="-2.00346">
        <ele>1</ele>
        <time>2018-04-22T13:56:17Z</time>
      </trkpt>
      <trkpt lat="46.79121" lon="-2.00345">
        <ele>1</ele>
        <time>2018-04-22T13:57:17Z</time>
      </trkpt>
      <trkpt lat="46.79109" lon="-2.00345">
        <ele>1</ele>
        <time>2018-04-22T13:58:17Z</time>
      </trkpt>
      <trkpt lat="46.79096" lon="-2.00344">
        <ele>1</ele>
        <time>2018-04-22T13:59:17Z</time>
      </trkpt>
      <trkpt lat="46.79085" lon="-2.00344">
        <ele>1</ele>
        <time>2018-04-22T14:00:17Z</time>
      </trkpt>
      <trkpt lat="46.79074" lon="-2.00344">
        <ele>1</ele>
        <time>2018-04-22T14:01:17Z</time>
      </trkpt>
      <trkpt lat="46.79063" lon="-2.00344">
        <ele>1</ele>
        <time>2018-04-22T14:02:17Z</time>
      </trkpt>
      <trkpt lat="46.79054" lon="-2.00344">
        <ele>1</ele>
        <time>2018-04-22T14:03:17Z</time>
      </trkpt>
      <trkpt lat="46.79039" lon="-2.00344">
        <ele>1</ele>
        <time>2018-04-22T14:04:17Z</time>
      </trkpt>
      <trkpt lat="46.79028" lon="-2.00342">
        <ele>1</ele>
        <time>2018-04-22T14:05:17Z</time>
      </trkpt>
      <trkpt lat="46.79015" lon="-2.0034">
        <ele>1</ele>
        <time>2018-04-22T14:06:17Z</time>
      </trkpt>
      <trkpt lat="46.79" lon="-2.00336">
        <ele>1</ele>
        <time>2018-04-22T14:07:17Z</time>
      </trkpt>
      <trkpt lat="46.78987" lon="-2.00332">
        <ele>1</ele>
        <time>2018-04-22T14:08:17Z</time>
      </trkpt>
      <trkpt lat="46.78967" lon="-2.00325">
        <ele>1</ele>
        <time>2018-04-22T14:09:17Z</time>
      </trkpt>
      <trkpt lat="46.78945" lon="-2.00317">
        <ele>1</ele>
        <time>2018-04-22T14:10:17Z</time>
      </trkpt>
      <trkpt lat="46.78929" lon="-2.00312">
        <ele>1</ele>
        <time>2018-04-22T14:11:17Z</time>
      </trkpt>
      <trkpt lat="46.78916" lon="-2.0031">
        <ele>1</ele>
        <time>2018-04-22T14:12:17Z</time>
      </trkpt>
      <trkpt lat="46.78905" lon="-2.00309">
        <ele>1</ele>
        <time>2018-04-22T14:13:17Z</time>
      </trkpt>
      <trkpt lat="46.78894" lon="-2.00309">
        <ele>1</ele>
        <time>2018-04-22T14:14:17Z</time>
      </trkpt>
      <trkpt lat="46.78871" lon="-2.00312">
        <ele>1</ele>
        <time>2018-04-22T14:15:17Z</time>
      </trkpt>
      <trkpt lat="46.78843" lon="-2.00315">
        <ele>2</ele>
        <time>2018-04-22T14:16:17Z</time>
      </trkpt>
      <trkpt lat="46.78822" lon="-2.00318">
        <ele>2</ele>
        <time>2018-04-22T14:17:17Z</time>
      </trkpt>
      <trkpt lat="46.78812" lon="-2.0032">
        <ele>2</ele>
        <time>2018-04-22T14:18:17Z</time>
      </trkpt>
      <trkpt lat="46.78804" lon="-2.00322">
        <ele>2</ele>
        <time>2018-04-22T14:19:17Z</time>
      </trkpt>
      <trkpt lat="46.78802" lon="-2.00322">
        <ele>2</ele>
        <time>2018-04-22T14:20:17Z</time>
      </trkpt>
      <trkpt lat="46.78793" lon="-2.00325">
        <ele>1</ele>
        <time>2018-04-22T14:21:17Z</time>
      </trkpt>
      <trkpt lat="46.78777" lon="-2.00336">
        <ele>1</ele>
        <time>2018-04-22T14:22:17Z</time>
      </trkpt>
      <trkpt lat="46.78759" lon="-2.00349">
        <ele>1</ele>
        <time>2018-04-22T14:23:17Z</time>
      </trkpt>
      <trkpt lat="46.78744" lon="-2.0036">
        <ele>1</ele>
        <time>2018-04-22T14:24:17Z</time>
      </trkpt>
      <trkpt lat="46.7873" lon="-2.0037">
        <ele>1</ele>
        <time>2018-04-22T14:25:17Z</time>
      </trkpt>
      <trkpt lat="46.78719" lon="-2.00378">
        <ele>2</ele>
        <time>2018-04-22T14:26:17Z</time>
      </trkpt>
      <trkpt lat="46.78712" lon="-2.00382">
        <ele>2</ele>
        <time>2018-04-22T14:27:17Z</time>
      </trkpt>
      <trkpt lat="46.78705" lon="-2.00386">
        <ele>2</ele>
        <time>2018-04-22T14:28:17Z</time>
      </trkpt>
      <trkpt lat="46.78695" lon="-2.0039">
        <ele>2</ele>
        <time>2018-04-22T14:29:17Z</time>
      </trkpt>
      <trkpt lat="46.78677" lon="-2.00395">
        <ele>2</ele>
        <time>2018-04-22T14:30:17Z</time>
      </trkpt>
      <trkpt lat="46.78658" lon="-2.004">
        <ele>2</ele>
        <time>2018-04-22T14:31:17Z</time>
      </trkpt>
      <trkpt lat="46.78641" lon="-2.00403">
        <ele>2</ele>
        <time>2018-04-22T14:32:17Z</time>
      </trkpt>
      <trkpt lat="46.78628" lon="-2.00404">
        <ele>1</ele>
        <time>2018-04-22T14:33:17Z</time>
      </trkpt>
      <trkpt lat="46.78625" lon="-2.00404">
        <ele>1</ele>
        <time>2018-04-22T14:34:17Z</time>
      </trkpt>
      <trkpt lat="46.7862" lon="-2.00403">
        <ele>1</ele>
        <time>2018-04-22T14:35:17Z</time>
      </trkpt>
      <trkpt lat="46.78611" lon="-2.00401">
        <ele>1</ele>
        <time>2018-04-22T14:36:17Z</time>
      </trkpt>
      <trkpt lat="46.78603" lon="-2.00397">
        <ele>1</ele>
        <time>2018-04-22T14:37:17Z</time>
      </trkpt>
      <trkpt lat="46.78596" lon="-2.00391">
        <ele>1</ele>
        <time>2018-04-22T14:38:17Z</time>
      </trkpt>
      <trkpt lat="46.78589" lon="-2.00382">
        <ele>1</ele>
        <time>2018-04-22T14:39:17Z</time>
      </trkpt>
      <trkpt lat="46.78574" lon="-2.00356">
        <ele>1</ele>
        <time>2018-04-22T14:40:17Z</time>
      </trkpt>
      <trkpt lat="46.7856" lon="-2.00333">
        <ele>1</ele>
        <time>2018-04-22T14:41:17Z</time>
      </trkpt>
      <trkpt lat="46.78549" lon="-2.00317">
        <ele>1</ele>
        <time>2018-04-22T14:42:17Z</time>
      </trkpt>
      <trkpt lat="46.78542" lon="-2.00308">
        <ele>1</ele>
        <time>2018-04-22T14:43:17Z</time>
      </trkpt>
      <trkpt lat="46.7854" lon="-2.00305">
        <ele>2</ele>
        <time>2018-04-22T14:44:17Z</time>
      </trkpt>
      <trkpt lat="46.78532" lon="-2.00297">
        <ele>2</ele>
        <time>2018-04-22T14:45:17Z</time>
      </trkpt>
      <trkpt lat="46.78526" lon="-2.00293">
        <ele>2</ele>
        <time>2018-04-22T14:46:17Z</time>
      </trkpt>
      <trkpt lat="46.78522" lon="-2.00291">
        <ele>2</ele>
        <time>2018-04-22T14:47:17Z</time>
      </trkpt>
      <trkpt lat="46.78522" lon="-2.00291">
        <ele>2</ele>
        <time>2018-04-22T14:48:17Z</time>
      </trkpt>
      <trkpt lat="46.78521" lon="-2.00292">
        <ele>2</ele>
        <time>2018-04-22T14:49:17Z</time>
      </trkpt>
      <trkpt lat="46.78516" lon="-2.00298">
        <ele>2</ele>
        <time>2018-04-22T14:50:17Z</time>
      </trkpt>
      <trkpt lat="46.78513" lon="-2.00304">
        <ele>2</ele>
        <time>2018-04-22T14:51:17Z</time>
      </trkpt>
      <trkpt lat="46.78508" lon="-2.00316">
        <ele>2</ele>
        <time>2018-04-22T14:52:17Z</time>
      </trkpt>
      <trkpt lat="46.785" lon="-2.00336">
        <ele>2</ele>
        <time>2018-04-22T14:53:17Z</time>
      </trkpt>
      <trkpt lat="46.78488" lon="-2.00373">
        <ele>1</ele>
        <time>2018-04-22T14:54:17Z</time>
      </trkpt>
      <trkpt lat="46.78475" lon="-2.0041">
        <ele>1.8</ele>
        <time>2018-04-22T14:55:17Z</time>
      </trkpt>
      <trkpt lat="46.78465" lon="-2.0043">
        <ele>1.9</ele>
        <time>2018-04-22T14:56:17Z</time>
      </trkpt>
      <trkpt lat="46.78451" lon="-2.00456">
        <ele>2</ele>
        <time>2018-04-22T14:57:17Z</time>
      </trkpt>
      <trkpt lat="46.78428" lon="-2.00498">
        <ele>1</ele>
        <time>2018-04-22T14:58:17Z</time>
      </trkpt>
      <trkpt lat="46.78425" lon="-2.00503">
        <ele>1</ele>
        <time>2018-04-22T14:59:17Z</time>
      </trkpt>
      <trkpt lat="46.78422" lon="-2.00507">
        <ele>1</ele>
        <time>2018-04-22T15:00:17Z</time>
      </trkpt>
      <trkpt lat="46.78408" lon="-2.00531">
        <ele>2</ele>
        <time>2018-04-22T15:01:17Z</time>
      </trkpt>
      <trkpt lat="46.78391" lon="-2.00557">
        <ele>2</ele>
        <time>2018-04-22T15:02:17Z</time>
      </trkpt>
      <trkpt lat="46.78362" lon="-2.00598">
        <ele>1.5</ele>
        <time>2018-04-22T15:03:17Z</time>
      </trkpt>
      <trkpt lat="46.78342" lon="-2.00628">
        <ele>2</ele>
        <time>2018-04-22T15:04:17Z</time>
      </trkpt>
      <trkpt lat="46.78322" lon="-2.00659">
        <ele>1</ele>
        <time>2018-04-22T15:05:17Z</time>
      </trkpt>
      <trkpt lat="46.78308" lon="-2.00677">
        <ele>1</ele>
        <time>2018-04-22T15:06:17Z</time>
      </trkpt>
      <trkpt lat="46.78299" lon="-2.00692">
        <ele>1</ele>
        <time>2018-04-22T15:07:17Z</time>
      </trkpt>
      <trkpt lat="46.78281" lon="-2.00721">
        <ele>1</ele>
        <time>2018-04-22T15:08:17Z</time>
      </trkpt>
      <trkpt lat="46.78245" lon="-2.00789">
        <ele>1</ele>
        <time>2018-04-22T15:09:17Z</time>
      </trkpt>
      <trkpt lat="46.78201" lon="-2.00868">
        <ele>2</ele>
        <time>2018-04-22T15:10:17Z</time>
      </trkpt>
      <trkpt lat="46.78182" lon="-2.00899">
        <ele>2</ele>
        <time>2018-04-22T15:11:17Z</time>
      </trkpt>
      <trkpt lat="46.78151" lon="-2.00953">
        <ele>1</ele>
        <time>2018-04-22T15:12:17Z</time>
      </trkpt>
      <trkpt lat="46.78101" lon="-2.01034">
        <ele>1</ele>
        <time>2018-04-22T15:13:17Z</time>
      </trkpt>
      <trkpt lat="46.78074" lon="-2.01081">
        <ele>1</ele>
        <time>2018-04-22T15:14:17Z</time>
      </trkpt>
      <trkpt lat="46.78044" lon="-2.01135">
        <ele>1</ele>
        <time>2018-04-22T15:15:17Z</time>
      </trkpt>
      <trkpt lat="46.7802" lon="-2.01176">
        <ele>2</ele>
        <time>2018-04-22T15:16:17Z</time>
      </trkpt>
      <trkpt lat="46.78005" lon="-2.01204">
        <ele>2</ele>
        <time>2018-04-22T15:17:17Z</time>
      </trkpt>
      <trkpt lat="46.77991" lon="-2.01226">
        <ele>2</ele>
        <time>2018-04-22T15:18:17Z</time>
      </trkpt>
      <trkpt lat="46.77979" lon="-2.01245">
        <ele>3</ele>
        <time>2018-04-22T15:19:17Z</time>
      </trkpt>
      <trkpt lat="46.77979" lon="-2.01245">
        <ele>3</ele>
        <time>2018-04-22T15:20:17Z</time>
      </trkpt>
      <trkpt lat="46.77968" lon="-2.01228">
        <ele>3</ele>
        <time>2018-04-22T15:21:17Z</time>
      </trkpt>
      <trkpt lat="46.77968" lon="-2.01228">
        <ele>3</ele>
        <time>2018-04-22T15:22:17Z</time>
      </trkpt>
      <trkpt lat="46.77949" lon="-2.01252">
        <ele>4</ele>
        <time>2018-04-22T15:23:17Z</time>
      </trkpt>
      <trkpt lat="46.77943" lon="-2.0126">
        <ele>4</ele>
        <time>2018-04-22T15:24:17Z</time>
      </trkpt>
      <trkpt lat="46.77933" lon="-2.01272">
        <ele>5</ele>
        <time>2018-04-22T15:25:17Z</time>
      </trkpt>
      <trkpt lat="46.77922" lon="-2.01284">
        <ele>6</ele>
        <time>2018-04-22T15:26:17Z</time>
      </trkpt>
      <trkpt lat="46.77907" lon="-2.01305">
        <ele>7</ele>
        <time>2018-04-22T15:27:17Z</time>
      </trkpt>
      <trkpt lat="46.77905" lon="-2.01307">
        <ele>7</ele>
        <time>2018-04-22T15:28:17Z</time>
      </trkpt>
      <trkpt lat="46.77902" lon="-2.01312">
        <ele>7</ele>
        <time>2018-04-22T15:29:17Z</time>
      </trkpt>
      <trkpt lat="46.77891" lon="-2.01331">
        <ele>7</ele>
        <time>2018-04-22T15:30:17Z</time>
      </trkpt>
      <trkpt lat="46.77881" lon="-2.0135">
        <ele>7</ele>
        <time>2018-04-22T15:31:17Z</time>
      </trkpt>
      <trkpt lat="46.77877" lon="-2.01362">
        <ele>7</ele>
        <time>2018-04-22T15:32:17Z</time>
      </trkpt>
      <trkpt lat="46.77872" lon="-2.01379">
        <ele>7</ele>
        <time>2018-04-22T15:33:17Z</time>
      </trkpt>
      <trkpt lat="46.77871" lon="-2.01394">
        <ele>7</ele>
        <time>2018-04-22T15:34:17Z</time>
      </trkpt>
      <trkpt lat="46.77869" lon="-2.01413">
        <ele>7</ele>
        <time>2018-04-22T15:35:17Z</time>
      </trkpt>
      <trkpt lat="46.77869" lon="-2.01438">
        <ele>7</ele>
        <time>2018-04-22T15:36:17Z</time>
      </trkpt>
      <trkpt lat="46.77867" lon="-2.01457">
        <ele>7</ele>
        <time>2018-04-22T15:37:17Z</time>
      </trkpt>
      <trkpt lat="46.77864" lon="-2.01474">
        <ele>7</ele>
        <time>2018-04-22T15:38:17Z</time>
      </trkpt>
      <trkpt lat="46.77857" lon="-2.01506">
        <ele>7</ele>
        <time>2018-04-22T15:39:17Z</time>
      </trkpt>
      <trkpt lat="46.77849" lon="-2.01534">
        <ele>8</ele>
        <time>2018-04-22T15:40:17Z</time>
      </trkpt>
      <trkpt lat="46.77841" lon="-2.01553">
        <ele>8</ele>
        <time>2018-04-22T15:41:17Z</time>
      </trkpt>
      <trkpt lat="46.77836" lon="-2.0156">
        <ele>8</ele>
        <time>2018-04-22T15:42:17Z</time>
      </trkpt>
      <trkpt lat="46.77831" lon="-2.01563">
        <ele>8</ele>
        <time>2018-04-22T15:43:17Z</time>
      </trkpt>
      <trkpt lat="46.77831" lon="-2.01563">
        <ele>8</ele>
        <time>2018-04-22T15:44:17Z</time>
      </trkpt>
      <trkpt lat="46.77823" lon="-2.01555">
        <ele>8</ele>
        <time>2018-04-22T15:45:17Z</time>
      </trkpt>
      <trkpt lat="46.77814" lon="-2.01546">
        <ele>8</ele>
        <time>2018-04-22T15:46:17Z</time>
      </trkpt>
      <trkpt lat="46.77803" lon="-2.01532">
        <ele>8</ele>
        <time>2018-04-22T15:47:17Z</time>
      </trkpt>
      <trkpt lat="46.77789" lon="-2.01516">
        <ele>8</ele>
        <time>2018-04-22T15:48:17Z</time>
      </trkpt>
      <trkpt lat="46.77776" lon="-2.01499">
        <ele>8</ele>
        <time>2018-04-22T15:49:17Z</time>
      </trkpt>
      <trkpt lat="46.77743" lon="-2.01457">
        <ele>10</ele>
        <time>2018-04-22T15:50:17Z</time>
      </trkpt>
      <trkpt lat="46.77702" lon="-2.01407">
        <ele>10</ele>
        <time>2018-04-22T15:51:17Z</time>
      </trkpt>
      <trkpt lat="46.77682" lon="-2.01384">
        <ele>9</ele>
        <time>2018-04-22T15:52:17Z</time>
      </trkpt>
      <trkpt lat="46.77678" lon="-2.01377">
        <ele>9</ele>
        <time>2018-04-22T15:53:17Z</time>
      </trkpt>
      <trkpt lat="46.7766" lon="-2.01353">
        <ele>8</ele>
        <time>2018-04-22T15:54:17Z</time>
      </trkpt>
      <trkpt lat="46.77638" lon="-2.01323">
        <ele>7</ele>
        <time>2018-04-22T15:55:17Z</time>
      </trkpt>
      <trkpt lat="46.77616" lon="-2.01296">
        <ele>8</ele>
        <time>2018-04-22T15:56:17Z</time>
      </trkpt>
      <trkpt lat="46.77597" lon="-2.01271">
        <ele>8</ele>
        <time>2018-04-22T15:57:17Z</time>
      </trkpt>
      <trkpt lat="46.77583" lon="-2.01254">
        <ele>8</ele>
        <time>2018-04-22T15:58:17Z</time>
      </trkpt>
      <trkpt lat="46.77572" lon="-2.01242">
        <ele>9</ele>
        <time>2018-04-22T15:59:17Z</time>
      </trkpt>
      <trkpt lat="46.77562" lon="-2.01231">
        <ele>9</ele>
        <time>2018-04-22T16:00:17Z</time>
      </trkpt>
      <trkpt lat="46.77552" lon="-2.01221">
        <ele>10</ele>
        <time>2018-04-22T16:01:17Z</time>
      </trkpt>
      <trkpt lat="46.7754" lon="-2.01209">
        <ele>10</ele>
        <time>2018-04-22T16:02:17Z</time>
      </trkpt>
      <trkpt lat="46.7753" lon="-2.012">
        <ele>11</ele>
        <time>2018-04-22T16:03:17Z</time>
      </trkpt>
      <trkpt lat="46.77521" lon="-2.01194">
        <ele>11</ele>
        <time>2018-04-22T16:04:17Z</time>
      </trkpt>
      <trkpt lat="46.77514" lon="-2.01189">
        <ele>11</ele>
        <time>2018-04-22T16:05:17Z</time>
      </trkpt>
      <trkpt lat="46.77503" lon="-2.01183">
        <ele>12</ele>
        <time>2018-04-22T16:06:17Z</time>
      </trkpt>
      <trkpt lat="46.77487" lon="-2.01179">
        <ele>12</ele>
        <time>2018-04-22T16:07:17Z</time>
      </trkpt>
      <trkpt lat="46.77463" lon="-2.0117">
        <ele>12</ele>
        <time>2018-04-22T16:08:17Z</time>
      </trkpt>
      <trkpt lat="46.77445" lon="-2.01163">
        <ele>12</ele>
        <time>2018-04-22T16:09:17Z</time>
      </trkpt>
      <trkpt lat="46.77426" lon="-2.01157">
        <ele>12</ele>
        <time>2018-04-22T16:10:17Z</time>
      </trkpt>
      <trkpt lat="46.774" lon="-2.01147">
        <ele>12</ele>
        <time>2018-04-22T16:11:17Z</time>
      </trkpt>
      <trkpt lat="46.77374" lon="-2.01136">
        <ele>12</ele>
        <time>2018-04-22T16:12:17Z</time>
      </trkpt>
      <trkpt lat="46.77335" lon="-2.01121">
        <ele>12</ele>
        <time>2018-04-22T16:13:17Z</time>
      </trkpt>
      <trkpt lat="46.77327" lon="-2.01117">
        <ele>12</ele>
        <time>2018-04-22T16:14:17Z</time>
      </trkpt>
      <trkpt lat="46.77302" lon="-2.01103">
        <ele>12</ele>
        <time>2018-04-22T16:15:17Z</time>
      </trkpt>
      <trkpt lat="46.77281" lon="-2.0109">
        <ele>12</ele>
        <time>2018-04-22T16:16:17Z</time>
      </trkpt>
      <trkpt lat="46.77258" lon="-2.01074">
        <ele>11</ele>
        <time>2018-04-22T16:17:17Z</time>
      </trkpt>
      <trkpt lat="46.7723" lon="-2.01048">
        <ele>11</ele>
        <time>2018-04-22T16:18:17Z</time>
      </trkpt>
      <trkpt lat="46.77218" lon="-2.0103">
        <ele>10</ele>
        <time>2018-04-22T16:19:17Z</time>
      </trkpt>
      <trkpt lat="46.77191" lon="-2.00993">
        <ele>9</ele>
        <time>2018-04-22T16:20:17Z</time>
      </trkpt>
      <trkpt lat="46.77145" lon="-2.00926">
        <ele>8</ele>
        <time>2018-04-22T16:21:17Z</time>
      </trkpt>
      <trkpt lat="46.7709" lon="-2.00848">
        <ele>10</ele>
        <time>2018-04-22T16:22:17Z</time>
      </trkpt>
      <trkpt lat="46.77045" lon="-2.00776">
        <ele>7</ele>
        <time>2018-04-22T16:23:17Z</time>
      </trkpt>
      <trkpt lat="46.77016" lon="-2.00726">
        <ele>5</ele>
        <time>2018-04-22T16:24:17Z</time>
      </trkpt>
      <trkpt lat="46.77004" lon="-2.00701">
        <ele>4</ele>
        <time>2018-04-22T16:25:17Z</time>
      </trkpt>
      <trkpt lat="46.76999" lon="-2.00693">
        <ele>4</ele>
        <time>2018-04-22T16:26:17Z</time>
      </trkpt>
      <trkpt lat="46.76992" lon="-2.00683">
        <ele>4</ele>
        <time>2018-04-22T16:27:17Z</time>
      </trkpt>
      <trkpt lat="46.76991" lon="-2.00682">
        <ele>4</ele>
        <time>2018-04-22T16:28:17Z</time>
      </trkpt>
      <trkpt lat="46.76984" lon="-2.00673">
        <ele>4</ele>
        <time>2018-04-22T16:29:17Z</time>
      </trkpt>
      <trkpt lat="46.76977" lon="-2.00667">
        <ele>4</ele>
        <time>2018-04-22T16:30:17Z</time>
      </trkpt>
      <trkpt lat="46.76977" lon="-2.00667">
        <ele>4</ele>
        <time>2018-04-22T16:31:17Z</time>
      </trkpt>
      <trkpt lat="46.76967" lon="-2.00661">
        <ele>4</ele>
        <time>2018-04-22T16:32:17Z</time>
      </trkpt>
      <trkpt lat="46.76951" lon="-2.0065">
        <ele>5</ele>
        <time>2018-04-22T16:33:17Z</time>
      </trkpt>
      <trkpt lat="46.7693" lon="-2.00632">
        <ele>5</ele>
        <time>2018-04-22T16:34:17Z</time>
      </trkpt>
      <trkpt lat="46.76912" lon="-2.00617">
        <ele>6</ele>
        <time>2018-04-22T16:35:17Z</time>
      </trkpt>
      <trkpt lat="46.769" lon="-2.00608">
        <ele>6</ele>
        <time>2018-04-22T16:36:17Z</time>
      </trkpt>
      <trkpt lat="46.7689" lon="-2.00605">
        <ele>6</ele>
        <time>2018-04-22T16:37:17Z</time>
      </trkpt>
      <trkpt lat="46.76874" lon="-2.00606">
        <ele>6</ele>
        <time>2018-04-22T16:38:17Z</time>
      </trkpt>
      <trkpt lat="46.76856" lon="-2.00607">
        <ele>7</ele>
        <time>2018-04-22T16:39:17Z</time>
      </trkpt>
      <trkpt lat="46.76843" lon="-2.00607">
        <ele>7</ele>
        <time>2018-04-22T16:40:17Z</time>
      </trkpt>
      <trkpt lat="46.76838" lon="-2.00606">
        <ele>7</ele>
        <time>2018-04-22T16:41:17Z</time>
      </trkpt>
      <trkpt lat="46.76822" lon="-2.006">
        <ele>7</ele>
        <time>2018-04-22T16:42:17Z</time>
      </trkpt>
      <trkpt lat="46.76813" lon="-2.00596">
        <ele>7</ele>
        <time>2018-04-22T16:43:17Z</time>
      </trkpt>
      <trkpt lat="46.76799" lon="-2.00587">
        <ele>7</ele>
        <time>2018-04-22T16:44:17Z</time>
      </trkpt>
      <trkpt lat="46.76786" lon="-2.00579">
        <ele>7</ele>
        <time>2018-04-22T16:45:17Z</time>
      </trkpt>
      <trkpt lat="46.76775" lon="-2.00572">
        <ele>7</ele>
        <time>2018-04-22T16:46:17Z</time>
      </trkpt>
      <trkpt lat="46.76764" lon="-2.00567">
        <ele>7</ele>
        <time>2018-04-22T16:47:17Z</time>
      </trkpt>
      <trkpt lat="46.76756" lon="-2.00566">
        <ele>7</ele>
        <time>2018-04-22T16:48:17Z</time>
      </trkpt>
      <trkpt lat="46.76747" lon="-2.00565">
        <ele>7</ele>
        <time>2018-04-22T16:49:17Z</time>
      </trkpt>
      <trkpt lat="46.76742" lon="-2.00566">
        <ele>7</ele>
        <time>2018-04-22T16:50:17Z</time>
      </trkpt>
      <trkpt lat="46.76742" lon="-2.00566">
        <ele>7</ele>
        <time>2018-04-22T16:51:17Z</time>
      </trkpt>
      <trkpt lat="46.76728" lon="-2.00565">
        <ele>7</ele>
        <time>2018-04-22T16:52:17Z</time>
      </trkpt>
      <trkpt lat="46.76714" lon="-2.00562">
        <ele>8</ele>
        <time>2018-04-22T16:53:17Z</time>
      </trkpt>
      <trkpt lat="46.76705" lon="-2.00559">
        <ele>8</ele>
        <time>2018-04-22T16:54:17Z</time>
      </trkpt>
      <trkpt lat="46.76694" lon="-2.00556">
        <ele>8</ele>
        <time>2018-04-22T16:55:17Z</time>
      </trkpt>
      <trkpt lat="46.76686" lon="-2.00552">
        <ele>8</ele>
        <time>2018-04-22T16:56:17Z</time>
      </trkpt>
      <trkpt lat="46.76676" lon="-2.0055">
        <ele>9</ele>
        <time>2018-04-22T16:57:17Z</time>
      </trkpt>
      <trkpt lat="46.76672" lon="-2.00549">
        <ele>9</ele>
        <time>2018-04-22T16:58:17Z</time>
      </trkpt>
      <trkpt lat="46.76665" lon="-2.00549">
        <ele>9</ele>
        <time>2018-04-22T16:59:17Z</time>
      </trkpt>
      <trkpt lat="46.76659" lon="-2.0055">
        <ele>9</ele>
        <time>2018-04-22T17:00:17Z</time>
      </trkpt>
      <trkpt lat="46.76646" lon="-2.00555">
        <ele>9</ele>
        <time>2018-04-22T17:01:17Z</time>
      </trkpt>
      <trkpt lat="46.76634" lon="-2.00562">
        <ele>9</ele>
        <time>2018-04-22T17:02:17Z</time>
      </trkpt>
      <trkpt lat="46.7662" lon="-2.00572">
        <ele>9</ele>
        <time>2018-04-22T17:03:17Z</time>
      </trkpt>
      <trkpt lat="46.76609" lon="-2.00579">
        <ele>9</ele>
        <time>2018-04-22T17:04:17Z</time>
      </trkpt>
      <trkpt lat="46.766" lon="-2.00587">
        <ele>10</ele>
        <time>2018-04-22T17:05:17Z</time>
      </trkpt>
      <trkpt lat="46.76598" lon="-2.00588">
        <ele>10</ele>
        <time>2018-04-22T17:06:17Z</time>
      </trkpt>
      <trkpt lat="46.76584" lon="-2.00595">
        <ele>10</ele>
        <time>2018-04-22T17:07:17Z</time>
      </trkpt>
      <trkpt lat="46.76578" lon="-2.00596">
        <ele>10</ele>
        <time>2018-04-22T17:08:17Z</time>
      </trkpt>
      <trkpt lat="46.76571" lon="-2.00595">
        <ele>9</ele>
        <time>2018-04-22T17:09:17Z</time>
      </trkpt>
      <trkpt lat="46.76568" lon="-2.00594">
        <ele>9</ele>
        <time>2018-04-22T17:10:17Z</time>
      </trkpt>
      <trkpt lat="46.76559" lon="-2.00594">
        <ele>9</ele>
        <time>2018-04-22T17:11:17Z</time>
      </trkpt>
      <trkpt lat="46.76552" lon="-2.00595">
        <ele>8</ele>
        <time>2018-04-22T17:12:17Z</time>
      </trkpt>
      <trkpt lat="46.76542" lon="-2.00599">
        <ele>8</ele>
        <time>2018-04-22T17:13:17Z</time>
      </trkpt>
      <trkpt lat="46.76529" lon="-2.00608">
        <ele>8</ele>
        <time>2018-04-22T17:14:17Z</time>
      </trkpt>
      <trkpt lat="46.76516" lon="-2.0062">
        <ele>9</ele>
        <time>2018-04-22T17:15:17Z</time>
      </trkpt>
      <trkpt lat="46.76505" lon="-2.00633">
        <ele>9</ele>
        <time>2018-04-22T17:16:17Z</time>
      </trkpt>
      <trkpt lat="46.76494" lon="-2.00644">
        <ele>10</ele>
        <time>2018-04-22T17:17:17Z</time>
      </trkpt>
      <trkpt lat="46.76488" lon="-2.0065">
        <ele>10</ele>
        <time>2018-04-22T17:18:17Z</time>
      </trkpt>
      <trkpt lat="46.76483" lon="-2.00653">
        <ele>9</ele>
        <time>2018-04-22T17:19:17Z</time>
      </trkpt>
      <trkpt lat="46.76473" lon="-2.00656">
        <ele>9</ele>
        <time>2018-04-22T17:20:17Z</time>
      </trkpt>
      <trkpt lat="46.76464" lon="-2.00656">
        <ele>8</ele>
        <time>2018-04-22T17:21:17Z</time>
      </trkpt>
      <trkpt lat="46.76452" lon="-2.00652">
        <ele>7</ele>
        <time>2018-04-22T17:22:17Z</time>
      </trkpt>
      <trkpt lat="46.76452" lon="-2.00652">
        <ele>7</ele>
        <time>2018-04-22T17:23:17Z</time>
      </trkpt>
      <trkpt lat="46.76437" lon="-2.00693">
        <ele>7</ele>
        <time>2018-04-22T17:24:17Z</time>
      </trkpt>
      <trkpt lat="46.76424" lon="-2.00729">
        <ele>7</ele>
        <time>2018-04-22T17:25:17Z</time>
      </trkpt>
      <trkpt lat="46.76407" lon="-2.00773">
        <ele>7</ele>
        <time>2018-04-22T17:26:17Z</time>
      </trkpt>
      <trkpt lat="46.76393" lon="-2.00813">
        <ele>7</ele>
        <time>2018-04-22T17:27:17Z</time>
      </trkpt>
      <trkpt lat="46.76379" lon="-2.00844">
        <ele>6</ele>
        <time>2018-04-22T17:28:17Z</time>
      </trkpt>
      <trkpt lat="46.76366" lon="-2.00867">
        <ele>6</ele>
        <time>2018-04-22T17:29:17Z</time>
      </trkpt>
      <trkpt lat="46.76348" lon="-2.00894">
        <ele>5</ele>
        <time>2018-04-22T17:30:17Z</time>
      </trkpt>
      <trkpt lat="46.76326" lon="-2.00925">
        <ele>5</ele>
        <time>2018-04-22T17:31:17Z</time>
      </trkpt>
      <trkpt lat="46.76303" lon="-2.00959">
        <ele>6</ele>
        <time>2018-04-22T17:32:17Z</time>
      </trkpt>
      <trkpt lat="46.76277" lon="-2.00995">
        <ele>7</ele>
        <time>2018-04-22T17:33:17Z</time>
      </trkpt>
      <trkpt lat="46.7625" lon="-2.01033">
        <ele>7</ele>
        <time>2018-04-22T17:34:17Z</time>
      </trkpt>
      <trkpt lat="46.76224" lon="-2.01069">
        <ele>6</ele>
        <time>2018-04-22T17:35:17Z</time>
      </trkpt>
      <trkpt lat="46.762" lon="-2.01102">
        <ele>5</ele>
        <time>2018-04-22T17:36:17Z</time>
      </trkpt>
      <trkpt lat="46.7618" lon="-2.01134">
        <ele>5</ele>
        <time>2018-04-22T17:37:17Z</time>
      </trkpt>
      <trkpt lat="46.76169" lon="-2.01144">
        <ele>5</ele>
        <time>2018-04-22T17:38:17Z</time>
      </trkpt>
      <trkpt lat="46.76162" lon="-2.01147">
        <ele>5</ele>
        <time>2018-04-22T17:39:17Z</time>
      </trkpt>
      <trkpt lat="46.76151" lon="-2.01148">
        <ele>5</ele>
        <time>2018-04-22T17:40:17Z</time>
      </trkpt>
      <trkpt lat="46.76145" lon="-2.01148">
        <ele>5</ele>
        <time>2018-04-22T17:41:17Z</time>
      </trkpt>
      <trkpt lat="46.76127" lon="-2.01144">
        <ele>5</ele>
        <time>2018-04-22T17:42:17Z</time>
      </trkpt>
      <trkpt lat="46.76107" lon="-2.01137">
        <ele>5</ele>
        <time>2018-04-22T17:43:17Z</time>
      </trkpt>
      <trkpt lat="46.76103" lon="-2.01136">
        <ele>5</ele>
        <time>2018-04-22T17:44:17Z</time>
      </trkpt>
      <trkpt lat="46.76088" lon="-2.01132">
        <ele>5</ele>
        <time>2018-04-22T17:45:17Z</time>
      </trkpt>
      <trkpt lat="46.76056" lon="-2.0113">
        <ele>5</ele>
        <time>2018-04-22T17:46:17Z</time>
      </trkpt>
      <trkpt lat="46.76033" lon="-2.01132">
        <ele>6</ele>
        <time>2018-04-22T17:47:17Z</time>
      </trkpt>
      <trkpt lat="46.7602" lon="-2.01135">
        <ele>6</ele>
        <time>2018-04-22T17:48:17Z</time>
      </trkpt>
      <trkpt lat="46.75985" lon="-2.01141">
        <ele>6</ele>
        <time>2018-04-22T17:49:17Z</time>
      </trkpt>
      <trkpt lat="46.75953" lon="-2.01149">
        <ele>5</ele>
        <time>2018-04-22T17:50:17Z</time>
      </trkpt>
      <trkpt lat="46.75917" lon="-2.01158">
        <ele>4</ele>
        <time>2018-04-22T17:51:17Z</time>
      </trkpt>
      <trkpt lat="46.75898" lon="-2.0116">
        <ele>4</ele>
        <time>2018-04-22T17:52:17Z</time>
      </trkpt>
      <trkpt lat="46.75875" lon="-2.01164">
        <ele>4</ele>
        <time>2018-04-22T17:53:17Z</time>
      </trkpt>
      <trkpt lat="46.75864" lon="-2.01167">
        <ele>4</ele>
        <time>2018-04-22T17:54:17Z</time>
      </trkpt>
      <trkpt lat="46.7584" lon="-2.01172">
        <ele>4</ele>
        <time>2018-04-22T17:55:17Z</time>
      </trkpt>
      <trkpt lat="46.75817" lon="-2.0118">
        <ele>4</ele>
        <time>2018-04-22T17:56:17Z</time>
      </trkpt>
      <trkpt lat="46.75804" lon="-2.01185">
        <ele>5</ele>
        <time>2018-04-22T17:57:17Z</time>
      </trkpt>
      <trkpt lat="46.75778" lon="-2.01194">
        <ele>5</ele>
        <time>2018-04-22T17:58:17Z</time>
      </trkpt>
      <trkpt lat="46.75771" lon="-2.01196">
        <ele>5</ele>
        <time>2018-04-22T17:59:17Z</time>
      </trkpt>
      <trkpt lat="46.75753" lon="-2.01203">
        <ele>5</ele>
        <time>2018-04-22T18:00:17Z</time>
      </trkpt>
      <trkpt lat="46.75748" lon="-2.01205">
        <ele>5</ele>
        <time>2018-04-22T18:01:17Z</time>
      </trkpt>
      <trkpt lat="46.75733" lon="-2.01211">
        <ele>5</ele>
        <time>2018-04-22T18:02:17Z</time>
      </trkpt>
      <trkpt lat="46.75708" lon="-2.01221">
        <ele>5</ele>
        <time>2018-04-22T18:03:17Z</time>
      </trkpt>
      <trkpt lat="46.75683" lon="-2.0123">
        <ele>4</ele>
        <time>2018-04-22T18:04:17Z</time>
      </trkpt>
      <trkpt lat="46.75656" lon="-2.0124">
        <ele>4</ele>
        <time>2018-04-22T18:05:17Z</time>
      </trkpt>
      <trkpt lat="46.75636" lon="-2.01248">
        <ele>4</ele>
        <time>2018-04-22T18:06:17Z</time>
      </trkpt>
      <trkpt lat="46.75635" lon="-2.01248">
        <ele>4</ele>
        <time>2018-04-22T18:07:17Z</time>
      </trkpt>
      <trkpt lat="46.75613" lon="-2.01251">
        <ele>3</ele>
        <time>2018-04-22T18:08:17Z</time>
      </trkpt>
      <trkpt lat="46.75597" lon="-2.01259">
        <ele>3</ele>
        <time>2018-04-22T18:09:17Z</time>
      </trkpt>
      <trkpt lat="46.75583" lon="-2.01267">
        <ele>3</ele>
        <time>2018-04-22T18:10:17Z</time>
      </trkpt>
      <trkpt lat="46.75566" lon="-2.01275">
        <ele>3</ele>
        <time>2018-04-22T18:11:17Z</time>
      </trkpt>
      <trkpt lat="46.75554" lon="-2.01283">
        <ele>3</ele>
        <time>2018-04-22T18:12:17Z</time>
      </trkpt>
      <trkpt lat="46.75533" lon="-2.01301">
        <ele>3</ele>
        <time>2018-04-22T18:13:17Z</time>
      </trkpt>
      <trkpt lat="46.75507" lon="-2.01321">
        <ele>3</ele>
        <time>2018-04-22T18:14:17Z</time>
      </trkpt>
      <trkpt lat="46.75503" lon="-2.01324">
        <ele>3</ele>
        <time>2018-04-22T18:15:17Z</time>
      </trkpt>
      <trkpt lat="46.75465" lon="-2.01356">
        <ele>3</ele>
        <time>2018-04-22T18:16:17Z</time>
      </trkpt>
      <trkpt lat="46.75451" lon="-2.01367">
        <ele>3</ele>
        <time>2018-04-22T18:17:17Z</time>
      </trkpt>
      <trkpt lat="46.75424" lon="-2.01389">
        <ele>2</ele>
        <time>2018-04-22T18:18:17Z</time>
      </trkpt>
      <trkpt lat="46.75401" lon="-2.01406">
        <ele>2</ele>
        <time>2018-04-22T18:19:17Z</time>
      </trkpt>
      <trkpt lat="46.75386" lon="-2.01415">
        <ele>2</ele>
        <time>2018-04-22T18:20:17Z</time>
      </trkpt>
      <trkpt lat="46.75377" lon="-2.01426">
        <ele>2</ele>
        <time>2018-04-22T18:21:17Z</time>
      </trkpt>
      <trkpt lat="46.75361" lon="-2.01435">
        <ele>1</ele>
        <time>2018-04-22T18:22:17Z</time>
      </trkpt>
      <trkpt lat="46.75322" lon="-2.01458">
        <ele>1</ele>
        <time>2018-04-22T18:23:17Z</time>
      </trkpt>
      <trkpt lat="46.75284" lon="-2.01478">
        <ele>1</ele>
        <time>2018-04-22T18:24:17Z</time>
      </trkpt>
      <trkpt lat="46.75278" lon="-2.01481">
        <ele>1</ele>
        <time>2018-04-22T18:25:17Z</time>
      </trkpt>
      <trkpt lat="46.75272" lon="-2.01484">
        <ele>1</ele>
        <time>2018-04-22T18:26:17Z</time>
      </trkpt>
      <trkpt lat="46.75249" lon="-2.01496">
        <ele>2.8</ele>
        <time>2018-04-22T18:27:17Z</time>
      </trkpt>
      <trkpt lat="46.75233" lon="-2.01505">
        <ele>2.3</ele>
        <time>2018-04-22T18:28:17Z</time>
      </trkpt>
      <trkpt lat="46.75216" lon="-2.01515">
        <ele>1</ele>
        <time>2018-04-22T18:29:17Z</time>
      </trkpt>
      <trkpt lat="46.75212" lon="-2.01517">
        <ele>1</ele>
        <time>2018-04-22T18:30:17Z</time>
      </trkpt>
      <trkpt lat="46.75202" lon="-2.01523">
        <ele>1</ele>
        <time>2018-04-22T18:31:17Z</time>
      </trkpt>
      <trkpt lat="46.75177" lon="-2.01541">
        <ele>1</ele>
        <time>2018-04-22T18:32:17Z</time>
      </trkpt>
      <trkpt lat="46.75172" lon="-2.01545">
        <ele>1</ele>
        <time>2018-04-22T18:33:17Z</time>
      </trkpt>
      <trkpt lat="46.7517" lon="-2.01546">
        <ele>2</ele>
        <time>2018-04-22T18:34:17Z</time>
      </trkpt>
      <trkpt lat="46.75154" lon="-2.01559">
        <ele>2</ele>
        <time>2018-04-22T18:35:17Z</time>
      </trkpt>
      <trkpt lat="46.75139" lon="-2.01573">
        <ele>3</ele>
        <time>2018-04-22T18:36:17Z</time>
      </trkpt>
      <trkpt lat="46.75136" lon="-2.0158">
        <ele>3</ele>
        <time>2018-04-22T18:37:17Z</time>
      </trkpt>
      <trkpt lat="46.75134" lon="-2.01586">
        <ele>3</ele>
        <time>2018-04-22T18:38:17Z</time>
      </trkpt>
      <trkpt lat="46.75132" lon="-2.01601">
        <ele>3</ele>
        <time>2018-04-22T18:39:17Z</time>
      </trkpt>
      <trkpt lat="46.75132" lon="-2.01601">
        <ele>3</ele>
        <time>2018-04-22T18:40:17Z</time>
      </trkpt>
      <trkpt lat="46.75134" lon="-2.01607">
        <ele>3</ele>
        <time>2018-04-22T18:41:17Z</time>
      </trkpt>
      <trkpt lat="46.75134" lon="-2.0161">
        <ele>3</ele>
        <time>2018-04-22T18:42:17Z</time>
      </trkpt>
      <trkpt lat="46.75134" lon="-2.01615">
        <ele>3</ele>
        <time>2018-04-22T18:43:17Z</time>
      </trkpt>
      <trkpt lat="46.75133" lon="-2.0162">
        <ele>4</ele>
        <time>2018-04-22T18:44:17Z</time>
      </trkpt>
      <trkpt lat="46.7513" lon="-2.01624">
        <ele>4</ele>
        <time>2018-04-22T18:45:17Z</time>
      </trkpt>
      <trkpt lat="46.75126" lon="-2.01627">
        <ele>4</ele>
        <time>2018-04-22T18:46:17Z</time>
      </trkpt>
      <trkpt lat="46.7512" lon="-2.01629">
        <ele>4</ele>
        <time>2018-04-22T18:47:17Z</time>
      </trkpt>
      <trkpt lat="46.75116" lon="-2.01628">
        <ele>4</ele>
        <time>2018-04-22T18:48:17Z</time>
      </trkpt>
      <trkpt lat="46.75112" lon="-2.01626">
        <ele>4</ele>
        <time>2018-04-22T18:49:17Z</time>
      </trkpt>
      <trkpt lat="46.75109" lon="-2.01623">
        <ele>4</ele>
        <time>2018-04-22T18:50:17Z</time>
      </trkpt>
      <trkpt lat="46.75107" lon="-2.01618">
        <ele>4</ele>
        <time>2018-04-22T18:51:17Z</time>
      </trkpt>
      <trkpt lat="46.75106" lon="-2.01612">
        <ele>4</ele>
        <time>2018-04-22T18:52:17Z</time>
      </trkpt>
      <trkpt lat="46.75105" lon="-2.01607">
        <ele>4</ele>
        <time>2018-04-22T18:53:17Z</time>
      </trkpt>
      <trkpt lat="46.75106" lon="-2.01601">
        <ele>4</ele>
        <time>2018-04-22T18:54:17Z</time>
      </trkpt>
      <trkpt lat="46.75102" lon="-2.01593">
        <ele>4</ele>
        <time>2018-04-22T18:55:17Z</time>
      </trkpt>
      <trkpt lat="46.75099" lon="-2.01586">
        <ele>4</ele>
        <time>2018-04-22T18:56:17Z</time>
      </trkpt>
      <trkpt lat="46.75096" lon="-2.01579">
        <ele>4</ele>
        <time>2018-04-22T18:57:17Z</time>
      </trkpt>
      <trkpt lat="46.75084" lon="-2.01564">
        <ele>4</ele>
        <time>2018-04-22T18:58:17Z</time>
      </trkpt>
      <trkpt lat="46.75057" lon="-2.01531">
        <ele>4</ele>
        <time>2018-04-22T18:59:17Z</time>
      </trkpt>
      <trkpt lat="46.75037" lon="-2.01501">
        <ele>4</ele>
        <time>2018-04-22T19:00:17Z</time>
      </trkpt>
      <trkpt lat="46.75035" lon="-2.01499">
        <ele>4</ele>
        <time>2018-04-22T19:01:17Z</time>
      </trkpt>
      <trkpt lat="46.75018" lon="-2.01472">
        <ele>4</ele>
        <time>2018-04-22T19:02:17Z</time>
      </trkpt>
      <trkpt lat="46.74993" lon="-2.01431">
        <ele>4</ele>
        <time>2018-04-22T19:03:17Z</time>
      </trkpt>
      <trkpt lat="46.74972" lon="-2.01394">
        <ele>5</ele>
        <time>2018-04-22T19:04:17Z</time>
      </trkpt>
      <trkpt lat="46.74969" lon="-2.01389">
        <ele>5</ele>
        <time>2018-04-22T19:05:17Z</time>
      </trkpt>
      <trkpt lat="46.74958" lon="-2.01372">
        <ele>5</ele>
        <time>2018-04-22T19:06:17Z</time>
      </trkpt>
      <trkpt lat="46.74952" lon="-2.01363">
        <ele>6</ele>
        <time>2018-04-22T19:07:17Z</time>
      </trkpt>
      <trkpt lat="46.7495" lon="-2.01362">
        <ele>6</ele>
        <time>2018-04-22T19:08:17Z</time>
      </trkpt>
      <trkpt lat="46.74944" lon="-2.01355">
        <ele>6</ele>
        <time>2018-04-22T19:09:17Z</time>
      </trkpt>
      <trkpt lat="46.74927" lon="-2.01343">
        <ele>7</ele>
        <time>2018-04-22T19:10:17Z</time>
      </trkpt>
      <trkpt lat="46.74895" lon="-2.01325">
        <ele>7</ele>
        <time>2018-04-22T19:11:17Z</time>
      </trkpt>
      <trkpt lat="46.74863" lon="-2.01308">
        <ele>7</ele>
        <time>2018-04-22T19:12:17Z</time>
      </trkpt>
      <trkpt lat="46.74821" lon="-2.01285">
        <ele>6</ele>
        <time>2018-04-22T19:13:17Z</time>
      </trkpt>
      <trkpt lat="46.74784" lon="-2.01263">
        <ele>6</ele>
        <time>2018-04-22T19:14:17Z</time>
      </trkpt>
      <trkpt lat="46.74747" lon="-2.0124">
        <ele>7</ele>
        <time>2018-04-22T19:15:17Z</time>
      </trkpt>
      <trkpt lat="46.74723" lon="-2.01225">
        <ele>7</ele>
        <time>2018-04-22T19:16:17Z</time>
      </trkpt>
      <trkpt lat="46.74693" lon="-2.01205">
        <ele>8</ele>
        <time>2018-04-22T19:17:17Z</time>
      </trkpt>
      <trkpt lat="46.74682" lon="-2.01198">
        <ele>8</ele>
        <time>2018-04-22T19:18:17Z</time>
      </trkpt>
      <trkpt lat="46.74664" lon="-2.01183">
        <ele>8</ele>
        <time>2018-04-22T19:19:17Z</time>
      </trkpt>
      <trkpt lat="46.74646" lon="-2.01164">
        <ele>8</ele>
        <time>2018-04-22T19:20:17Z</time>
      </trkpt>
      <trkpt lat="46.74638" lon="-2.01154">
        <ele>8</ele>
        <time>2018-04-22T19:21:17Z</time>
      </trkpt>
      <trkpt lat="46.74613" lon="-2.01126">
        <ele>7</ele>
        <time>2018-04-22T19:22:17Z</time>
      </trkpt>
      <trkpt lat="46.74582" lon="-2.01089">
        <ele>4</ele>
        <time>2018-04-22T19:23:17Z</time>
      </trkpt>
      <trkpt lat="46.74564" lon="-2.01068">
        <ele>4</ele>
        <time>2018-04-22T19:24:17Z</time>
      </trkpt>
      <trkpt lat="46.74557" lon="-2.01058">
        <ele>4</ele>
        <time>2018-04-22T19:25:17Z</time>
      </trkpt>
      <trkpt lat="46.74538" lon="-2.01036">
        <ele>4</ele>
        <time>2018-04-22T19:26:17Z</time>
      </trkpt>
      <trkpt lat="46.74532" lon="-2.0103">
        <ele>5</ele>
        <time>2018-04-22T19:27:17Z</time>
      </trkpt>
      <trkpt lat="46.74512" lon="-2.01014">
        <ele>5</ele>
        <time>2018-04-22T19:28:17Z</time>
      </trkpt>
      <trkpt lat="46.74482" lon="-2.00986">
        <ele>4</ele>
        <time>2018-04-22T19:29:17Z</time>
      </trkpt>
      <trkpt lat="46.74463" lon="-2.00969">
        <ele>4</ele>
        <time>2018-04-22T19:30:17Z</time>
      </trkpt>
      <trkpt lat="46.74444" lon="-2.00952">
        <ele>4</ele>
        <time>2018-04-22T19:31:17Z</time>
      </trkpt>
      <trkpt lat="46.7439" lon="-2.00906">
        <ele>3</ele>
        <time>2018-04-22T19:32:17Z</time>
      </trkpt>
      <trkpt lat="46.74361" lon="-2.0088">
        <ele>3</ele>
        <time>2018-04-22T19:33:17Z</time>
      </trkpt>
      <trkpt lat="46.74345" lon="-2.00864">
        <ele>3</ele>
        <time>2018-04-22T19:34:17Z</time>
      </trkpt>
      <trkpt lat="46.74337" lon="-2.00853">
        <ele>3</ele>
        <time>2018-04-22T19:35:17Z</time>
      </trkpt>
      <trkpt lat="46.7433" lon="-2.00843">
        <ele>3</ele>
        <time>2018-04-22T19:36:17Z</time>
      </trkpt>
      <trkpt lat="46.74322" lon="-2.0083">
        <ele>3</ele>
        <time>2018-04-22T19:37:17Z</time>
      </trkpt>
      <trkpt lat="46.74312" lon="-2.00812">
        <ele>2</ele>
        <time>2018-04-22T19:38:17Z</time>
      </trkpt>
      <trkpt lat="46.74308" lon="-2.00805">
        <ele>2</ele>
        <time>2018-04-22T19:39:17Z</time>
      </trkpt>
      <trkpt lat="46.74301" lon="-2.00793">
        <ele>2</ele>
        <time>2018-04-22T19:40:17Z</time>
      </trkpt>
      <trkpt lat="46.74283" lon="-2.00765">
        <ele>2</ele>
        <time>2018-04-22T19:41:17Z</time>
      </trkpt>
      <trkpt lat="46.74275" lon="-2.00753">
        <ele>2</ele>
        <time>2018-04-22T19:42:17Z</time>
      </trkpt>
      <trkpt lat="46.7426" lon="-2.00726">
        <ele>2</ele>
        <time>2018-04-22T19:43:17Z</time>
      </trkpt>
      <trkpt lat="46.7425" lon="-2.00711">
        <ele>2</ele>
        <time>2018-04-22T19:44:17Z</time>
      </trkpt>
      <trkpt lat="46.74235" lon="-2.00689">
        <ele>3</ele>
        <time>2018-04-22T19:45:17Z</time>
      </trkpt>
      <trkpt lat="46.74191" lon="-2.00625">
        <ele>3</ele>
        <time>2018-04-22T19:46:17Z</time>
      </trkpt>
      <trkpt lat="46.74148" lon="-2.00565">
        <ele>3</ele>
        <time>2018-04-22T19:47:17Z</time>
      </trkpt>
      <trkpt lat="46.74143" lon="-2.00558">
        <ele>3</ele>
        <time>2018-04-22T19:48:17Z</time>
      </trkpt>
      <trkpt lat="46.74131" lon="-2.0054">
        <ele>3</ele>
        <time>2018-04-22T19:49:17Z</time>
      </trkpt>
      <trkpt lat="46.74124" lon="-2.00529">
        <ele>3</ele>
        <time>2018-04-22T19:50:17Z</time>
      </trkpt>
      <trkpt lat="46.74117" lon="-2.00519">
        <ele>3</ele>
        <time>2018-04-22T19:51:17Z</time>
      </trkpt>
      <trkpt lat="46.74114" lon="-2.00514">
        <ele>3</ele>
        <time>2018-04-22T19:52:17Z</time>
      </trkpt>
      <trkpt lat="46.74108" lon="-2.00504">
        <ele>3</ele>
        <time>2018-04-22T19:53:17Z</time>
      </trkpt>
      <trkpt lat="46.74103" lon="-2.00497">
        <ele>3</ele>
        <time>2018-04-22T19:54:17Z</time>
      </trkpt>
      <trkpt lat="46.74099" lon="-2.00488">
        <ele>3</ele>
        <time>2018-04-22T19:55:17Z</time>
      </trkpt>
      <trkpt lat="46.74096" lon="-2.00481">
        <ele>3</ele>
        <time>2018-04-22T19:56:17Z</time>
      </trkpt>
      <trkpt lat="46.74085" lon="-2.00458">
        <ele>3</ele>
        <time>2018-04-22T19:57:17Z</time>
      </trkpt>
      <trkpt lat="46.74078" lon="-2.00436">
        <ele>3</ele>
        <time>2018-04-22T19:58:17Z</time>
      </trkpt>
      <trkpt lat="46.74073" lon="-2.00423">
        <ele>3</ele>
        <time>2018-04-22T19:59:17Z</time>
      </trkpt>
      <trkpt lat="46.74067" lon="-2.00404">
        <ele>3</ele>
        <time>2018-04-22T20:00:17Z</time>
      </trkpt>
      <trkpt lat="46.74066" lon="-2.00393">
        <ele>3</ele>
        <time>2018-04-22T20:01:17Z</time>
      </trkpt>
      <trkpt lat="46.74065" lon="-2.00382">
        <ele>3</ele>
        <time>2018-04-22T20:02:17Z</time>
      </trkpt>
      <trkpt lat="46.74065" lon="-2.00368">
        <ele>3</ele>
        <time>2018-04-22T20:03:17Z</time>
      </trkpt>
      <trkpt lat="46.74067" lon="-2.00353">
        <ele>3</ele>
        <time>2018-04-22T20:04:17Z</time>
      </trkpt>
      <trkpt lat="46.7407" lon="-2.00339">
        <ele>2</ele>
        <time>2018-04-22T20:05:17Z</time>
      </trkpt>
      <trkpt lat="46.74075" lon="-2.00318">
        <ele>3</ele>
        <time>2018-04-22T20:06:17Z</time>
      </trkpt>
      <trkpt lat="46.74079" lon="-2.00302">
        <ele>3</ele>
        <time>2018-04-22T20:07:17Z</time>
      </trkpt>
      <trkpt lat="46.74085" lon="-2.00279">
        <ele>3</ele>
        <time>2018-04-22T20:08:17Z</time>
      </trkpt>
      <trkpt lat="46.74088" lon="-2.00267">
        <ele>4</ele>
        <time>2018-04-22T20:09:17Z</time>
      </trkpt>
      <trkpt lat="46.7411" lon="-2.00185">
        <ele>5</ele>
        <time>2018-04-22T20:10:17Z</time>
      </trkpt>
      <trkpt lat="46.74115" lon="-2.00164">
        <ele>5</ele>
        <time>2018-04-22T20:11:17Z</time>
      </trkpt>
      <trkpt lat="46.74119" lon="-2.00146">
        <ele>5</ele>
        <time>2018-04-22T20:12:17Z</time>
      </trkpt>
      <trkpt lat="46.74123" lon="-2.00124">
        <ele>6</ele>
        <time>2018-04-22T20:13:17Z</time>
      </trkpt>
      <trkpt lat="46.74127" lon="-2.001">
        <ele>6</ele>
        <time>2018-04-22T20:14:17Z</time>
      </trkpt>
      <trkpt lat="46.74134" lon="-2.0004">
        <ele>6</ele>
        <time>2018-04-22T20:15:17Z</time>
      </trkpt>
      <trkpt lat="46.74142" lon="-1.99944">
        <ele>6</ele>
        <time>2018-04-22T20:16:17Z</time>
      </trkpt>
      <trkpt lat="46.74143" lon="-1.99924">
        <ele>7</ele>
        <time>2018-04-22T20:17:17Z</time>
      </trkpt>
      <trkpt lat="46.74148" lon="-1.99843">
        <ele>7</ele>
        <time>2018-04-22T20:18:17Z</time>
      </trkpt>
      <trkpt lat="46.74154" lon="-1.99732">
        <ele>5</ele>
        <time>2018-04-22T20:19:17Z</time>
      </trkpt>
      <trkpt lat="46.74155" lon="-1.99686">
        <ele>5</ele>
        <time>2018-04-22T20:20:17Z</time>
      </trkpt>
      <trkpt lat="46.74157" lon="-1.99675">
        <ele>5</ele>
        <time>2018-04-22T20:21:17Z</time>
      </trkpt>
      <trkpt lat="46.74158" lon="-1.99666">
        <ele>5</ele>
        <time>2018-04-22T20:22:17Z</time>
      </trkpt>
      <trkpt lat="46.74162" lon="-1.99638">
        <ele>6</ele>
        <time>2018-04-22T20:23:17Z</time>
      </trkpt>
      <trkpt lat="46.74165" lon="-1.99622">
        <ele>6</ele>
        <time>2018-04-22T20:24:17Z</time>
      </trkpt>
      <trkpt lat="46.74174" lon="-1.9959">
        <ele>7</ele>
        <time>2018-04-22T20:25:17Z</time>
      </trkpt>
      <trkpt lat="46.74182" lon="-1.99559">
        <ele>6</ele>
        <time>2018-04-22T20:26:17Z</time>
      </trkpt>
      <trkpt lat="46.74192" lon="-1.99525">
        <ele>6</ele>
        <time>2018-04-22T20:27:17Z</time>
      </trkpt>
      <trkpt lat="46.742" lon="-1.99493">
        <ele>5</ele>
        <time>2018-04-22T20:28:17Z</time>
      </trkpt>
      <trkpt lat="46.74204" lon="-1.99474">
        <ele>5</ele>
        <time>2018-04-22T20:29:17Z</time>
      </trkpt>
      <trkpt lat="46.74206" lon="-1.99468">
        <ele>5</ele>
        <time>2018-04-22T20:30:17Z</time>
      </trkpt>
      <trkpt lat="46.74211" lon="-1.99436">
        <ele>5</ele>
        <time>2018-04-22T20:31:17Z</time>
      </trkpt>
      <trkpt lat="46.74216" lon="-1.99406">
        <ele>4</ele>
        <time>2018-04-22T20:32:17Z</time>
      </trkpt>
      <trkpt lat="46.74216" lon="-1.99393">
        <ele>5</ele>
        <time>2018-04-22T20:33:17Z</time>
      </trkpt>
      <trkpt lat="46.74216" lon="-1.99379">
        <ele>5</ele>
        <time>2018-04-22T20:34:17Z</time>
      </trkpt>
      <trkpt lat="46.74215" lon="-1.99361">
        <ele>5</ele>
        <time>2018-04-22T20:35:17Z</time>
      </trkpt>
      <trkpt lat="46.74215" lon="-1.99356">
        <ele>5</ele>
        <time>2018-04-22T20:36:17Z</time>
      </trkpt>
      <trkpt lat="46.74212" lon="-1.99342">
        <ele>5</ele>
        <time>2018-04-22T20:37:17Z</time>
      </trkpt>
      <trkpt lat="46.74204" lon="-1.99332">
        <ele>6</ele>
        <time>2018-04-22T20:38:17Z</time>
      </trkpt>
      <trkpt lat="46.74197" lon="-1.99324">
        <ele>6</ele>
        <time>2018-04-22T20:39:17Z</time>
      </trkpt>
      <trkpt lat="46.74197" lon="-1.99324">
        <ele>6</ele>
        <time>2018-04-22T20:40:17Z</time>
      </trkpt>
      <trkpt lat="46.74194" lon="-1.99324">
        <ele>6</ele>
        <time>2018-04-22T20:41:17Z</time>
      </trkpt>
      <trkpt lat="46.7419" lon="-1.99324">
        <ele>6</ele>
        <time>2018-04-22T20:42:17Z</time>
      </trkpt>
      <trkpt lat="46.74186" lon="-1.99322">
        <ele>6</ele>
        <time>2018-04-22T20:43:17Z</time>
      </trkpt>
      <trkpt lat="46.74183" lon="-1.9932">
        <ele>6</ele>
        <time>2018-04-22T20:44:17Z</time>
      </trkpt>
      <trkpt lat="46.74181" lon="-1.99317">
        <ele>6</ele>
        <time>2018-04-22T20:45:17Z</time>
      </trkpt>
      <trkpt lat="46.74179" lon="-1.99312">
        <ele>6</ele>
        <time>2018-04-22T20:46:17Z</time>
      </trkpt>
      <trkpt lat="46.74178" lon="-1.99309">
        <ele>6</ele>
        <time>2018-04-22T20:47:17Z</time>
      </trkpt>
      <trkpt lat="46.74178" lon="-1.99306">
        <ele>5</ele>
        <time>2018-04-22T20:48:17Z</time>
      </trkpt>
      <trkpt lat="46.74178" lon="-1.99301">
        <ele>5</ele>
        <time>2018-04-22T20:49:17Z</time>
      </trkpt>
      <trkpt lat="46.74171" lon="-1.99291">
        <ele>5</ele>
        <time>2018-04-22T20:50:17Z</time>
      </trkpt>
      <trkpt lat="46.74167" lon="-1.99285">
        <ele>5</ele>
        <time>2018-04-22T20:51:17Z</time>
      </trkpt>
      <trkpt lat="46.74161" lon="-1.99278">
        <ele>4</ele>
        <time>2018-04-22T20:52:17Z</time>
      </trkpt>
      <trkpt lat="46.74115" lon="-1.99274">
        <ele>5</ele>
        <time>2018-04-22T20:53:17Z</time>
      </trkpt>
      <trkpt lat="46.74086" lon="-1.9927">
        <ele>5</ele>
        <time>2018-04-22T20:54:17Z</time>
      </trkpt>
      <trkpt lat="46.74042" lon="-1.99266">
        <ele>7</ele>
        <time>2018-04-22T20:55:17Z</time>
      </trkpt>
      <trkpt lat="46.74037" lon="-1.99265">
        <ele>7</ele>
        <time>2018-04-22T20:56:17Z</time>
      </trkpt>
      <trkpt lat="46.74013" lon="-1.99261">
        <ele>8</ele>
        <time>2018-04-22T20:57:17Z</time>
      </trkpt>
      <trkpt lat="46.73992" lon="-1.99255">
        <ele>9</ele>
        <time>2018-04-22T20:58:17Z</time>
      </trkpt>
      <trkpt lat="46.7397" lon="-1.99247">
        <ele>9</ele>
        <time>2018-04-22T20:59:17Z</time>
      </trkpt>
      <trkpt lat="46.73956" lon="-1.9924">
        <ele>9</ele>
        <time>2018-04-22T21:00:17Z</time>
      </trkpt>
      <trkpt lat="46.73934" lon="-1.99226">
        <ele>8</ele>
        <time>2018-04-22T21:01:17Z</time>
      </trkpt>
      <trkpt lat="46.73916" lon="-1.99212">
        <ele>8</ele>
        <time>2018-04-22T21:02:17Z</time>
      </trkpt>
      <trkpt lat="46.73877" lon="-1.99173">
        <ele>7</ele>
        <time>2018-04-22T21:03:17Z</time>
      </trkpt>
      <trkpt lat="46.73849" lon="-1.99145">
        <ele>8</ele>
        <time>2018-04-22T21:04:17Z</time>
      </trkpt>
      <trkpt lat="46.73818" lon="-1.99114">
        <ele>8</ele>
        <time>2018-04-22T21:05:17Z</time>
      </trkpt>
      <trkpt lat="46.73778" lon="-1.99073">
        <ele>8</ele>
        <time>2018-04-22T21:06:17Z</time>
      </trkpt>
      <trkpt lat="46.73748" lon="-1.99044">
        <ele>8</ele>
        <time>2018-04-22T21:07:17Z</time>
      </trkpt>
      <trkpt lat="46.73719" lon="-1.99017">
        <ele>8</ele>
        <time>2018-04-22T21:08:17Z</time>
      </trkpt>
      <trkpt lat="46.73706" lon="-1.99004">
        <ele>9</ele>
        <time>2018-04-22T21:09:17Z</time>
      </trkpt>
      <trkpt lat="46.73664" lon="-1.98966">
        <ele>8</ele>
        <time>2018-04-22T21:10:17Z</time>
      </trkpt>
      <trkpt lat="46.73663" lon="-1.98965">
        <ele>8</ele>
        <time>2018-04-22T21:11:17Z</time>
      </trkpt>
      <trkpt lat="46.7365" lon="-1.98953">
        <ele>8</ele>
        <time>2018-04-22T21:12:17Z</time>
      </trkpt>
      <trkpt lat="46.7363" lon="-1.98933">
        <ele>7</ele>
        <time>2018-04-22T21:13:17Z</time>
      </trkpt>
      <trkpt lat="46.73597" lon="-1.98901">
        <ele>7</ele>
        <time>2018-04-22T21:14:17Z</time>
      </trkpt>
      <trkpt lat="46.73569" lon="-1.98872">
        <ele>7</ele>
        <time>2018-04-22T21:15:17Z</time>
      </trkpt>
      <trkpt lat="46.73544" lon="-1.98848">
        <ele>7</ele>
        <time>2018-04-22T21:16:17Z</time>
      </trkpt>
      <trkpt lat="46.73528" lon="-1.98834">
        <ele>8</ele>
        <time>2018-04-22T21:17:17Z</time>
      </trkpt>
      <trkpt lat="46.73504" lon="-1.98811">
        <ele>8</ele>
        <time>2018-04-22T21:18:17Z</time>
      </trkpt>
      <trkpt lat="46.73474" lon="-1.98783">
        <ele>9</ele>
        <time>2018-04-22T21:19:17Z</time>
      </trkpt>
      <trkpt lat="46.73447" lon="-1.98757">
        <ele>8</ele>
        <time>2018-04-22T21:20:17Z</time>
      </trkpt>
      <trkpt lat="46.73441" lon="-1.98751">
        <ele>8</ele>
        <time>2018-04-22T21:21:17Z</time>
      </trkpt>
      <trkpt lat="46.73425" lon="-1.98734">
        <ele>9</ele>
        <time>2018-04-22T21:22:17Z</time>
      </trkpt>
      <trkpt lat="46.73414" lon="-1.9872">
        <ele>9</ele>
        <time>2018-04-22T21:23:17Z</time>
      </trkpt>
      <trkpt lat="46.73407" lon="-1.98708">
        <ele>9</ele>
        <time>2018-04-22T21:24:17Z</time>
      </trkpt>
      <trkpt lat="46.73404" lon="-1.98702">
        <ele>9</ele>
        <time>2018-04-22T21:25:17Z</time>
      </trkpt>
      <trkpt lat="46.73401" lon="-1.98693">
        <ele>9</ele>
        <time>2018-04-22T21:26:17Z</time>
      </trkpt>
      <trkpt lat="46.73397" lon="-1.98679">
        <ele>9</ele>
        <time>2018-04-22T21:27:17Z</time>
      </trkpt>
      <trkpt lat="46.73394" lon="-1.98667">
        <ele>9</ele>
        <time>2018-04-22T21:28:17Z</time>
      </trkpt>
      <trkpt lat="46.73393" lon="-1.9866">
        <ele>9</ele>
        <time>2018-04-22T21:29:17Z</time>
      </trkpt>
      <trkpt lat="46.73392" lon="-1.98653">
        <ele>9</ele>
        <time>2018-04-22T21:30:17Z</time>
      </trkpt>
      <trkpt lat="46.73389" lon="-1.98637">
        <ele>9</ele>
        <time>2018-04-22T21:31:17Z</time>
      </trkpt>
      <trkpt lat="46.73389" lon="-1.98633">
        <ele>9</ele>
        <time>2018-04-22T21:32:17Z</time>
      </trkpt>
      <trkpt lat="46.73389" lon="-1.98623">
        <ele>9</ele>
        <time>2018-04-22T21:33:17Z</time>
      </trkpt>
      <trkpt lat="46.73388" lon="-1.9861">
        <ele>9</ele>
        <time>2018-04-22T21:34:17Z</time>
      </trkpt>
      <trkpt lat="46.73387" lon="-1.98593">
        <ele>9</ele>
        <time>2018-04-22T21:35:17Z</time>
      </trkpt>
      <trkpt lat="46.73386" lon="-1.98577">
        <ele>9</ele>
        <time>2018-04-22T21:36:17Z</time>
      </trkpt>
      <trkpt lat="46.73383" lon="-1.98564">
        <ele>9</ele>
        <time>2018-04-22T21:37:17Z</time>
      </trkpt>
      <trkpt lat="46.7338" lon="-1.98549">
        <ele>9</ele>
        <time>2018-04-22T21:38:17Z</time>
      </trkpt>
      <trkpt lat="46.73375" lon="-1.98535">
        <ele>9</ele>
        <time>2018-04-22T21:39:17Z</time>
      </trkpt>
      <trkpt lat="46.73369" lon="-1.98518">
        <ele>9</ele>
        <time>2018-04-22T21:40:17Z</time>
      </trkpt>
      <trkpt lat="46.73362" lon="-1.98501">
        <ele>9</ele>
        <time>2018-04-22T21:41:17Z</time>
      </trkpt>
      <trkpt lat="46.73356" lon="-1.9849">
        <ele>9</ele>
        <time>2018-04-22T21:42:17Z</time>
      </trkpt>
      <trkpt lat="46.73347" lon="-1.98478">
        <ele>10</ele>
        <time>2018-04-22T21:43:17Z</time>
      </trkpt>
      <trkpt lat="46.73336" lon="-1.98466">
        <ele>10</ele>
        <time>2018-04-22T21:44:17Z</time>
      </trkpt>
      <trkpt lat="46.73318" lon="-1.98447">
        <ele>10</ele>
        <time>2018-04-22T21:45:17Z</time>
      </trkpt>
      <trkpt lat="46.73291" lon="-1.9842">
        <ele>10</ele>
        <time>2018-04-22T21:46:17Z</time>
      </trkpt>
      <trkpt lat="46.73263" lon="-1.98394">
        <ele>10</ele>
        <time>2018-04-22T21:47:17Z</time>
      </trkpt>
      <trkpt lat="46.73238" lon="-1.9837">
        <ele>11</ele>
        <time>2018-04-22T21:48:17Z</time>
      </trkpt>
      <trkpt lat="46.73213" lon="-1.98346">
        <ele>11</ele>
        <time>2018-04-22T21:49:17Z</time>
      </trkpt>
      <trkpt lat="46.7319" lon="-1.98325">
        <ele>12</ele>
        <time>2018-04-22T21:50:17Z</time>
      </trkpt>
      <trkpt lat="46.73174" lon="-1.98312">
        <ele>12</ele>
        <time>2018-04-22T21:51:17Z</time>
      </trkpt>
      <trkpt lat="46.73162" lon="-1.98305">
        <ele>12</ele>
        <time>2018-04-22T21:52:17Z</time>
      </trkpt>
      <trkpt lat="46.73152" lon="-1.98299">
        <ele>12</ele>
        <time>2018-04-22T21:53:17Z</time>
      </trkpt>
      <trkpt lat="46.73138" lon="-1.98291">
        <ele>12</ele>
        <time>2018-04-22T21:54:17Z</time>
      </trkpt>
      <trkpt lat="46.73123" lon="-1.98284">
        <ele>11</ele>
        <time>2018-04-22T21:55:17Z</time>
      </trkpt>
      <trkpt lat="46.73108" lon="-1.98278">
        <ele>11</ele>
        <time>2018-04-22T21:56:17Z</time>
      </trkpt>
      <trkpt lat="46.73092" lon="-1.98272">
        <ele>11</ele>
        <time>2018-04-22T21:57:17Z</time>
      </trkpt>
      <trkpt lat="46.7307" lon="-1.98262">
        <ele>11</ele>
        <time>2018-04-22T21:58:17Z</time>
      </trkpt>
      <trkpt lat="46.73054" lon="-1.98256">
        <ele>11</ele>
        <time>2018-04-22T21:59:17Z</time>
      </trkpt>
      <trkpt lat="46.73021" lon="-1.98242">
        <ele>10</ele>
        <time>2018-04-22T22:00:17Z</time>
      </trkpt>
      <trkpt lat="46.72964" lon="-1.98218">
        <ele>11</ele>
        <time>2018-04-22T22:01:17Z</time>
      </trkpt>
      <trkpt lat="46.72862" lon="-1.98176">
        <ele>9</ele>
        <time>2018-04-22T22:02:17Z</time>
      </trkpt>
      <trkpt lat="46.72817" lon="-1.98158">
        <ele>9</ele>
        <time>2018-04-22T22:03:17Z</time>
      </trkpt>
      <trkpt lat="46.72793" lon="-1.98149">
        <ele>10</ele>
        <time>2018-04-22T22:04:17Z</time>
      </trkpt>
      <trkpt lat="46.72778" lon="-1.98142">
        <ele>10</ele>
        <time>2018-04-22T22:05:17Z</time>
      </trkpt>
      <trkpt lat="46.72761" lon="-1.98134">
        <ele>11</ele>
        <time>2018-04-22T22:06:17Z</time>
      </trkpt>
      <trkpt lat="46.72753" lon="-1.98131">
        <ele>11</ele>
        <time>2018-04-22T22:07:17Z</time>
      </trkpt>
      <trkpt lat="46.72738" lon="-1.98124">
        <ele>11</ele>
        <time>2018-04-22T22:08:17Z</time>
      </trkpt>
      <trkpt lat="46.72722" lon="-1.98115">
        <ele>11</ele>
        <time>2018-04-22T22:09:17Z</time>
      </trkpt>
      <trkpt lat="46.72704" lon="-1.98105">
        <ele>11</ele>
        <time>2018-04-22T22:10:17Z</time>
      </trkpt>
      <trkpt lat="46.72667" lon="-1.98081">
        <ele>10</ele>
        <time>2018-04-22T22:11:17Z</time>
      </trkpt>
      <trkpt lat="46.72619" lon="-1.98047">
        <ele>9</ele>
        <time>2018-04-22T22:12:17Z</time>
      </trkpt>
      <trkpt lat="46.72577" lon="-1.98018">
        <ele>8</ele>
        <time>2018-04-22T22:13:17Z</time>
      </trkpt>
      <trkpt lat="46.7254" lon="-1.97993">
        <ele>8</ele>
        <time>2018-04-22T22:14:17Z</time>
      </trkpt>
      <trkpt lat="46.72513" lon="-1.97975">
        <ele>8</ele>
        <time>2018-04-22T22:15:17Z</time>
      </trkpt>
      <trkpt lat="46.7249" lon="-1.97955">
        <ele>8</ele>
        <time>2018-04-22T22:16:17Z</time>
      </trkpt>
      <trkpt lat="46.7248" lon="-1.97945">
        <ele>8</ele>
        <time>2018-04-22T22:17:17Z</time>
      </trkpt>
      <trkpt lat="46.7247" lon="-1.97935">
        <ele>8</ele>
        <time>2018-04-22T22:18:17Z</time>
      </trkpt>
      <trkpt lat="46.72448" lon="-1.97908">
        <ele>8</ele>
        <time>2018-04-22T22:19:17Z</time>
      </trkpt>
      <trkpt lat="46.72432" lon="-1.97882">
        <ele>8</ele>
        <time>2018-04-22T22:20:17Z</time>
      </trkpt>
      <trkpt lat="46.72429" lon="-1.97876">
        <ele>7</ele>
        <time>2018-04-22T22:21:17Z</time>
      </trkpt>
      <trkpt lat="46.72421" lon="-1.97869">
        <ele>7</ele>
        <time>2018-04-22T22:22:17Z</time>
      </trkpt>
      <trkpt lat="46.72406" lon="-1.97849">
        <ele>7</ele>
        <time>2018-04-22T22:23:17Z</time>
      </trkpt>
      <trkpt lat="46.72405" lon="-1.97849">
        <ele>7</ele>
        <time>2018-04-22T22:24:17Z</time>
      </trkpt>
      <trkpt lat="46.72404" lon="-1.97849">
        <ele>7</ele>
        <time>2018-04-22T22:25:17Z</time>
      </trkpt>
      <trkpt lat="46.72403" lon="-1.97849">
        <ele>7</ele>
        <time>2018-04-22T22:26:17Z</time>
      </trkpt>
      <trkpt lat="46.72402" lon="-1.97849">
        <ele>7</ele>
        <time>2018-04-22T22:27:17Z</time>
      </trkpt>
      <trkpt lat="46.72401" lon="-1.97849">
        <ele>7</ele>
        <time>2018-04-22T22:28:17Z</time>
      </trkpt>
      <trkpt lat="46.72401" lon="-1.97848">
        <ele>7</ele>
        <time>2018-04-22T22:29:17Z</time>
      </trkpt>
      <trkpt lat="46.724" lon="-1.97848">
        <ele>7</ele>
        <time>2018-04-22T22:30:17Z</time>
      </trkpt>
      <trkpt lat="46.72399" lon="-1.97847">
        <ele>7</ele>
        <time>2018-04-22T22:31:17Z</time>
      </trkpt>
      <trkpt lat="46.72398" lon="-1.97845">
        <ele>7</ele>
        <time>2018-04-22T22:32:17Z</time>
      </trkpt>
      <trkpt lat="46.72397" lon="-1.97843">
        <ele>7</ele>
        <time>2018-04-22T22:33:17Z</time>
      </trkpt>
      <trkpt lat="46.72396" lon="-1.97841">
        <ele>7</ele>
        <time>2018-04-22T22:34:17Z</time>
      </trkpt>
      <trkpt lat="46.72396" lon="-1.9784">
        <ele>7</ele>
        <time>2018-04-22T22:35:17Z</time>
      </trkpt>
      <trkpt lat="46.72396" lon="-1.97839">
        <ele>7</ele>
        <time>2018-04-22T22:36:17Z</time>
      </trkpt>
      <trkpt lat="46.72396" lon="-1.97838">
        <ele>7</ele>
        <time>2018-04-22T22:37:17Z</time>
      </trkpt>
      <trkpt lat="46.72396" lon="-1.97837">
        <ele>7</ele>
        <time>2018-04-22T22:38:17Z</time>
      </trkpt>
      <trkpt lat="46.72395" lon="-1.97836">
        <ele>7</ele>
        <time>2018-04-22T22:39:17Z</time>
      </trkpt>
      <trkpt lat="46.72395" lon="-1.97835">
        <ele>7</ele>
        <time>2018-04-22T22:40:17Z</time>
      </trkpt>
      <trkpt lat="46.72396" lon="-1.97835">
        <ele>7</ele>
        <time>2018-04-22T22:41:17Z</time>
      </trkpt>
      <trkpt lat="46.72396" lon="-1.97834">
        <ele>7</ele>
        <time>2018-04-22T22:42:17Z</time>
      </trkpt>
      <trkpt lat="46.72396" lon="-1.97833">
        <ele>7</ele>
        <time>2018-04-22T22:43:17Z</time>
      </trkpt>
      <trkpt lat="46.72396" lon="-1.97832">
        <ele>7</ele>
        <time>2018-04-22T22:44:17Z</time>
      </trkpt>
      <trkpt lat="46.72396" lon="-1.97831">
        <ele>7</ele>
        <time>2018-04-22T22:45:17Z</time>
      </trkpt>
      <trkpt lat="46.72383" lon="-1.97806">
        <ele>7</ele>
        <time>2018-04-22T22:46:17Z</time>
      </trkpt>
      <trkpt lat="46.72381" lon="-1.97799">
        <ele>8</ele>
        <time>2018-04-22T22:47:17Z</time>
      </trkpt>
      <trkpt lat="46.72345" lon="-1.97737">
        <ele>9</ele>
        <time>2018-04-22T22:48:17Z</time>
      </trkpt>
      <trkpt lat="46.72306" lon="-1.97664">
        <ele>11</ele>
        <time>2018-04-22T22:49:17Z</time>
      </trkpt>
      <trkpt lat="46.72278" lon="-1.97612">
        <ele>12</ele>
        <time>2018-04-22T22:50:17Z</time>
      </trkpt>
      <trkpt lat="46.72268" lon="-1.97595">
        <ele>12</ele>
        <time>2018-04-22T22:51:17Z</time>
      </trkpt>
      <trkpt lat="46.72252" lon="-1.97565">
        <ele>12</ele>
        <time>2018-04-22T22:52:17Z</time>
      </trkpt>
      <trkpt lat="46.72229" lon="-1.97523">
        <ele>11</ele>
        <time>2018-04-22T22:53:17Z</time>
      </trkpt>
      <trkpt lat="46.72182" lon="-1.97442">
        <ele>10</ele>
        <time>2018-04-22T22:54:17Z</time>
      </trkpt>
      <trkpt lat="46.72144" lon="-1.97376">
        <ele>10</ele>
        <time>2018-04-22T22:55:17Z</time>
      </trkpt>
      <trkpt lat="46.72132" lon="-1.97353">
        <ele>10</ele>
        <time>2018-04-22T22:56:17Z</time>
      </trkpt>
      <trkpt lat="46.72114" lon="-1.97324">
        <ele>9</ele>
        <time>2018-04-22T22:57:17Z</time>
      </trkpt>
      <trkpt lat="46.72092" lon="-1.97285">
        <ele>9</ele>
        <time>2018-04-22T22:58:17Z</time>
      </trkpt>
      <trkpt lat="46.72062" lon="-1.97231">
        <ele>10</ele>
        <time>2018-04-22T22:59:17Z</time>
      </trkpt>
      <trkpt lat="46.72045" lon="-1.972">
        <ele>10</ele>
        <time>2018-04-22T23:00:17Z</time>
      </trkpt>
      <trkpt lat="46.72012" lon="-1.97137">
        <ele>11</ele>
        <time>2018-04-22T23:01:17Z</time>
      </trkpt>
      <trkpt lat="46.71999" lon="-1.97111">
        <ele>11</ele>
        <time>2018-04-22T23:02:17Z</time>
      </trkpt>
      <trkpt lat="46.7199" lon="-1.97098">
        <ele>12</ele>
        <time>2018-04-22T23:03:17Z</time>
      </trkpt>
      <trkpt lat="46.71969" lon="-1.97055">
        <ele>13</ele>
        <time>2018-04-22T23:04:17Z</time>
      </trkpt>
      <trkpt lat="46.71944" lon="-1.97005">
        <ele>14</ele>
        <time>2018-04-22T23:05:17Z</time>
      </trkpt>
      <trkpt lat="46.7193" lon="-1.96978">
        <ele>15</ele>
        <time>2018-04-22T23:06:17Z</time>
      </trkpt>
      <trkpt lat="46.71919" lon="-1.96958">
        <ele>15</ele>
        <time>2018-04-22T23:07:17Z</time>
      </trkpt>
      <trkpt lat="46.7189" lon="-1.96905">
        <ele>15</ele>
        <time>2018-04-22T23:08:17Z</time>
      </trkpt>
      <trkpt lat="46.71883" lon="-1.96894">
        <ele>15</ele>
        <time>2018-04-22T23:09:17Z</time>
      </trkpt>
      <trkpt lat="46.71868" lon="-1.96878">
        <ele>15</ele>
        <time>2018-04-22T23:10:17Z</time>
      </trkpt>
      <trkpt lat="46.71868" lon="-1.96878">
        <ele>15</ele>
        <time>2018-04-22T23:11:17Z</time>
      </trkpt>
      <trkpt lat="46.7186" lon="-1.96871">
        <ele>15</ele>
        <time>2018-04-22T23:12:17Z</time>
      </trkpt>
      <trkpt lat="46.71842" lon="-1.96866">
        <ele>15</ele>
        <time>2018-04-22T23:13:17Z</time>
      </trkpt>
      <trkpt lat="46.71833" lon="-1.96862">
        <ele>14</ele>
        <time>2018-04-22T23:14:17Z</time>
      </trkpt>
      <trkpt lat="46.71833" lon="-1.96862">
        <ele>14</ele>
        <time>2018-04-22T23:15:17Z</time>
      </trkpt>
      <trkpt lat="46.71826" lon="-1.96859">
        <ele>14</ele>
        <time>2018-04-22T23:16:17Z</time>
      </trkpt>
      <trkpt lat="46.71812" lon="-1.96843">
        <ele>14</ele>
        <time>2018-04-22T23:17:17Z</time>
      </trkpt>
      <trkpt lat="46.71808" lon="-1.96839">
        <ele>14</ele>
        <time>2018-04-22T23:18:17Z</time>
      </trkpt>
      <trkpt lat="46.71796" lon="-1.96835">
        <ele>14</ele>
        <time>2018-04-22T23:19:17Z</time>
      </trkpt>
      <trkpt lat="46.71781" lon="-1.9683">
        <ele>13</ele>
        <time>2018-04-22T23:20:17Z</time>
      </trkpt>
      <trkpt lat="46.71767" lon="-1.96825">
        <ele>13</ele>
        <time>2018-04-22T23:21:17Z</time>
      </trkpt>
      <trkpt lat="46.71755" lon="-1.9682">
        <ele>13</ele>
        <time>2018-04-22T23:22:17Z</time>
      </trkpt>
      <trkpt lat="46.71747" lon="-1.96817">
        <ele>13</ele>
        <time>2018-04-22T23:23:17Z</time>
      </trkpt>
      <trkpt lat="46.71738" lon="-1.96811">
        <ele>13</ele>
        <time>2018-04-22T23:24:17Z</time>
      </trkpt>
      <trkpt lat="46.71726" lon="-1.96803">
        <ele>13</ele>
        <time>2018-04-22T23:25:17Z</time>
      </trkpt>
      <trkpt lat="46.71712" lon="-1.96794">
        <ele>13</ele>
        <time>2018-04-22T23:26:17Z</time>
      </trkpt>
      <trkpt lat="46.71699" lon="-1.96786">
        <ele>13</ele>
        <time>2018-04-22T23:27:17Z</time>
      </trkpt>
      <trkpt lat="46.71689" lon="-1.96781">
        <ele>14</ele>
        <time>2018-04-22T23:28:17Z</time>
      </trkpt>
      <trkpt lat="46.7168" lon="-1.96777">
        <ele>14</ele>
        <time>2018-04-22T23:29:17Z</time>
      </trkpt>
      <trkpt lat="46.71672" lon="-1.96774">
        <ele>14</ele>
        <time>2018-04-22T23:30:17Z</time>
      </trkpt>
      <trkpt lat="46.71664" lon="-1.96774">
        <ele>14</ele>
        <time>2018-04-22T23:31:17Z</time>
      </trkpt>
      <trkpt lat="46.71657" lon="-1.96774">
        <ele>14</ele>
        <time>2018-04-22T23:32:17Z</time>
      </trkpt>
      <trkpt lat="46.7165" lon="-1.96775">
        <ele>14</ele>
        <time>2018-04-22T23:33:17Z</time>
      </trkpt>
      <trkpt lat="46.71643" lon="-1.96776">
        <ele>14</ele>
        <time>2018-04-22T23:34:17Z</time>
      </trkpt>
      <trkpt lat="46.71634" lon="-1.9678">
        <ele>14</ele>
        <time>2018-04-22T23:35:17Z</time>
      </trkpt>
      <trkpt lat="46.71615" lon="-1.96791">
        <ele>14</ele>
        <time>2018-04-22T23:36:17Z</time>
      </trkpt>
      <trkpt lat="46.71598" lon="-1.96802">
        <ele>14</ele>
        <time>2018-04-22T23:37:17Z</time>
      </trkpt>
      <trkpt lat="46.71593" lon="-1.96805">
        <ele>14</ele>
        <time>2018-04-22T23:38:17Z</time>
      </trkpt>
      <trkpt lat="46.71587" lon="-1.96807">
        <ele>14</ele>
        <time>2018-04-22T23:39:17Z</time>
      </trkpt>
      <trkpt lat="46.71581" lon="-1.96809">
        <ele>14</ele>
        <time>2018-04-22T23:40:17Z</time>
      </trkpt>
      <trkpt lat="46.71571" lon="-1.9681">
        <ele>14</ele>
        <time>2018-04-22T23:41:17Z</time>
      </trkpt>
      <trkpt lat="46.71558" lon="-1.96809">
        <ele>14</ele>
        <time>2018-04-22T23:42:17Z</time>
      </trkpt>
      <trkpt lat="46.71543" lon="-1.96807">
        <ele>14</ele>
        <time>2018-04-22T23:43:17Z</time>
      </trkpt>
      <trkpt lat="46.71528" lon="-1.96807">
        <ele>14</ele>
        <time>2018-04-22T23:44:17Z</time>
      </trkpt>
      <trkpt lat="46.71496" lon="-1.96806">
        <ele>13</ele>
        <time>2018-04-22T23:45:17Z</time>
      </trkpt>
      <trkpt lat="46.71474" lon="-1.96801">
        <ele>13</ele>
        <time>2018-04-22T23:46:17Z</time>
      </trkpt>
      <trkpt lat="46.71442" lon="-1.96789">
        <ele>13</ele>
        <time>2018-04-22T23:47:17Z</time>
      </trkpt>
      <trkpt lat="46.71424" lon="-1.96783">
        <ele>13</ele>
        <time>2018-04-22T23:48:17Z</time>
      </trkpt>
      <trkpt lat="46.71403" lon="-1.96777">
        <ele>14</ele>
        <time>2018-04-22T23:49:17Z</time>
      </trkpt>
      <trkpt lat="46.71403" lon="-1.96777">
        <ele>14</ele>
        <time>2018-04-22T23:50:17Z</time>
      </trkpt>
      <trkpt lat="46.71395" lon="-1.96774">
        <ele>14</ele>
        <time>2018-04-22T23:51:17Z</time>
      </trkpt>
      <trkpt lat="46.71382" lon="-1.96767">
        <ele>15</ele>
        <time>2018-04-22T23:52:17Z</time>
      </trkpt>
      <trkpt lat="46.7137" lon="-1.96762">
        <ele>15</ele>
        <time>2018-04-22T23:53:17Z</time>
      </trkpt>
      <trkpt lat="46.71362" lon="-1.96758">
        <ele>16</ele>
        <time>2018-04-22T23:54:17Z</time>
      </trkpt>
      <trkpt lat="46.71348" lon="-1.96755">
        <ele>16</ele>
        <time>2018-04-22T23:55:17Z</time>
      </trkpt>
      <trkpt lat="46.71332" lon="-1.96753">
        <ele>17</ele>
        <time>2018-04-22T23:56:17Z</time>
      </trkpt>
      <trkpt lat="46.7132" lon="-1.9675">
        <ele>17</ele>
        <time>2018-04-22T23:57:17Z</time>
      </trkpt>
      <trkpt lat="46.7131" lon="-1.96749">
        <ele>16</ele>
        <time>2018-04-22T23:58:17Z</time>
      </trkpt>
      <trkpt lat="46.713" lon="-1.9675">
        <ele>16</ele>
        <time>2018-04-22T23:59:17Z</time>
      </trkpt>
      <trkpt lat="46.71292" lon="-1.9675">
        <ele>16</ele>
        <time>2018-04-23T00:00:17Z</time>
      </trkpt>
      <trkpt lat="46.7128" lon="-1.96751">
        <ele>16</ele>
        <time>2018-04-23T00:01:17Z</time>
      </trkpt>
      <trkpt lat="46.71268" lon="-1.96753">
        <ele>15</ele>
        <time>2018-04-23T00:02:17Z</time>
      </trkpt>
      <trkpt lat="46.71248" lon="-1.9676">
        <ele>15</ele>
        <time>2018-04-23T00:03:17Z</time>
      </trkpt>
      <trkpt lat="46.71248" lon="-1.9676">
        <ele>15</ele>
        <time>2018-04-23T00:04:17Z</time>
      </trkpt>
      <trkpt lat="46.71239" lon="-1.96763">
        <ele>15</ele>
        <time>2018-04-23T00:05:17Z</time>
      </trkpt>
      <trkpt lat="46.71215" lon="-1.96763">
        <ele>15</ele>
        <time>2018-04-23T00:06:17Z</time>
      </trkpt>
      <trkpt lat="46.71179" lon="-1.96765">
        <ele>15</ele>
        <time>2018-04-23T00:07:17Z</time>
      </trkpt>
      <trkpt lat="46.71128" lon="-1.96765">
        <ele>14</ele>
        <time>2018-04-23T00:08:17Z</time>
      </trkpt>
      <trkpt lat="46.71081" lon="-1.96765">
        <ele>14</ele>
        <time>2018-04-23T00:09:17Z</time>
      </trkpt>
      <trkpt lat="46.71065" lon="-1.96766">
        <ele>14</ele>
        <time>2018-04-23T00:10:17Z</time>
      </trkpt>
      <trkpt lat="46.71039" lon="-1.96766">
        <ele>13</ele>
        <time>2018-04-23T00:11:17Z</time>
      </trkpt>
      <trkpt lat="46.71035" lon="-1.9677">
        <ele>13</ele>
        <time>2018-04-23T00:12:17Z</time>
      </trkpt>
      <trkpt lat="46.7103" lon="-1.96775">
        <ele>13</ele>
        <time>2018-04-23T00:13:17Z</time>
      </trkpt>
      <trkpt lat="46.71023" lon="-1.96781">
        <ele>13</ele>
        <time>2018-04-23T00:14:17Z</time>
      </trkpt>
      <trkpt lat="46.71023" lon="-1.96781">
        <ele>13</ele>
        <time>2018-04-23T00:15:17Z</time>
      </trkpt>
      <trkpt lat="46.71021" lon="-1.96786">
        <ele>13</ele>
        <time>2018-04-23T00:16:17Z</time>
      </trkpt>
      <trkpt lat="46.71019" lon="-1.96789">
        <ele>13</ele>
        <time>2018-04-23T00:17:17Z</time>
      </trkpt>
      <trkpt lat="46.71015" lon="-1.96791">
        <ele>13</ele>
        <time>2018-04-23T00:18:17Z</time>
      </trkpt>
      <trkpt lat="46.71012" lon="-1.96792">
        <ele>13</ele>
        <time>2018-04-23T00:19:17Z</time>
      </trkpt>
      <trkpt lat="46.71008" lon="-1.96792">
        <ele>13</ele>
        <time>2018-04-23T00:20:17Z</time>
      </trkpt>
      <trkpt lat="46.71004" lon="-1.96792">
        <ele>13</ele>
        <time>2018-04-23T00:21:17Z</time>
      </trkpt>
      <trkpt lat="46.71002" lon="-1.9679">
        <ele>13</ele>
        <time>2018-04-23T00:22:17Z</time>
      </trkpt>
      <trkpt lat="46.70999" lon="-1.96787">
        <ele>13</ele>
        <time>2018-04-23T00:23:17Z</time>
      </trkpt>
      <trkpt lat="46.70996" lon="-1.96783">
        <ele>13</ele>
        <time>2018-04-23T00:24:17Z</time>
      </trkpt>
      <trkpt lat="46.70994" lon="-1.96779">
        <ele>13</ele>
        <time>2018-04-23T00:25:17Z</time>
      </trkpt>
      <trkpt lat="46.70993" lon="-1.96774">
        <ele>13</ele>
        <time>2018-04-23T00:26:17Z</time>
      </trkpt>
      <trkpt lat="46.70993" lon="-1.9677">
        <ele>13</ele>
        <time>2018-04-23T00:27:17Z</time>
      </trkpt>
      <trkpt lat="46.70993" lon="-1.96765">
        <ele>13</ele>
        <time>2018-04-23T00:28:17Z</time>
      </trkpt>
      <trkpt lat="46.70994" lon="-1.96759">
        <ele>13</ele>
        <time>2018-04-23T00:29:17Z</time>
      </trkpt>
      <trkpt lat="46.7099" lon="-1.96745">
        <ele>13</ele>
        <time>2018-04-23T00:30:17Z</time>
      </trkpt>
      <trkpt lat="46.70986" lon="-1.96731">
        <ele>13</ele>
        <time>2018-04-23T00:31:17Z</time>
      </trkpt>
      <trkpt lat="46.70982" lon="-1.96719">
        <ele>13</ele>
        <time>2018-04-23T00:32:17Z</time>
      </trkpt>
      <trkpt lat="46.70981" lon="-1.96714">
        <ele>13</ele>
        <time>2018-04-23T00:33:17Z</time>
      </trkpt>
      <trkpt lat="46.70976" lon="-1.96705">
        <ele>13</ele>
        <time>2018-04-23T00:34:17Z</time>
      </trkpt>
      <trkpt lat="46.70973" lon="-1.96697">
        <ele>13</ele>
        <time>2018-04-23T00:35:17Z</time>
      </trkpt>
      <trkpt lat="46.70969" lon="-1.96685">
        <ele>13</ele>
        <time>2018-04-23T00:36:17Z</time>
      </trkpt>
      <trkpt lat="46.70963" lon="-1.96669">
        <ele>13</ele>
        <time>2018-04-23T00:37:17Z</time>
      </trkpt>
      <trkpt lat="46.70955" lon="-1.96651">
        <ele>13</ele>
        <time>2018-04-23T00:38:17Z</time>
      </trkpt>
      <trkpt lat="46.7095" lon="-1.9664">
        <ele>13</ele>
        <time>2018-04-23T00:39:17Z</time>
      </trkpt>
      <trkpt lat="46.70947" lon="-1.9663">
        <ele>13</ele>
        <time>2018-04-23T00:40:17Z</time>
      </trkpt>
      <trkpt lat="46.70943" lon="-1.96619">
        <ele>13</ele>
        <time>2018-04-23T00:41:17Z</time>
      </trkpt>
      <trkpt lat="46.70941" lon="-1.96605">
        <ele>13</ele>
        <time>2018-04-23T00:42:17Z</time>
      </trkpt>
      <trkpt lat="46.70939" lon="-1.96593">
        <ele>13</ele>
        <time>2018-04-23T00:43:17Z</time>
      </trkpt>
      <trkpt lat="46.70938" lon="-1.96578">
        <ele>13</ele>
        <time>2018-04-23T00:44:17Z</time>
      </trkpt>
      <trkpt lat="46.70938" lon="-1.96567">
        <ele>13</ele>
        <time>2018-04-23T00:45:17Z</time>
      </trkpt>
      <trkpt lat="46.70938" lon="-1.96557">
        <ele>13</ele>
        <time>2018-04-23T00:46:17Z</time>
      </trkpt>
      <trkpt lat="46.7094" lon="-1.96544">
        <ele>13</ele>
        <time>2018-04-23T00:47:17Z</time>
      </trkpt>
      <trkpt lat="46.70942" lon="-1.96531">
        <ele>13</ele>
        <time>2018-04-23T00:48:17Z</time>
      </trkpt>
      <trkpt lat="46.70946" lon="-1.96512">
        <ele>14</ele>
        <time>2018-04-23T00:49:17Z</time>
      </trkpt>
      <trkpt lat="46.7095" lon="-1.96493">
        <ele>14</ele>
        <time>2018-04-23T00:50:17Z</time>
      </trkpt>
      <trkpt lat="46.70955" lon="-1.9647">
        <ele>14</ele>
        <time>2018-04-23T00:51:17Z</time>
      </trkpt>
      <trkpt lat="46.70959" lon="-1.96453">
        <ele>14</ele>
        <time>2018-04-23T00:52:17Z</time>
      </trkpt>
      <trkpt lat="46.70963" lon="-1.96436">
        <ele>14</ele>
        <time>2018-04-23T00:53:17Z</time>
      </trkpt>
      <trkpt lat="46.70966" lon="-1.96422">
        <ele>14</ele>
        <time>2018-04-23T00:54:17Z</time>
      </trkpt>
      <trkpt lat="46.70969" lon="-1.96404">
        <ele>14</ele>
        <time>2018-04-23T00:55:17Z</time>
      </trkpt>
      <trkpt lat="46.70972" lon="-1.96386">
        <ele>13</ele>
        <time>2018-04-23T00:56:17Z</time>
      </trkpt>
      <trkpt lat="46.70975" lon="-1.96369">
        <ele>13</ele>
        <time>2018-04-23T00:57:17Z</time>
      </trkpt>
      <trkpt lat="46.70976" lon="-1.96356">
        <ele>13</ele>
        <time>2018-04-23T00:58:17Z</time>
      </trkpt>
      <trkpt lat="46.70978" lon="-1.9633">
        <ele>13</ele>
        <time>2018-04-23T00:59:17Z</time>
      </trkpt>
      <trkpt lat="46.70979" lon="-1.96306">
        <ele>13</ele>
        <time>2018-04-23T01:00:17Z</time>
      </trkpt>
      <trkpt lat="46.70979" lon="-1.96277">
        <ele>13</ele>
        <time>2018-04-23T01:01:17Z</time>
      </trkpt>
      <trkpt lat="46.70978" lon="-1.96247">
        <ele>13</ele>
        <time>2018-04-23T01:02:17Z</time>
      </trkpt>
      <trkpt lat="46.70978" lon="-1.96226">
        <ele>13</ele>
        <time>2018-04-23T01:03:17Z</time>
      </trkpt>
      <trkpt lat="46.70978" lon="-1.96226">
        <ele>13</ele>
        <time>2018-04-23T01:04:17Z</time>
      </trkpt>
      <trkpt lat="46.70978" lon="-1.96214">
        <ele>13</ele>
        <time>2018-04-23T01:05:17Z</time>
      </trkpt>
      <trkpt lat="46.70978" lon="-1.96188">
        <ele>13</ele>
        <time>2018-04-23T01:06:17Z</time>
      </trkpt>
      <trkpt lat="46.70977" lon="-1.96155">
        <ele>14</ele>
        <time>2018-04-23T01:07:17Z</time>
      </trkpt>
      <trkpt lat="46.70976" lon="-1.96132">
        <ele>15</ele>
        <time>2018-04-23T01:08:17Z</time>
      </trkpt>
      <trkpt lat="46.70976" lon="-1.96124">
        <ele>15</ele>
        <time>2018-04-23T01:09:17Z</time>
      </trkpt>
      <trkpt lat="46.70977" lon="-1.96114">
        <ele>15</ele>
        <time>2018-04-23T01:10:17Z</time>
      </trkpt>
      <trkpt lat="46.70977" lon="-1.96114">
        <ele>15</ele>
        <time>2018-04-23T01:11:17Z</time>
      </trkpt>
      <trkpt lat="46.70973" lon="-1.96112">
        <ele>16</ele>
        <time>2018-04-23T01:12:17Z</time>
      </trkpt>
      <trkpt lat="46.7097" lon="-1.96108">
        <ele>16</ele>
        <time>2018-04-23T01:13:17Z</time>
      </trkpt>
      <trkpt lat="46.70968" lon="-1.96102">
        <ele>16</ele>
        <time>2018-04-23T01:14:17Z</time>
      </trkpt>
      <trkpt lat="46.70967" lon="-1.96095">
        <ele>16</ele>
        <time>2018-04-23T01:15:17Z</time>
      </trkpt>
      <trkpt lat="46.70954" lon="-1.96093">
        <ele>16</ele>
        <time>2018-04-23T01:16:17Z</time>
      </trkpt>
      <trkpt lat="46.70938" lon="-1.96092">
        <ele>16</ele>
        <time>2018-04-23T01:17:17Z</time>
      </trkpt>
      <trkpt lat="46.7092" lon="-1.9609">
        <ele>16</ele>
        <time>2018-04-23T01:18:17Z</time>
      </trkpt>
      <trkpt lat="46.70896" lon="-1.96087">
        <ele>16</ele>
        <time>2018-04-23T01:19:17Z</time>
      </trkpt>
      <trkpt lat="46.70848" lon="-1.96082">
        <ele>15</ele>
        <time>2018-04-23T01:20:17Z</time>
      </trkpt>
      <trkpt lat="46.7081" lon="-1.96079">
        <ele>15</ele>
        <time>2018-04-23T01:21:17Z</time>
      </trkpt>
      <trkpt lat="46.70763" lon="-1.96074">
        <ele>16</ele>
        <time>2018-04-23T01:22:17Z</time>
      </trkpt>
      <trkpt lat="46.70722" lon="-1.96071">
        <ele>16</ele>
        <time>2018-04-23T01:23:17Z</time>
      </trkpt>
      <trkpt lat="46.70717" lon="-1.96071">
        <ele>16</ele>
        <time>2018-04-23T01:24:17Z</time>
      </trkpt>
      <trkpt lat="46.70684" lon="-1.96067">
        <ele>16</ele>
        <time>2018-04-23T01:25:17Z</time>
      </trkpt>
      <trkpt lat="46.70647" lon="-1.96064">
        <ele>16</ele>
        <time>2018-04-23T01:26:17Z</time>
      </trkpt>
      <trkpt lat="46.7063" lon="-1.96062">
        <ele>16</ele>
        <time>2018-04-23T01:27:17Z</time>
      </trkpt>
      <trkpt lat="46.70615" lon="-1.96059">
        <ele>16</ele>
        <time>2018-04-23T01:28:17Z</time>
      </trkpt>
      <trkpt lat="46.70579" lon="-1.96052">
        <ele>16</ele>
        <time>2018-04-23T01:29:17Z</time>
      </trkpt>
      <trkpt lat="46.70555" lon="-1.96046">
        <ele>16</ele>
        <time>2018-04-23T01:30:17Z</time>
      </trkpt>
      <trkpt lat="46.70533" lon="-1.96039">
        <ele>16</ele>
        <time>2018-04-23T01:31:17Z</time>
      </trkpt>
      <trkpt lat="46.70506" lon="-1.96029">
        <ele>15</ele>
        <time>2018-04-23T01:32:17Z</time>
      </trkpt>
      <trkpt lat="46.70475" lon="-1.96016">
        <ele>15</ele>
        <time>2018-04-23T01:33:17Z</time>
      </trkpt>
      <trkpt lat="46.70447" lon="-1.96003">
        <ele>16</ele>
        <time>2018-04-23T01:34:17Z</time>
      </trkpt>
      <trkpt lat="46.70419" lon="-1.95986">
        <ele>16</ele>
        <time>2018-04-23T01:35:17Z</time>
      </trkpt>
      <trkpt lat="46.70393" lon="-1.95972">
        <ele>15</ele>
        <time>2018-04-23T01:36:17Z</time>
      </trkpt>
      <trkpt lat="46.70369" lon="-1.95955">
        <ele>15</ele>
        <time>2018-04-23T01:37:17Z</time>
      </trkpt>
      <trkpt lat="46.7036" lon="-1.95948">
        <ele>15</ele>
        <time>2018-04-23T01:38:17Z</time>
      </trkpt>
      <trkpt lat="46.70359" lon="-1.95952">
        <ele>15</ele>
        <time>2018-04-23T01:39:17Z</time>
      </trkpt>
      <trkpt lat="46.70357" lon="-1.95956">
        <ele>15</ele>
        <time>2018-04-23T01:40:17Z</time>
      </trkpt>
      <trkpt lat="46.70354" lon="-1.95958">
        <ele>15</ele>
        <time>2018-04-23T01:41:17Z</time>
      </trkpt>
      <trkpt lat="46.7035" lon="-1.95958">
        <ele>15</ele>
        <time>2018-04-23T01:42:17Z</time>
      </trkpt>
      <trkpt lat="46.70349" lon="-1.95957">
        <ele>15</ele>
        <time>2018-04-23T01:43:17Z</time>
      </trkpt>
      <trkpt lat="46.70347" lon="-1.95955">
        <ele>15</ele>
        <time>2018-04-23T01:44:17Z</time>
      </trkpt>
      <trkpt lat="46.70344" lon="-1.95951">
        <ele>15</ele>
        <time>2018-04-23T01:45:17Z</time>
      </trkpt>
      <trkpt lat="46.70344" lon="-1.95946">
        <ele>14</ele>
        <time>2018-04-23T01:46:17Z</time>
      </trkpt>
      <trkpt lat="46.70344" lon="-1.95941">
        <ele>14</ele>
        <time>2018-04-23T01:47:17Z</time>
      </trkpt>
      <trkpt lat="46.70345" lon="-1.95938">
        <ele>14</ele>
        <time>2018-04-23T01:48:17Z</time>
      </trkpt>
      <trkpt lat="46.70333" lon="-1.95927">
        <ele>14</ele>
        <time>2018-04-23T01:49:17Z</time>
      </trkpt>
      <trkpt lat="46.70313" lon="-1.9591">
        <ele>14</ele>
        <time>2018-04-23T01:50:17Z</time>
      </trkpt>
      <trkpt lat="46.70302" lon="-1.95899">
        <ele>13</ele>
        <time>2018-04-23T01:51:17Z</time>
      </trkpt>
      <trkpt lat="46.70296" lon="-1.95894">
        <ele>13</ele>
        <time>2018-04-23T01:52:17Z</time>
      </trkpt>
      <trkpt lat="46.70274" lon="-1.95872">
        <ele>13</ele>
        <time>2018-04-23T01:53:17Z</time>
      </trkpt>
      <trkpt lat="46.70256" lon="-1.95852">
        <ele>12</ele>
        <time>2018-04-23T01:54:17Z</time>
      </trkpt>
      <trkpt lat="46.70241" lon="-1.95834">
        <ele>12</ele>
        <time>2018-04-23T01:55:17Z</time>
      </trkpt>
      <trkpt lat="46.70228" lon="-1.95813">
        <ele>12</ele>
        <time>2018-04-23T01:56:17Z</time>
      </trkpt>
      <trkpt lat="46.70217" lon="-1.95794">
        <ele>12</ele>
        <time>2018-04-23T01:57:17Z</time>
      </trkpt>
      <trkpt lat="46.70208" lon="-1.95777">
        <ele>12</ele>
        <time>2018-04-23T01:58:17Z</time>
      </trkpt>
      <trkpt lat="46.70197" lon="-1.95752">
        <ele>13</ele>
        <time>2018-04-23T01:59:17Z</time>
      </trkpt>
      <trkpt lat="46.70186" lon="-1.95725">
        <ele>12</ele>
        <time>2018-04-23T02:00:17Z</time>
      </trkpt>
      <trkpt lat="46.70181" lon="-1.95704">
        <ele>12</ele>
        <time>2018-04-23T02:01:17Z</time>
      </trkpt>
      <trkpt lat="46.70176" lon="-1.95684">
        <ele>12</ele>
        <time>2018-04-23T02:02:17Z</time>
      </trkpt>
      <trkpt lat="46.70172" lon="-1.95671">
        <ele>12</ele>
        <time>2018-04-23T02:03:17Z</time>
      </trkpt>
      <trkpt lat="46.7017" lon="-1.95662">
        <ele>12</ele>
        <time>2018-04-23T02:04:17Z</time>
      </trkpt>
      <trkpt lat="46.70167" lon="-1.95654">
        <ele>12</ele>
        <time>2018-04-23T02:05:17Z</time>
      </trkpt>
      <trkpt lat="46.70166" lon="-1.95638">
        <ele>11</ele>
        <time>2018-04-23T02:06:17Z</time>
      </trkpt>
      <trkpt lat="46.70164" lon="-1.95621">
        <ele>11</ele>
        <time>2018-04-23T02:07:17Z</time>
      </trkpt>
      <trkpt lat="46.70153" lon="-1.95549">
        <ele>10</ele>
        <time>2018-04-23T02:08:17Z</time>
      </trkpt>
      <trkpt lat="46.70142" lon="-1.95472">
        <ele>9</ele>
        <time>2018-04-23T02:09:17Z</time>
      </trkpt>
      <trkpt lat="46.70142" lon="-1.95446">
        <ele>9</ele>
        <time>2018-04-23T02:10:17Z</time>
      </trkpt>
      <trkpt lat="46.70146" lon="-1.95382">
        <ele>8</ele>
        <time>2018-04-23T02:11:17Z</time>
      </trkpt>
      <trkpt lat="46.70163" lon="-1.95279">
        <ele>6</ele>
        <time>2018-04-23T02:12:17Z</time>
      </trkpt>
      <trkpt lat="46.70167" lon="-1.95232">
        <ele>5</ele>
        <time>2018-04-23T02:13:17Z</time>
      </trkpt>
      <trkpt lat="46.70167" lon="-1.95226">
        <ele>5</ele>
        <time>2018-04-23T02:14:17Z</time>
      </trkpt>
      <trkpt lat="46.70168" lon="-1.95219">
        <ele>5</ele>
        <time>2018-04-23T02:15:17Z</time>
      </trkpt>
      <trkpt lat="46.70167" lon="-1.95198">
        <ele>6</ele>
        <time>2018-04-23T02:16:17Z</time>
      </trkpt>
      <trkpt lat="46.70166" lon="-1.95179">
        <ele>6</ele>
        <time>2018-04-23T02:17:17Z</time>
      </trkpt>
      <trkpt lat="46.70162" lon="-1.95161">
        <ele>6</ele>
        <time>2018-04-23T02:18:17Z</time>
      </trkpt>
      <trkpt lat="46.7016" lon="-1.95145">
        <ele>6</ele>
        <time>2018-04-23T02:19:17Z</time>
      </trkpt>
      <trkpt lat="46.70158" lon="-1.95126">
        <ele>6</ele>
        <time>2018-04-23T02:20:17Z</time>
      </trkpt>
      <trkpt lat="46.70157" lon="-1.95107">
        <ele>5</ele>
        <time>2018-04-23T02:21:17Z</time>
      </trkpt>
      <trkpt lat="46.70156" lon="-1.95089">
        <ele>5</ele>
        <time>2018-04-23T02:22:17Z</time>
      </trkpt>
      <trkpt lat="46.70156" lon="-1.95069">
        <ele>5</ele>
        <time>2018-04-23T02:23:17Z</time>
      </trkpt>
      <trkpt lat="46.70156" lon="-1.95069">
        <ele>5</ele>
        <time>2018-04-23T02:24:17Z</time>
      </trkpt>
      <trkpt lat="46.70155" lon="-1.95069">
        <ele>5</ele>
        <time>2018-04-23T02:25:17Z</time>
      </trkpt>
      <trkpt lat="46.70154" lon="-1.95069">
        <ele>5</ele>
        <time>2018-04-23T02:26:17Z</time>
      </trkpt>
      <trkpt lat="46.70153" lon="-1.95069">
        <ele>5</ele>
        <time>2018-04-23T02:27:17Z</time>
      </trkpt>
      <trkpt lat="46.70152" lon="-1.95069">
        <ele>5</ele>
        <time>2018-04-23T02:28:17Z</time>
      </trkpt>
      <trkpt lat="46.70152" lon="-1.95068">
        <ele>5</ele>
        <time>2018-04-23T02:29:17Z</time>
      </trkpt>
      <trkpt lat="46.70151" lon="-1.95068">
        <ele>5</ele>
        <time>2018-04-23T02:30:17Z</time>
      </trkpt>
      <trkpt lat="46.70151" lon="-1.95067">
        <ele>5</ele>
        <time>2018-04-23T02:31:17Z</time>
      </trkpt>
      <trkpt lat="46.7015" lon="-1.95067">
        <ele>5</ele>
        <time>2018-04-23T02:32:17Z</time>
      </trkpt>
      <trkpt lat="46.7015" lon="-1.95066">
        <ele>5</ele>
        <time>2018-04-23T02:33:17Z</time>
      </trkpt>
      <trkpt lat="46.70149" lon="-1.95066">
        <ele>5</ele>
        <time>2018-04-23T02:34:17Z</time>
      </trkpt>
      <trkpt lat="46.70149" lon="-1.95065">
        <ele>5</ele>
        <time>2018-04-23T02:35:17Z</time>
      </trkpt>
      <trkpt lat="46.70149" lon="-1.95064">
        <ele>5</ele>
        <time>2018-04-23T02:36:17Z</time>
      </trkpt>
      <trkpt lat="46.70149" lon="-1.95063">
        <ele>5</ele>
        <time>2018-04-23T02:37:17Z</time>
      </trkpt>
      <trkpt lat="46.70148" lon="-1.95063">
        <ele>5</ele>
        <time>2018-04-23T02:38:17Z</time>
      </trkpt>
      <trkpt lat="46.70148" lon="-1.95062">
        <ele>5</ele>
        <time>2018-04-23T02:39:17Z</time>
      </trkpt>
      <trkpt lat="46.70148" lon="-1.95061">
        <ele>5</ele>
        <time>2018-04-23T02:40:17Z</time>
      </trkpt>
      <trkpt lat="46.70148" lon="-1.9506">
        <ele>5</ele>
        <time>2018-04-23T02:41:17Z</time>
      </trkpt>
      <trkpt lat="46.70148" lon="-1.95059">
        <ele>5</ele>
        <time>2018-04-23T02:42:17Z</time>
      </trkpt>
      <trkpt lat="46.70148" lon="-1.95058">
        <ele>5</ele>
        <time>2018-04-23T02:43:17Z</time>
      </trkpt>
      <trkpt lat="46.70148" lon="-1.95057">
        <ele>5</ele>
        <time>2018-04-23T02:44:17Z</time>
      </trkpt>
      <trkpt lat="46.70148" lon="-1.95056">
        <ele>5</ele>
        <time>2018-04-23T02:45:17Z</time>
      </trkpt>
      <trkpt lat="46.70148" lon="-1.95055">
        <ele>5</ele>
        <time>2018-04-23T02:46:17Z</time>
      </trkpt>
      <trkpt lat="46.70149" lon="-1.95055">
        <ele>5</ele>
        <time>2018-04-23T02:47:17Z</time>
      </trkpt>
      <trkpt lat="46.70149" lon="-1.95054">
        <ele>5</ele>
        <time>2018-04-23T02:48:17Z</time>
      </trkpt>
      <trkpt lat="46.70149" lon="-1.95053">
        <ele>5</ele>
        <time>2018-04-23T02:49:17Z</time>
      </trkpt>
      <trkpt lat="46.7015" lon="-1.95053">
        <ele>5</ele>
        <time>2018-04-23T02:50:17Z</time>
      </trkpt>
      <trkpt lat="46.7015" lon="-1.95052">
        <ele>5</ele>
        <time>2018-04-23T02:51:17Z</time>
      </trkpt>
      <trkpt lat="46.7015" lon="-1.95051">
        <ele>5</ele>
        <time>2018-04-23T02:52:17Z</time>
      </trkpt>
      <trkpt lat="46.70151" lon="-1.95051">
        <ele>4</ele>
        <time>2018-04-23T02:53:17Z</time>
      </trkpt>
      <trkpt lat="46.70151" lon="-1.9505">
        <ele>4</ele>
        <time>2018-04-23T02:54:17Z</time>
      </trkpt>
      <trkpt lat="46.70152" lon="-1.9505">
        <ele>4</ele>
        <time>2018-04-23T02:55:17Z</time>
      </trkpt>
      <trkpt lat="46.70153" lon="-1.9505">
        <ele>4</ele>
        <time>2018-04-23T02:56:17Z</time>
      </trkpt>
      <trkpt lat="46.70153" lon="-1.95049">
        <ele>4</ele>
        <time>2018-04-23T02:57:17Z</time>
      </trkpt>
      <trkpt lat="46.70154" lon="-1.95049">
        <ele>4</ele>
        <time>2018-04-23T02:58:17Z</time>
      </trkpt>
      <trkpt lat="46.70155" lon="-1.95049">
        <ele>4</ele>
        <time>2018-04-23T02:59:17Z</time>
      </trkpt>
      <trkpt lat="46.70157" lon="-1.95007">
        <ele>3</ele>
        <time>2018-04-23T03:00:17Z</time>
      </trkpt>
      <trkpt lat="46.70158" lon="-1.94954">
        <ele>3</ele>
        <time>2018-04-23T03:01:17Z</time>
      </trkpt>
      <trkpt lat="46.70158" lon="-1.94933">
        <ele>2</ele>
        <time>2018-04-23T03:02:17Z</time>
      </trkpt>
      <trkpt lat="46.70158" lon="-1.94925">
        <ele>2</ele>
        <time>2018-04-23T03:03:17Z</time>
      </trkpt>
      <trkpt lat="46.70159" lon="-1.94879">
        <ele>2</ele>
        <time>2018-04-23T03:04:17Z</time>
      </trkpt>
      <trkpt lat="46.70159" lon="-1.9487">
        <ele>2</ele>
        <time>2018-04-23T03:05:17Z</time>
      </trkpt>
      <trkpt lat="46.70159" lon="-1.94866">
        <ele>2</ele>
        <time>2018-04-23T03:06:17Z</time>
      </trkpt>
      <trkpt lat="46.70159" lon="-1.94848">
        <ele>2</ele>
        <time>2018-04-23T03:07:17Z</time>
      </trkpt>
      <trkpt lat="46.7016" lon="-1.94795">
        <ele>3</ele>
        <time>2018-04-23T03:08:17Z</time>
      </trkpt>
      <trkpt lat="46.70162" lon="-1.94739">
        <ele>3</ele>
        <time>2018-04-23T03:09:17Z</time>
      </trkpt>
      <trkpt lat="46.70163" lon="-1.9471">
        <ele>4</ele>
        <time>2018-04-23T03:10:17Z</time>
      </trkpt>
      <trkpt lat="46.70164" lon="-1.94697">
        <ele>4</ele>
        <time>2018-04-23T03:11:17Z</time>
      </trkpt>
      <trkpt lat="46.70164" lon="-1.94684">
        <ele>4</ele>
        <time>2018-04-23T03:12:17Z</time>
      </trkpt>
      <trkpt lat="46.70163" lon="-1.94684">
        <ele>4</ele>
        <time>2018-04-23T03:13:17Z</time>
      </trkpt>
      <trkpt lat="46.70163" lon="-1.94683">
        <ele>4</ele>
        <time>2018-04-23T03:14:17Z</time>
      </trkpt>
      <trkpt lat="46.70162" lon="-1.94683">
        <ele>4</ele>
        <time>2018-04-23T03:15:17Z</time>
      </trkpt>
      <trkpt lat="46.70161" lon="-1.94683">
        <ele>4</ele>
        <time>2018-04-23T03:16:17Z</time>
      </trkpt>
      <trkpt lat="46.70161" lon="-1.94682">
        <ele>4</ele>
        <time>2018-04-23T03:17:17Z</time>
      </trkpt>
      <trkpt lat="46.7016" lon="-1.94682">
        <ele>4</ele>
        <time>2018-04-23T03:18:17Z</time>
      </trkpt>
      <trkpt lat="46.7016" lon="-1.94681">
        <ele>4</ele>
        <time>2018-04-23T03:19:17Z</time>
      </trkpt>
      <trkpt lat="46.70159" lon="-1.94681">
        <ele>4</ele>
        <time>2018-04-23T03:20:17Z</time>
      </trkpt>
      <trkpt lat="46.70159" lon="-1.9468">
        <ele>4</ele>
        <time>2018-04-23T03:21:17Z</time>
      </trkpt>
      <trkpt lat="46.70159" lon="-1.94679">
        <ele>4</ele>
        <time>2018-04-23T03:22:17Z</time>
      </trkpt>
      <trkpt lat="46.70158" lon="-1.94679">
        <ele>4</ele>
        <time>2018-04-23T03:23:17Z</time>
      </trkpt>
      <trkpt lat="46.70158" lon="-1.94678">
        <ele>4</ele>
        <time>2018-04-23T03:24:17Z</time>
      </trkpt>
      <trkpt lat="46.70158" lon="-1.94677">
        <ele>4</ele>
        <time>2018-04-23T03:25:17Z</time>
      </trkpt>
      <trkpt lat="46.70157" lon="-1.94677">
        <ele>4</ele>
        <time>2018-04-23T03:26:17Z</time>
      </trkpt>
      <trkpt lat="46.70157" lon="-1.94676">
        <ele>4</ele>
        <time>2018-04-23T03:27:17Z</time>
      </trkpt>
      <trkpt lat="46.70157" lon="-1.94675">
        <ele>4</ele>
        <time>2018-04-23T03:28:17Z</time>
      </trkpt>
      <trkpt lat="46.70157" lon="-1.94674">
        <ele>4</ele>
        <time>2018-04-23T03:29:17Z</time>
      </trkpt>
      <trkpt lat="46.70156" lon="-1.94674">
        <ele>4</ele>
        <time>2018-04-23T03:30:17Z</time>
      </trkpt>
      <trkpt lat="46.70156" lon="-1.94673">
        <ele>4</ele>
        <time>2018-04-23T03:31:17Z</time>
      </trkpt>
      <trkpt lat="46.70156" lon="-1.94672">
        <ele>4</ele>
        <time>2018-04-23T03:32:17Z</time>
      </trkpt>
      <trkpt lat="46.70156" lon="-1.94671">
        <ele>4</ele>
        <time>2018-04-23T03:33:17Z</time>
      </trkpt>
      <trkpt lat="46.70156" lon="-1.9467">
        <ele>4</ele>
        <time>2018-04-23T03:34:17Z</time>
      </trkpt>
      <trkpt lat="46.70156" lon="-1.94669">
        <ele>4</ele>
        <time>2018-04-23T03:35:17Z</time>
      </trkpt>
      <trkpt lat="46.70156" lon="-1.94668">
        <ele>4</ele>
        <time>2018-04-23T03:36:17Z</time>
      </trkpt>
      <trkpt lat="46.70156" lon="-1.94667">
        <ele>4</ele>
        <time>2018-04-23T03:37:17Z</time>
      </trkpt>
      <trkpt lat="46.70157" lon="-1.94667">
        <ele>4</ele>
        <time>2018-04-23T03:38:17Z</time>
      </trkpt>
      <trkpt lat="46.70157" lon="-1.94666">
        <ele>4</ele>
        <time>2018-04-23T03:39:17Z</time>
      </trkpt>
      <trkpt lat="46.70157" lon="-1.94665">
        <ele>4</ele>
        <time>2018-04-23T03:40:17Z</time>
      </trkpt>
      <trkpt lat="46.70157" lon="-1.94664">
        <ele>4</ele>
        <time>2018-04-23T03:41:17Z</time>
      </trkpt>
      <trkpt lat="46.70157" lon="-1.94663">
        <ele>4</ele>
        <time>2018-04-23T03:42:17Z</time>
      </trkpt>
      <trkpt lat="46.70158" lon="-1.94663">
        <ele>4</ele>
        <time>2018-04-23T03:43:17Z</time>
      </trkpt>
      <trkpt lat="46.70158" lon="-1.94662">
        <ele>4</ele>
        <time>2018-04-23T03:44:17Z</time>
      </trkpt>
      <trkpt lat="46.70158" lon="-1.94661">
        <ele>4</ele>
        <time>2018-04-23T03:45:17Z</time>
      </trkpt>
      <trkpt lat="46.70159" lon="-1.94661">
        <ele>4</ele>
        <time>2018-04-23T03:46:17Z</time>
      </trkpt>
      <trkpt lat="46.70159" lon="-1.9466">
        <ele>4</ele>
        <time>2018-04-23T03:47:17Z</time>
      </trkpt>
      <trkpt lat="46.7016" lon="-1.94659">
        <ele>4</ele>
        <time>2018-04-23T03:48:17Z</time>
      </trkpt>
      <trkpt lat="46.70161" lon="-1.94658">
        <ele>4</ele>
        <time>2018-04-23T03:49:17Z</time>
      </trkpt>
      <trkpt lat="46.70162" lon="-1.94658">
        <ele>4</ele>
        <time>2018-04-23T03:50:17Z</time>
      </trkpt>
      <trkpt lat="46.70162" lon="-1.94657">
        <ele>4</ele>
        <time>2018-04-23T03:51:17Z</time>
      </trkpt>
      <trkpt lat="46.70163" lon="-1.94657">
        <ele>4</ele>
        <time>2018-04-23T03:52:17Z</time>
      </trkpt>
      <trkpt lat="46.70164" lon="-1.94656">
        <ele>4</ele>
        <time>2018-04-23T03:53:17Z</time>
      </trkpt>
      <trkpt lat="46.70165" lon="-1.94656">
        <ele>4</ele>
        <time>2018-04-23T03:54:17Z</time>
      </trkpt>
      <trkpt lat="46.70165" lon="-1.94645">
        <ele>4</ele>
        <time>2018-04-23T03:55:17Z</time>
      </trkpt>
      <trkpt lat="46.70165" lon="-1.94613">
        <ele>4</ele>
        <time>2018-04-23T03:56:17Z</time>
      </trkpt>
      <trkpt lat="46.70165" lon="-1.94565">
        <ele>4</ele>
        <time>2018-04-23T03:57:17Z</time>
      </trkpt>
      <trkpt lat="46.70166" lon="-1.94548">
        <ele>4</ele>
        <time>2018-04-23T03:58:17Z</time>
      </trkpt>
      <trkpt lat="46.70166" lon="-1.94537">
        <ele>3</ele>
        <time>2018-04-23T03:59:17Z</time>
      </trkpt>
      <trkpt lat="46.70167" lon="-1.94505">
        <ele>3</ele>
        <time>2018-04-23T04:00:17Z</time>
      </trkpt>
      <trkpt lat="46.70168" lon="-1.94446">
        <ele>4</ele>
        <time>2018-04-23T04:01:17Z</time>
      </trkpt>
      <trkpt lat="46.7017" lon="-1.94418">
        <ele>4</ele>
        <time>2018-04-23T04:02:17Z</time>
      </trkpt>
      <trkpt lat="46.7017" lon="-1.94405">
        <ele>4</ele>
        <time>2018-04-23T04:03:17Z</time>
      </trkpt>
      <trkpt lat="46.70172" lon="-1.94388">
        <ele>4</ele>
        <time>2018-04-23T04:04:17Z</time>
      </trkpt>
      <trkpt lat="46.70173" lon="-1.9437">
        <ele>4</ele>
        <time>2018-04-23T04:05:17Z</time>
      </trkpt>
      <trkpt lat="46.70175" lon="-1.94344">
        <ele>4</ele>
        <time>2018-04-23T04:06:17Z</time>
      </trkpt>
      <trkpt lat="46.70178" lon="-1.94311">
        <ele>4</ele>
        <time>2018-04-23T04:07:17Z</time>
      </trkpt>
      <trkpt lat="46.70181" lon="-1.94282">
        <ele>4</ele>
        <time>2018-04-23T04:08:17Z</time>
      </trkpt>
      <trkpt lat="46.70181" lon="-1.94273">
        <ele>5</ele>
        <time>2018-04-23T04:09:17Z</time>
      </trkpt>
      <trkpt lat="46.70182" lon="-1.94266">
        <ele>5</ele>
        <time>2018-04-23T04:10:17Z</time>
      </trkpt>
      <trkpt lat="46.70182" lon="-1.94257">
        <ele>5</ele>
        <time>2018-04-23T04:11:17Z</time>
      </trkpt>
      <trkpt lat="46.70181" lon="-1.94237">
        <ele>5</ele>
        <time>2018-04-23T04:12:17Z</time>
      </trkpt>
      <trkpt lat="46.70178" lon="-1.94213">
        <ele>4</ele>
        <time>2018-04-23T04:13:17Z</time>
      </trkpt>
      <trkpt lat="46.70174" lon="-1.94182">
        <ele>3</ele>
        <time>2018-04-23T04:14:17Z</time>
      </trkpt>
      <trkpt lat="46.70169" lon="-1.9414">
        <ele>3</ele>
        <time>2018-04-23T04:15:17Z</time>
      </trkpt>
      <trkpt lat="46.70165" lon="-1.94106">
        <ele>3</ele>
        <time>2018-04-23T04:16:17Z</time>
      </trkpt>
      <trkpt lat="46.70157" lon="-1.94041">
        <ele>3</ele>
        <time>2018-04-23T04:17:17Z</time>
      </trkpt>
      <trkpt lat="46.70155" lon="-1.94024">
        <ele>3</ele>
        <time>2018-04-23T04:18:17Z</time>
      </trkpt>
      <trkpt lat="46.70154" lon="-1.94011">
        <ele>2</ele>
        <time>2018-04-23T04:19:17Z</time>
      </trkpt>
      <trkpt lat="46.70153" lon="-1.94002">
        <ele>2</ele>
        <time>2018-04-23T04:20:17Z</time>
      </trkpt>
      <trkpt lat="46.70148" lon="-1.93984">
        <ele>3</ele>
        <time>2018-04-23T04:21:17Z</time>
      </trkpt>
      <trkpt lat="46.70145" lon="-1.93969">
        <ele>3</ele>
        <time>2018-04-23T04:22:17Z</time>
      </trkpt>
      <trkpt lat="46.70143" lon="-1.9396">
        <ele>3</ele>
        <time>2018-04-23T04:23:17Z</time>
      </trkpt>
      <trkpt lat="46.70143" lon="-1.93949">
        <ele>3</ele>
        <time>2018-04-23T04:24:17Z</time>
      </trkpt>
      <trkpt lat="46.70143" lon="-1.93949">
        <ele>3</ele>
        <time>2018-04-23T04:25:17Z</time>
      </trkpt>
      <trkpt lat="46.70143" lon="-1.93948">
        <ele>3</ele>
        <time>2018-04-23T04:26:17Z</time>
      </trkpt>
      <trkpt lat="46.70143" lon="-1.93947">
        <ele>3</ele>
        <time>2018-04-23T04:27:17Z</time>
      </trkpt>
      <trkpt lat="46.70142" lon="-1.93947">
        <ele>3</ele>
        <time>2018-04-23T04:28:17Z</time>
      </trkpt>
      <trkpt lat="46.70142" lon="-1.93946">
        <ele>3</ele>
        <time>2018-04-23T04:29:17Z</time>
      </trkpt>
      <trkpt lat="46.70142" lon="-1.93945">
        <ele>3</ele>
        <time>2018-04-23T04:30:17Z</time>
      </trkpt>
      <trkpt lat="46.70142" lon="-1.93944">
        <ele>3</ele>
        <time>2018-04-23T04:31:17Z</time>
      </trkpt>
      <trkpt lat="46.70142" lon="-1.93943">
        <ele>3</ele>
        <time>2018-04-23T04:32:17Z</time>
      </trkpt>
      <trkpt lat="46.70142" lon="-1.93942">
        <ele>3</ele>
        <time>2018-04-23T04:33:17Z</time>
      </trkpt>
      <trkpt lat="46.70141" lon="-1.93941">
        <ele>3</ele>
        <time>2018-04-23T04:34:17Z</time>
      </trkpt>
      <trkpt lat="46.70141" lon="-1.9394">
        <ele>3</ele>
        <time>2018-04-23T04:35:17Z</time>
      </trkpt>
      <trkpt lat="46.70141" lon="-1.93939">
        <ele>3</ele>
        <time>2018-04-23T04:36:17Z</time>
      </trkpt>
      <trkpt lat="46.70142" lon="-1.93938">
        <ele>3</ele>
        <time>2018-04-23T04:37:17Z</time>
      </trkpt>
      <trkpt lat="46.70142" lon="-1.93937">
        <ele>3</ele>
        <time>2018-04-23T04:38:17Z</time>
      </trkpt>
      <trkpt lat="46.70142" lon="-1.93936">
        <ele>3</ele>
        <time>2018-04-23T04:39:17Z</time>
      </trkpt>
      <trkpt lat="46.70142" lon="-1.93935">
        <ele>3</ele>
        <time>2018-04-23T04:40:17Z</time>
      </trkpt>
      <trkpt lat="46.70142" lon="-1.93934">
        <ele>3</ele>
        <time>2018-04-23T04:41:17Z</time>
      </trkpt>
      <trkpt lat="46.70142" lon="-1.93933">
        <ele>3</ele>
        <time>2018-04-23T04:42:17Z</time>
      </trkpt>
      <trkpt lat="46.70142" lon="-1.93932">
        <ele>3</ele>
        <time>2018-04-23T04:43:17Z</time>
      </trkpt>
      <trkpt lat="46.70142" lon="-1.93931">
        <ele>3</ele>
        <time>2018-04-23T04:44:17Z</time>
      </trkpt>
      <trkpt lat="46.70143" lon="-1.93931">
        <ele>3</ele>
        <time>2018-04-23T04:45:17Z</time>
      </trkpt>
      <trkpt lat="46.70143" lon="-1.9393">
        <ele>3</ele>
        <time>2018-04-23T04:46:17Z</time>
      </trkpt>
      <trkpt lat="46.70143" lon="-1.93929">
        <ele>3</ele>
        <time>2018-04-23T04:47:17Z</time>
      </trkpt>
      <trkpt lat="46.70144" lon="-1.93928">
        <ele>3</ele>
        <time>2018-04-23T04:48:17Z</time>
      </trkpt>
      <trkpt lat="46.70144" lon="-1.93927">
        <ele>3</ele>
        <time>2018-04-23T04:49:17Z</time>
      </trkpt>
      <trkpt lat="46.70145" lon="-1.93926">
        <ele>3</ele>
        <time>2018-04-23T04:50:17Z</time>
      </trkpt>
      <trkpt lat="46.70145" lon="-1.93925">
        <ele>3</ele>
        <time>2018-04-23T04:51:17Z</time>
      </trkpt>
      <trkpt lat="46.70146" lon="-1.93925">
        <ele>3</ele>
        <time>2018-04-23T04:52:17Z</time>
      </trkpt>
      <trkpt lat="46.70146" lon="-1.93924">
        <ele>3</ele>
        <time>2018-04-23T04:53:17Z</time>
      </trkpt>
      <trkpt lat="46.70147" lon="-1.93924">
        <ele>3</ele>
        <time>2018-04-23T04:54:17Z</time>
      </trkpt>
      <trkpt lat="46.70147" lon="-1.93923">
        <ele>3</ele>
        <time>2018-04-23T04:55:17Z</time>
      </trkpt>
      <trkpt lat="46.70148" lon="-1.93923">
        <ele>3</ele>
        <time>2018-04-23T04:56:17Z</time>
      </trkpt>
      <trkpt lat="46.70149" lon="-1.93922">
        <ele>3</ele>
        <time>2018-04-23T04:57:17Z</time>
      </trkpt>
      <trkpt lat="46.7015" lon="-1.93922">
        <ele>3</ele>
        <time>2018-04-23T04:58:17Z</time>
      </trkpt>
      <trkpt lat="46.7015" lon="-1.93921">
        <ele>3</ele>
        <time>2018-04-23T04:59:17Z</time>
      </trkpt>
      <trkpt lat="46.70151" lon="-1.93921">
        <ele>3</ele>
        <time>2018-04-23T05:00:17Z</time>
      </trkpt>
      <trkpt lat="46.70152" lon="-1.93921">
        <ele>3</ele>
        <time>2018-04-23T05:01:17Z</time>
      </trkpt>
      <trkpt lat="46.70153" lon="-1.93921">
        <ele>3</ele>
        <time>2018-04-23T05:02:17Z</time>
      </trkpt>
      <trkpt lat="46.70154" lon="-1.93921">
        <ele>3</ele>
        <time>2018-04-23T05:03:17Z</time>
      </trkpt>
      <trkpt lat="46.70155" lon="-1.93921">
        <ele>3</ele>
        <time>2018-04-23T05:04:17Z</time>
      </trkpt>
      <trkpt lat="46.70156" lon="-1.93921">
        <ele>3</ele>
        <time>2018-04-23T05:05:17Z</time>
      </trkpt>
      <trkpt lat="46.70157" lon="-1.93922">
        <ele>3</ele>
        <time>2018-04-23T05:06:17Z</time>
      </trkpt>
      <trkpt lat="46.70158" lon="-1.93922">
        <ele>3</ele>
        <time>2018-04-23T05:07:17Z</time>
      </trkpt>
      <trkpt lat="46.70159" lon="-1.93923">
        <ele>3</ele>
        <time>2018-04-23T05:08:17Z</time>
      </trkpt>
      <trkpt lat="46.7016" lon="-1.93924">
        <ele>3</ele>
        <time>2018-04-23T05:09:17Z</time>
      </trkpt>
      <trkpt lat="46.70167" lon="-1.93924">
        <ele>3</ele>
        <time>2018-04-23T05:10:17Z</time>
      </trkpt>
      <trkpt lat="46.70177" lon="-1.93926">
        <ele>3</ele>
        <time>2018-04-23T05:11:17Z</time>
      </trkpt>
      <trkpt lat="46.70193" lon="-1.93928">
        <ele>3</ele>
        <time>2018-04-23T05:12:17Z</time>
      </trkpt>
      <trkpt lat="46.70201" lon="-1.93928">
        <ele>3</ele>
        <time>2018-04-23T05:13:17Z</time>
      </trkpt>
      <trkpt lat="46.70201" lon="-1.93927">
        <ele>3</ele>
        <time>2018-04-23T05:14:17Z</time>
      </trkpt>
      <trkpt lat="46.70214" lon="-1.93924">
        <ele>2</ele>
        <time>2018-04-23T05:15:17Z</time>
      </trkpt>
      <trkpt lat="46.70224" lon="-1.93919">
        <ele>2</ele>
        <time>2018-04-23T05:16:17Z</time>
      </trkpt>
      <trkpt lat="46.70232" lon="-1.93915">
        <ele>2</ele>
        <time>2018-04-23T05:17:17Z</time>
      </trkpt>
      <trkpt lat="46.70242" lon="-1.93906">
        <ele>2</ele>
        <time>2018-04-23T05:18:17Z</time>
      </trkpt>
      <trkpt lat="46.70242" lon="-1.93906">
        <ele>2</ele>
        <time>2018-04-23T05:19:17Z</time>
      </trkpt>
      <trkpt lat="46.70243" lon="-1.93905">
        <ele>2</ele>
        <time>2018-04-23T05:20:17Z</time>
      </trkpt>
      <trkpt lat="46.70243" lon="-1.93903">
        <ele>2</ele>
        <time>2018-04-23T05:21:17Z</time>
      </trkpt>
      <trkpt lat="46.70243" lon="-1.93902">
        <ele>2</ele>
        <time>2018-04-23T05:22:17Z</time>
      </trkpt>
      <trkpt lat="46.70244" lon="-1.939">
        <ele>2</ele>
        <time>2018-04-23T05:23:17Z</time>
      </trkpt>
      <trkpt lat="46.70244" lon="-1.93899">
        <ele>2</ele>
        <time>2018-04-23T05:24:17Z</time>
      </trkpt>
      <trkpt lat="46.70245" lon="-1.93897">
        <ele>3</ele>
        <time>2018-04-23T05:25:17Z</time>
      </trkpt>
      <trkpt lat="46.70245" lon="-1.93896">
        <ele>3</ele>
        <time>2018-04-23T05:26:17Z</time>
      </trkpt>
      <trkpt lat="46.70246" lon="-1.93894">
        <ele>3</ele>
        <time>2018-04-23T05:27:17Z</time>
      </trkpt>
      <trkpt lat="46.70246" lon="-1.93889">
        <ele>3</ele>
        <time>2018-04-23T05:28:17Z</time>
      </trkpt>
      <trkpt lat="46.70245" lon="-1.93885">
        <ele>3</ele>
        <time>2018-04-23T05:29:17Z</time>
      </trkpt>
      <trkpt lat="46.70245" lon="-1.93882">
        <ele>3</ele>
        <time>2018-04-23T05:30:17Z</time>
      </trkpt>
      <trkpt lat="46.70244" lon="-1.93878">
        <ele>3</ele>
        <time>2018-04-23T05:31:17Z</time>
      </trkpt>
      <trkpt lat="46.70244" lon="-1.93875">
        <ele>3</ele>
        <time>2018-04-23T05:32:17Z</time>
      </trkpt>
      <trkpt lat="46.70243" lon="-1.93871">
        <ele>3</ele>
        <time>2018-04-23T05:33:17Z</time>
      </trkpt>
      <trkpt lat="46.70241" lon="-1.93867">
        <ele>3</ele>
        <time>2018-04-23T05:34:17Z</time>
      </trkpt>
      <trkpt lat="46.70241" lon="-1.93864">
        <ele>3</ele>
        <time>2018-04-23T05:35:17Z</time>
      </trkpt>
      <trkpt lat="46.70238" lon="-1.93857">
        <ele>3</ele>
        <time>2018-04-23T05:36:17Z</time>
      </trkpt>
      <trkpt lat="46.70224" lon="-1.93811">
        <ele>4</ele>
        <time>2018-04-23T05:37:17Z</time>
      </trkpt>
      <trkpt lat="46.7022" lon="-1.93799">
        <ele>3</ele>
        <time>2018-04-23T05:38:17Z</time>
      </trkpt>
      <trkpt lat="46.70218" lon="-1.93792">
        <ele>3</ele>
        <time>2018-04-23T05:39:17Z</time>
      </trkpt>
      <trkpt lat="46.70216" lon="-1.93784">
        <ele>3</ele>
        <time>2018-04-23T05:40:17Z</time>
      </trkpt>
      <trkpt lat="46.70214" lon="-1.93775">
        <ele>3</ele>
        <time>2018-04-23T05:41:17Z</time>
      </trkpt>
      <trkpt lat="46.70211" lon="-1.93767">
        <ele>3</ele>
        <time>2018-04-23T05:42:17Z</time>
      </trkpt>
      <trkpt lat="46.70203" lon="-1.93733">
        <ele>3</ele>
        <time>2018-04-23T05:43:17Z</time>
      </trkpt>
      <trkpt lat="46.70194" lon="-1.93693">
        <ele>2</ele>
        <time>2018-04-23T05:44:17Z</time>
      </trkpt>
      <trkpt lat="46.70183" lon="-1.93647">
        <ele>1</ele>
        <time>2018-04-23T05:45:17Z</time>
      </trkpt>
      <trkpt lat="46.70173" lon="-1.936">
        <ele>1</ele>
        <time>2018-04-23T05:46:17Z</time>
      </trkpt>
      <trkpt lat="46.70157" lon="-1.93532">
        <ele>1</ele>
        <time>2018-04-23T05:47:17Z</time>
      </trkpt>
      <trkpt lat="46.70136" lon="-1.93442">
        <ele>1</ele>
        <time>2018-04-23T05:48:17Z</time>
      </trkpt>
      <trkpt lat="46.70134" lon="-1.93434">
        <ele>1</ele>
        <time>2018-04-23T05:49:17Z</time>
      </trkpt>
      <trkpt lat="46.70132" lon="-1.93425">
        <ele>1</ele>
        <time>2018-04-23T05:50:17Z</time>
      </trkpt>
      <trkpt lat="46.7013" lon="-1.93419">
        <ele>1</ele>
        <time>2018-04-23T05:51:17Z</time>
      </trkpt>
      <trkpt lat="46.70129" lon="-1.93416">
        <ele>1</ele>
        <time>2018-04-23T05:52:17Z</time>
      </trkpt>
      <trkpt lat="46.70128" lon="-1.93414">
        <ele>1</ele>
        <time>2018-04-23T05:53:17Z</time>
      </trkpt>
      <trkpt lat="46.70127" lon="-1.93411">
        <ele>1</ele>
        <time>2018-04-23T05:54:17Z</time>
      </trkpt>
      <trkpt lat="46.70125" lon="-1.93409">
        <ele>1</ele>
        <time>2018-04-23T05:55:17Z</time>
      </trkpt>
      <trkpt lat="46.70125" lon="-1.93409">
        <ele>1</ele>
        <time>2018-04-23T05:56:17Z</time>
      </trkpt>
      <trkpt lat="46.70124" lon="-1.93408">
        <ele>2</ele>
        <time>2018-04-23T05:57:17Z</time>
      </trkpt>
      <trkpt lat="46.70123" lon="-1.93408">
        <ele>2</ele>
        <time>2018-04-23T05:58:17Z</time>
      </trkpt>
      <trkpt lat="46.70122" lon="-1.93407">
        <ele>2</ele>
        <time>2018-04-23T05:59:17Z</time>
      </trkpt>
      <trkpt lat="46.70121" lon="-1.93407">
        <ele>2</ele>
        <time>2018-04-23T06:00:17Z</time>
      </trkpt>
      <trkpt lat="46.7012" lon="-1.93406">
        <ele>2</ele>
        <time>2018-04-23T06:01:17Z</time>
      </trkpt>
      <trkpt lat="46.7012" lon="-1.93405">
        <ele>2</ele>
        <time>2018-04-23T06:02:17Z</time>
      </trkpt>
      <trkpt lat="46.70119" lon="-1.93405">
        <ele>2</ele>
        <time>2018-04-23T06:03:17Z</time>
      </trkpt>
      <trkpt lat="46.70107" lon="-1.93404">
        <ele>2</ele>
        <time>2018-04-23T06:04:17Z</time>
      </trkpt>
      <trkpt lat="46.701" lon="-1.93405">
        <ele>2</ele>
        <time>2018-04-23T06:05:17Z</time>
      </trkpt>
      <trkpt lat="46.70092" lon="-1.93406">
        <ele>2</ele>
        <time>2018-04-23T06:06:17Z</time>
      </trkpt>
      <trkpt lat="46.70088" lon="-1.93406">
        <ele>2</ele>
        <time>2018-04-23T06:07:17Z</time>
      </trkpt>
      <trkpt lat="46.70085" lon="-1.93405">
        <ele>2</ele>
        <time>2018-04-23T06:08:17Z</time>
      </trkpt>
      <trkpt lat="46.70083" lon="-1.93405">
        <ele>2</ele>
        <time>2018-04-23T06:09:17Z</time>
      </trkpt>
      <trkpt lat="46.70062" lon="-1.93405">
        <ele>2</ele>
        <time>2018-04-23T06:10:17Z</time>
      </trkpt>
      <trkpt lat="46.70062" lon="-1.93406">
        <ele>2</ele>
        <time>2018-04-23T06:11:17Z</time>
      </trkpt>
      <trkpt lat="46.70062" lon="-1.93407">
        <ele>2</ele>
        <time>2018-04-23T06:12:17Z</time>
      </trkpt>
      <trkpt lat="46.70062" lon="-1.93408">
        <ele>2</ele>
        <time>2018-04-23T06:13:17Z</time>
      </trkpt>
      <trkpt lat="46.70062" lon="-1.93409">
        <ele>2</ele>
        <time>2018-04-23T06:14:17Z</time>
      </trkpt>
      <trkpt lat="46.70062" lon="-1.9341">
        <ele>2</ele>
        <time>2018-04-23T06:15:17Z</time>
      </trkpt>
      <trkpt lat="46.70061" lon="-1.9341">
        <ele>2</ele>
        <time>2018-04-23T06:16:17Z</time>
      </trkpt>
      <trkpt lat="46.70061" lon="-1.93411">
        <ele>2</ele>
        <time>2018-04-23T06:17:17Z</time>
      </trkpt>
      <trkpt lat="46.7006" lon="-1.93411">
        <ele>2</ele>
        <time>2018-04-23T06:18:17Z</time>
      </trkpt>
      <trkpt lat="46.7006" lon="-1.93412">
        <ele>2</ele>
        <time>2018-04-23T06:19:17Z</time>
      </trkpt>
      <trkpt lat="46.70059" lon="-1.93412">
        <ele>2</ele>
        <time>2018-04-23T06:20:17Z</time>
      </trkpt>
      <trkpt lat="46.70059" lon="-1.93413">
        <ele>2</ele>
        <time>2018-04-23T06:21:17Z</time>
      </trkpt>
      <trkpt lat="46.70058" lon="-1.93413">
        <ele>2</ele>
        <time>2018-04-23T06:22:17Z</time>
      </trkpt>
      <trkpt lat="46.70057" lon="-1.93413">
        <ele>2</ele>
        <time>2018-04-23T06:23:17Z</time>
      </trkpt>
      <trkpt lat="46.70056" lon="-1.93413">
        <ele>2</ele>
        <time>2018-04-23T06:24:17Z</time>
      </trkpt>
      <trkpt lat="46.70055" lon="-1.93413">
        <ele>2</ele>
        <time>2018-04-23T06:25:17Z</time>
      </trkpt>
      <trkpt lat="46.70055" lon="-1.93412">
        <ele>2</ele>
        <time>2018-04-23T06:26:17Z</time>
      </trkpt>
      <trkpt lat="46.70054" lon="-1.93412">
        <ele>2</ele>
        <time>2018-04-23T06:27:17Z</time>
      </trkpt>
      <trkpt lat="46.70054" lon="-1.93411">
        <ele>2</ele>
        <time>2018-04-23T06:28:17Z</time>
      </trkpt>
      <trkpt lat="46.70053" lon="-1.93411">
        <ele>2</ele>
        <time>2018-04-23T06:29:17Z</time>
      </trkpt>
      <trkpt lat="46.70053" lon="-1.9341">
        <ele>2</ele>
        <time>2018-04-23T06:30:17Z</time>
      </trkpt>
      <trkpt lat="46.70053" lon="-1.93409">
        <ele>2</ele>
        <time>2018-04-23T06:31:17Z</time>
      </trkpt>
      <trkpt lat="46.70052" lon="-1.93409">
        <ele>2</ele>
        <time>2018-04-23T06:32:17Z</time>
      </trkpt>
      <trkpt lat="46.70052" lon="-1.93408">
        <ele>2</ele>
        <time>2018-04-23T06:33:17Z</time>
      </trkpt>
      <trkpt lat="46.70052" lon="-1.93407">
        <ele>2</ele>
        <time>2018-04-23T06:34:17Z</time>
      </trkpt>
      <trkpt lat="46.70052" lon="-1.93406">
        <ele>2</ele>
        <time>2018-04-23T06:35:17Z</time>
      </trkpt>
      <trkpt lat="46.70052" lon="-1.93405">
        <ele>2</ele>
        <time>2018-04-23T06:36:17Z</time>
      </trkpt>
      <trkpt lat="46.70046" lon="-1.93402">
        <ele>2</ele>
        <time>2018-04-23T06:37:17Z</time>
      </trkpt>
      <trkpt lat="46.70043" lon="-1.93401">
        <ele>2</ele>
        <time>2018-04-23T06:38:17Z</time>
      </trkpt>
      <trkpt lat="46.70041" lon="-1.934">
        <ele>2</ele>
        <time>2018-04-23T06:39:17Z</time>
      </trkpt>
      <trkpt lat="46.70038" lon="-1.93398">
        <ele>2</ele>
        <time>2018-04-23T06:40:17Z</time>
      </trkpt>
      <trkpt lat="46.70036" lon="-1.93397">
        <ele>2</ele>
        <time>2018-04-23T06:41:17Z</time>
      </trkpt>
      <trkpt lat="46.70033" lon="-1.93394">
        <ele>2</ele>
        <time>2018-04-23T06:42:17Z</time>
      </trkpt>
      <trkpt lat="46.7003" lon="-1.93391">
        <ele>3</ele>
        <time>2018-04-23T06:43:17Z</time>
      </trkpt>
      <trkpt lat="46.70028" lon="-1.93388">
        <ele>3</ele>
        <time>2018-04-23T06:44:17Z</time>
      </trkpt>
      <trkpt lat="46.70025" lon="-1.93386">
        <ele>3</ele>
        <time>2018-04-23T06:45:17Z</time>
      </trkpt>
      <trkpt lat="46.70023" lon="-1.93384">
        <ele>3</ele>
        <time>2018-04-23T06:46:17Z</time>
      </trkpt>
      <trkpt lat="46.7002" lon="-1.93382">
        <ele>3</ele>
        <time>2018-04-23T06:47:17Z</time>
      </trkpt>
      <trkpt lat="46.70015" lon="-1.9338">
        <ele>3</ele>
        <time>2018-04-23T06:48:17Z</time>
      </trkpt>
      <trkpt lat="46.70007" lon="-1.93377">
        <ele>3</ele>
        <time>2018-04-23T06:49:17Z</time>
      </trkpt>
    </trkseg>
  </trk>
</gpx>